<?xml version="1.0" encoding="UTF-8"?><gpx version="1.0" creator="dbj" xmlns="http://www.topografix.com/GPX/1/0"><time>2020-02-02T08:00:32Z</time><bounds minlat="43.74277999" minlon="11.24534704" maxlat="43.76266102" maxlon="11.28381704"/><wpt lat="43.759333994" lon="11.283790972"><name>Start Lat:43.7593, Lon:11.2838</name><sym>Start</sym><ele>53</ele></wpt><trk><trkseg><trkpt lat="43.759333994" lon="11.283790972"><ele>53</ele><time>2020-02-02T08:00:32Z</time></trkpt>
<trkpt lat="43.759321002" lon="11.283762977"><ele>53</ele><time>2020-02-02T08:00:33Z</time></trkpt>
<trkpt lat="43.759307005" lon="11.283734981"><ele>53</ele><time>2020-02-02T08:00:34Z</time></trkpt>
<trkpt lat="43.759289989" lon="11.28370598"><ele>53</ele><time>2020-02-02T08:00:35Z</time></trkpt>
<trkpt lat="43.759270962" lon="11.283676978"><ele>53</ele><time>2020-02-02T08:00:36Z</time></trkpt>
<trkpt lat="43.759250008" lon="11.283646971"><ele>54</ele><time>2020-02-02T08:00:37Z</time></trkpt>
<trkpt lat="43.759227041" lon="11.28361797"><ele>54</ele><time>2020-02-02T08:00:38Z</time></trkpt>
<trkpt lat="43.759202985" lon="11.283587962"><ele>54</ele><time>2020-02-02T08:00:39Z</time></trkpt>
<trkpt lat="43.759177001" lon="11.283558039"><ele>54</ele><time>2020-02-02T08:00:40Z</time></trkpt>
<trkpt lat="43.759150011" lon="11.283529038"><ele>54</ele><time>2020-02-02T08:00:41Z</time></trkpt>
<trkpt lat="43.759123022" lon="11.283500036"><ele>54</ele><time>2020-02-02T08:00:42Z</time></trkpt>
<trkpt lat="43.759095026" lon="11.283472041"><ele>54</ele><time>2020-02-02T08:00:43Z</time></trkpt>
<trkpt lat="43.759066025" lon="11.283444967"><ele>54</ele><time>2020-02-02T08:00:44Z</time></trkpt>
<trkpt lat="43.759037023" lon="11.283419989"><ele>54</ele><time>2020-02-02T08:00:45Z</time></trkpt>
<trkpt lat="43.759008022" lon="11.283395011"><ele>54</ele><time>2020-02-02T08:00:46Z</time></trkpt>
<trkpt lat="43.758979021" lon="11.283371961"><ele>54</ele><time>2020-02-02T08:00:47Z</time></trkpt>
<trkpt lat="43.758951025" lon="11.283351006"><ele>54</ele><time>2020-02-02T08:00:48Z</time></trkpt>
<trkpt lat="43.75892303" lon="11.283330973"><ele>54</ele><time>2020-02-02T08:00:49Z</time></trkpt>
<trkpt lat="43.758896962" lon="11.283313036"><ele>54</ele><time>2020-02-02T08:00:50Z</time></trkpt>
<trkpt lat="43.758875001" lon="11.283291997"><ele>54</ele><time>2020-02-02T08:00:51Z</time></trkpt>
<trkpt lat="43.758861003" lon="11.283267019"><ele>54</ele><time>2020-02-02T08:00:52Z</time></trkpt>
<trkpt lat="43.758847006" lon="11.283245981"><ele>54</ele><time>2020-02-02T08:00:53Z</time></trkpt>
<trkpt lat="43.758833008" lon="11.283226032"><ele>54</ele><time>2020-02-02T08:00:54Z</time></trkpt>
<trkpt lat="43.758820016" lon="11.283198036"><ele>54</ele><time>2020-02-02T08:00:55Z</time></trkpt>
<trkpt lat="43.758809036" lon="11.283164006"><ele>54</ele><time>2020-02-02T08:00:56Z</time></trkpt>
<trkpt lat="43.758797972" lon="11.283127042"><ele>54</ele><time>2020-02-02T08:00:57Z</time></trkpt>
<trkpt lat="43.758787997" lon="11.283086976"><ele>54</ele><time>2020-02-02T08:00:58Z</time></trkpt>
<trkpt lat="43.758778023" lon="11.283049006"><ele>54</ele><time>2020-02-02T08:00:59Z</time></trkpt>
<trkpt lat="43.758767964" lon="11.283012042"><ele>54</ele><time>2020-02-02T08:01:00Z</time></trkpt>
<trkpt lat="43.758756984" lon="11.282976"><ele>54</ele><time>2020-02-02T08:01:01Z</time></trkpt>
<trkpt lat="43.75874701" lon="11.282939035"><ele>55</ele><time>2020-02-02T08:01:02Z</time></trkpt>
<trkpt lat="43.758737035" lon="11.282902993"><ele>55</ele><time>2020-02-02T08:01:03Z</time></trkpt>
<trkpt lat="43.758727983" lon="11.282866029"><ele>55</ele><time>2020-02-02T08:01:04Z</time></trkpt>
<trkpt lat="43.758718008" lon="11.282827975"><ele>55</ele><time>2020-02-02T08:01:05Z</time></trkpt>
<trkpt lat="43.75870904" lon="11.282788999"><ele>55</ele><time>2020-02-02T08:01:06Z</time></trkpt>
<trkpt lat="43.758700993" lon="11.282748012"><ele>55</ele><time>2020-02-02T08:01:07Z</time></trkpt>
<trkpt lat="43.75869303" lon="11.282706019"><ele>55</ele><time>2020-02-02T08:01:08Z</time></trkpt>
<trkpt lat="43.758684983" lon="11.282662014"><ele>55</ele><time>2020-02-02T08:01:09Z</time></trkpt>
<trkpt lat="43.758677021" lon="11.282617003"><ele>55</ele><time>2020-02-02T08:01:10Z</time></trkpt>
<trkpt lat="43.75866998" lon="11.282571992"><ele>55</ele><time>2020-02-02T08:01:11Z</time></trkpt>
<trkpt lat="43.758663023" lon="11.282525975"><ele>55</ele><time>2020-02-02T08:01:12Z</time></trkpt>
<trkpt lat="43.758654976" lon="11.282479959"><ele>55</ele><time>2020-02-02T08:01:13Z</time></trkpt>
<trkpt lat="43.758647013" lon="11.282436037"><ele>55</ele><time>2020-02-02T08:01:14Z</time></trkpt>
<trkpt lat="43.758638967" lon="11.282392032"><ele>55</ele><time>2020-02-02T08:01:15Z</time></trkpt>
<trkpt lat="43.758629998" lon="11.282350039"><ele>55</ele><time>2020-02-02T08:01:16Z</time></trkpt>
<trkpt lat="43.758620024" lon="11.282309974"><ele>55</ele><time>2020-02-02T08:01:17Z</time></trkpt>
<trkpt lat="43.758609965" lon="11.282270998"><ele>55</ele><time>2020-02-02T08:01:18Z</time></trkpt>
<trkpt lat="43.758599991" lon="11.282233028"><ele>55</ele><time>2020-02-02T08:01:19Z</time></trkpt>
<trkpt lat="43.758590017" lon="11.282193968"><ele>56</ele><time>2020-02-02T08:01:20Z</time></trkpt>
<trkpt lat="43.758580964" lon="11.282154992"><ele>56</ele><time>2020-02-02T08:01:21Z</time></trkpt>
<trkpt lat="43.758573001" lon="11.282115011"><ele>56</ele><time>2020-02-02T08:01:22Z</time></trkpt>
<trkpt lat="43.758565038" lon="11.282074023"><ele>56</ele><time>2020-02-02T08:01:23Z</time></trkpt>
<trkpt lat="43.758556992" lon="11.282033036"><ele>56</ele><time>2020-02-02T08:01:24Z</time></trkpt>
<trkpt lat="43.758548023" lon="11.281993976"><ele>56</ele><time>2020-02-02T08:01:25Z</time></trkpt>
<trkpt lat="43.758519022" lon="11.281887023"><ele>56</ele><time>2020-02-02T08:01:28Z</time></trkpt>
<trkpt lat="43.758508964" lon="11.281849975"><ele>56</ele><time>2020-02-02T08:01:29Z</time></trkpt>
<trkpt lat="43.758501001" lon="11.281809993"><ele>56</ele><time>2020-02-02T08:01:30Z</time></trkpt>
<trkpt lat="43.75848298" lon="11.281672027"><ele>56</ele><time>2020-02-02T08:01:33Z</time></trkpt>
<trkpt lat="43.75847904" lon="11.28162601"><ele>56</ele><time>2020-02-02T08:01:34Z</time></trkpt>
<trkpt lat="43.758475017" lon="11.281582005"><ele>56</ele><time>2020-02-02T08:01:35Z</time></trkpt>
<trkpt lat="43.758470993" lon="11.281541018"><ele>56</ele><time>2020-02-02T08:01:36Z</time></trkpt>
<trkpt lat="43.758464959" lon="11.281501036"><ele>57</ele><time>2020-02-02T08:01:37Z</time></trkpt>
<trkpt lat="43.758454984" lon="11.281461976"><ele>57</ele><time>2020-02-02T08:01:38Z</time></trkpt>
<trkpt lat="43.758441992" lon="11.281421995"><ele>57</ele><time>2020-02-02T08:01:39Z</time></trkpt>
<trkpt lat="43.758425983" lon="11.281383019"><ele>57</ele><time>2020-02-02T08:01:40Z</time></trkpt>
<trkpt lat="43.758407962" lon="11.281344965"><ele>56</ele><time>2020-02-02T08:01:41Z</time></trkpt>
<trkpt lat="43.758388013" lon="11.281306995"><ele>56</ele><time>2020-02-02T08:01:42Z</time></trkpt>
<trkpt lat="43.758366974" lon="11.281271037"><ele>56</ele><time>2020-02-02T08:01:43Z</time></trkpt>
<trkpt lat="43.758346019" lon="11.281234995"><ele>56</ele><time>2020-02-02T08:01:44Z</time></trkpt>
<trkpt lat="43.758323975" lon="11.281200964"><ele>56</ele><time>2020-02-02T08:01:45Z</time></trkpt>
<trkpt lat="43.758301008" lon="11.281168023"><ele>56</ele><time>2020-02-02T08:01:46Z</time></trkpt>
<trkpt lat="43.758277958" lon="11.281136004"><ele>56</ele><time>2020-02-02T08:01:47Z</time></trkpt>
<trkpt lat="43.758253986" lon="11.281105997"><ele>56</ele><time>2020-02-02T08:01:48Z</time></trkpt>
<trkpt lat="43.758229008" lon="11.281076996"><ele>56</ele><time>2020-02-02T08:01:49Z</time></trkpt>
<trkpt lat="43.758203024" lon="11.281049"><ele>56</ele><time>2020-02-02T08:01:50Z</time></trkpt>
<trkpt lat="43.75817704" lon="11.281023016"><ele>56</ele><time>2020-02-02T08:01:51Z</time></trkpt>
<trkpt lat="43.758148961" lon="11.280998038"><ele>56</ele><time>2020-02-02T08:01:52Z</time></trkpt>
<trkpt lat="43.758119959" lon="11.280974988"><ele>56</ele><time>2020-02-02T08:01:53Z</time></trkpt>
<trkpt lat="43.758091042" lon="11.280952021"><ele>56</ele><time>2020-02-02T08:01:54Z</time></trkpt>
<trkpt lat="43.75806204" lon="11.280930983"><ele>56</ele><time>2020-02-02T08:01:55Z</time></trkpt>
<trkpt lat="43.758032033" lon="11.280910028"><ele>56</ele><time>2020-02-02T08:01:56Z</time></trkpt>
<trkpt lat="43.758002026" lon="11.280889995"><ele>56</ele><time>2020-02-02T08:01:57Z</time></trkpt>
<trkpt lat="43.757971013" lon="11.280869963"><ele>56</ele><time>2020-02-02T08:01:58Z</time></trkpt>
<trkpt lat="43.757941006" lon="11.280850014"><ele>57</ele><time>2020-02-02T08:01:59Z</time></trkpt>
<trkpt lat="43.757912004" lon="11.280829981"><ele>57</ele><time>2020-02-02T08:02:00Z</time></trkpt>
<trkpt lat="43.757883003" lon="11.280810032"><ele>57</ele><time>2020-02-02T08:02:01Z</time></trkpt>
<trkpt lat="43.757854002" lon="11.280789999"><ele>57</ele><time>2020-02-02T08:02:02Z</time></trkpt>
<trkpt lat="43.757826006" lon="11.280768961"><ele>57</ele><time>2020-02-02T08:02:03Z</time></trkpt>
<trkpt lat="43.75779801" lon="11.280748006"><ele>57</ele><time>2020-02-02T08:02:04Z</time></trkpt>
<trkpt lat="43.757770015" lon="11.280726967"><ele>57</ele><time>2020-02-02T08:02:05Z</time></trkpt>
<trkpt lat="43.757743025" lon="11.280706013"><ele>57</ele><time>2020-02-02T08:02:06Z</time></trkpt>
<trkpt lat="43.757661972" lon="11.280640969"><ele>56</ele><time>2020-02-02T08:02:09Z</time></trkpt>
<trkpt lat="43.757634982" lon="11.280619008"><ele>56</ele><time>2020-02-02T08:02:10Z</time></trkpt>
<trkpt lat="43.757608999" lon="11.280595958"><ele>56</ele><time>2020-02-02T08:02:11Z</time></trkpt>
<trkpt lat="43.757582009" lon="11.280573998"><ele>56</ele><time>2020-02-02T08:02:12Z</time></trkpt>
<trkpt lat="43.757556025" lon="11.280552037"><ele>56</ele><time>2020-02-02T08:02:13Z</time></trkpt>
<trkpt lat="43.757529035" lon="11.280529993"><ele>56</ele><time>2020-02-02T08:02:14Z</time></trkpt>
<trkpt lat="43.757502967" lon="11.280507026"><ele>56</ele><time>2020-02-02T08:02:15Z</time></trkpt>
<trkpt lat="43.757475978" lon="11.280484982"><ele>56</ele><time>2020-02-02T08:02:16Z</time></trkpt>
<trkpt lat="43.757448988" lon="11.280462015"><ele>56</ele><time>2020-02-02T08:02:17Z</time></trkpt>
<trkpt lat="43.757421998" lon="11.280439971"><ele>56</ele><time>2020-02-02T08:02:18Z</time></trkpt>
<trkpt lat="43.757395009" lon="11.280417005"><ele>56</ele><time>2020-02-02T08:02:19Z</time></trkpt>
<trkpt lat="43.757368019" lon="11.28039496"><ele>56</ele><time>2020-02-02T08:02:20Z</time></trkpt>
<trkpt lat="43.757340023" lon="11.280373"><ele>56</ele><time>2020-02-02T08:02:21Z</time></trkpt>
<trkpt lat="43.757312028" lon="11.280351039"><ele>56</ele><time>2020-02-02T08:02:22Z</time></trkpt>
<trkpt lat="43.757284032" lon="11.28033"><ele>56</ele><time>2020-02-02T08:02:23Z</time></trkpt>
<trkpt lat="43.757256037" lon="11.280308962"><ele>55</ele><time>2020-02-02T08:02:24Z</time></trkpt>
<trkpt lat="43.757228041" lon="11.280289013"><ele>55</ele><time>2020-02-02T08:02:25Z</time></trkpt>
<trkpt lat="43.757199962" lon="11.28026898"><ele>55</ele><time>2020-02-02T08:02:26Z</time></trkpt>
<trkpt lat="43.75717096" lon="11.280250037"><ele>55</ele><time>2020-02-02T08:02:27Z</time></trkpt>
<trkpt lat="43.757142965" lon="11.280232016"><ele>55</ele><time>2020-02-02T08:02:28Z</time></trkpt>
<trkpt lat="43.757113963" lon="11.280213995"><ele>55</ele><time>2020-02-02T08:02:29Z</time></trkpt>
<trkpt lat="43.757084962" lon="11.28019698"><ele>55</ele><time>2020-02-02T08:02:30Z</time></trkpt>
<trkpt lat="43.757056966" lon="11.280179964"><ele>55</ele><time>2020-02-02T08:02:31Z</time></trkpt>
<trkpt lat="43.757027965" lon="11.280163033"><ele>55</ele><time>2020-02-02T08:02:32Z</time></trkpt>
<trkpt lat="43.756998964" lon="11.280146018"><ele>55</ele><time>2020-02-02T08:02:33Z</time></trkpt>
<trkpt lat="43.756970968" lon="11.280130008"><ele>55</ele><time>2020-02-02T08:02:34Z</time></trkpt>
<trkpt lat="43.756941967" lon="11.280112993"><ele>55</ele><time>2020-02-02T08:02:35Z</time></trkpt>
<trkpt lat="43.756913971" lon="11.280095978"><ele>55</ele><time>2020-02-02T08:02:36Z</time></trkpt>
<trkpt lat="43.756885976" lon="11.280078962"><ele>55</ele><time>2020-02-02T08:02:37Z</time></trkpt>
<trkpt lat="43.756856974" lon="11.280062031"><ele>55</ele><time>2020-02-02T08:02:38Z</time></trkpt>
<trkpt lat="43.756828979" lon="11.280045016"><ele>55</ele><time>2020-02-02T08:02:39Z</time></trkpt>
<trkpt lat="43.756800983" lon="11.280029006"><ele>55</ele><time>2020-02-02T08:02:40Z</time></trkpt>
<trkpt lat="43.756772988" lon="11.280011991"><ele>55</ele><time>2020-02-02T08:02:41Z</time></trkpt>
<trkpt lat="43.756744992" lon="11.279995982"><ele>55</ele><time>2020-02-02T08:02:42Z</time></trkpt>
<trkpt lat="43.756718002" lon="11.279980978"><ele>55</ele><time>2020-02-02T08:02:43Z</time></trkpt>
<trkpt lat="43.756690007" lon="11.279965974"><ele>55</ele><time>2020-02-02T08:02:44Z</time></trkpt>
<trkpt lat="43.756662011" lon="11.279950971"><ele>55</ele><time>2020-02-02T08:02:45Z</time></trkpt>
<trkpt lat="43.756634016" lon="11.279936973"><ele>55</ele><time>2020-02-02T08:02:46Z</time></trkpt>
<trkpt lat="43.75660602" lon="11.279923981"><ele>56</ele><time>2020-02-02T08:02:47Z</time></trkpt>
<trkpt lat="43.756578024" lon="11.279909983"><ele>56</ele><time>2020-02-02T08:02:48Z</time></trkpt>
<trkpt lat="43.756550029" lon="11.279896991"><ele>56</ele><time>2020-02-02T08:02:49Z</time></trkpt>
<trkpt lat="43.756522033" lon="11.279882994"><ele>56</ele><time>2020-02-02T08:02:50Z</time></trkpt>
<trkpt lat="43.756494038" lon="11.279868996"><ele>56</ele><time>2020-02-02T08:02:51Z</time></trkpt>
<trkpt lat="43.756465958" lon="11.279853992"><ele>56</ele><time>2020-02-02T08:02:52Z</time></trkpt>
<trkpt lat="43.756437963" lon="11.279837983"><ele>57</ele><time>2020-02-02T08:02:53Z</time></trkpt>
<trkpt lat="43.756409967" lon="11.279821973"><ele>57</ele><time>2020-02-02T08:02:54Z</time></trkpt>
<trkpt lat="43.756382978" lon="11.279805042"><ele>57</ele><time>2020-02-02T08:02:55Z</time></trkpt>
<trkpt lat="43.756355988" lon="11.279787021"><ele>57</ele><time>2020-02-02T08:02:56Z</time></trkpt>
<trkpt lat="43.756328998" lon="11.279767994"><ele>57</ele><time>2020-02-02T08:02:57Z</time></trkpt>
<trkpt lat="43.756303014" lon="11.279747961"><ele>58</ele><time>2020-02-02T08:02:58Z</time></trkpt>
<trkpt lat="43.75627703" lon="11.279727006"><ele>58</ele><time>2020-02-02T08:02:59Z</time></trkpt>
<trkpt lat="43.756251968" lon="11.279704962"><ele>58</ele><time>2020-02-02T08:03:00Z</time></trkpt>
<trkpt lat="43.75622699" lon="11.279683001"><ele>58</ele><time>2020-02-02T08:03:01Z</time></trkpt>
<trkpt lat="43.756204024" lon="11.279659029"><ele>59</ele><time>2020-02-02T08:03:02Z</time></trkpt>
<trkpt lat="43.756180974" lon="11.279633967"><ele>59</ele><time>2020-02-02T08:03:03Z</time></trkpt>
<trkpt lat="43.756159013" lon="11.279608989"><ele>59</ele><time>2020-02-02T08:03:04Z</time></trkpt>
<trkpt lat="43.756136969" lon="11.279581999"><ele>59</ele><time>2020-02-02T08:03:05Z</time></trkpt>
<trkpt lat="43.75611702" lon="11.279554004"><ele>60</ele><time>2020-02-02T08:03:06Z</time></trkpt>
<trkpt lat="43.756098999" lon="11.279525002"><ele>60</ele><time>2020-02-02T08:03:07Z</time></trkpt>
<trkpt lat="43.756080978" lon="11.279494995"><ele>60</ele><time>2020-02-02T08:03:08Z</time></trkpt>
<trkpt lat="43.756063962" lon="11.279463982"><ele>61</ele><time>2020-02-02T08:03:09Z</time></trkpt>
<trkpt lat="43.756048959" lon="11.279431041"><ele>61</ele><time>2020-02-02T08:03:10Z</time></trkpt>
<trkpt lat="43.756035967" lon="11.279398017"><ele>61</ele><time>2020-02-02T08:03:11Z</time></trkpt>
<trkpt lat="43.756022975" lon="11.27936298"><ele>61</ele><time>2020-02-02T08:03:12Z</time></trkpt>
<trkpt lat="43.756011995" lon="11.279328028"><ele>62</ele><time>2020-02-02T08:03:13Z</time></trkpt>
<trkpt lat="43.756001014" lon="11.279291986"><ele>62</ele><time>2020-02-02T08:03:14Z</time></trkpt>
<trkpt lat="43.75599104" lon="11.279256027"><ele>62</ele><time>2020-02-02T08:03:15Z</time></trkpt>
<trkpt lat="43.755980982" lon="11.279218979"><ele>63</ele><time>2020-02-02T08:03:16Z</time></trkpt>
<trkpt lat="43.755971007" lon="11.279183021"><ele>63</ele><time>2020-02-02T08:03:17Z</time></trkpt>
<trkpt lat="43.755961033" lon="11.279146979"><ele>63</ele><time>2020-02-02T08:03:18Z</time></trkpt>
<trkpt lat="43.755949968" lon="11.27911102"><ele>64</ele><time>2020-02-02T08:03:19Z</time></trkpt>
<trkpt lat="43.755939994" lon="11.279075984"><ele>64</ele><time>2020-02-02T08:03:20Z</time></trkpt>
<trkpt lat="43.755928008" lon="11.279042037"><ele>65</ele><time>2020-02-02T08:03:21Z</time></trkpt>
<trkpt lat="43.755917028" lon="11.279008007"><ele>65</ele><time>2020-02-02T08:03:22Z</time></trkpt>
<trkpt lat="43.755905963" lon="11.278975988"><ele>66</ele><time>2020-02-02T08:03:23Z</time></trkpt>
<trkpt lat="43.755895989" lon="11.278942963"><ele>66</ele><time>2020-02-02T08:03:24Z</time></trkpt>
<trkpt lat="43.755871011" lon="11.278850008"><ele>68</ele><time>2020-02-02T08:03:27Z</time></trkpt>
<trkpt lat="43.755865982" lon="11.278821006"><ele>68</ele><time>2020-02-02T08:03:28Z</time></trkpt>
<trkpt lat="43.755862964" lon="11.278792005"><ele>68</ele><time>2020-02-02T08:03:29Z</time></trkpt>
<trkpt lat="43.75586397" lon="11.278764009"><ele>69</ele><time>2020-02-02T08:03:30Z</time></trkpt>
<trkpt lat="43.755868999" lon="11.27873702"><ele>69</ele><time>2020-02-02T08:03:31Z</time></trkpt>
<trkpt lat="43.755878974" lon="11.278712964"><ele>69</ele><time>2020-02-02T08:03:32Z</time></trkpt>
<trkpt lat="43.755896995" lon="11.278692009"><ele>69</ele><time>2020-02-02T08:03:33Z</time></trkpt>
<trkpt lat="43.755921973" lon="11.278672982"><ele>69</ele><time>2020-02-02T08:03:34Z</time></trkpt>
<trkpt lat="43.755953992" lon="11.278656973"><ele>69</ele><time>2020-02-02T08:03:35Z</time></trkpt>
<trkpt lat="43.755989028" lon="11.278640963"><ele>69</ele><time>2020-02-02T08:03:36Z</time></trkpt>
<trkpt lat="43.756025992" lon="11.278625038"><ele>69</ele><time>2020-02-02T08:03:37Z</time></trkpt>
<trkpt lat="43.756133029" lon="11.278567035"><ele>69</ele><time>2020-02-02T08:03:40Z</time></trkpt>
<trkpt lat="43.756166976" lon="11.27854499"><ele>69</ele><time>2020-02-02T08:03:41Z</time></trkpt>
<trkpt lat="43.756201006" lon="11.278524036"><ele>69</ele><time>2020-02-02T08:03:42Z</time></trkpt>
<trkpt lat="43.756234031" lon="11.278501991"><ele>69</ele><time>2020-02-02T08:03:43Z</time></trkpt>
<trkpt lat="43.756265966" lon="11.278480031"><ele>69</ele><time>2020-02-02T08:03:44Z</time></trkpt>
<trkpt lat="43.756296979" lon="11.278458992"><ele>69</ele><time>2020-02-02T08:03:45Z</time></trkpt>
<trkpt lat="43.756327992" lon="11.278438959"><ele>69</ele><time>2020-02-02T08:03:46Z</time></trkpt>
<trkpt lat="43.756358" lon="11.278420016"><ele>69</ele><time>2020-02-02T08:03:47Z</time></trkpt>
<trkpt lat="43.756387001" lon="11.278401995"><ele>69</ele><time>2020-02-02T08:03:48Z</time></trkpt>
<trkpt lat="43.756414996" lon="11.27838498"><ele>69</ele><time>2020-02-02T08:03:49Z</time></trkpt>
<trkpt lat="43.756443998" lon="11.278369976"><ele>69</ele><time>2020-02-02T08:03:50Z</time></trkpt>
<trkpt lat="43.756470988" lon="11.278354973"><ele>68</ele><time>2020-02-02T08:03:51Z</time></trkpt>
<trkpt lat="43.756497977" lon="11.278339969"><ele>68</ele><time>2020-02-02T08:03:52Z</time></trkpt>
<trkpt lat="43.756524967" lon="11.278326977"><ele>68</ele><time>2020-02-02T08:03:53Z</time></trkpt>
<trkpt lat="43.756552041" lon="11.278312979"><ele>69</ele><time>2020-02-02T08:03:54Z</time></trkpt>
<trkpt lat="43.756578024" lon="11.278299987"><ele>69</ele><time>2020-02-02T08:03:55Z</time></trkpt>
<trkpt lat="43.756605014" lon="11.278286995"><ele>69</ele><time>2020-02-02T08:03:56Z</time></trkpt>
<trkpt lat="43.756630998" lon="11.278274003"><ele>69</ele><time>2020-02-02T08:03:57Z</time></trkpt>
<trkpt lat="43.756656982" lon="11.278262017"><ele>70</ele><time>2020-02-02T08:03:58Z</time></trkpt>
<trkpt lat="43.75668196" lon="11.278249025"><ele>70</ele><time>2020-02-02T08:03:59Z</time></trkpt>
<trkpt lat="43.756708028" lon="11.278236033"><ele>70</ele><time>2020-02-02T08:04:00Z</time></trkpt>
<trkpt lat="43.756733006" lon="11.278223963"><ele>71</ele><time>2020-02-02T08:04:01Z</time></trkpt>
<trkpt lat="43.756757984" lon="11.278210972"><ele>71</ele><time>2020-02-02T08:04:02Z</time></trkpt>
<trkpt lat="43.756828979" lon="11.278173001"><ele>72</ele><time>2020-02-02T08:04:05Z</time></trkpt>
<trkpt lat="43.756853035" lon="11.278159004"><ele>72</ele><time>2020-02-02T08:04:06Z</time></trkpt>
<trkpt lat="43.756876001" lon="11.278146012"><ele>73</ele><time>2020-02-02T08:04:07Z</time></trkpt>
<trkpt lat="43.756943978" lon="11.278105024"><ele>74</ele><time>2020-02-02T08:04:10Z</time></trkpt>
<trkpt lat="43.756967029" lon="11.278090021"><ele>74</ele><time>2020-02-02T08:04:11Z</time></trkpt>
<trkpt lat="43.756989995" lon="11.278076023"><ele>74</ele><time>2020-02-02T08:04:12Z</time></trkpt>
<trkpt lat="43.757012961" lon="11.278061019"><ele>75</ele><time>2020-02-02T08:04:13Z</time></trkpt>
<trkpt lat="43.757037017" lon="11.278046016"><ele>75</ele><time>2020-02-02T08:04:14Z</time></trkpt>
<trkpt lat="43.75706099" lon="11.278030006"><ele>75</ele><time>2020-02-02T08:04:15Z</time></trkpt>
<trkpt lat="43.757084962" lon="11.278013997"><ele>76</ele><time>2020-02-02T08:04:16Z</time></trkpt>
<trkpt lat="43.757110024" lon="11.277997987"><ele>76</ele><time>2020-02-02T08:04:17Z</time></trkpt>
<trkpt lat="43.757136008" lon="11.277980972"><ele>77</ele><time>2020-02-02T08:04:18Z</time></trkpt>
<trkpt lat="43.757215971" lon="11.277929004"><ele>78</ele><time>2020-02-02T08:04:21Z</time></trkpt>
<trkpt lat="43.757244973" lon="11.277909977"><ele>78</ele><time>2020-02-02T08:04:22Z</time></trkpt>
<trkpt lat="43.757273974" lon="11.277891034"><ele>78</ele><time>2020-02-02T08:04:23Z</time></trkpt>
<trkpt lat="43.757303981" lon="11.277872007"><ele>79</ele><time>2020-02-02T08:04:24Z</time></trkpt>
<trkpt lat="43.757333988" lon="11.277853986"><ele>79</ele><time>2020-02-02T08:04:25Z</time></trkpt>
<trkpt lat="43.757363996" lon="11.277834959"><ele>79</ele><time>2020-02-02T08:04:26Z</time></trkpt>
<trkpt lat="43.757395009" lon="11.277817022"><ele>79</ele><time>2020-02-02T08:04:27Z</time></trkpt>
<trkpt lat="43.757425016" lon="11.277800007"><ele>80</ele><time>2020-02-02T08:04:28Z</time></trkpt>
<trkpt lat="43.757455023" lon="11.277783997"><ele>80</ele><time>2020-02-02T08:04:29Z</time></trkpt>
<trkpt lat="43.757484024" lon="11.277768994"><ele>80</ele><time>2020-02-02T08:04:30Z</time></trkpt>
<trkpt lat="43.757513026" lon="11.277754996"><ele>80</ele><time>2020-02-02T08:04:31Z</time></trkpt>
<trkpt lat="43.757541021" lon="11.277742004"><ele>80</ele><time>2020-02-02T08:04:32Z</time></trkpt>
<trkpt lat="43.757569017" lon="11.277730018"><ele>81</ele><time>2020-02-02T08:04:33Z</time></trkpt>
<trkpt lat="43.757596007" lon="11.277719038"><ele>81</ele><time>2020-02-02T08:04:34Z</time></trkpt>
<trkpt lat="43.757621991" lon="11.277708979"><ele>81</ele><time>2020-02-02T08:04:35Z</time></trkpt>
<trkpt lat="43.757647974" lon="11.277700011"><ele>81</ele><time>2020-02-02T08:04:36Z</time></trkpt>
<trkpt lat="43.757673958" lon="11.277690958"><ele>81</ele><time>2020-02-02T08:04:37Z</time></trkpt>
<trkpt lat="43.75769902" lon="11.27768199"><ele>81</ele><time>2020-02-02T08:04:38Z</time></trkpt>
<trkpt lat="43.757723998" lon="11.277673021"><ele>81</ele><time>2020-02-02T08:04:39Z</time></trkpt>
<trkpt lat="43.757748976" lon="11.277664974"><ele>81</ele><time>2020-02-02T08:04:40Z</time></trkpt>
<trkpt lat="43.757774038" lon="11.277656006"><ele>81</ele><time>2020-02-02T08:04:41Z</time></trkpt>
<trkpt lat="43.75779801" lon="11.277647037"><ele>81</ele><time>2020-02-02T08:04:42Z</time></trkpt>
<trkpt lat="43.757822989" lon="11.277636979"><ele>81</ele><time>2020-02-02T08:04:43Z</time></trkpt>
<trkpt lat="43.757847967" lon="11.277625998"><ele>81</ele><time>2020-02-02T08:04:44Z</time></trkpt>
<trkpt lat="43.757874034" lon="11.277615018"><ele>81</ele><time>2020-02-02T08:04:45Z</time></trkpt>
<trkpt lat="43.757900018" lon="11.277605966"><ele>82</ele><time>2020-02-02T08:04:46Z</time></trkpt>
<trkpt lat="43.757928014" lon="11.277598003"><ele>81</ele><time>2020-02-02T08:04:47Z</time></trkpt>
<trkpt lat="43.757956009" lon="11.277592974"><ele>81</ele><time>2020-02-02T08:04:48Z</time></trkpt>
<trkpt lat="43.757985011" lon="11.27759004"><ele>81</ele><time>2020-02-02T08:04:49Z</time></trkpt>
<trkpt lat="43.758015018" lon="11.277588028"><ele>81</ele><time>2020-02-02T08:04:50Z</time></trkpt>
<trkpt lat="43.758045025" lon="11.277585011"><ele>81</ele><time>2020-02-02T08:04:51Z</time></trkpt>
<trkpt lat="43.758074027" lon="11.277581993"><ele>81</ele><time>2020-02-02T08:04:52Z</time></trkpt>
<trkpt lat="43.758104034" lon="11.277576964"><ele>81</ele><time>2020-02-02T08:04:53Z</time></trkpt>
<trkpt lat="43.758133035" lon="11.277570007"><ele>81</ele><time>2020-02-02T08:04:54Z</time></trkpt>
<trkpt lat="43.758162037" lon="11.277563972"><ele>80</ele><time>2020-02-02T08:04:55Z</time></trkpt>
<trkpt lat="43.758190032" lon="11.277558021"><ele>80</ele><time>2020-02-02T08:04:56Z</time></trkpt>
<trkpt lat="43.758218028" lon="11.277552992"><ele>80</ele><time>2020-02-02T08:04:57Z</time></trkpt>
<trkpt lat="43.758273013" lon="11.277547963"><ele>80</ele><time>2020-02-02T08:04:59Z</time></trkpt>
<trkpt lat="43.758300003" lon="11.277547963"><ele>80</ele><time>2020-02-02T08:05:00Z</time></trkpt>
<trkpt lat="43.758326992" lon="11.277548969"><ele>79</ele><time>2020-02-02T08:05:01Z</time></trkpt>
<trkpt lat="43.758352976" lon="11.277551986"><ele>79</ele><time>2020-02-02T08:05:02Z</time></trkpt>
<trkpt lat="43.758379966" lon="11.277555004"><ele>80</ele><time>2020-02-02T08:05:03Z</time></trkpt>
<trkpt lat="43.758406034" lon="11.277560033"><ele>80</ele><time>2020-02-02T08:05:04Z</time></trkpt>
<trkpt lat="43.758432018" lon="11.277564978"><ele>80</ele><time>2020-02-02T08:05:05Z</time></trkpt>
<trkpt lat="43.758458002" lon="11.277571013"><ele>80</ele><time>2020-02-02T08:05:06Z</time></trkpt>
<trkpt lat="43.758481974" lon="11.277575959"><ele>80</ele><time>2020-02-02T08:05:07Z</time></trkpt>
<trkpt lat="43.758505024" lon="11.27757797"><ele>80</ele><time>2020-02-02T08:05:08Z</time></trkpt>
<trkpt lat="43.758524973" lon="11.277575037"><ele>80</ele><time>2020-02-02T08:05:09Z</time></trkpt>
<trkpt lat="43.758541988" lon="11.277565984"><ele>80</ele><time>2020-02-02T08:05:10Z</time></trkpt>
<trkpt lat="43.75855498" lon="11.277549975"><ele>81</ele><time>2020-02-02T08:05:11Z</time></trkpt>
<trkpt lat="43.758564033" lon="11.27752902"><ele>81</ele><time>2020-02-02T08:05:12Z</time></trkpt>
<trkpt lat="43.758569984" lon="11.277503036"><ele>81</ele><time>2020-02-02T08:05:13Z</time></trkpt>
<trkpt lat="43.758573001" lon="11.277472023"><ele>81</ele><time>2020-02-02T08:05:14Z</time></trkpt>
<trkpt lat="43.758573001" lon="11.277437992"><ele>81</ele><time>2020-02-02T08:05:15Z</time></trkpt>
<trkpt lat="43.758569984" lon="11.277402034"><ele>81</ele><time>2020-02-02T08:05:16Z</time></trkpt>
<trkpt lat="43.758564033" lon="11.27736398"><ele>81</ele><time>2020-02-02T08:05:17Z</time></trkpt>
<trkpt lat="43.75855498" lon="11.277325004"><ele>81</ele><time>2020-02-02T08:05:18Z</time></trkpt>
<trkpt lat="43.758545006" lon="11.277287034"><ele>82</ele><time>2020-02-02T08:05:19Z</time></trkpt>
<trkpt lat="43.758532014" lon="11.277249986"><ele>82</ele><time>2020-02-02T08:05:20Z</time></trkpt>
<trkpt lat="43.75851701" lon="11.277215034"><ele>82</ele><time>2020-02-02T08:05:21Z</time></trkpt>
<trkpt lat="43.758480968" lon="11.277156025"><ele>82</ele><time>2020-02-02T08:05:23Z</time></trkpt>
<trkpt lat="43.758461019" lon="11.277130963"><ele>82</ele><time>2020-02-02T08:05:24Z</time></trkpt>
<trkpt lat="43.75843998" lon="11.277110009"><ele>82</ele><time>2020-02-02T08:05:25Z</time></trkpt>
<trkpt lat="43.75841802" lon="11.277089976"><ele>82</ele><time>2020-02-02T08:05:26Z</time></trkpt>
<trkpt lat="43.75839497" lon="11.277072039"><ele>82</ele><time>2020-02-02T08:05:27Z</time></trkpt>
<trkpt lat="43.758370997" lon="11.277054017"><ele>82</ele><time>2020-02-02T08:05:28Z</time></trkpt>
<trkpt lat="43.758348031" lon="11.277035996"><ele>82</ele><time>2020-02-02T08:05:29Z</time></trkpt>
<trkpt lat="43.758323975" lon="11.277017975"><ele>82</ele><time>2020-02-02T08:05:30Z</time></trkpt>
<trkpt lat="43.758301008" lon="11.276998026"><ele>83</ele><time>2020-02-02T08:05:31Z</time></trkpt>
<trkpt lat="43.758277958" lon="11.276975982"><ele>83</ele><time>2020-02-02T08:05:32Z</time></trkpt>
<trkpt lat="43.758254992" lon="11.27695201"><ele>84</ele><time>2020-02-02T08:05:33Z</time></trkpt>
<trkpt lat="43.758234037" lon="11.276926026"><ele>84</ele><time>2020-02-02T08:05:34Z</time></trkpt>
<trkpt lat="43.758176034" lon="11.276838016"><ele>85</ele><time>2020-02-02T08:05:37Z</time></trkpt>
<trkpt lat="43.758160025" lon="11.276805997"><ele>86</ele><time>2020-02-02T08:05:38Z</time></trkpt>
<trkpt lat="43.758145021" lon="11.276771966"><ele>86</ele><time>2020-02-02T08:05:39Z</time></trkpt>
<trkpt lat="43.758132029" lon="11.27673802"><ele>87</ele><time>2020-02-02T08:05:40Z</time></trkpt>
<trkpt lat="43.758120965" lon="11.276702983"><ele>87</ele><time>2020-02-02T08:05:41Z</time></trkpt>
<trkpt lat="43.758110991" lon="11.276666019"><ele>87</ele><time>2020-02-02T08:05:42Z</time></trkpt>
<trkpt lat="43.758104034" lon="11.276628971"><ele>88</ele><time>2020-02-02T08:05:43Z</time></trkpt>
<trkpt lat="43.758097999" lon="11.276592007"><ele>88</ele><time>2020-02-02T08:05:44Z</time></trkpt>
<trkpt lat="43.75809297" lon="11.276554037"><ele>88</ele><time>2020-02-02T08:05:45Z</time></trkpt>
<trkpt lat="43.75808903" lon="11.276515983"><ele>88</ele><time>2020-02-02T08:05:46Z</time></trkpt>
<trkpt lat="43.758087019" lon="11.276478013"><ele>88</ele><time>2020-02-02T08:05:47Z</time></trkpt>
<trkpt lat="43.758085007" lon="11.276439959"><ele>89</ele><time>2020-02-02T08:05:48Z</time></trkpt>
<trkpt lat="43.758084001" lon="11.276402995"><ele>89</ele><time>2020-02-02T08:05:49Z</time></trkpt>
<trkpt lat="43.758084001" lon="11.276365025"><ele>89</ele><time>2020-02-02T08:05:50Z</time></trkpt>
<trkpt lat="43.758084001" lon="11.276327977"><ele>89</ele><time>2020-02-02T08:05:51Z</time></trkpt>
<trkpt lat="43.758085007" lon="11.276292019"><ele>89</ele><time>2020-02-02T08:05:52Z</time></trkpt>
<trkpt lat="43.758086013" lon="11.276254971"><ele>89</ele><time>2020-02-02T08:05:53Z</time></trkpt>
<trkpt lat="43.758088024" lon="11.276219012"><ele>89</ele><time>2020-02-02T08:05:54Z</time></trkpt>
<trkpt lat="43.758091042" lon="11.27618297"><ele>89</ele><time>2020-02-02T08:05:55Z</time></trkpt>
<trkpt lat="43.758093975" lon="11.276147012"><ele>90</ele><time>2020-02-02T08:05:56Z</time></trkpt>
<trkpt lat="43.758096993" lon="11.276110969"><ele>90</ele><time>2020-02-02T08:05:57Z</time></trkpt>
<trkpt lat="43.758101016" lon="11.276076017"><ele>90</ele><time>2020-02-02T08:05:58Z</time></trkpt>
<trkpt lat="43.758105962" lon="11.276039975"><ele>90</ele><time>2020-02-02T08:05:59Z</time></trkpt>
<trkpt lat="43.758110991" lon="11.276005022"><ele>90</ele><time>2020-02-02T08:06:00Z</time></trkpt>
<trkpt lat="43.75811602" lon="11.27596898"><ele>90</ele><time>2020-02-02T08:06:01Z</time></trkpt>
<trkpt lat="43.758120965" lon="11.275934028"><ele>90</ele><time>2020-02-02T08:06:02Z</time></trkpt>
<trkpt lat="43.758125994" lon="11.275897985"><ele>90</ele><time>2020-02-02T08:06:03Z</time></trkpt>
<trkpt lat="43.758131023" lon="11.275862027"><ele>90</ele><time>2020-02-02T08:06:04Z</time></trkpt>
<trkpt lat="43.758135969" lon="11.275824979"><ele>90</ele><time>2020-02-02T08:06:05Z</time></trkpt>
<trkpt lat="43.758140998" lon="11.275788015"><ele>90</ele><time>2020-02-02T08:06:06Z</time></trkpt>
<trkpt lat="43.758145021" lon="11.275750967"><ele>90</ele><time>2020-02-02T08:06:07Z</time></trkpt>
<trkpt lat="43.758148039" lon="11.275712997"><ele>90</ele><time>2020-02-02T08:06:08Z</time></trkpt>
<trkpt lat="43.758150972" lon="11.275674021"><ele>90</ele><time>2020-02-02T08:06:09Z</time></trkpt>
<trkpt lat="43.758148961" lon="11.275562039"><ele>89</ele><time>2020-02-02T08:06:12Z</time></trkpt>
<trkpt lat="43.758144015" lon="11.275527002"><ele>89</ele><time>2020-02-02T08:06:13Z</time></trkpt>
<trkpt lat="43.758135969" lon="11.275493978"><ele>89</ele><time>2020-02-02T08:06:14Z</time></trkpt>
<trkpt lat="43.758125994" lon="11.275462965"><ele>90</ele><time>2020-02-02T08:06:15Z</time></trkpt>
<trkpt lat="43.758111997" lon="11.275433963"><ele>90</ele><time>2020-02-02T08:06:16Z</time></trkpt>
<trkpt lat="43.758093975" lon="11.275408985"><ele>90</ele><time>2020-02-02T08:06:17Z</time></trkpt>
<trkpt lat="43.758074027" lon="11.275387025"><ele>90</ele><time>2020-02-02T08:06:18Z</time></trkpt>
<trkpt lat="43.758050976" lon="11.275369003"><ele>90</ele><time>2020-02-02T08:06:19Z</time></trkpt>
<trkpt lat="43.758027004" lon="11.275356011"><ele>91</ele><time>2020-02-02T08:06:20Z</time></trkpt>
<trkpt lat="43.758002026" lon="11.275346959"><ele>91</ele><time>2020-02-02T08:06:21Z</time></trkpt>
<trkpt lat="43.757975958" lon="11.275342014"><ele>91</ele><time>2020-02-02T08:06:22Z</time></trkpt>
<trkpt lat="43.75795098" lon="11.275344025"><ele>92</ele><time>2020-02-02T08:06:23Z</time></trkpt>
<trkpt lat="43.757927008" lon="11.275349976"><ele>92</ele><time>2020-02-02T08:06:24Z</time></trkpt>
<trkpt lat="43.757904964" lon="11.275362968"><ele>92</ele><time>2020-02-02T08:06:25Z</time></trkpt>
<trkpt lat="43.757884009" lon="11.27538099"><ele>93</ele><time>2020-02-02T08:06:26Z</time></trkpt>
<trkpt lat="43.757864982" lon="11.27540404"><ele>93</ele><time>2020-02-02T08:06:27Z</time></trkpt>
<trkpt lat="43.757846961" lon="11.275430024"><ele>93</ele><time>2020-02-02T08:06:28Z</time></trkpt>
<trkpt lat="43.757830029" lon="11.275460031"><ele>94</ele><time>2020-02-02T08:06:29Z</time></trkpt>
<trkpt lat="43.757813014" lon="11.27549096"><ele>94</ele><time>2020-02-02T08:06:30Z</time></trkpt>
<trkpt lat="43.757797005" lon="11.275523985"><ele>94</ele><time>2020-02-02T08:06:31Z</time></trkpt>
<trkpt lat="43.757780995" lon="11.27555701"><ele>95</ele><time>2020-02-02T08:06:32Z</time></trkpt>
<trkpt lat="43.757765992" lon="11.27559104"><ele>95</ele><time>2020-02-02T08:06:33Z</time></trkpt>
<trkpt lat="43.757749982" lon="11.275622975"><ele>95</ele><time>2020-02-02T08:06:34Z</time></trkpt>
<trkpt lat="43.757732967" lon="11.275653988"><ele>96</ele><time>2020-02-02T08:06:35Z</time></trkpt>
<trkpt lat="43.757717041" lon="11.275683995"><ele>96</ele><time>2020-02-02T08:06:36Z</time></trkpt>
<trkpt lat="43.757700026" lon="11.275711991"><ele>96</ele><time>2020-02-02T08:06:37Z</time></trkpt>
<trkpt lat="43.757682005" lon="11.275737975"><ele>97</ele><time>2020-02-02T08:06:38Z</time></trkpt>
<trkpt lat="43.757663984" lon="11.275761025"><ele>97</ele><time>2020-02-02T08:06:39Z</time></trkpt>
<trkpt lat="43.757645041" lon="11.275782986"><ele>98</ele><time>2020-02-02T08:06:40Z</time></trkpt>
<trkpt lat="43.757625008" lon="11.275801007"><ele>98</ele><time>2020-02-02T08:06:41Z</time></trkpt>
<trkpt lat="43.757604975" lon="11.27581601"><ele>98</ele><time>2020-02-02T08:06:42Z</time></trkpt>
<trkpt lat="43.75758402" lon="11.275827996"><ele>99</ele><time>2020-02-02T08:06:43Z</time></trkpt>
<trkpt lat="43.75756097" lon="11.275836965"><ele>99</ele><time>2020-02-02T08:06:44Z</time></trkpt>
<trkpt lat="43.757538004" lon="11.275844006"><ele>99</ele><time>2020-02-02T08:06:45Z</time></trkpt>
<trkpt lat="43.757515037" lon="11.275848029"><ele>100</ele><time>2020-02-02T08:06:46Z</time></trkpt>
<trkpt lat="43.757490981" lon="11.275850041"><ele>100</ele><time>2020-02-02T08:06:47Z</time></trkpt>
<trkpt lat="43.757466003" lon="11.275850963"><ele>100</ele><time>2020-02-02T08:06:48Z</time></trkpt>
<trkpt lat="43.757441025" lon="11.275850041"><ele>100</ele><time>2020-02-02T08:06:49Z</time></trkpt>
<trkpt lat="43.757415041" lon="11.275849035"><ele>101</ele><time>2020-02-02T08:06:50Z</time></trkpt>
<trkpt lat="43.757388974" lon="11.275847023"><ele>101</ele><time>2020-02-02T08:06:51Z</time></trkpt>
<trkpt lat="43.757311022" lon="11.275841994"><ele>102</ele><time>2020-02-02T08:06:54Z</time></trkpt>
<trkpt lat="43.757285038" lon="11.275840988"><ele>102</ele><time>2020-02-02T08:06:55Z</time></trkpt>
<trkpt lat="43.75725897" lon="11.275841994"><ele>102</ele><time>2020-02-02T08:06:56Z</time></trkpt>
<trkpt lat="43.757233992" lon="11.275844006"><ele>102</ele><time>2020-02-02T08:06:57Z</time></trkpt>
<trkpt lat="43.757209014" lon="11.275848029"><ele>102</ele><time>2020-02-02T08:06:58Z</time></trkpt>
<trkpt lat="43.757184036" lon="11.275854986"><ele>103</ele><time>2020-02-02T08:06:59Z</time></trkpt>
<trkpt lat="43.75715998" lon="11.275863033"><ele>103</ele><time>2020-02-02T08:07:00Z</time></trkpt>
<trkpt lat="43.757137014" lon="11.275874013"><ele>103</ele><time>2020-02-02T08:07:01Z</time></trkpt>
<trkpt lat="43.757113963" lon="11.275885999"><ele>103</ele><time>2020-02-02T08:07:02Z</time></trkpt>
<trkpt lat="43.757090997" lon="11.275898991"><ele>103</ele><time>2020-02-02T08:07:03Z</time></trkpt>
<trkpt lat="43.757068031" lon="11.275913995"><ele>103</ele><time>2020-02-02T08:07:04Z</time></trkpt>
<trkpt lat="43.757045986" lon="11.275927993"><ele>104</ele><time>2020-02-02T08:07:05Z</time></trkpt>
<trkpt lat="43.757024026" lon="11.27594199"><ele>104</ele><time>2020-02-02T08:07:06Z</time></trkpt>
<trkpt lat="43.757000975" lon="11.275955988"><ele>104</ele><time>2020-02-02T08:07:07Z</time></trkpt>
<trkpt lat="43.756978009" lon="11.27596898"><ele>104</ele><time>2020-02-02T08:07:08Z</time></trkpt>
<trkpt lat="43.756954959" lon="11.275980966"><ele>104</ele><time>2020-02-02T08:07:09Z</time></trkpt>
<trkpt lat="43.756930986" lon="11.27599203"><ele>104</ele><time>2020-02-02T08:07:10Z</time></trkpt>
<trkpt lat="43.756907014" lon="11.276000999"><ele>105</ele><time>2020-02-02T08:07:11Z</time></trkpt>
<trkpt lat="43.756824033" lon="11.276027989"><ele>105</ele><time>2020-02-02T08:07:14Z</time></trkpt>
<trkpt lat="43.756794026" lon="11.276036035"><ele>106</ele><time>2020-02-02T08:07:15Z</time></trkpt>
<trkpt lat="43.756763013" lon="11.276043998"><ele>106</ele><time>2020-02-02T08:07:16Z</time></trkpt>
<trkpt lat="43.756732" lon="11.276049027"><ele>106</ele><time>2020-02-02T08:07:17Z</time></trkpt>
<trkpt lat="43.756701993" lon="11.276053973"><ele>106</ele><time>2020-02-02T08:07:18Z</time></trkpt>
<trkpt lat="43.756672991" lon="11.276055984"><ele>107</ele><time>2020-02-02T08:07:19Z</time></trkpt>
<trkpt lat="43.756644996" lon="11.27605699"><ele>107</ele><time>2020-02-02T08:07:20Z</time></trkpt>
<trkpt lat="43.756617" lon="11.27605699"><ele>107</ele><time>2020-02-02T08:07:21Z</time></trkpt>
<trkpt lat="43.756590011" lon="11.276054978"><ele>107</ele><time>2020-02-02T08:07:22Z</time></trkpt>
<trkpt lat="43.756563021" lon="11.276051961"><ele>107</ele><time>2020-02-02T08:07:23Z</time></trkpt>
<trkpt lat="43.756537037" lon="11.276049027"><ele>107</ele><time>2020-02-02T08:07:24Z</time></trkpt>
<trkpt lat="43.756511975" lon="11.276043998"><ele>107</ele><time>2020-02-02T08:07:25Z</time></trkpt>
<trkpt lat="43.756486997" lon="11.276038969"><ele>107</ele><time>2020-02-02T08:07:26Z</time></trkpt>
<trkpt lat="43.756462019" lon="11.276033018"><ele>107</ele><time>2020-02-02T08:07:27Z</time></trkpt>
<trkpt lat="43.756437041" lon="11.276026983"><ele>107</ele><time>2020-02-02T08:07:28Z</time></trkpt>
<trkpt lat="43.756411979" lon="11.276020026"><ele>108</ele><time>2020-02-02T08:07:29Z</time></trkpt>
<trkpt lat="43.756388007" lon="11.276013991"><ele>108</ele><time>2020-02-02T08:07:30Z</time></trkpt>
<trkpt lat="43.756363029" lon="11.276007034"><ele>108</ele><time>2020-02-02T08:07:31Z</time></trkpt>
<trkpt lat="43.756338973" lon="11.275999993"><ele>108</ele><time>2020-02-02T08:07:32Z</time></trkpt>
<trkpt lat="43.756313995" lon="11.275993958"><ele>108</ele><time>2020-02-02T08:07:33Z</time></trkpt>
<trkpt lat="43.756289016" lon="11.275988007"><ele>108</ele><time>2020-02-02T08:07:34Z</time></trkpt>
<trkpt lat="43.756263033" lon="11.275982978"><ele>108</ele><time>2020-02-02T08:07:35Z</time></trkpt>
<trkpt lat="43.756236965" lon="11.275978032"><ele>108</ele><time>2020-02-02T08:07:36Z</time></trkpt>
<trkpt lat="43.756211987" lon="11.275973003"><ele>108</ele><time>2020-02-02T08:07:37Z</time></trkpt>
<trkpt lat="43.756186003" lon="11.275967974"><ele>109</ele><time>2020-02-02T08:07:38Z</time></trkpt>
<trkpt lat="43.756160019" lon="11.275962023"><ele>109</ele><time>2020-02-02T08:07:39Z</time></trkpt>
<trkpt lat="43.756133029" lon="11.275953976"><ele>109</ele><time>2020-02-02T08:07:40Z</time></trkpt>
<trkpt lat="43.756106962" lon="11.275946014"><ele>109</ele><time>2020-02-02T08:07:41Z</time></trkpt>
<trkpt lat="43.756080978" lon="11.275936039"><ele>109</ele><time>2020-02-02T08:07:42Z</time></trkpt>
<trkpt lat="43.756056" lon="11.275923969"><ele>109</ele><time>2020-02-02T08:07:43Z</time></trkpt>
<trkpt lat="43.756030016" lon="11.275909971"><ele>110</ele><time>2020-02-02T08:07:44Z</time></trkpt>
<trkpt lat="43.756005038" lon="11.27589304"><ele>110</ele><time>2020-02-02T08:07:45Z</time></trkpt>
<trkpt lat="43.75597897" lon="11.275876025"><ele>110</ele><time>2020-02-02T08:07:46Z</time></trkpt>
<trkpt lat="43.755954998" lon="11.275856998"><ele>110</ele><time>2020-02-02T08:07:47Z</time></trkpt>
<trkpt lat="43.755931025" lon="11.275835959"><ele>111</ele><time>2020-02-02T08:07:48Z</time></trkpt>
<trkpt lat="43.755906969" lon="11.275815004"><ele>111</ele><time>2020-02-02T08:07:49Z</time></trkpt>
<trkpt lat="43.755884003" lon="11.275793966"><ele>111</ele><time>2020-02-02T08:07:50Z</time></trkpt>
<trkpt lat="43.755861036" lon="11.275773011"><ele>111</ele><time>2020-02-02T08:07:51Z</time></trkpt>
<trkpt lat="43.755839998" lon="11.275751973"><ele>112</ele><time>2020-02-02T08:07:52Z</time></trkpt>
<trkpt lat="43.755818037" lon="11.275731018"><ele>112</ele><time>2020-02-02T08:07:53Z</time></trkpt>
<trkpt lat="43.755798005" lon="11.275710985"><ele>112</ele><time>2020-02-02T08:07:54Z</time></trkpt>
<trkpt lat="43.755776966" lon="11.275691036"><ele>112</ele><time>2020-02-02T08:07:55Z</time></trkpt>
<trkpt lat="43.755757017" lon="11.275671003"><ele>112</ele><time>2020-02-02T08:07:56Z</time></trkpt>
<trkpt lat="43.755735978" lon="11.275650971"><ele>113</ele><time>2020-02-02T08:07:57Z</time></trkpt>
<trkpt lat="43.755715024" lon="11.275632028"><ele>113</ele><time>2020-02-02T08:07:58Z</time></trkpt>
<trkpt lat="43.755692979" lon="11.275613001"><ele>113</ele><time>2020-02-02T08:07:59Z</time></trkpt>
<trkpt lat="43.755670013" lon="11.275595985"><ele>113</ele><time>2020-02-02T08:08:00Z</time></trkpt>
<trkpt lat="43.755647969" lon="11.275580982"><ele>113</ele><time>2020-02-02T08:08:01Z</time></trkpt>
<trkpt lat="43.755625002" lon="11.275570001"><ele>114</ele><time>2020-02-02T08:08:02Z</time></trkpt>
<trkpt lat="43.755602036" lon="11.275561033"><ele>114</ele><time>2020-02-02T08:08:03Z</time></trkpt>
<trkpt lat="43.755578985" lon="11.275554998"><ele>114</ele><time>2020-02-02T08:08:04Z</time></trkpt>
<trkpt lat="43.755556019" lon="11.27555198"><ele>114</ele><time>2020-02-02T08:08:05Z</time></trkpt>
<trkpt lat="43.755532969" lon="11.275550975"><ele>114</ele><time>2020-02-02T08:08:06Z</time></trkpt>
<trkpt lat="43.755510002" lon="11.27555198"><ele>114</ele><time>2020-02-02T08:08:07Z</time></trkpt>
<trkpt lat="43.75548603" lon="11.275556004"><ele>114</ele><time>2020-02-02T08:08:08Z</time></trkpt>
<trkpt lat="43.755461974" lon="11.275561033"><ele>114</ele><time>2020-02-02T08:08:09Z</time></trkpt>
<trkpt lat="43.755438002" lon="11.27556799"><ele>114</ele><time>2020-02-02T08:08:10Z</time></trkpt>
<trkpt lat="43.755413024" lon="11.275576036"><ele>115</ele><time>2020-02-02T08:08:11Z</time></trkpt>
<trkpt lat="43.755387962" lon="11.275585005"><ele>115</ele><time>2020-02-02T08:08:12Z</time></trkpt>
<trkpt lat="43.755362984" lon="11.27559498"><ele>115</ele><time>2020-02-02T08:08:13Z</time></trkpt>
<trkpt lat="43.755338006" lon="11.275605038"><ele>115</ele><time>2020-02-02T08:08:14Z</time></trkpt>
<trkpt lat="43.755313028" lon="11.275616018"><ele>115</ele><time>2020-02-02T08:08:15Z</time></trkpt>
<trkpt lat="43.755287966" lon="11.275626998"><ele>115</ele><time>2020-02-02T08:08:16Z</time></trkpt>
<trkpt lat="43.755263994" lon="11.275636973"><ele>115</ele><time>2020-02-02T08:08:17Z</time></trkpt>
<trkpt lat="43.755239015" lon="11.275647031"><ele>116</ele><time>2020-02-02T08:08:18Z</time></trkpt>
<trkpt lat="43.755214959" lon="11.275656"><ele>116</ele><time>2020-02-02T08:08:19Z</time></trkpt>
<trkpt lat="43.755190987" lon="11.275663963"><ele>116</ele><time>2020-02-02T08:08:20Z</time></trkpt>
<trkpt lat="43.755166009" lon="11.275672009"><ele>116</ele><time>2020-02-02T08:08:21Z</time></trkpt>
<trkpt lat="43.755142037" lon="11.275678966"><ele>116</ele><time>2020-02-02T08:08:22Z</time></trkpt>
<trkpt lat="43.755116975" lon="11.275686007"><ele>116</ele><time>2020-02-02T08:08:23Z</time></trkpt>
<trkpt lat="43.755090991" lon="11.275692964"><ele>117</ele><time>2020-02-02T08:08:24Z</time></trkpt>
<trkpt lat="43.755065007" lon="11.275700005"><ele>117</ele><time>2020-02-02T08:08:25Z</time></trkpt>
<trkpt lat="43.755037012" lon="11.275707968"><ele>117</ele><time>2020-02-02T08:08:26Z</time></trkpt>
<trkpt lat="43.75500801" lon="11.275716014"><ele>117</ele><time>2020-02-02T08:08:27Z</time></trkpt>
<trkpt lat="43.754914971" lon="11.275743004"><ele>117</ele><time>2020-02-02T08:08:30Z</time></trkpt>
<trkpt lat="43.75488203" lon="11.275751973"><ele>117</ele><time>2020-02-02T08:08:31Z</time></trkpt>
<trkpt lat="43.754849005" lon="11.275762031"><ele>117</ele><time>2020-02-02T08:08:32Z</time></trkpt>
<trkpt lat="43.754815981" lon="11.275772005"><ele>117</ele><time>2020-02-02T08:08:33Z</time></trkpt>
<trkpt lat="43.754783962" lon="11.275780974"><ele>117</ele><time>2020-02-02T08:08:34Z</time></trkpt>
<trkpt lat="43.754752027" lon="11.275790026"><ele>117</ele><time>2020-02-02T08:08:35Z</time></trkpt>
<trkpt lat="43.754663011" lon="11.275812993"><ele>117</ele><time>2020-02-02T08:08:38Z</time></trkpt>
<trkpt lat="43.754636021" lon="11.275820034"><ele>117</ele><time>2020-02-02T08:08:39Z</time></trkpt>
<trkpt lat="43.754609032" lon="11.275826991"><ele>117</ele><time>2020-02-02T08:08:40Z</time></trkpt>
<trkpt lat="43.754582964" lon="11.275835037"><ele>117</ele><time>2020-02-02T08:08:41Z</time></trkpt>
<trkpt lat="43.754555974" lon="11.275843"><ele>117</ele><time>2020-02-02T08:08:42Z</time></trkpt>
<trkpt lat="43.75452999" lon="11.275851969"><ele>117</ele><time>2020-02-02T08:08:43Z</time></trkpt>
<trkpt lat="43.754504006" lon="11.275861021"><ele>117</ele><time>2020-02-02T08:08:44Z</time></trkpt>
<trkpt lat="43.754478022" lon="11.275872001"><ele>117</ele><time>2020-02-02T08:08:45Z</time></trkpt>
<trkpt lat="43.754451033" lon="11.275883988"><ele>116</ele><time>2020-02-02T08:08:46Z</time></trkpt>
<trkpt lat="43.754424965" lon="11.275896979"><ele>116</ele><time>2020-02-02T08:08:47Z</time></trkpt>
<trkpt lat="43.754396969" lon="11.275910977"><ele>116</ele><time>2020-02-02T08:08:48Z</time></trkpt>
<trkpt lat="43.75436998" lon="11.275924975"><ele>116</ele><time>2020-02-02T08:08:49Z</time></trkpt>
<trkpt lat="43.75434299" lon="11.275938973"><ele>116</ele><time>2020-02-02T08:08:50Z</time></trkpt>
<trkpt lat="43.754314994" lon="11.275953976"><ele>116</ele><time>2020-02-02T08:08:51Z</time></trkpt>
<trkpt lat="43.754286999" lon="11.275967974"><ele>116</ele><time>2020-02-02T08:08:52Z</time></trkpt>
<trkpt lat="43.754259003" lon="11.275981972"><ele>116</ele><time>2020-02-02T08:08:53Z</time></trkpt>
<trkpt lat="43.754231008" lon="11.27599597"><ele>116</ele><time>2020-02-02T08:08:54Z</time></trkpt>
<trkpt lat="43.754202006" lon="11.27600804"><ele>116</ele><time>2020-02-02T08:08:55Z</time></trkpt>
<trkpt lat="43.754174011" lon="11.276021032"><ele>116</ele><time>2020-02-02T08:08:56Z</time></trkpt>
<trkpt lat="43.754145009" lon="11.276033018"><ele>116</ele><time>2020-02-02T08:08:57Z</time></trkpt>
<trkpt lat="43.754117014" lon="11.276045004"><ele>116</ele><time>2020-02-02T08:08:58Z</time></trkpt>
<trkpt lat="43.754088013" lon="11.27605699"><ele>116</ele><time>2020-02-02T08:08:59Z</time></trkpt>
<trkpt lat="43.754001008" lon="11.276090015"><ele>116</ele><time>2020-02-02T08:09:02Z</time></trkpt>
<trkpt lat="43.753972007" lon="11.276102001"><ele>116</ele><time>2020-02-02T08:09:03Z</time></trkpt>
<trkpt lat="43.753943006" lon="11.276112981"><ele>116</ele><time>2020-02-02T08:09:04Z</time></trkpt>
<trkpt lat="43.753912998" lon="11.276123039"><ele>116</ele><time>2020-02-02T08:09:05Z</time></trkpt>
<trkpt lat="43.753883997" lon="11.27613402"><ele>116</ele><time>2020-02-02T08:09:06Z</time></trkpt>
<trkpt lat="43.75385399" lon="11.276143994"><ele>116</ele><time>2020-02-02T08:09:07Z</time></trkpt>
<trkpt lat="43.753824988" lon="11.276154974"><ele>116</ele><time>2020-02-02T08:09:08Z</time></trkpt>
<trkpt lat="43.753794981" lon="11.276164027"><ele>116</ele><time>2020-02-02T08:09:09Z</time></trkpt>
<trkpt lat="43.753764974" lon="11.276174001"><ele>116</ele><time>2020-02-02T08:09:10Z</time></trkpt>
<trkpt lat="43.753734967" lon="11.27618297"><ele>116</ele><time>2020-02-02T08:09:11Z</time></trkpt>
<trkpt lat="43.753704038" lon="11.276191017"><ele>116</ele><time>2020-02-02T08:09:12Z</time></trkpt>
<trkpt lat="43.753673024" lon="11.276199985"><ele>116</ele><time>2020-02-02T08:09:13Z</time></trkpt>
<trkpt lat="43.753643017" lon="11.276207026"><ele>116</ele><time>2020-02-02T08:09:14Z</time></trkpt>
<trkpt lat="43.753610998" lon="11.276213983"><ele>116</ele><time>2020-02-02T08:09:15Z</time></trkpt>
<trkpt lat="43.753579985" lon="11.276220018"><ele>116</ele><time>2020-02-02T08:09:16Z</time></trkpt>
<trkpt lat="43.753547966" lon="11.276225969"><ele>116</ele><time>2020-02-02T08:09:17Z</time></trkpt>
<trkpt lat="43.753516031" lon="11.276230998"><ele>116</ele><time>2020-02-02T08:09:18Z</time></trkpt>
<trkpt lat="43.753484013" lon="11.276235022"><ele>116</ele><time>2020-02-02T08:09:19Z</time></trkpt>
<trkpt lat="43.753451994" lon="11.276238961"><ele>116</ele><time>2020-02-02T08:09:20Z</time></trkpt>
<trkpt lat="43.753418969" lon="11.276240973"><ele>116</ele><time>2020-02-02T08:09:21Z</time></trkpt>
<trkpt lat="43.753386028" lon="11.276242984"><ele>116</ele><time>2020-02-02T08:09:22Z</time></trkpt>
<trkpt lat="43.753354009" lon="11.27624399"><ele>116</ele><time>2020-02-02T08:09:23Z</time></trkpt>
<trkpt lat="43.753320985" lon="11.276242984"><ele>116</ele><time>2020-02-02T08:09:24Z</time></trkpt>
<trkpt lat="43.753289972" lon="11.276241979"><ele>116</ele><time>2020-02-02T08:09:25Z</time></trkpt>
<trkpt lat="43.753258958" lon="11.276239967"><ele>116</ele><time>2020-02-02T08:09:26Z</time></trkpt>
<trkpt lat="43.753229035" lon="11.276236027"><ele>115</ele><time>2020-02-02T08:09:27Z</time></trkpt>
<trkpt lat="43.753200034" lon="11.276232004"><ele>115</ele><time>2020-02-02T08:09:28Z</time></trkpt>
<trkpt lat="43.753172038" lon="11.276226975"><ele>115</ele><time>2020-02-02T08:09:29Z</time></trkpt>
<trkpt lat="43.753144965" lon="11.276220018"><ele>115</ele><time>2020-02-02T08:09:30Z</time></trkpt>
<trkpt lat="43.753118981" lon="11.276211971"><ele>116</ele><time>2020-02-02T08:09:31Z</time></trkpt>
<trkpt lat="43.753094003" lon="11.276204009"><ele>116</ele><time>2020-02-02T08:09:32Z</time></trkpt>
<trkpt lat="43.753069025" lon="11.276194034"><ele>116</ele><time>2020-02-02T08:09:33Z</time></trkpt>
<trkpt lat="43.753043963" lon="11.276183976"><ele>116</ele><time>2020-02-02T08:09:34Z</time></trkpt>
<trkpt lat="43.75301999" lon="11.276172996"><ele>116</ele><time>2020-02-02T08:09:35Z</time></trkpt>
<trkpt lat="43.752995012" lon="11.276162015"><ele>116</ele><time>2020-02-02T08:09:36Z</time></trkpt>
<trkpt lat="43.752969028" lon="11.276149023"><ele>116</ele><time>2020-02-02T08:09:37Z</time></trkpt>
<trkpt lat="43.752942961" lon="11.276137037"><ele>116</ele><time>2020-02-02T08:09:38Z</time></trkpt>
<trkpt lat="43.752916977" lon="11.276123039"><ele>116</ele><time>2020-02-02T08:09:39Z</time></trkpt>
<trkpt lat="43.752889987" lon="11.276109042"><ele>116</ele><time>2020-02-02T08:09:40Z</time></trkpt>
<trkpt lat="43.752862997" lon="11.27609496"><ele>116</ele><time>2020-02-02T08:09:41Z</time></trkpt>
<trkpt lat="43.752835002" lon="11.27608004"><ele>116</ele><time>2020-02-02T08:09:42Z</time></trkpt>
<trkpt lat="43.752808012" lon="11.276064031"><ele>117</ele><time>2020-02-02T08:09:43Z</time></trkpt>
<trkpt lat="43.752780017" lon="11.276047016"><ele>117</ele><time>2020-02-02T08:09:44Z</time></trkpt>
<trkpt lat="43.752752021" lon="11.276028994"><ele>117</ele><time>2020-02-02T08:09:45Z</time></trkpt>
<trkpt lat="43.752724025" lon="11.276010973"><ele>117</ele><time>2020-02-02T08:09:46Z</time></trkpt>
<trkpt lat="43.75269603" lon="11.27599203"><ele>117</ele><time>2020-02-02T08:09:47Z</time></trkpt>
<trkpt lat="43.752668034" lon="11.275971998"><ele>118</ele><time>2020-02-02T08:09:48Z</time></trkpt>
<trkpt lat="43.752640961" lon="11.275950037"><ele>118</ele><time>2020-02-02T08:09:49Z</time></trkpt>
<trkpt lat="43.752612965" lon="11.275927993"><ele>118</ele><time>2020-02-02T08:09:50Z</time></trkpt>
<trkpt lat="43.752586981" lon="11.275905026"><ele>119</ele><time>2020-02-02T08:09:51Z</time></trkpt>
<trkpt lat="43.752559992" lon="11.27588097"><ele>119</ele><time>2020-02-02T08:09:52Z</time></trkpt>
<trkpt lat="43.752534008" lon="11.275854986"><ele>120</ele><time>2020-02-02T08:09:53Z</time></trkpt>
<trkpt lat="43.75250903" lon="11.275829002"><ele>120</ele><time>2020-02-02T08:09:54Z</time></trkpt>
<trkpt lat="43.752483968" lon="11.275801007"><ele>120</ele><time>2020-02-02T08:09:55Z</time></trkpt>
<trkpt lat="43.752459995" lon="11.275772005"><ele>120</ele><time>2020-02-02T08:09:56Z</time></trkpt>
<trkpt lat="43.752436023" lon="11.275741998"><ele>120</ele><time>2020-02-02T08:09:57Z</time></trkpt>
<trkpt lat="43.752412973" lon="11.275711991"><ele>120</ele><time>2020-02-02T08:09:58Z</time></trkpt>
<trkpt lat="43.752390007" lon="11.275680978"><ele>120</ele><time>2020-02-02T08:09:59Z</time></trkpt>
<trkpt lat="43.752367962" lon="11.275649965"><ele>120</ele><time>2020-02-02T08:10:00Z</time></trkpt>
<trkpt lat="43.752346002" lon="11.275619036"><ele>120</ele><time>2020-02-02T08:10:01Z</time></trkpt>
<trkpt lat="43.752324041" lon="11.275588023"><ele>120</ele><time>2020-02-02T08:10:02Z</time></trkpt>
<trkpt lat="43.752301997" lon="11.275558015"><ele>120</ele><time>2020-02-02T08:10:03Z</time></trkpt>
<trkpt lat="43.752280036" lon="11.275528008"><ele>120</ele><time>2020-02-02T08:10:04Z</time></trkpt>
<trkpt lat="43.752258997" lon="11.275499007"><ele>120</ele><time>2020-02-02T08:10:05Z</time></trkpt>
<trkpt lat="43.752237037" lon="11.275470005"><ele>120</ele><time>2020-02-02T08:10:06Z</time></trkpt>
<trkpt lat="43.752215998" lon="11.275441004"><ele>120</ele><time>2020-02-02T08:10:07Z</time></trkpt>
<trkpt lat="43.75219496" lon="11.275412003"><ele>120</ele><time>2020-02-02T08:10:08Z</time></trkpt>
<trkpt lat="43.752172999" lon="11.275383001"><ele>120</ele><time>2020-02-02T08:10:09Z</time></trkpt>
<trkpt lat="43.752151961" lon="11.275352994"><ele>120</ele><time>2020-02-02T08:10:10Z</time></trkpt>
<trkpt lat="43.752131006" lon="11.275323993"><ele>120</ele><time>2020-02-02T08:10:11Z</time></trkpt>
<trkpt lat="43.752109967" lon="11.275293985"><ele>120</ele><time>2020-02-02T08:10:12Z</time></trkpt>
<trkpt lat="43.752090018" lon="11.275262972"><ele>120</ele><time>2020-02-02T08:10:13Z</time></trkpt>
<trkpt lat="43.75206898" lon="11.275231959"><ele>120</ele><time>2020-02-02T08:10:14Z</time></trkpt>
<trkpt lat="43.752049031" lon="11.275200024"><ele>120</ele><time>2020-02-02T08:10:15Z</time></trkpt>
<trkpt lat="43.752030004" lon="11.275167"><ele>120</ele><time>2020-02-02T08:10:16Z</time></trkpt>
<trkpt lat="43.752010977" lon="11.275133975"><ele>120</ele><time>2020-02-02T08:10:17Z</time></trkpt>
<trkpt lat="43.751992034" lon="11.275100028"><ele>121</ele><time>2020-02-02T08:10:18Z</time></trkpt>
<trkpt lat="43.751974013" lon="11.275064992"><ele>121</ele><time>2020-02-02T08:10:19Z</time></trkpt>
<trkpt lat="43.751958003" lon="11.275029033"><ele>121</ele><time>2020-02-02T08:10:20Z</time></trkpt>
<trkpt lat="43.751941994" lon="11.274992991"><ele>121</ele><time>2020-02-02T08:10:21Z</time></trkpt>
<trkpt lat="43.75192699" lon="11.274956027"><ele>121</ele><time>2020-02-02T08:10:22Z</time></trkpt>
<trkpt lat="43.751911987" lon="11.274918979"><ele>121</ele><time>2020-02-02T08:10:23Z</time></trkpt>
<trkpt lat="43.751897989" lon="11.274881009"><ele>121</ele><time>2020-02-02T08:10:24Z</time></trkpt>
<trkpt lat="43.751884997" lon="11.274843961"><ele>121</ele><time>2020-02-02T08:10:25Z</time></trkpt>
<trkpt lat="43.751869993" lon="11.274806997"><ele>121</ele><time>2020-02-02T08:10:26Z</time></trkpt>
<trkpt lat="43.751855996" lon="11.274771038"><ele>121</ele><time>2020-02-02T08:10:27Z</time></trkpt>
<trkpt lat="43.751840992" lon="11.274734996"><ele>121</ele><time>2020-02-02T08:10:28Z</time></trkpt>
<trkpt lat="43.751824982" lon="11.274700966"><ele>121</ele><time>2020-02-02T08:10:29Z</time></trkpt>
<trkpt lat="43.751807967" lon="11.274667019"><ele>122</ele><time>2020-02-02T08:10:30Z</time></trkpt>
<trkpt lat="43.751791036" lon="11.274635"><ele>122</ele><time>2020-02-02T08:10:31Z</time></trkpt>
<trkpt lat="43.75177402" lon="11.274602981"><ele>122</ele><time>2020-02-02T08:10:32Z</time></trkpt>
<trkpt lat="43.751755999" lon="11.274572974"><ele>122</ele><time>2020-02-02T08:10:33Z</time></trkpt>
<trkpt lat="43.751736972" lon="11.274542967"><ele>122</ele><time>2020-02-02T08:10:34Z</time></trkpt>
<trkpt lat="43.751717024" lon="11.274513965"><ele>122</ele><time>2020-02-02T08:10:35Z</time></trkpt>
<trkpt lat="43.751696991" lon="11.274484964"><ele>122</ele><time>2020-02-02T08:10:36Z</time></trkpt>
<trkpt lat="43.751676036" lon="11.274457974"><ele>122</ele><time>2020-02-02T08:10:37Z</time></trkpt>
<trkpt lat="43.751653992" lon="11.274430985"><ele>122</ele><time>2020-02-02T08:10:38Z</time></trkpt>
<trkpt lat="43.751631025" lon="11.274405001"><ele>122</ele><time>2020-02-02T08:10:39Z</time></trkpt>
<trkpt lat="43.751607975" lon="11.274379017"><ele>122</ele><time>2020-02-02T08:10:40Z</time></trkpt>
<trkpt lat="43.751582997" lon="11.274354039"><ele>122</ele><time>2020-02-02T08:10:41Z</time></trkpt>
<trkpt lat="43.751558019" lon="11.274329983"><ele>122</ele><time>2020-02-02T08:10:42Z</time></trkpt>
<trkpt lat="43.751532035" lon="11.27430601"><ele>122</ele><time>2020-02-02T08:10:43Z</time></trkpt>
<trkpt lat="43.751505967" lon="11.274283966"><ele>122</ele><time>2020-02-02T08:10:44Z</time></trkpt>
<trkpt lat="43.751479983" lon="11.274262005"><ele>122</ele><time>2020-02-02T08:10:45Z</time></trkpt>
<trkpt lat="43.751452994" lon="11.274240967"><ele>122</ele><time>2020-02-02T08:10:46Z</time></trkpt>
<trkpt lat="43.751426004" lon="11.274221018"><ele>122</ele><time>2020-02-02T08:10:47Z</time></trkpt>
<trkpt lat="43.75140002" lon="11.274201991"><ele>122</ele><time>2020-02-02T08:10:48Z</time></trkpt>
<trkpt lat="43.75137303" lon="11.27418397"><ele>122</ele><time>2020-02-02T08:10:49Z</time></trkpt>
<trkpt lat="43.751346963" lon="11.274166033"><ele>122</ele><time>2020-02-02T08:10:50Z</time></trkpt>
<trkpt lat="43.751320979" lon="11.274149017"><ele>122</ele><time>2020-02-02T08:10:51Z</time></trkpt>
<trkpt lat="43.751293989" lon="11.274133008"><ele>122</ele><time>2020-02-02T08:10:52Z</time></trkpt>
<trkpt lat="43.751268005" lon="11.274115993"><ele>122</ele><time>2020-02-02T08:10:53Z</time></trkpt>
<trkpt lat="43.751243027" lon="11.274098977"><ele>122</ele><time>2020-02-02T08:10:54Z</time></trkpt>
<trkpt lat="43.751216959" lon="11.27408104"><ele>122</ele><time>2020-02-02T08:10:55Z</time></trkpt>
<trkpt lat="43.751190975" lon="11.274062013"><ele>122</ele><time>2020-02-02T08:10:56Z</time></trkpt>
<trkpt lat="43.751165997" lon="11.274041981"><ele>122</ele><time>2020-02-02T08:10:57Z</time></trkpt>
<trkpt lat="43.751140013" lon="11.27402002"><ele>122</ele><time>2020-02-02T08:10:58Z</time></trkpt>
<trkpt lat="43.751115035" lon="11.27399697"><ele>122</ele><time>2020-02-02T08:10:59Z</time></trkpt>
<trkpt lat="43.751089973" lon="11.273972997"><ele>122</ele><time>2020-02-02T08:11:00Z</time></trkpt>
<trkpt lat="43.751064995" lon="11.273948019"><ele>122</ele><time>2020-02-02T08:11:01Z</time></trkpt>
<trkpt lat="43.751042029" lon="11.273922035"><ele>122</ele><time>2020-02-02T08:11:02Z</time></trkpt>
<trkpt lat="43.751018979" lon="11.273895968"><ele>122</ele><time>2020-02-02T08:11:03Z</time></trkpt>
<trkpt lat="43.750996012" lon="11.273867972"><ele>122</ele><time>2020-02-02T08:11:04Z</time></trkpt>
<trkpt lat="43.750974974" lon="11.273839977"><ele>122</ele><time>2020-02-02T08:11:05Z</time></trkpt>
<trkpt lat="43.750955025" lon="11.273811981"><ele>122</ele><time>2020-02-02T08:11:06Z</time></trkpt>
<trkpt lat="43.750935998" lon="11.27378298"><ele>122</ele><time>2020-02-02T08:11:07Z</time></trkpt>
<trkpt lat="43.750916971" lon="11.273753978"><ele>122</ele><time>2020-02-02T08:11:08Z</time></trkpt>
<trkpt lat="43.750899034" lon="11.273724977"><ele>123</ele><time>2020-02-02T08:11:09Z</time></trkpt>
<trkpt lat="43.750882018" lon="11.273695976"><ele>123</ele><time>2020-02-02T08:11:10Z</time></trkpt>
<trkpt lat="43.750863997" lon="11.273665968"><ele>123</ele><time>2020-02-02T08:11:11Z</time></trkpt>
<trkpt lat="43.750846982" lon="11.273635039"><ele>123</ele><time>2020-02-02T08:11:12Z</time></trkpt>
<trkpt lat="43.750829967" lon="11.273605032"><ele>123</ele><time>2020-02-02T08:11:13Z</time></trkpt>
<trkpt lat="43.750812029" lon="11.273574019"><ele>124</ele><time>2020-02-02T08:11:14Z</time></trkpt>
<trkpt lat="43.750793003" lon="11.273543006"><ele>124</ele><time>2020-02-02T08:11:15Z</time></trkpt>
<trkpt lat="43.750774981" lon="11.273511993"><ele>124</ele><time>2020-02-02T08:11:16Z</time></trkpt>
<trkpt lat="43.750755033" lon="11.273481986"><ele>124</ele><time>2020-02-02T08:11:17Z</time></trkpt>
<trkpt lat="43.750735" lon="11.273450973"><ele>124</ele><time>2020-02-02T08:11:18Z</time></trkpt>
<trkpt lat="43.750714967" lon="11.273420965"><ele>124</ele><time>2020-02-02T08:11:19Z</time></trkpt>
<trkpt lat="43.750695018" lon="11.273391964"><ele>124</ele><time>2020-02-02T08:11:20Z</time></trkpt>
<trkpt lat="43.75067398" lon="11.273363968"><ele>124</ele><time>2020-02-02T08:11:21Z</time></trkpt>
<trkpt lat="43.750653025" lon="11.273336979"><ele>125</ele><time>2020-02-02T08:11:22Z</time></trkpt>
<trkpt lat="43.750631986" lon="11.273312001"><ele>125</ele><time>2020-02-02T08:11:23Z</time></trkpt>
<trkpt lat="43.750611031" lon="11.273288028"><ele>125</ele><time>2020-02-02T08:11:24Z</time></trkpt>
<trkpt lat="43.750589993" lon="11.273264978"><ele>125</ele><time>2020-02-02T08:11:25Z</time></trkpt>
<trkpt lat="43.750568032" lon="11.273244023"><ele>125</ele><time>2020-02-02T08:11:26Z</time></trkpt>
<trkpt lat="43.750545988" lon="11.273222985"><ele>125</ele><time>2020-02-02T08:11:27Z</time></trkpt>
<trkpt lat="43.750524027" lon="11.273203036"><ele>125</ele><time>2020-02-02T08:11:28Z</time></trkpt>
<trkpt lat="43.750501983" lon="11.273183003"><ele>125</ele><time>2020-02-02T08:11:29Z</time></trkpt>
<trkpt lat="43.750480022" lon="11.273163976"><ele>125</ele><time>2020-02-02T08:11:30Z</time></trkpt>
<trkpt lat="43.750456972" lon="11.273144027"><ele>125</ele><time>2020-02-02T08:11:31Z</time></trkpt>
<trkpt lat="43.750434006" lon="11.273123994"><ele>125</ele><time>2020-02-02T08:11:32Z</time></trkpt>
<trkpt lat="43.750411039" lon="11.27310304"><ele>125</ele><time>2020-02-02T08:11:33Z</time></trkpt>
<trkpt lat="43.750386983" lon="11.273082001"><ele>125</ele><time>2020-02-02T08:11:34Z</time></trkpt>
<trkpt lat="43.750364017" lon="11.273060041"><ele>125</ele><time>2020-02-02T08:11:35Z</time></trkpt>
<trkpt lat="43.750339961" lon="11.273037996"><ele>125</ele><time>2020-02-02T08:11:36Z</time></trkpt>
<trkpt lat="43.750315988" lon="11.273016036"><ele>126</ele><time>2020-02-02T08:11:37Z</time></trkpt>
<trkpt lat="43.750292016" lon="11.272992985"><ele>126</ele><time>2020-02-02T08:11:38Z</time></trkpt>
<trkpt lat="43.75026796" lon="11.272971025"><ele>126</ele><time>2020-02-02T08:11:39Z</time></trkpt>
<trkpt lat="43.750244994" lon="11.27294898"><ele>126</ele><time>2020-02-02T08:11:40Z</time></trkpt>
<trkpt lat="43.750221021" lon="11.27292702"><ele>126</ele><time>2020-02-02T08:11:41Z</time></trkpt>
<trkpt lat="43.750196965" lon="11.272904975"><ele>126</ele><time>2020-02-02T08:11:42Z</time></trkpt>
<trkpt lat="43.750173999" lon="11.272883015"><ele>127</ele><time>2020-02-02T08:11:43Z</time></trkpt>
<trkpt lat="43.750151033" lon="11.272861976"><ele>127</ele><time>2020-02-02T08:11:44Z</time></trkpt>
<trkpt lat="43.750127982" lon="11.272841021"><ele>127</ele><time>2020-02-02T08:11:45Z</time></trkpt>
<trkpt lat="43.750105016" lon="11.272819983"><ele>127</ele><time>2020-02-02T08:11:46Z</time></trkpt>
<trkpt lat="43.750081966" lon="11.272799028"><ele>127</ele><time>2020-02-02T08:11:47Z</time></trkpt>
<trkpt lat="43.750058999" lon="11.272778995"><ele>128</ele><time>2020-02-02T08:11:48Z</time></trkpt>
<trkpt lat="43.750036033" lon="11.272758963"><ele>128</ele><time>2020-02-02T08:11:49Z</time></trkpt>
<trkpt lat="43.750013988" lon="11.272739014"><ele>128</ele><time>2020-02-02T08:11:50Z</time></trkpt>
<trkpt lat="43.749991022" lon="11.272719987"><ele>128</ele><time>2020-02-02T08:11:51Z</time></trkpt>
<trkpt lat="43.749967972" lon="11.272700038"><ele>129</ele><time>2020-02-02T08:11:52Z</time></trkpt>
<trkpt lat="43.749946011" lon="11.272681011"><ele>129</ele><time>2020-02-02T08:11:53Z</time></trkpt>
<trkpt lat="43.749923967" lon="11.272661984"><ele>129</ele><time>2020-02-02T08:11:54Z</time></trkpt>
<trkpt lat="43.749902006" lon="11.272643041"><ele>129</ele><time>2020-02-02T08:11:55Z</time></trkpt>
<trkpt lat="43.749879962" lon="11.272624014"><ele>130</ele><time>2020-02-02T08:11:56Z</time></trkpt>
<trkpt lat="43.749859007" lon="11.272604987"><ele>130</ele><time>2020-02-02T08:11:57Z</time></trkpt>
<trkpt lat="43.749836963" lon="11.27258596"><ele>130</ele><time>2020-02-02T08:11:58Z</time></trkpt>
<trkpt lat="43.749816008" lon="11.272568023"><ele>131</ele><time>2020-02-02T08:11:59Z</time></trkpt>
<trkpt lat="43.749794969" lon="11.272548996"><ele>131</ele><time>2020-02-02T08:12:00Z</time></trkpt>
<trkpt lat="43.74977502" lon="11.272529969"><ele>131</ele><time>2020-02-02T08:12:01Z</time></trkpt>
<trkpt lat="43.749753982" lon="11.272512032"><ele>131</ele><time>2020-02-02T08:12:02Z</time></trkpt>
<trkpt lat="43.749734033" lon="11.272493005"><ele>132</ele><time>2020-02-02T08:12:03Z</time></trkpt>
<trkpt lat="43.749712994" lon="11.272474984"><ele>132</ele><time>2020-02-02T08:12:04Z</time></trkpt>
<trkpt lat="43.74969204" lon="11.272457968"><ele>132</ele><time>2020-02-02T08:12:05Z</time></trkpt>
<trkpt lat="43.749672007" lon="11.272440031"><ele>132</ele><time>2020-02-02T08:12:06Z</time></trkpt>
<trkpt lat="43.749650968" lon="11.272424022"><ele>132</ele><time>2020-02-02T08:12:07Z</time></trkpt>
<trkpt lat="43.749630013" lon="11.272407006"><ele>132</ele><time>2020-02-02T08:12:08Z</time></trkpt>
<trkpt lat="43.749608975" lon="11.272392003"><ele>133</ele><time>2020-02-02T08:12:09Z</time></trkpt>
<trkpt lat="43.749587014" lon="11.272376999"><ele>133</ele><time>2020-02-02T08:12:10Z</time></trkpt>
<trkpt lat="43.74956497" lon="11.272363001"><ele>133</ele><time>2020-02-02T08:12:11Z</time></trkpt>
<trkpt lat="43.749543009" lon="11.272349004"><ele>133</ele><time>2020-02-02T08:12:12Z</time></trkpt>
<trkpt lat="43.749519959" lon="11.272337018"><ele>133</ele><time>2020-02-02T08:12:13Z</time></trkpt>
<trkpt lat="43.749495987" lon="11.272325031"><ele>134</ele><time>2020-02-02T08:12:14Z</time></trkpt>
<trkpt lat="43.74947302" lon="11.272314973"><ele>134</ele><time>2020-02-02T08:12:15Z</time></trkpt>
<trkpt lat="43.749447959" lon="11.272304999"><ele>134</ele><time>2020-02-02T08:12:16Z</time></trkpt>
<trkpt lat="43.74942298" lon="11.27229603"><ele>134</ele><time>2020-02-02T08:12:17Z</time></trkpt>
<trkpt lat="43.749398002" lon="11.272288989"><ele>134</ele><time>2020-02-02T08:12:18Z</time></trkpt>
<trkpt lat="43.749372019" lon="11.272282032"><ele>135</ele><time>2020-02-02T08:12:19Z</time></trkpt>
<trkpt lat="43.74934704" lon="11.272277003"><ele>135</ele><time>2020-02-02T08:12:20Z</time></trkpt>
<trkpt lat="43.749321979" lon="11.272271974"><ele>135</ele><time>2020-02-02T08:12:21Z</time></trkpt>
<trkpt lat="43.749295995" lon="11.27226904"><ele>135</ele><time>2020-02-02T08:12:22Z</time></trkpt>
<trkpt lat="43.749272022" lon="11.272266023"><ele>135</ele><time>2020-02-02T08:12:23Z</time></trkpt>
<trkpt lat="43.749247966" lon="11.272264011"><ele>136</ele><time>2020-02-02T08:12:24Z</time></trkpt>
<trkpt lat="43.749223994" lon="11.272263005"><ele>136</ele><time>2020-02-02T08:12:25Z</time></trkpt>
<trkpt lat="43.749201028" lon="11.272263005"><ele>136</ele><time>2020-02-02T08:12:26Z</time></trkpt>
<trkpt lat="43.749178983" lon="11.272264011"><ele>136</ele><time>2020-02-02T08:12:27Z</time></trkpt>
<trkpt lat="43.749157023" lon="11.272266023"><ele>136</ele><time>2020-02-02T08:12:28Z</time></trkpt>
<trkpt lat="43.749135984" lon="11.272269962"><ele>137</ele><time>2020-02-02T08:12:29Z</time></trkpt>
<trkpt lat="43.749115029" lon="11.272273986"><ele>137</ele><time>2020-02-02T08:12:30Z</time></trkpt>
<trkpt lat="43.749093991" lon="11.272280021"><ele>137</ele><time>2020-02-02T08:12:31Z</time></trkpt>
<trkpt lat="43.749073036" lon="11.272287983"><ele>137</ele><time>2020-02-02T08:12:32Z</time></trkpt>
<trkpt lat="43.749053003" lon="11.27229603"><ele>137</ele><time>2020-02-02T08:12:33Z</time></trkpt>
<trkpt lat="43.749031965" lon="11.27230701"><ele>138</ele><time>2020-02-02T08:12:34Z</time></trkpt>
<trkpt lat="43.749012016" lon="11.272317991"><ele>138</ele><time>2020-02-02T08:12:35Z</time></trkpt>
<trkpt lat="43.748991983" lon="11.272330983"><ele>138</ele><time>2020-02-02T08:12:36Z</time></trkpt>
<trkpt lat="43.748971028" lon="11.272343975"><ele>138</ele><time>2020-02-02T08:12:37Z</time></trkpt>
<trkpt lat="43.74894999" lon="11.272358978"><ele>138</ele><time>2020-02-02T08:12:38Z</time></trkpt>
<trkpt lat="43.748929035" lon="11.272373982"><ele>139</ele><time>2020-02-02T08:12:39Z</time></trkpt>
<trkpt lat="43.748907996" lon="11.272388985"><ele>139</ele><time>2020-02-02T08:12:40Z</time></trkpt>
<trkpt lat="43.748887042" lon="11.272403989"><ele>139</ele><time>2020-02-02T08:12:41Z</time></trkpt>
<trkpt lat="43.748864997" lon="11.272418993"><ele>139</ele><time>2020-02-02T08:12:42Z</time></trkpt>
<trkpt lat="43.748843037" lon="11.272433996"><ele>140</ele><time>2020-02-02T08:12:43Z</time></trkpt>
<trkpt lat="43.748819986" lon="11.272447994"><ele>140</ele><time>2020-02-02T08:12:44Z</time></trkpt>
<trkpt lat="43.74879702" lon="11.272462998"><ele>140</ele><time>2020-02-02T08:12:45Z</time></trkpt>
<trkpt lat="43.74877397" lon="11.272476995"><ele>140</ele><time>2020-02-02T08:12:46Z</time></trkpt>
<trkpt lat="43.748751003" lon="11.272491999"><ele>141</ele><time>2020-02-02T08:12:47Z</time></trkpt>
<trkpt lat="43.748680009" lon="11.272534998"><ele>141</ele><time>2020-02-02T08:12:50Z</time></trkpt>
<trkpt lat="43.748656958" lon="11.272551008"><ele>141</ele><time>2020-02-02T08:12:51Z</time></trkpt>
<trkpt lat="43.748633992" lon="11.272566011"><ele>142</ele><time>2020-02-02T08:12:52Z</time></trkpt>
<trkpt lat="43.748611026" lon="11.272582021"><ele>142</ele><time>2020-02-02T08:12:53Z</time></trkpt>
<trkpt lat="43.748586969" lon="11.272599036"><ele>142</ele><time>2020-02-02T08:12:54Z</time></trkpt>
<trkpt lat="43.748564003" lon="11.272614961"><ele>142</ele><time>2020-02-02T08:12:55Z</time></trkpt>
<trkpt lat="43.748541959" lon="11.272631977"><ele>142</ele><time>2020-02-02T08:12:56Z</time></trkpt>
<trkpt lat="43.748518992" lon="11.272648992"><ele>143</ele><time>2020-02-02T08:12:57Z</time></trkpt>
<trkpt lat="43.748496026" lon="11.272667013"><ele>143</ele><time>2020-02-02T08:12:58Z</time></trkpt>
<trkpt lat="43.748428971" lon="11.272718981"><ele>143</ele><time>2020-02-02T08:13:01Z</time></trkpt>
<trkpt lat="43.74840701" lon="11.272737002"><ele>143</ele><time>2020-02-02T08:13:02Z</time></trkpt>
<trkpt lat="43.748384966" lon="11.272755023"><ele>144</ele><time>2020-02-02T08:13:03Z</time></trkpt>
<trkpt lat="43.748363005" lon="11.272772038"><ele>144</ele><time>2020-02-02T08:13:04Z</time></trkpt>
<trkpt lat="43.748340961" lon="11.272789976"><ele>144</ele><time>2020-02-02T08:13:05Z</time></trkpt>
<trkpt lat="43.748319" lon="11.272806991"><ele>144</ele><time>2020-02-02T08:13:06Z</time></trkpt>
<trkpt lat="43.748297961" lon="11.272825012"><ele>144</ele><time>2020-02-02T08:13:07Z</time></trkpt>
<trkpt lat="43.748276001" lon="11.272842027"><ele>144</ele><time>2020-02-02T08:13:08Z</time></trkpt>
<trkpt lat="43.748254962" lon="11.272858037"><ele>145</ele><time>2020-02-02T08:13:09Z</time></trkpt>
<trkpt lat="43.748233002" lon="11.272874968"><ele>145</ele><time>2020-02-02T08:13:10Z</time></trkpt>
<trkpt lat="43.748211963" lon="11.272890978"><ele>145</ele><time>2020-02-02T08:13:11Z</time></trkpt>
<trkpt lat="43.748191008" lon="11.272907993"><ele>145</ele><time>2020-02-02T08:13:12Z</time></trkpt>
<trkpt lat="43.748168964" lon="11.272924002"><ele>146</ele><time>2020-02-02T08:13:13Z</time></trkpt>
<trkpt lat="43.748148009" lon="11.272940012"><ele>146</ele><time>2020-02-02T08:13:14Z</time></trkpt>
<trkpt lat="43.748126971" lon="11.272957027"><ele>146</ele><time>2020-02-02T08:13:15Z</time></trkpt>
<trkpt lat="43.748106016" lon="11.272973958"><ele>146</ele><time>2020-02-02T08:13:16Z</time></trkpt>
<trkpt lat="43.748083971" lon="11.272990974"><ele>146</ele><time>2020-02-02T08:13:17Z</time></trkpt>
<trkpt lat="43.748063017" lon="11.273007989"><ele>147</ele><time>2020-02-02T08:13:18Z</time></trkpt>
<trkpt lat="43.748040972" lon="11.27302601"><ele>147</ele><time>2020-02-02T08:13:19Z</time></trkpt>
<trkpt lat="43.748019012" lon="11.273044031"><ele>147</ele><time>2020-02-02T08:13:20Z</time></trkpt>
<trkpt lat="43.747997973" lon="11.273062974"><ele>147</ele><time>2020-02-02T08:13:21Z</time></trkpt>
<trkpt lat="43.747976013" lon="11.273080995"><ele>148</ele><time>2020-02-02T08:13:22Z</time></trkpt>
<trkpt lat="43.747953968" lon="11.273100022"><ele>148</ele><time>2020-02-02T08:13:23Z</time></trkpt>
<trkpt lat="43.747933013" lon="11.273117959"><ele>148</ele><time>2020-02-02T08:13:24Z</time></trkpt>
<trkpt lat="43.747910969" lon="11.273135981"><ele>148</ele><time>2020-02-02T08:13:25Z</time></trkpt>
<trkpt lat="43.747890014" lon="11.273152996"><ele>149</ele><time>2020-02-02T08:13:26Z</time></trkpt>
<trkpt lat="43.74786797" lon="11.273170011"><ele>149</ele><time>2020-02-02T08:13:27Z</time></trkpt>
<trkpt lat="43.747806028" lon="11.273216028"><ele>150</ele><time>2020-02-02T08:13:30Z</time></trkpt>
<trkpt lat="43.747784989" lon="11.273230026"><ele>150</ele><time>2020-02-02T08:13:31Z</time></trkpt>
<trkpt lat="43.74776504" lon="11.273244023"><ele>150</ele><time>2020-02-02T08:13:32Z</time></trkpt>
<trkpt lat="43.747745007" lon="11.273258021"><ele>150</ele><time>2020-02-02T08:13:33Z</time></trkpt>
<trkpt lat="43.747723969" lon="11.273272019"><ele>151</ele><time>2020-02-02T08:13:34Z</time></trkpt>
<trkpt lat="43.74770402" lon="11.273286017"><ele>151</ele><time>2020-02-02T08:13:35Z</time></trkpt>
<trkpt lat="43.747683987" lon="11.273300014"><ele>151</ele><time>2020-02-02T08:13:36Z</time></trkpt>
<trkpt lat="43.74766496" lon="11.273314012"><ele>151</ele><time>2020-02-02T08:13:37Z</time></trkpt>
<trkpt lat="43.747645011" lon="11.27332801"><ele>152</ele><time>2020-02-02T08:13:38Z</time></trkpt>
<trkpt lat="43.747583991" lon="11.273368997"><ele>152</ele><time>2020-02-02T08:13:41Z</time></trkpt>
<trkpt lat="43.747563958" lon="11.273382995"><ele>153</ele><time>2020-02-02T08:13:42Z</time></trkpt>
<trkpt lat="43.747543003" lon="11.273395987"><ele>153</ele><time>2020-02-02T08:13:43Z</time></trkpt>
<trkpt lat="43.747521965" lon="11.273408979"><ele>153</ele><time>2020-02-02T08:13:44Z</time></trkpt>
<trkpt lat="43.74750101" lon="11.273420965"><ele>153</ele><time>2020-02-02T08:13:45Z</time></trkpt>
<trkpt lat="43.747478966" lon="11.273434041"><ele>153</ele><time>2020-02-02T08:13:46Z</time></trkpt>
<trkpt lat="43.747455999" lon="11.273445021"><ele>153</ele><time>2020-02-02T08:13:47Z</time></trkpt>
<trkpt lat="43.747433033" lon="11.273456002"><ele>153</ele><time>2020-02-02T08:13:48Z</time></trkpt>
<trkpt lat="43.747409983" lon="11.27346497"><ele>153</ele><time>2020-02-02T08:13:49Z</time></trkpt>
<trkpt lat="43.747385005" lon="11.273473017"><ele>152</ele><time>2020-02-02T08:13:50Z</time></trkpt>
<trkpt lat="43.747360026" lon="11.273479974"><ele>152</ele><time>2020-02-02T08:13:51Z</time></trkpt>
<trkpt lat="43.747333959" lon="11.273485003"><ele>152</ele><time>2020-02-02T08:13:52Z</time></trkpt>
<trkpt lat="43.747306969" lon="11.273489026"><ele>152</ele><time>2020-02-02T08:13:53Z</time></trkpt>
<trkpt lat="43.747278973" lon="11.273490032"><ele>151</ele><time>2020-02-02T08:13:54Z</time></trkpt>
<trkpt lat="43.747250978" lon="11.273489026"><ele>151</ele><time>2020-02-02T08:13:55Z</time></trkpt>
<trkpt lat="43.747221977" lon="11.273487015"><ele>151</ele><time>2020-02-02T08:13:56Z</time></trkpt>
<trkpt lat="43.747192975" lon="11.273482991"><ele>151</ele><time>2020-02-02T08:13:57Z</time></trkpt>
<trkpt lat="43.74716498" lon="11.27347704"><ele>151</ele><time>2020-02-02T08:13:58Z</time></trkpt>
<trkpt lat="43.747136984" lon="11.273468994"><ele>151</ele><time>2020-02-02T08:13:59Z</time></trkpt>
<trkpt lat="43.747111" lon="11.273460025"><ele>151</ele><time>2020-02-02T08:14:00Z</time></trkpt>
<trkpt lat="43.747085016" lon="11.273448961"><ele>151</ele><time>2020-02-02T08:14:01Z</time></trkpt>
<trkpt lat="43.747061966" lon="11.273436975"><ele>151</ele><time>2020-02-02T08:14:02Z</time></trkpt>
<trkpt lat="43.747040005" lon="11.273422977"><ele>151</ele><time>2020-02-02T08:14:03Z</time></trkpt>
<trkpt lat="43.747018967" lon="11.273407973"><ele>151</ele><time>2020-02-02T08:14:04Z</time></trkpt>
<trkpt lat="43.746999018" lon="11.273391042"><ele>151</ele><time>2020-02-02T08:14:05Z</time></trkpt>
<trkpt lat="43.746979991" lon="11.273374027"><ele>151</ele><time>2020-02-02T08:14:06Z</time></trkpt>
<trkpt lat="43.746960964" lon="11.273355"><ele>151</ele><time>2020-02-02T08:14:07Z</time></trkpt>
<trkpt lat="43.746942021" lon="11.273334967"><ele>151</ele><time>2020-02-02T08:14:08Z</time></trkpt>
<trkpt lat="43.746924" lon="11.273314012"><ele>151</ele><time>2020-02-02T08:14:09Z</time></trkpt>
<trkpt lat="43.746904973" lon="11.273291968"><ele>152</ele><time>2020-02-02T08:14:10Z</time></trkpt>
<trkpt lat="43.74688603" lon="11.273269001"><ele>152</ele><time>2020-02-02T08:14:11Z</time></trkpt>
<trkpt lat="43.746867003" lon="11.273245029"><ele>152</ele><time>2020-02-02T08:14:12Z</time></trkpt>
<trkpt lat="43.74684697" lon="11.273220973"><ele>152</ele><time>2020-02-02T08:14:13Z</time></trkpt>
<trkpt lat="43.746828027" lon="11.273195995"><ele>152</ele><time>2020-02-02T08:14:14Z</time></trkpt>
<trkpt lat="43.746807994" lon="11.273170011"><ele>153</ele><time>2020-02-02T08:14:15Z</time></trkpt>
<trkpt lat="43.746787962" lon="11.273145033"><ele>153</ele><time>2020-02-02T08:14:16Z</time></trkpt>
<trkpt lat="43.746769018" lon="11.273117959"><ele>153</ele><time>2020-02-02T08:14:17Z</time></trkpt>
<trkpt lat="43.746749992" lon="11.273091976"><ele>153</ele><time>2020-02-02T08:14:18Z</time></trkpt>
<trkpt lat="43.746730965" lon="11.273065992"><ele>154</ele><time>2020-02-02T08:14:19Z</time></trkpt>
<trkpt lat="43.746713027" lon="11.273039002"><ele>154</ele><time>2020-02-02T08:14:20Z</time></trkpt>
<trkpt lat="43.746695006" lon="11.273013018"><ele>154</ele><time>2020-02-02T08:14:21Z</time></trkpt>
<trkpt lat="43.746677991" lon="11.272987034"><ele>155</ele><time>2020-02-02T08:14:22Z</time></trkpt>
<trkpt lat="43.746661982" lon="11.272960966"><ele>155</ele><time>2020-02-02T08:14:23Z</time></trkpt>
<trkpt lat="43.746644966" lon="11.272933977"><ele>155</ele><time>2020-02-02T08:14:24Z</time></trkpt>
<trkpt lat="43.746629041" lon="11.272907993"><ele>155</ele><time>2020-02-02T08:14:25Z</time></trkpt>
<trkpt lat="43.746582018" lon="11.272830041"><ele>155</ele><time>2020-02-02T08:14:28Z</time></trkpt>
<trkpt lat="43.746567015" lon="11.272803973"><ele>155</ele><time>2020-02-02T08:14:29Z</time></trkpt>
<trkpt lat="43.746552011" lon="11.27277799"><ele>155</ele><time>2020-02-02T08:14:30Z</time></trkpt>
<trkpt lat="43.746536002" lon="11.272752006"><ele>155</ele><time>2020-02-02T08:14:31Z</time></trkpt>
<trkpt lat="43.746520998" lon="11.272726022"><ele>155</ele><time>2020-02-02T08:14:32Z</time></trkpt>
<trkpt lat="43.746504989" lon="11.272700038"><ele>156</ele><time>2020-02-02T08:14:33Z</time></trkpt>
<trkpt lat="43.746488979" lon="11.27267397"><ele>156</ele><time>2020-02-02T08:14:34Z</time></trkpt>
<trkpt lat="43.74647297" lon="11.272647986"><ele>156</ele><time>2020-02-02T08:14:35Z</time></trkpt>
<trkpt lat="43.74645696" lon="11.272622002"><ele>156</ele><time>2020-02-02T08:14:36Z</time></trkpt>
<trkpt lat="43.746441035" lon="11.272596018"><ele>156</ele><time>2020-02-02T08:14:37Z</time></trkpt>
<trkpt lat="43.746424019" lon="11.272569029"><ele>156</ele><time>2020-02-02T08:14:38Z</time></trkpt>
<trkpt lat="43.746407004" lon="11.272542961"><ele>157</ele><time>2020-02-02T08:14:39Z</time></trkpt>
<trkpt lat="43.746389989" lon="11.272516977"><ele>157</ele><time>2020-02-02T08:14:40Z</time></trkpt>
<trkpt lat="43.746371968" lon="11.272490993"><ele>157</ele><time>2020-02-02T08:14:41Z</time></trkpt>
<trkpt lat="43.746355036" lon="11.272465009"><ele>157</ele><time>2020-02-02T08:14:42Z</time></trkpt>
<trkpt lat="43.746338021" lon="11.272439025"><ele>157</ele><time>2020-02-02T08:14:43Z</time></trkpt>
<trkpt lat="43.746321006" lon="11.272413041"><ele>157</ele><time>2020-02-02T08:14:44Z</time></trkpt>
<trkpt lat="43.74630399" lon="11.272385968"><ele>157</ele><time>2020-02-02T08:14:45Z</time></trkpt>
<trkpt lat="43.746286975" lon="11.272359984"><ele>157</ele><time>2020-02-02T08:14:46Z</time></trkpt>
<trkpt lat="43.746270966" lon="11.272334"><ele>157</ele><time>2020-02-02T08:14:47Z</time></trkpt>
<trkpt lat="43.746254034" lon="11.27230701"><ele>158</ele><time>2020-02-02T08:14:48Z</time></trkpt>
<trkpt lat="43.746238025" lon="11.272280021"><ele>158</ele><time>2020-02-02T08:14:49Z</time></trkpt>
<trkpt lat="43.746223021" lon="11.272253031"><ele>158</ele><time>2020-02-02T08:14:50Z</time></trkpt>
<trkpt lat="43.746207012" lon="11.272226041"><ele>158</ele><time>2020-02-02T08:14:51Z</time></trkpt>
<trkpt lat="43.746192008" lon="11.272197962"><ele>158</ele><time>2020-02-02T08:14:52Z</time></trkpt>
<trkpt lat="43.746177005" lon="11.272169966"><ele>158</ele><time>2020-02-02T08:14:53Z</time></trkpt>
<trkpt lat="43.746162001" lon="11.272140965"><ele>159</ele><time>2020-02-02T08:14:54Z</time></trkpt>
<trkpt lat="43.746146997" lon="11.272111963"><ele>159</ele><time>2020-02-02T08:14:55Z</time></trkpt>
<trkpt lat="43.746131994" lon="11.272082962"><ele>159</ele><time>2020-02-02T08:14:56Z</time></trkpt>
<trkpt lat="43.74611699" lon="11.272054967"><ele>160</ele><time>2020-02-02T08:14:57Z</time></trkpt>
<trkpt lat="43.746100981" lon="11.272026971"><ele>160</ele><time>2020-02-02T08:14:58Z</time></trkpt>
<trkpt lat="43.74608296" lon="11.272000987"><ele>160</ele><time>2020-02-02T08:14:59Z</time></trkpt>
<trkpt lat="43.746064017" lon="11.271977015"><ele>160</ele><time>2020-02-02T08:15:00Z</time></trkpt>
<trkpt lat="43.746043984" lon="11.271953965"><ele>160</ele><time>2020-02-02T08:15:01Z</time></trkpt>
<trkpt lat="43.746023029" lon="11.271932004"><ele>161</ele><time>2020-02-02T08:15:02Z</time></trkpt>
<trkpt lat="43.745999979" lon="11.27190996"><ele>161</ele><time>2020-02-02T08:15:03Z</time></trkpt>
<trkpt lat="43.745977012" lon="11.271886993"><ele>161</ele><time>2020-02-02T08:15:04Z</time></trkpt>
<trkpt lat="43.74595304" lon="11.271865033"><ele>161</ele><time>2020-02-02T08:15:05Z</time></trkpt>
<trkpt lat="43.74592999" lon="11.271840977"><ele>161</ele><time>2020-02-02T08:15:06Z</time></trkpt>
<trkpt lat="43.745909035" lon="11.271814993"><ele>162</ele><time>2020-02-02T08:15:07Z</time></trkpt>
<trkpt lat="43.745890008" lon="11.271788003"><ele>162</ele><time>2020-02-02T08:15:08Z</time></trkpt>
<trkpt lat="43.745873999" lon="11.271757996"><ele>163</ele><time>2020-02-02T08:15:09Z</time></trkpt>
<trkpt lat="43.745861007" lon="11.271726983"><ele>163</ele><time>2020-02-02T08:15:10Z</time></trkpt>
<trkpt lat="43.745849021" lon="11.271694964"><ele>164</ele><time>2020-02-02T08:15:11Z</time></trkpt>
<trkpt lat="43.74583804" lon="11.271662023"><ele>164</ele><time>2020-02-02T08:15:12Z</time></trkpt>
<trkpt lat="43.745825971" lon="11.271628998"><ele>164</ele><time>2020-02-02T08:15:13Z</time></trkpt>
<trkpt lat="43.745812979" lon="11.271594968"><ele>164</ele><time>2020-02-02T08:15:14Z</time></trkpt>
<trkpt lat="43.745799987" lon="11.271562027"><ele>164</ele><time>2020-02-02T08:15:15Z</time></trkpt>
<trkpt lat="43.745785989" lon="11.271529002"><ele>164</ele><time>2020-02-02T08:15:16Z</time></trkpt>
<trkpt lat="43.745771991" lon="11.271494972"><ele>164</ele><time>2020-02-02T08:15:17Z</time></trkpt>
<trkpt lat="43.745757993" lon="11.271462031"><ele>164</ele><time>2020-02-02T08:15:18Z</time></trkpt>
<trkpt lat="43.745743996" lon="11.271428"><ele>163</ele><time>2020-02-02T08:15:19Z</time></trkpt>
<trkpt lat="43.745728992" lon="11.27139397"><ele>163</ele><time>2020-02-02T08:15:20Z</time></trkpt>
<trkpt lat="43.745713988" lon="11.271360023"><ele>163</ele><time>2020-02-02T08:15:21Z</time></trkpt>
<trkpt lat="43.745699991" lon="11.271324987"><ele>163</ele><time>2020-02-02T08:15:22Z</time></trkpt>
<trkpt lat="43.745684987" lon="11.27129104"><ele>163</ele><time>2020-02-02T08:15:23Z</time></trkpt>
<trkpt lat="43.745669983" lon="11.271256004"><ele>163</ele><time>2020-02-02T08:15:24Z</time></trkpt>
<trkpt lat="43.745655986" lon="11.271220967"><ele>163</ele><time>2020-02-02T08:15:25Z</time></trkpt>
<trkpt lat="43.745640982" lon="11.271186015"><ele>162</ele><time>2020-02-02T08:15:26Z</time></trkpt>
<trkpt lat="43.745626984" lon="11.271150978"><ele>162</ele><time>2020-02-02T08:15:27Z</time></trkpt>
<trkpt lat="43.745613992" lon="11.27111502"><ele>162</ele><time>2020-02-02T08:15:28Z</time></trkpt>
<trkpt lat="43.745599994" lon="11.271078978"><ele>162</ele><time>2020-02-02T08:15:29Z</time></trkpt>
<trkpt lat="43.745588008" lon="11.271043019"><ele>162</ele><time>2020-02-02T08:15:30Z</time></trkpt>
<trkpt lat="43.745575016" lon="11.271005971"><ele>162</ele><time>2020-02-02T08:15:31Z</time></trkpt>
<trkpt lat="43.74556303" lon="11.270970013"><ele>162</ele><time>2020-02-02T08:15:32Z</time></trkpt>
<trkpt lat="43.745551966" lon="11.270932965"><ele>162</ele><time>2020-02-02T08:15:33Z</time></trkpt>
<trkpt lat="43.745540986" lon="11.270894995"><ele>162</ele><time>2020-02-02T08:15:34Z</time></trkpt>
<trkpt lat="43.745531011" lon="11.270858031"><ele>162</ele><time>2020-02-02T08:15:35Z</time></trkpt>
<trkpt lat="43.745521037" lon="11.270820983"><ele>162</ele><time>2020-02-02T08:15:36Z</time></trkpt>
<trkpt lat="43.745511984" lon="11.270784019"><ele>162</ele><time>2020-02-02T08:15:37Z</time></trkpt>
<trkpt lat="43.745504022" lon="11.270745965"><ele>162</ele><time>2020-02-02T08:15:38Z</time></trkpt>
<trkpt lat="43.745494969" lon="11.270709001"><ele>162</ele><time>2020-02-02T08:15:39Z</time></trkpt>
<trkpt lat="43.745488012" lon="11.270672036"><ele>162</ele><time>2020-02-02T08:15:40Z</time></trkpt>
<trkpt lat="43.745480971" lon="11.270634988"><ele>162</ele><time>2020-02-02T08:15:41Z</time></trkpt>
<trkpt lat="43.745474014" lon="11.270598024"><ele>162</ele><time>2020-02-02T08:15:42Z</time></trkpt>
<trkpt lat="43.745467979" lon="11.270560976"><ele>162</ele><time>2020-02-02T08:15:43Z</time></trkpt>
<trkpt lat="43.745463034" lon="11.270525018"><ele>162</ele><time>2020-02-02T08:15:44Z</time></trkpt>
<trkpt lat="43.745458005" lon="11.270488976"><ele>163</ele><time>2020-02-02T08:15:45Z</time></trkpt>
<trkpt lat="43.745452976" lon="11.270454023"><ele>163</ele><time>2020-02-02T08:15:46Z</time></trkpt>
<trkpt lat="43.745449036" lon="11.270418987"><ele>163</ele><time>2020-02-02T08:15:47Z</time></trkpt>
<trkpt lat="43.745446019" lon="11.270384034"><ele>163</ele><time>2020-02-02T08:15:48Z</time></trkpt>
<trkpt lat="43.745443001" lon="11.270350004"><ele>163</ele><time>2020-02-02T08:15:49Z</time></trkpt>
<trkpt lat="43.74544099" lon="11.270315973"><ele>163</ele><time>2020-02-02T08:15:50Z</time></trkpt>
<trkpt lat="43.745438978" lon="11.270283032"><ele>164</ele><time>2020-02-02T08:15:51Z</time></trkpt>
<trkpt lat="43.745438978" lon="11.270250008"><ele>164</ele><time>2020-02-02T08:15:52Z</time></trkpt>
<trkpt lat="43.745437972" lon="11.270217989"><ele>164</ele><time>2020-02-02T08:15:53Z</time></trkpt>
<trkpt lat="43.745438978" lon="11.270186976"><ele>164</ele><time>2020-02-02T08:15:54Z</time></trkpt>
<trkpt lat="43.745439984" lon="11.270155963"><ele>164</ele><time>2020-02-02T08:15:55Z</time></trkpt>
<trkpt lat="43.745443001" lon="11.270126039"><ele>165</ele><time>2020-02-02T08:15:56Z</time></trkpt>
<trkpt lat="43.745446019" lon="11.270097038"><ele>165</ele><time>2020-02-02T08:15:57Z</time></trkpt>
<trkpt lat="43.745449958" lon="11.270068036"><ele>165</ele><time>2020-02-02T08:15:58Z</time></trkpt>
<trkpt lat="43.745454988" lon="11.270040041"><ele>166</ele><time>2020-02-02T08:15:59Z</time></trkpt>
<trkpt lat="43.745460017" lon="11.270011961"><ele>166</ele><time>2020-02-02T08:16:00Z</time></trkpt>
<trkpt lat="43.745465968" lon="11.269984972"><ele>166</ele><time>2020-02-02T08:16:01Z</time></trkpt>
<trkpt lat="43.745473009" lon="11.269957982"><ele>167</ele><time>2020-02-02T08:16:02Z</time></trkpt>
<trkpt lat="43.745480971" lon="11.269930992"><ele>167</ele><time>2020-02-02T08:16:03Z</time></trkpt>
<trkpt lat="43.745489018" lon="11.269904003"><ele>167</ele><time>2020-02-02T08:16:04Z</time></trkpt>
<trkpt lat="43.745497987" lon="11.269878019"><ele>168</ele><time>2020-02-02T08:16:05Z</time></trkpt>
<trkpt lat="43.745507039" lon="11.269851029"><ele>168</ele><time>2020-02-02T08:16:06Z</time></trkpt>
<trkpt lat="43.745516008" lon="11.269824961"><ele>168</ele><time>2020-02-02T08:16:07Z</time></trkpt>
<trkpt lat="43.745524976" lon="11.269797971"><ele>169</ele><time>2020-02-02T08:16:08Z</time></trkpt>
<trkpt lat="43.745534029" lon="11.269771988"><ele>169</ele><time>2020-02-02T08:16:09Z</time></trkpt>
<trkpt lat="43.745542997" lon="11.269744998"><ele>170</ele><time>2020-02-02T08:16:10Z</time></trkpt>
<trkpt lat="43.745550038" lon="11.269717002"><ele>170</ele><time>2020-02-02T08:16:11Z</time></trkpt>
<trkpt lat="43.745555989" lon="11.269689007"><ele>170</ele><time>2020-02-02T08:16:12Z</time></trkpt>
<trkpt lat="43.745560013" lon="11.269661011"><ele>170</ele><time>2020-02-02T08:16:13Z</time></trkpt>
<trkpt lat="43.745562024" lon="11.269573001"><ele>171</ele><time>2020-02-02T08:16:16Z</time></trkpt>
<trkpt lat="43.745558001" lon="11.269542994"><ele>171</ele><time>2020-02-02T08:16:17Z</time></trkpt>
<trkpt lat="43.745552972" lon="11.269511981"><ele>172</ele><time>2020-02-02T08:16:18Z</time></trkpt>
<trkpt lat="43.745547021" lon="11.269481974"><ele>172</ele><time>2020-02-02T08:16:19Z</time></trkpt>
<trkpt lat="43.745538974" lon="11.269452972"><ele>172</ele><time>2020-02-02T08:16:20Z</time></trkpt>
<trkpt lat="43.745530006" lon="11.269423971"><ele>172</ele><time>2020-02-02T08:16:21Z</time></trkpt>
<trkpt lat="43.745520031" lon="11.269395975"><ele>172</ele><time>2020-02-02T08:16:22Z</time></trkpt>
<trkpt lat="43.745508967" lon="11.26936798"><ele>172</ele><time>2020-02-02T08:16:23Z</time></trkpt>
<trkpt lat="43.745496981" lon="11.269341996"><ele>172</ele><time>2020-02-02T08:16:24Z</time></trkpt>
<trkpt lat="43.745484995" lon="11.269316012"><ele>173</ele><time>2020-02-02T08:16:25Z</time></trkpt>
<trkpt lat="43.745473009" lon="11.269290028"><ele>173</ele><time>2020-02-02T08:16:26Z</time></trkpt>
<trkpt lat="43.745461022" lon="11.26926396"><ele>173</ele><time>2020-02-02T08:16:27Z</time></trkpt>
<trkpt lat="43.745449036" lon="11.269237977"><ele>173</ele><time>2020-02-02T08:16:28Z</time></trkpt>
<trkpt lat="43.745436966" lon="11.269210987"><ele>173</ele><time>2020-02-02T08:16:29Z</time></trkpt>
<trkpt lat="43.745425986" lon="11.269182991"><ele>173</ele><time>2020-02-02T08:16:30Z</time></trkpt>
<trkpt lat="43.745416012" lon="11.26915399"><ele>174</ele><time>2020-02-02T08:16:31Z</time></trkpt>
<trkpt lat="43.745406959" lon="11.269123983"><ele>174</ele><time>2020-02-02T08:16:32Z</time></trkpt>
<trkpt lat="43.745398996" lon="11.269091964"><ele>174</ele><time>2020-02-02T08:16:33Z</time></trkpt>
<trkpt lat="43.745391034" lon="11.269060029"><ele>175</ele><time>2020-02-02T08:16:34Z</time></trkpt>
<trkpt lat="43.745383993" lon="11.269027004"><ele>175</ele><time>2020-02-02T08:16:35Z</time></trkpt>
<trkpt lat="43.745378042" lon="11.268993979"><ele>176</ele><time>2020-02-02T08:16:36Z</time></trkpt>
<trkpt lat="43.745372007" lon="11.268961038"><ele>176</ele><time>2020-02-02T08:16:37Z</time></trkpt>
<trkpt lat="43.745353986" lon="11.268866993"><ele>177</ele><time>2020-02-02T08:16:40Z</time></trkpt>
<trkpt lat="43.745348034" lon="11.268836986"><ele>178</ele><time>2020-02-02T08:16:41Z</time></trkpt>
<trkpt lat="43.745341999" lon="11.268808991"><ele>178</ele><time>2020-02-02T08:16:42Z</time></trkpt>
<trkpt lat="43.745334959" lon="11.268782001"><ele>178</ele><time>2020-02-02T08:16:43Z</time></trkpt>
<trkpt lat="43.745328002" lon="11.268756017"><ele>179</ele><time>2020-02-02T08:16:44Z</time></trkpt>
<trkpt lat="43.745320961" lon="11.268730033"><ele>179</ele><time>2020-02-02T08:16:45Z</time></trkpt>
<trkpt lat="43.745312998" lon="11.268704971"><ele>179</ele><time>2020-02-02T08:16:46Z</time></trkpt>
<trkpt lat="43.745305035" lon="11.268679993"><ele>180</ele><time>2020-02-02T08:16:47Z</time></trkpt>
<trkpt lat="43.745296989" lon="11.268654009"><ele>180</ele><time>2020-02-02T08:16:48Z</time></trkpt>
<trkpt lat="43.74528802" lon="11.268629031"><ele>180</ele><time>2020-02-02T08:16:49Z</time></trkpt>
<trkpt lat="43.745278968" lon="11.268602964"><ele>181</ele><time>2020-02-02T08:16:50Z</time></trkpt>
<trkpt lat="43.745268993" lon="11.26857698"><ele>181</ele><time>2020-02-02T08:16:51Z</time></trkpt>
<trkpt lat="43.745259019" lon="11.26854999"><ele>182</ele><time>2020-02-02T08:16:52Z</time></trkpt>
<trkpt lat="43.74524896" lon="11.268524006"><ele>182</ele><time>2020-02-02T08:16:53Z</time></trkpt>
<trkpt lat="43.745238986" lon="11.268497016"><ele>182</ele><time>2020-02-02T08:16:54Z</time></trkpt>
<trkpt lat="43.745228006" lon="11.268471032"><ele>183</ele><time>2020-02-02T08:16:55Z</time></trkpt>
<trkpt lat="43.745218031" lon="11.26844597"><ele>183</ele><time>2020-02-02T08:16:56Z</time></trkpt>
<trkpt lat="43.745206967" lon="11.268420992"><ele>183</ele><time>2020-02-02T08:16:57Z</time></trkpt>
<trkpt lat="43.745196993" lon="11.26839702"><ele>184</ele><time>2020-02-02T08:16:58Z</time></trkpt>
<trkpt lat="43.745186012" lon="11.268372964"><ele>184</ele><time>2020-02-02T08:16:59Z</time></trkpt>
<trkpt lat="43.745176038" lon="11.268351004"><ele>185</ele><time>2020-02-02T08:17:00Z</time></trkpt>
<trkpt lat="43.745165979" lon="11.268328037"><ele>185</ele><time>2020-02-02T08:17:01Z</time></trkpt>
<trkpt lat="43.745156005" lon="11.268306999"><ele>185</ele><time>2020-02-02T08:17:02Z</time></trkpt>
<trkpt lat="43.745146031" lon="11.26828596"><ele>185</ele><time>2020-02-02T08:17:03Z</time></trkpt>
<trkpt lat="43.745135972" lon="11.268265005"><ele>186</ele><time>2020-02-02T08:17:04Z</time></trkpt>
<trkpt lat="43.745127004" lon="11.268244972"><ele>186</ele><time>2020-02-02T08:17:05Z</time></trkpt>
<trkpt lat="43.745117029" lon="11.268225024"><ele>186</ele><time>2020-02-02T08:17:06Z</time></trkpt>
<trkpt lat="43.745106971" lon="11.268205997"><ele>186</ele><time>2020-02-02T08:17:07Z</time></trkpt>
<trkpt lat="43.745098002" lon="11.26818697"><ele>187</ele><time>2020-02-02T08:17:08Z</time></trkpt>
<trkpt lat="43.745088028" lon="11.268168027"><ele>187</ele><time>2020-02-02T08:17:09Z</time></trkpt>
<trkpt lat="43.745078975" lon="11.268149"><ele>187</ele><time>2020-02-02T08:17:10Z</time></trkpt>
<trkpt lat="43.745070007" lon="11.268129973"><ele>188</ele><time>2020-02-02T08:17:11Z</time></trkpt>
<trkpt lat="43.745060032" lon="11.26811103"><ele>188</ele><time>2020-02-02T08:17:12Z</time></trkpt>
<trkpt lat="43.74505098" lon="11.268092003"><ele>188</ele><time>2020-02-02T08:17:13Z</time></trkpt>
<trkpt lat="43.745042011" lon="11.268072976"><ele>189</ele><time>2020-02-02T08:17:14Z</time></trkpt>
<trkpt lat="43.745032959" lon="11.268054033"><ele>189</ele><time>2020-02-02T08:17:15Z</time></trkpt>
<trkpt lat="43.74502399" lon="11.268034"><ele>189</ele><time>2020-02-02T08:17:16Z</time></trkpt>
<trkpt lat="43.745015021" lon="11.268014973"><ele>190</ele><time>2020-02-02T08:17:17Z</time></trkpt>
<trkpt lat="43.745005969" lon="11.267995024"><ele>190</ele><time>2020-02-02T08:17:18Z</time></trkpt>
<trkpt lat="43.744998006" lon="11.267974991"><ele>190</ele><time>2020-02-02T08:17:19Z</time></trkpt>
<trkpt lat="43.744989038" lon="11.267954959"><ele>190</ele><time>2020-02-02T08:17:20Z</time></trkpt>
<trkpt lat="43.744979985" lon="11.26793501"><ele>190</ele><time>2020-02-02T08:17:21Z</time></trkpt>
<trkpt lat="43.744971016" lon="11.267913971"><ele>190</ele><time>2020-02-02T08:17:22Z</time></trkpt>
<trkpt lat="43.74496297" lon="11.267893016"><ele>190</ele><time>2020-02-02T08:17:23Z</time></trkpt>
<trkpt lat="43.744954001" lon="11.267871978"><ele>191</ele><time>2020-02-02T08:17:24Z</time></trkpt>
<trkpt lat="43.744945033" lon="11.267851023"><ele>191</ele><time>2020-02-02T08:17:25Z</time></trkpt>
<trkpt lat="43.744936986" lon="11.267829984"><ele>191</ele><time>2020-02-02T08:17:26Z</time></trkpt>
<trkpt lat="43.744928017" lon="11.267808024"><ele>191</ele><time>2020-02-02T08:17:27Z</time></trkpt>
<trkpt lat="43.744918965" lon="11.267785979"><ele>191</ele><time>2020-02-02T08:17:28Z</time></trkpt>
<trkpt lat="43.744909996" lon="11.267764019"><ele>191</ele><time>2020-02-02T08:17:29Z</time></trkpt>
<trkpt lat="43.744902033" lon="11.267741974"><ele>191</ele><time>2020-02-02T08:17:30Z</time></trkpt>
<trkpt lat="43.744892981" lon="11.267719008"><ele>191</ele><time>2020-02-02T08:17:31Z</time></trkpt>
<trkpt lat="43.744884012" lon="11.267696964"><ele>191</ele><time>2020-02-02T08:17:32Z</time></trkpt>
<trkpt lat="43.74487496" lon="11.267673997"><ele>192</ele><time>2020-02-02T08:17:33Z</time></trkpt>
<trkpt lat="43.744865991" lon="11.267651031"><ele>192</ele><time>2020-02-02T08:17:34Z</time></trkpt>
<trkpt lat="43.74484797" lon="11.267604008"><ele>192</ele><time>2020-02-02T08:17:36Z</time></trkpt>
<trkpt lat="43.744839001" lon="11.267581042"><ele>192</ele><time>2020-02-02T08:17:37Z</time></trkpt>
<trkpt lat="43.744831039" lon="11.267556986"><ele>192</ele><time>2020-02-02T08:17:38Z</time></trkpt>
<trkpt lat="43.744821986" lon="11.267532008"><ele>192</ele><time>2020-02-02T08:17:39Z</time></trkpt>
<trkpt lat="43.744814023" lon="11.267508036"><ele>193</ele><time>2020-02-02T08:17:40Z</time></trkpt>
<trkpt lat="43.744804971" lon="11.267482974"><ele>193</ele><time>2020-02-02T08:17:41Z</time></trkpt>
<trkpt lat="43.744797008" lon="11.267457996"><ele>193</ele><time>2020-02-02T08:17:42Z</time></trkpt>
<trkpt lat="43.744788961" lon="11.267433017"><ele>192</ele><time>2020-02-02T08:17:43Z</time></trkpt>
<trkpt lat="43.744780999" lon="11.267407034"><ele>192</ele><time>2020-02-02T08:17:44Z</time></trkpt>
<trkpt lat="43.744773036" lon="11.267380966"><ele>192</ele><time>2020-02-02T08:17:45Z</time></trkpt>
<trkpt lat="43.744764989" lon="11.267354982"><ele>192</ele><time>2020-02-02T08:17:46Z</time></trkpt>
<trkpt lat="43.744756021" lon="11.267327992"><ele>192</ele><time>2020-02-02T08:17:47Z</time></trkpt>
<trkpt lat="43.744746968" lon="11.267301003"><ele>192</ele><time>2020-02-02T08:17:48Z</time></trkpt>
<trkpt lat="43.744736994" lon="11.267274013"><ele>192</ele><time>2020-02-02T08:17:49Z</time></trkpt>
<trkpt lat="43.744727019" lon="11.267247023"><ele>192</ele><time>2020-02-02T08:17:50Z</time></trkpt>
<trkpt lat="43.744716039" lon="11.267219028"><ele>192</ele><time>2020-02-02T08:17:51Z</time></trkpt>
<trkpt lat="43.744704975" lon="11.267191032"><ele>192</ele><time>2020-02-02T08:17:52Z</time></trkpt>
<trkpt lat="43.744692989" lon="11.267163036"><ele>192</ele><time>2020-02-02T08:17:53Z</time></trkpt>
<trkpt lat="43.744682008" lon="11.267134035"><ele>192</ele><time>2020-02-02T08:17:54Z</time></trkpt>
<trkpt lat="43.744670022" lon="11.267105034"><ele>192</ele><time>2020-02-02T08:17:55Z</time></trkpt>
<trkpt lat="43.744658958" lon="11.267075026"><ele>192</ele><time>2020-02-02T08:17:56Z</time></trkpt>
<trkpt lat="43.744647978" lon="11.267045019"><ele>192</ele><time>2020-02-02T08:17:57Z</time></trkpt>
<trkpt lat="43.744638003" lon="11.267014006"><ele>192</ele><time>2020-02-02T08:17:58Z</time></trkpt>
<trkpt lat="43.744629035" lon="11.266982993"><ele>192</ele><time>2020-02-02T08:17:59Z</time></trkpt>
<trkpt lat="43.744620988" lon="11.266950974"><ele>192</ele><time>2020-02-02T08:18:00Z</time></trkpt>
<trkpt lat="43.744613025" lon="11.266918033"><ele>192</ele><time>2020-02-02T08:18:01Z</time></trkpt>
<trkpt lat="43.74460699" lon="11.266885009"><ele>192</ele><time>2020-02-02T08:18:02Z</time></trkpt>
<trkpt lat="43.744601039" lon="11.266850978"><ele>192</ele><time>2020-02-02T08:18:03Z</time></trkpt>
<trkpt lat="43.744593998" lon="11.26681502"><ele>193</ele><time>2020-02-02T08:18:04Z</time></trkpt>
<trkpt lat="43.744587963" lon="11.266778978"><ele>193</ele><time>2020-02-02T08:18:05Z</time></trkpt>
<trkpt lat="43.744582012" lon="11.266742013"><ele>193</ele><time>2020-02-02T08:18:06Z</time></trkpt>
<trkpt lat="43.744573966" lon="11.26670396"><ele>193</ele><time>2020-02-02T08:18:07Z</time></trkpt>
<trkpt lat="43.744566003" lon="11.266664984"><ele>193</ele><time>2020-02-02T08:18:08Z</time></trkpt>
<trkpt lat="43.744557034" lon="11.266626008"><ele>193</ele><time>2020-02-02T08:18:09Z</time></trkpt>
<trkpt lat="43.744546976" lon="11.266587032"><ele>193</ele><time>2020-02-02T08:18:10Z</time></trkpt>
<trkpt lat="43.74453499" lon="11.266549984"><ele>192</ele><time>2020-02-02T08:18:11Z</time></trkpt>
<trkpt lat="43.744519986" lon="11.266514026"><ele>192</ele><time>2020-02-02T08:18:12Z</time></trkpt>
<trkpt lat="43.744503977" lon="11.266481001"><ele>192</ele><time>2020-02-02T08:18:13Z</time></trkpt>
<trkpt lat="43.744486962" lon="11.266449988"><ele>192</ele><time>2020-02-02T08:18:14Z</time></trkpt>
<trkpt lat="43.744468018" lon="11.266419981"><ele>191</ele><time>2020-02-02T08:18:15Z</time></trkpt>
<trkpt lat="43.744448991" lon="11.266390979"><ele>191</ele><time>2020-02-02T08:18:16Z</time></trkpt>
<trkpt lat="43.74443097" lon="11.266361978"><ele>191</ele><time>2020-02-02T08:18:17Z</time></trkpt>
<trkpt lat="43.744413033" lon="11.266331971"><ele>190</ele><time>2020-02-02T08:18:18Z</time></trkpt>
<trkpt lat="43.744394006" lon="11.266300036"><ele>190</ele><time>2020-02-02T08:18:19Z</time></trkpt>
<trkpt lat="43.744376991" lon="11.266266005"><ele>190</ele><time>2020-02-02T08:18:20Z</time></trkpt>
<trkpt lat="43.74435897" lon="11.266229041"><ele>190</ele><time>2020-02-02T08:18:21Z</time></trkpt>
<trkpt lat="43.744342038" lon="11.26618797"><ele>189</ele><time>2020-02-02T08:18:22Z</time></trkpt>
<trkpt lat="43.744324017" lon="11.266143965"><ele>189</ele><time>2020-02-02T08:18:23Z</time></trkpt>
<trkpt lat="43.744307002" lon="11.266098032"><ele>189</ele><time>2020-02-02T08:18:24Z</time></trkpt>
<trkpt lat="43.744290993" lon="11.266052015"><ele>188</ele><time>2020-02-02T08:18:25Z</time></trkpt>
<trkpt lat="43.744273977" lon="11.266005998"><ele>188</ele><time>2020-02-02T08:18:26Z</time></trkpt>
<trkpt lat="43.744256962" lon="11.265960988"><ele>188</ele><time>2020-02-02T08:18:27Z</time></trkpt>
<trkpt lat="43.744240031" lon="11.265915977"><ele>188</ele><time>2020-02-02T08:18:28Z</time></trkpt>
<trkpt lat="43.744224021" lon="11.265871972"><ele>187</ele><time>2020-02-02T08:18:29Z</time></trkpt>
<trkpt lat="43.744206" lon="11.265826961"><ele>187</ele><time>2020-02-02T08:18:30Z</time></trkpt>
<trkpt lat="43.744188985" lon="11.265782034"><ele>187</ele><time>2020-02-02T08:18:31Z</time></trkpt>
<trkpt lat="43.744170964" lon="11.265738029"><ele>186</ele><time>2020-02-02T08:18:32Z</time></trkpt>
<trkpt lat="43.744153026" lon="11.265693018"><ele>186</ele><time>2020-02-02T08:18:33Z</time></trkpt>
<trkpt lat="43.744134" lon="11.265648007"><ele>185</ele><time>2020-02-02T08:18:34Z</time></trkpt>
<trkpt lat="43.744113967" lon="11.265601991"><ele>185</ele><time>2020-02-02T08:18:35Z</time></trkpt>
<trkpt lat="43.744095024" lon="11.265555974"><ele>184</ele><time>2020-02-02T08:18:36Z</time></trkpt>
<trkpt lat="43.744074991" lon="11.265510041"><ele>184</ele><time>2020-02-02T08:18:37Z</time></trkpt>
<trkpt lat="43.74405697" lon="11.265464025"><ele>183</ele><time>2020-02-02T08:18:38Z</time></trkpt>
<trkpt lat="43.744039033" lon="11.265417002"><ele>183</ele><time>2020-02-02T08:18:39Z</time></trkpt>
<trkpt lat="43.744024029" lon="11.265370985"><ele>182</ele><time>2020-02-02T08:18:40Z</time></trkpt>
<trkpt lat="43.744011037" lon="11.265323963"><ele>182</ele><time>2020-02-02T08:18:41Z</time></trkpt>
<trkpt lat="43.744000979" lon="11.26527803"><ele>181</ele><time>2020-02-02T08:18:42Z</time></trkpt>
<trkpt lat="43.743994022" lon="11.265231008"><ele>181</ele><time>2020-02-02T08:18:43Z</time></trkpt>
<trkpt lat="43.743989998" lon="11.265184991"><ele>181</ele><time>2020-02-02T08:18:44Z</time></trkpt>
<trkpt lat="43.743987987" lon="11.265138974"><ele>181</ele><time>2020-02-02T08:18:45Z</time></trkpt>
<trkpt lat="43.743988993" lon="11.265093042"><ele>180</ele><time>2020-02-02T08:18:46Z</time></trkpt>
<trkpt lat="43.743991004" lon="11.265047025"><ele>180</ele><time>2020-02-02T08:18:47Z</time></trkpt>
<trkpt lat="43.743994022" lon="11.265000002"><ele>180</ele><time>2020-02-02T08:18:48Z</time></trkpt>
<trkpt lat="43.743998967" lon="11.26495298"><ele>180</ele><time>2020-02-02T08:18:49Z</time></trkpt>
<trkpt lat="43.744003996" lon="11.264906041"><ele>180</ele><time>2020-02-02T08:18:50Z</time></trkpt>
<trkpt lat="43.744009025" lon="11.264859019"><ele>180</ele><time>2020-02-02T08:18:51Z</time></trkpt>
<trkpt lat="43.744012965" lon="11.264810991"><ele>180</ele><time>2020-02-02T08:18:52Z</time></trkpt>
<trkpt lat="43.744016988" lon="11.264762962"><ele>180</ele><time>2020-02-02T08:18:53Z</time></trkpt>
<trkpt lat="43.744021012" lon="11.264714012"><ele>179</ele><time>2020-02-02T08:18:54Z</time></trkpt>
<trkpt lat="43.744023023" lon="11.264665984"><ele>179</ele><time>2020-02-02T08:18:55Z</time></trkpt>
<trkpt lat="43.744025035" lon="11.264617033"><ele>179</ele><time>2020-02-02T08:18:56Z</time></trkpt>
<trkpt lat="43.744026041" lon="11.264567999"><ele>179</ele><time>2020-02-02T08:18:57Z</time></trkpt>
<trkpt lat="43.744025035" lon="11.264519971"><ele>179</ele><time>2020-02-02T08:18:58Z</time></trkpt>
<trkpt lat="43.744024029" lon="11.264472026"><ele>179</ele><time>2020-02-02T08:18:59Z</time></trkpt>
<trkpt lat="43.744021012" lon="11.264423998"><ele>179</ele><time>2020-02-02T08:19:00Z</time></trkpt>
<trkpt lat="43.744015982" lon="11.264376976"><ele>178</ele><time>2020-02-02T08:19:01Z</time></trkpt>
<trkpt lat="43.744011037" lon="11.264330037"><ele>178</ele><time>2020-02-02T08:19:02Z</time></trkpt>
<trkpt lat="43.744003996" lon="11.26428402"><ele>178</ele><time>2020-02-02T08:19:03Z</time></trkpt>
<trkpt lat="43.743997039" lon="11.264239009"><ele>178</ele><time>2020-02-02T08:19:04Z</time></trkpt>
<trkpt lat="43.743988993" lon="11.264193999"><ele>178</ele><time>2020-02-02T08:19:05Z</time></trkpt>
<trkpt lat="43.743982036" lon="11.264149994"><ele>178</ele><time>2020-02-02T08:19:06Z</time></trkpt>
<trkpt lat="43.743973989" lon="11.264106994"><ele>177</ele><time>2020-02-02T08:19:07Z</time></trkpt>
<trkpt lat="43.743967032" lon="11.264066007"><ele>177</ele><time>2020-02-02T08:19:08Z</time></trkpt>
<trkpt lat="43.743960997" lon="11.264025019"><ele>177</ele><time>2020-02-02T08:19:09Z</time></trkpt>
<trkpt lat="43.743955968" lon="11.263985038"><ele>177</ele><time>2020-02-02T08:19:10Z</time></trkpt>
<trkpt lat="43.743950017" lon="11.263945978"><ele>177</ele><time>2020-02-02T08:19:11Z</time></trkpt>
<trkpt lat="43.743942976" lon="11.263908008"><ele>176</ele><time>2020-02-02T08:19:12Z</time></trkpt>
<trkpt lat="43.743931996" lon="11.26387096"><ele>176</ele><time>2020-02-02T08:19:13Z</time></trkpt>
<trkpt lat="43.743917998" lon="11.263833996"><ele>176</ele><time>2020-02-02T08:19:14Z</time></trkpt>
<trkpt lat="43.743899977" lon="11.263798038"><ele>176</ele><time>2020-02-02T08:19:15Z</time></trkpt>
<trkpt lat="43.743881034" lon="11.26376099"><ele>176</ele><time>2020-02-02T08:19:16Z</time></trkpt>
<trkpt lat="43.743861001" lon="11.263725031"><ele>176</ele><time>2020-02-02T08:19:17Z</time></trkpt>
<trkpt lat="43.743841974" lon="11.263687983"><ele>176</ele><time>2020-02-02T08:19:18Z</time></trkpt>
<trkpt lat="43.743824037" lon="11.263650013"><ele>176</ele><time>2020-02-02T08:19:19Z</time></trkpt>
<trkpt lat="43.743807022" lon="11.263612965"><ele>176</ele><time>2020-02-02T08:19:20Z</time></trkpt>
<trkpt lat="43.743789" lon="11.263574995"><ele>176</ele><time>2020-02-02T08:19:21Z</time></trkpt>
<trkpt lat="43.743771985" lon="11.263537025"><ele>175</ele><time>2020-02-02T08:19:22Z</time></trkpt>
<trkpt lat="43.743753964" lon="11.263498971"><ele>175</ele><time>2020-02-02T08:19:23Z</time></trkpt>
<trkpt lat="43.743737033" lon="11.263459995"><ele>175</ele><time>2020-02-02T08:19:24Z</time></trkpt>
<trkpt lat="43.743721023" lon="11.26342102"><ele>175</ele><time>2020-02-02T08:19:25Z</time></trkpt>
<trkpt lat="43.743707025" lon="11.263379026"><ele>175</ele><time>2020-02-02T08:19:26Z</time></trkpt>
<trkpt lat="43.743696967" lon="11.263335021"><ele>175</ele><time>2020-02-02T08:19:27Z</time></trkpt>
<trkpt lat="43.743689004" lon="11.26329001"><ele>175</ele><time>2020-02-02T08:19:28Z</time></trkpt>
<trkpt lat="43.743684981" lon="11.263242988"><ele>175</ele><time>2020-02-02T08:19:29Z</time></trkpt>
<trkpt lat="43.743682969" lon="11.26319496"><ele>175</ele><time>2020-02-02T08:19:30Z</time></trkpt>
<trkpt lat="43.743683975" lon="11.263147015"><ele>175</ele><time>2020-02-02T08:19:31Z</time></trkpt>
<trkpt lat="43.743687999" lon="11.263098987"><ele>175</ele><time>2020-02-02T08:19:32Z</time></trkpt>
<trkpt lat="43.743694033" lon="11.263050959"><ele>175</ele><time>2020-02-02T08:19:33Z</time></trkpt>
<trkpt lat="43.743703002" lon="11.26300402"><ele>175</ele><time>2020-02-02T08:19:34Z</time></trkpt>
<trkpt lat="43.743713982" lon="11.262959009"><ele>175</ele><time>2020-02-02T08:19:35Z</time></trkpt>
<trkpt lat="43.74372798" lon="11.262915004"><ele>175</ele><time>2020-02-02T08:19:36Z</time></trkpt>
<trkpt lat="43.743742984" lon="11.262873011"><ele>175</ele><time>2020-02-02T08:19:37Z</time></trkpt>
<trkpt lat="43.743759999" lon="11.262832023"><ele>175</ele><time>2020-02-02T08:19:38Z</time></trkpt>
<trkpt lat="43.743779026" lon="11.262792964"><ele>175</ele><time>2020-02-02T08:19:39Z</time></trkpt>
<trkpt lat="43.743799981" lon="11.262754994"><ele>175</ele><time>2020-02-02T08:19:40Z</time></trkpt>
<trkpt lat="43.743821019" lon="11.262717023"><ele>175</ele><time>2020-02-02T08:19:41Z</time></trkpt>
<trkpt lat="43.743843986" lon="11.262679975"><ele>174</ele><time>2020-02-02T08:19:42Z</time></trkpt>
<trkpt lat="43.743867036" lon="11.262643011"><ele>174</ele><time>2020-02-02T08:19:43Z</time></trkpt>
<trkpt lat="43.743891008" lon="11.262605963"><ele>174</ele><time>2020-02-02T08:19:44Z</time></trkpt>
<trkpt lat="43.743915986" lon="11.262567993"><ele>174</ele><time>2020-02-02T08:19:45Z</time></trkpt>
<trkpt lat="43.743940964" lon="11.262531029"><ele>174</ele><time>2020-02-02T08:19:46Z</time></trkpt>
<trkpt lat="43.743966026" lon="11.262493981"><ele>174</ele><time>2020-02-02T08:19:47Z</time></trkpt>
<trkpt lat="43.743989998" lon="11.262456011"><ele>174</ele><time>2020-02-02T08:19:48Z</time></trkpt>
<trkpt lat="43.744014977" lon="11.262418963"><ele>174</ele><time>2020-02-02T08:19:49Z</time></trkpt>
<trkpt lat="43.744039033" lon="11.262381999"><ele>174</ele><time>2020-02-02T08:19:50Z</time></trkpt>
<trkpt lat="43.744061999" lon="11.262345035"><ele>174</ele><time>2020-02-02T08:19:51Z</time></trkpt>
<trkpt lat="43.744084965" lon="11.262308992"><ele>174</ele><time>2020-02-02T08:19:52Z</time></trkpt>
<trkpt lat="43.744106004" lon="11.262273034"><ele>174</ele><time>2020-02-02T08:19:53Z</time></trkpt>
<trkpt lat="43.744126959" lon="11.262236992"><ele>174</ele><time>2020-02-02T08:19:54Z</time></trkpt>
<trkpt lat="43.744145986" lon="11.262202039"><ele>174</ele><time>2020-02-02T08:19:55Z</time></trkpt>
<trkpt lat="43.744164007" lon="11.262167003"><ele>174</ele><time>2020-02-02T08:19:56Z</time></trkpt>
<trkpt lat="43.744182028" lon="11.262131967"><ele>173</ele><time>2020-02-02T08:19:57Z</time></trkpt>
<trkpt lat="43.744198037" lon="11.262097014"><ele>173</ele><time>2020-02-02T08:19:58Z</time></trkpt>
<trkpt lat="43.744213963" lon="11.262060972"><ele>173</ele><time>2020-02-02T08:19:59Z</time></trkpt>
<trkpt lat="43.744228967" lon="11.262024008"><ele>173</ele><time>2020-02-02T08:20:00Z</time></trkpt>
<trkpt lat="43.744272972" lon="11.261905991"><ele>172</ele><time>2020-02-02T08:20:03Z</time></trkpt>
<trkpt lat="43.744286969" lon="11.261863997"><ele>172</ele><time>2020-02-02T08:20:04Z</time></trkpt>
<trkpt lat="43.744300967" lon="11.261820998"><ele>172</ele><time>2020-02-02T08:20:05Z</time></trkpt>
<trkpt lat="43.744313959" lon="11.261776993"><ele>172</ele><time>2020-02-02T08:20:06Z</time></trkpt>
<trkpt lat="43.744327035" lon="11.261732988"><ele>172</ele><time>2020-02-02T08:20:07Z</time></trkpt>
<trkpt lat="43.744340027" lon="11.261688983"><ele>172</ele><time>2020-02-02T08:20:08Z</time></trkpt>
<trkpt lat="43.744353019" lon="11.261644978"><ele>172</ele><time>2020-02-02T08:20:09Z</time></trkpt>
<trkpt lat="43.744365005" lon="11.261600973"><ele>172</ele><time>2020-02-02T08:20:10Z</time></trkpt>
<trkpt lat="43.744376991" lon="11.261557974"><ele>172</ele><time>2020-02-02T08:20:11Z</time></trkpt>
<trkpt lat="43.744414961" lon="11.261431994"><ele>172</ele><time>2020-02-02T08:20:14Z</time></trkpt>
<trkpt lat="43.744428037" lon="11.261392012"><ele>173</ele><time>2020-02-02T08:20:15Z</time></trkpt>
<trkpt lat="43.744442035" lon="11.261353036"><ele>173</ele><time>2020-02-02T08:20:16Z</time></trkpt>
<trkpt lat="43.744456032" lon="11.261313977"><ele>173</ele><time>2020-02-02T08:20:17Z</time></trkpt>
<trkpt lat="43.744472042" lon="11.261277013"><ele>173</ele><time>2020-02-02T08:20:18Z</time></trkpt>
<trkpt lat="43.744488973" lon="11.26124097"><ele>173</ele><time>2020-02-02T08:20:19Z</time></trkpt>
<trkpt lat="43.744508" lon="11.261207024"><ele>173</ele><time>2020-02-02T08:20:20Z</time></trkpt>
<trkpt lat="43.744529039" lon="11.261172993"><ele>173</ele><time>2020-02-02T08:20:21Z</time></trkpt>
<trkpt lat="43.744549993" lon="11.261140974"><ele>173</ele><time>2020-02-02T08:20:22Z</time></trkpt>
<trkpt lat="43.74457296" lon="11.261109961"><ele>173</ele><time>2020-02-02T08:20:23Z</time></trkpt>
<trkpt lat="43.744597016" lon="11.261079032"><ele>173</ele><time>2020-02-02T08:20:24Z</time></trkpt>
<trkpt lat="43.744620988" lon="11.261049025"><ele>173</ele><time>2020-02-02T08:20:25Z</time></trkpt>
<trkpt lat="43.74464496" lon="11.261019018"><ele>173</ele><time>2020-02-02T08:20:26Z</time></trkpt>
<trkpt lat="43.744669016" lon="11.260990016"><ele>173</ele><time>2020-02-02T08:20:27Z</time></trkpt>
<trkpt lat="43.744692989" lon="11.260960009"><ele>173</ele><time>2020-02-02T08:20:28Z</time></trkpt>
<trkpt lat="43.744716039" lon="11.260928996"><ele>173</ele><time>2020-02-02T08:20:29Z</time></trkpt>
<trkpt lat="43.744738" lon="11.260897983"><ele>173</ele><time>2020-02-02T08:20:30Z</time></trkpt>
<trkpt lat="43.744759038" lon="11.26086697"><ele>174</ele><time>2020-02-02T08:20:31Z</time></trkpt>
<trkpt lat="43.744778987" lon="11.260835035"><ele>174</ele><time>2020-02-02T08:20:32Z</time></trkpt>
<trkpt lat="43.74479902" lon="11.260803016"><ele>174</ele><time>2020-02-02T08:20:33Z</time></trkpt>
<trkpt lat="43.744817963" lon="11.260768985"><ele>174</ele><time>2020-02-02T08:20:34Z</time></trkpt>
<trkpt lat="43.744835984" lon="11.260735039"><ele>174</ele><time>2020-02-02T08:20:35Z</time></trkpt>
<trkpt lat="43.744854005" lon="11.260701008"><ele>174</ele><time>2020-02-02T08:20:36Z</time></trkpt>
<trkpt lat="43.744870014" lon="11.260664966"><ele>174</ele><time>2020-02-02T08:20:37Z</time></trkpt>
<trkpt lat="43.744886024" lon="11.260629008"><ele>174</ele><time>2020-02-02T08:20:38Z</time></trkpt>
<trkpt lat="43.744901028" lon="11.26059196"><ele>174</ele><time>2020-02-02T08:20:39Z</time></trkpt>
<trkpt lat="43.744916031" lon="11.26055399"><ele>174</ele><time>2020-02-02T08:20:40Z</time></trkpt>
<trkpt lat="43.744931035" lon="11.260517025"><ele>175</ele><time>2020-02-02T08:20:41Z</time></trkpt>
<trkpt lat="43.744946038" lon="11.260477966"><ele>175</ele><time>2020-02-02T08:20:42Z</time></trkpt>
<trkpt lat="43.744961964" lon="11.260439996"><ele>175</ele><time>2020-02-02T08:20:43Z</time></trkpt>
<trkpt lat="43.744977973" lon="11.260403031"><ele>175</ele><time>2020-02-02T08:20:44Z</time></trkpt>
<trkpt lat="43.744994989" lon="11.260364978"><ele>175</ele><time>2020-02-02T08:20:45Z</time></trkpt>
<trkpt lat="43.74501301" lon="11.260328013"><ele>175</ele><time>2020-02-02T08:20:46Z</time></trkpt>
<trkpt lat="43.745032037" lon="11.260291971"><ele>175</ele><time>2020-02-02T08:20:47Z</time></trkpt>
<trkpt lat="43.745051986" lon="11.260256013"><ele>175</ele><time>2020-02-02T08:20:48Z</time></trkpt>
<trkpt lat="43.745073024" lon="11.260220977"><ele>175</ele><time>2020-02-02T08:20:49Z</time></trkpt>
<trkpt lat="43.745093979" lon="11.260186024"><ele>175</ele><time>2020-02-02T08:20:50Z</time></trkpt>
<trkpt lat="43.745115018" lon="11.260150988"><ele>175</ele><time>2020-02-02T08:20:51Z</time></trkpt>
<trkpt lat="43.745135972" lon="11.260117041"><ele>175</ele><time>2020-02-02T08:20:52Z</time></trkpt>
<trkpt lat="43.745154999" lon="11.26008301"><ele>175</ele><time>2020-02-02T08:20:53Z</time></trkpt>
<trkpt lat="43.745174026" lon="11.260047974"><ele>175</ele><time>2020-02-02T08:20:54Z</time></trkpt>
<trkpt lat="43.745190036" lon="11.260014027"><ele>175</ele><time>2020-02-02T08:20:55Z</time></trkpt>
<trkpt lat="43.745205039" lon="11.259978991"><ele>175</ele><time>2020-02-02T08:20:56Z</time></trkpt>
<trkpt lat="43.745218031" lon="11.25994496"><ele>175</ele><time>2020-02-02T08:20:57Z</time></trkpt>
<trkpt lat="43.745231023" lon="11.259910008"><ele>175</ele><time>2020-02-02T08:20:58Z</time></trkpt>
<trkpt lat="43.745243009" lon="11.259874972"><ele>176</ele><time>2020-02-02T08:20:59Z</time></trkpt>
<trkpt lat="43.745254995" lon="11.259839013"><ele>176</ele><time>2020-02-02T08:21:00Z</time></trkpt>
<trkpt lat="43.745267987" lon="11.259803977"><ele>176</ele><time>2020-02-02T08:21:01Z</time></trkpt>
<trkpt lat="43.745282991" lon="11.25977003"><ele>176</ele><time>2020-02-02T08:21:02Z</time></trkpt>
<trkpt lat="43.745297994" lon="11.259736"><ele>177</ele><time>2020-02-02T08:21:03Z</time></trkpt>
<trkpt lat="43.74531501" lon="11.259702975"><ele>177</ele><time>2020-02-02T08:21:04Z</time></trkpt>
<trkpt lat="43.745334037" lon="11.259670034"><ele>177</ele><time>2020-02-02T08:21:05Z</time></trkpt>
<trkpt lat="43.74535298" lon="11.259637009"><ele>177</ele><time>2020-02-02T08:21:06Z</time></trkpt>
<trkpt lat="43.745373012" lon="11.259602979"><ele>177</ele><time>2020-02-02T08:21:07Z</time></trkpt>
<trkpt lat="43.745392961" lon="11.259568026"><ele>177</ele><time>2020-02-02T08:21:08Z</time></trkpt>
<trkpt lat="43.745412994" lon="11.259530978"><ele>177</ele><time>2020-02-02T08:21:09Z</time></trkpt>
<trkpt lat="43.745432021" lon="11.259493008"><ele>178</ele><time>2020-02-02T08:21:10Z</time></trkpt>
<trkpt lat="43.745450964" lon="11.25945596"><ele>178</ele><time>2020-02-02T08:21:11Z</time></trkpt>
<trkpt lat="43.745470997" lon="11.259421008"><ele>178</ele><time>2020-02-02T08:21:12Z</time></trkpt>
<trkpt lat="43.74549103" lon="11.259387983"><ele>178</ele><time>2020-02-02T08:21:13Z</time></trkpt>
<trkpt lat="43.745510979" lon="11.259358982"><ele>178</ele><time>2020-02-02T08:21:14Z</time></trkpt>
<trkpt lat="43.745532017" lon="11.259331992"><ele>178</ele><time>2020-02-02T08:21:15Z</time></trkpt>
<trkpt lat="43.745552972" lon="11.259307014"><ele>178</ele><time>2020-02-02T08:21:16Z</time></trkpt>
<trkpt lat="43.745574011" lon="11.259284969"><ele>178</ele><time>2020-02-02T08:21:17Z</time></trkpt>
<trkpt lat="43.745594965" lon="11.259263009"><ele>178</ele><time>2020-02-02T08:21:18Z</time></trkpt>
<trkpt lat="43.745614998" lon="11.259242976"><ele>178</ele><time>2020-02-02T08:21:19Z</time></trkpt>
<trkpt lat="43.745635031" lon="11.259224033"><ele>178</ele><time>2020-02-02T08:21:20Z</time></trkpt>
<trkpt lat="43.74565498" lon="11.259206012"><ele>178</ele><time>2020-02-02T08:21:21Z</time></trkpt>
<trkpt lat="43.745674007" lon="11.259187991"><ele>178</ele><time>2020-02-02T08:21:22Z</time></trkpt>
<trkpt lat="43.745692028" lon="11.259168964"><ele>178</ele><time>2020-02-02T08:21:23Z</time></trkpt>
<trkpt lat="43.745709965" lon="11.259150021"><ele>178</ele><time>2020-02-02T08:21:24Z</time></trkpt>
<trkpt lat="43.745728992" lon="11.259127976"><ele>178</ele><time>2020-02-02T08:21:25Z</time></trkpt>
<trkpt lat="43.745749025" lon="11.259102998"><ele>178</ele><time>2020-02-02T08:21:26Z</time></trkpt>
<trkpt lat="43.745769979" lon="11.259076009"><ele>178</ele><time>2020-02-02T08:21:27Z</time></trkpt>
<trkpt lat="43.745792024" lon="11.259047007"><ele>178</ele><time>2020-02-02T08:21:28Z</time></trkpt>
<trkpt lat="43.745815996" lon="11.259019012"><ele>178</ele><time>2020-02-02T08:21:29Z</time></trkpt>
<trkpt lat="43.745839968" lon="11.258992022"><ele>178</ele><time>2020-02-02T08:21:30Z</time></trkpt>
<trkpt lat="43.74586503" lon="11.258969977"><ele>178</ele><time>2020-02-02T08:21:31Z</time></trkpt>
<trkpt lat="43.745890008" lon="11.258950029"><ele>178</ele><time>2020-02-02T08:21:32Z</time></trkpt>
<trkpt lat="43.745914986" lon="11.258933013"><ele>178</ele><time>2020-02-02T08:21:33Z</time></trkpt>
<trkpt lat="43.74594097" lon="11.258915998"><ele>177</ele><time>2020-02-02T08:21:34Z</time></trkpt>
<trkpt lat="43.74596796" lon="11.258898983"><ele>177</ele><time>2020-02-02T08:21:35Z</time></trkpt>
<trkpt lat="43.745994028" lon="11.258882973"><ele>177</ele><time>2020-02-02T08:21:36Z</time></trkpt>
<trkpt lat="43.746022023" lon="11.258866042"><ele>177</ele><time>2020-02-02T08:21:37Z</time></trkpt>
<trkpt lat="43.746050019" lon="11.258851038"><ele>177</ele><time>2020-02-02T08:21:38Z</time></trkpt>
<trkpt lat="43.746139035" lon="11.258808039"><ele>177</ele><time>2020-02-02T08:21:41Z</time></trkpt>
<trkpt lat="43.746169964" lon="11.258794041"><ele>177</ele><time>2020-02-02T08:21:42Z</time></trkpt>
<trkpt lat="43.746200977" lon="11.258779038"><ele>176</ele><time>2020-02-02T08:21:43Z</time></trkpt>
<trkpt lat="43.746263003" lon="11.258748025"><ele>176</ele><time>2020-02-02T08:21:45Z</time></trkpt>
<trkpt lat="43.746294016" lon="11.258731009"><ele>176</ele><time>2020-02-02T08:21:46Z</time></trkpt>
<trkpt lat="43.746325029" lon="11.258711983"><ele>176</ele><time>2020-02-02T08:21:47Z</time></trkpt>
<trkpt lat="43.746355036" lon="11.258691028"><ele>176</ele><time>2020-02-02T08:21:48Z</time></trkpt>
<trkpt lat="43.746384038" lon="11.258668983"><ele>176</ele><time>2020-02-02T08:21:49Z</time></trkpt>
<trkpt lat="43.746413039" lon="11.258645011"><ele>176</ele><time>2020-02-02T08:21:50Z</time></trkpt>
<trkpt lat="43.74644204" lon="11.258620033"><ele>176</ele><time>2020-02-02T08:21:51Z</time></trkpt>
<trkpt lat="43.746470036" lon="11.258594971"><ele>176</ele><time>2020-02-02T08:21:52Z</time></trkpt>
<trkpt lat="43.746499037" lon="11.258569993"><ele>176</ele><time>2020-02-02T08:21:53Z</time></trkpt>
<trkpt lat="43.746527033" lon="11.258546021"><ele>176</ele><time>2020-02-02T08:21:54Z</time></trkpt>
<trkpt lat="43.746556034" lon="11.258521965"><ele>176</ele><time>2020-02-02T08:21:55Z</time></trkpt>
<trkpt lat="43.746585036" lon="11.258497993"><ele>176</ele><time>2020-02-02T08:21:56Z</time></trkpt>
<trkpt lat="43.746614037" lon="11.258477038"><ele>176</ele><time>2020-02-02T08:21:57Z</time></trkpt>
<trkpt lat="43.74664396" lon="11.258455999"><ele>176</ele><time>2020-02-02T08:21:58Z</time></trkpt>
<trkpt lat="43.746673968" lon="11.258435966"><ele>176</ele><time>2020-02-02T08:21:59Z</time></trkpt>
<trkpt lat="43.746703975" lon="11.258416018"><ele>176</ele><time>2020-02-02T08:22:00Z</time></trkpt>
<trkpt lat="43.746733982" lon="11.258395985"><ele>176</ele><time>2020-02-02T08:22:01Z</time></trkpt>
<trkpt lat="43.746762984" lon="11.258376036"><ele>176</ele><time>2020-02-02T08:22:02Z</time></trkpt>
<trkpt lat="43.746792991" lon="11.258354997"><ele>176</ele><time>2020-02-02T08:22:03Z</time></trkpt>
<trkpt lat="43.746822998" lon="11.258332031"><ele>176</ele><time>2020-02-02T08:22:04Z</time></trkpt>
<trkpt lat="43.746851999" lon="11.258307975"><ele>176</ele><time>2020-02-02T08:22:05Z</time></trkpt>
<trkpt lat="43.746879995" lon="11.258281991"><ele>175</ele><time>2020-02-02T08:22:06Z</time></trkpt>
<trkpt lat="43.746908996" lon="11.258253995"><ele>175</ele><time>2020-02-02T08:22:07Z</time></trkpt>
<trkpt lat="43.746935986" lon="11.258224994"><ele>175</ele><time>2020-02-02T08:22:08Z</time></trkpt>
<trkpt lat="43.746963982" lon="11.258194987"><ele>174</ele><time>2020-02-02T08:22:09Z</time></trkpt>
<trkpt lat="43.747041011" lon="11.258103959"><ele>174</ele><time>2020-02-02T08:22:12Z</time></trkpt>
<trkpt lat="43.747065989" lon="11.258074036"><ele>174</ele><time>2020-02-02T08:22:13Z</time></trkpt>
<trkpt lat="43.747089962" lon="11.25804604"><ele>174</ele><time>2020-02-02T08:22:14Z</time></trkpt>
<trkpt lat="43.747113012" lon="11.258018967"><ele>173</ele><time>2020-02-02T08:22:15Z</time></trkpt>
<trkpt lat="43.747135978" lon="11.257992983"><ele>173</ele><time>2020-02-02T08:22:16Z</time></trkpt>
<trkpt lat="43.747160034" lon="11.257968005"><ele>173</ele><time>2020-02-02T08:22:17Z</time></trkpt>
<trkpt lat="43.747185012" lon="11.257945038"><ele>173</ele><time>2020-02-02T08:22:18Z</time></trkpt>
<trkpt lat="43.747212002" lon="11.257924"><ele>173</ele><time>2020-02-02T08:22:19Z</time></trkpt>
<trkpt lat="43.747243015" lon="11.257903967"><ele>173</ele><time>2020-02-02T08:22:20Z</time></trkpt>
<trkpt lat="43.747275034" lon="11.257885024"><ele>173</ele><time>2020-02-02T08:22:21Z</time></trkpt>
<trkpt lat="43.747306969" lon="11.257869015"><ele>173</ele><time>2020-02-02T08:22:22Z</time></trkpt>
<trkpt lat="43.747339994" lon="11.257855017"><ele>173</ele><time>2020-02-02T08:22:23Z</time></trkpt>
<trkpt lat="43.747371007" lon="11.257843031"><ele>173</ele><time>2020-02-02T08:22:24Z</time></trkpt>
<trkpt lat="43.747401014" lon="11.257832972"><ele>172</ele><time>2020-02-02T08:22:25Z</time></trkpt>
<trkpt lat="43.747430015" lon="11.25782501"><ele>172</ele><time>2020-02-02T08:22:26Z</time></trkpt>
<trkpt lat="43.747458011" lon="11.257817969"><ele>172</ele><time>2020-02-02T08:22:27Z</time></trkpt>
<trkpt lat="43.747486006" lon="11.257811012"><ele>172</ele><time>2020-02-02T08:22:28Z</time></trkpt>
<trkpt lat="43.747515008" lon="11.257803971"><ele>172</ele><time>2020-02-02T08:22:29Z</time></trkpt>
<trkpt lat="43.747544009" lon="11.257796008"><ele>172</ele><time>2020-02-02T08:22:30Z</time></trkpt>
<trkpt lat="43.747575022" lon="11.25778704"><ele>172</ele><time>2020-02-02T08:22:31Z</time></trkpt>
<trkpt lat="43.747606035" lon="11.257776981"><ele>172</ele><time>2020-02-02T08:22:32Z</time></trkpt>
<trkpt lat="43.747639982" lon="11.257763989"><ele>172</ele><time>2020-02-02T08:22:33Z</time></trkpt>
<trkpt lat="43.747674013" lon="11.257750997"><ele>173</ele><time>2020-02-02T08:22:34Z</time></trkpt>
<trkpt lat="43.747707959" lon="11.257737"><ele>173</ele><time>2020-02-02T08:22:35Z</time></trkpt>
<trkpt lat="43.747740984" lon="11.257726019"><ele>173</ele><time>2020-02-02T08:22:36Z</time></trkpt>
<trkpt lat="43.747771997" lon="11.257716967"><ele>173</ele><time>2020-02-02T08:22:37Z</time></trkpt>
<trkpt lat="43.747800998" lon="11.257713027"><ele>173</ele><time>2020-02-02T08:22:38Z</time></trkpt>
<trkpt lat="43.747827988" lon="11.257712021"><ele>173</ele><time>2020-02-02T08:22:39Z</time></trkpt>
<trkpt lat="43.747853972" lon="11.257713027"><ele>173</ele><time>2020-02-02T08:22:40Z</time></trkpt>
<trkpt lat="43.74788004" lon="11.257716967"><ele>173</ele><time>2020-02-02T08:22:41Z</time></trkpt>
<trkpt lat="43.747907029" lon="11.257723002"><ele>173</ele><time>2020-02-02T08:22:42Z</time></trkpt>
<trkpt lat="43.747935025" lon="11.257729037"><ele>173</ele><time>2020-02-02T08:22:43Z</time></trkpt>
<trkpt lat="43.747964026" lon="11.257737"><ele>173</ele><time>2020-02-02T08:22:44Z</time></trkpt>
<trkpt lat="43.747993028" lon="11.25774404"><ele>173</ele><time>2020-02-02T08:22:45Z</time></trkpt>
<trkpt lat="43.748022029" lon="11.257750997"><ele>173</ele><time>2020-02-02T08:22:46Z</time></trkpt>
<trkpt lat="43.748052036" lon="11.257758038"><ele>173</ele><time>2020-02-02T08:22:47Z</time></trkpt>
<trkpt lat="43.74808196" lon="11.257763989"><ele>173</ele><time>2020-02-02T08:22:48Z</time></trkpt>
<trkpt lat="43.748111967" lon="11.257769018"><ele>173</ele><time>2020-02-02T08:22:49Z</time></trkpt>
<trkpt lat="43.748140968" lon="11.257772036"><ele>173</ele><time>2020-02-02T08:22:50Z</time></trkpt>
<trkpt lat="43.74816997" lon="11.257773964"><ele>173</ele><time>2020-02-02T08:22:51Z</time></trkpt>
<trkpt lat="43.748198971" lon="11.257775975"><ele>173</ele><time>2020-02-02T08:22:52Z</time></trkpt>
<trkpt lat="43.748225961" lon="11.257777987"><ele>173</ele><time>2020-02-02T08:22:53Z</time></trkpt>
<trkpt lat="43.748253034" lon="11.25778201"><ele>173</ele><time>2020-02-02T08:22:54Z</time></trkpt>
<trkpt lat="43.748279018" lon="11.257786034"><ele>173</ele><time>2020-02-02T08:22:55Z</time></trkpt>
<trkpt lat="43.748302991" lon="11.257791985"><ele>173</ele><time>2020-02-02T08:22:56Z</time></trkpt>
<trkpt lat="43.748328974" lon="11.257795002"><ele>173</ele><time>2020-02-02T08:22:57Z</time></trkpt>
<trkpt lat="43.748354036" lon="11.257797014"><ele>173</ele><time>2020-02-02T08:22:58Z</time></trkpt>
<trkpt lat="43.748381026" lon="11.257793996"><ele>173</ele><time>2020-02-02T08:22:59Z</time></trkpt>
<trkpt lat="43.748410027" lon="11.257788967"><ele>173</ele><time>2020-02-02T08:23:00Z</time></trkpt>
<trkpt lat="43.748438023" lon="11.25778201"><ele>173</ele><time>2020-02-02T08:23:01Z</time></trkpt>
<trkpt lat="43.748467024" lon="11.257773964"><ele>173</ele><time>2020-02-02T08:23:02Z</time></trkpt>
<trkpt lat="43.748496026" lon="11.257768013"><ele>173</ele><time>2020-02-02T08:23:03Z</time></trkpt>
<trkpt lat="43.748552017" lon="11.257759966"><ele>173</ele><time>2020-02-02T08:23:05Z</time></trkpt>
<trkpt lat="43.748576995" lon="11.25775896"><ele>173</ele><time>2020-02-02T08:23:06Z</time></trkpt>
<trkpt lat="43.748600967" lon="11.25775896"><ele>173</ele><time>2020-02-02T08:23:07Z</time></trkpt>
<trkpt lat="43.748623012" lon="11.257759966"><ele>173</ele><time>2020-02-02T08:23:08Z</time></trkpt>
<trkpt lat="43.748643966" lon="11.257760972"><ele>173</ele><time>2020-02-02T08:23:09Z</time></trkpt>
<trkpt lat="43.748667017" lon="11.257760972"><ele>173</ele><time>2020-02-02T08:23:10Z</time></trkpt>
<trkpt lat="43.748693001" lon="11.257759966"><ele>173</ele><time>2020-02-02T08:23:11Z</time></trkpt>
<trkpt lat="43.748725019" lon="11.257757032"><ele>173</ele><time>2020-02-02T08:23:12Z</time></trkpt>
<trkpt lat="43.748761984" lon="11.257750997"><ele>173</ele><time>2020-02-02T08:23:13Z</time></trkpt>
<trkpt lat="43.748803977" lon="11.257743035"><ele>173</ele><time>2020-02-02T08:23:14Z</time></trkpt>
<trkpt lat="43.748846976" lon="11.257733982"><ele>173</ele><time>2020-02-02T08:23:15Z</time></trkpt>
<trkpt lat="43.748887964" lon="11.257725013"><ele>173</ele><time>2020-02-02T08:23:16Z</time></trkpt>
<trkpt lat="43.748924006" lon="11.257717973"><ele>173</ele><time>2020-02-02T08:23:17Z</time></trkpt>
<trkpt lat="43.74895703" lon="11.257711016"><ele>172</ele><time>2020-02-02T08:23:18Z</time></trkpt>
<trkpt lat="43.74898796" lon="11.257704981"><ele>172</ele><time>2020-02-02T08:23:19Z</time></trkpt>
<trkpt lat="43.749016961" lon="11.257700035"><ele>172</ele><time>2020-02-02T08:23:20Z</time></trkpt>
<trkpt lat="43.749045962" lon="11.257695006"><ele>172</ele><time>2020-02-02T08:23:21Z</time></trkpt>
<trkpt lat="43.749074964" lon="11.257691989"><ele>172</ele><time>2020-02-02T08:23:22Z</time></trkpt>
<trkpt lat="43.749154005" lon="11.257694"><ele>172</ele><time>2020-02-02T08:23:25Z</time></trkpt>
<trkpt lat="43.749180995" lon="11.257696012"><ele>172</ele><time>2020-02-02T08:23:26Z</time></trkpt>
<trkpt lat="43.749211002" lon="11.257694"><ele>172</ele><time>2020-02-02T08:23:27Z</time></trkpt>
<trkpt lat="43.749246961" lon="11.25768696"><ele>172</ele><time>2020-02-02T08:23:28Z</time></trkpt>
<trkpt lat="43.74928602" lon="11.257675979"><ele>172</ele><time>2020-02-02T08:23:29Z</time></trkpt>
<trkpt lat="43.749324996" lon="11.257664999"><ele>172</ele><time>2020-02-02T08:23:30Z</time></trkpt>
<trkpt lat="43.74936196" lon="11.257654019"><ele>172</ele><time>2020-02-02T08:23:31Z</time></trkpt>
<trkpt lat="43.749399008" lon="11.257642033"><ele>172</ele><time>2020-02-02T08:23:32Z</time></trkpt>
<trkpt lat="43.749434967" lon="11.257629041"><ele>172</ele><time>2020-02-02T08:23:33Z</time></trkpt>
<trkpt lat="43.74953798" lon="11.257582018"><ele>172</ele><time>2020-02-02T08:23:36Z</time></trkpt>
<trkpt lat="43.749569999" lon="11.257563997"><ele>172</ele><time>2020-02-02T08:23:37Z</time></trkpt>
<trkpt lat="43.749603024" lon="11.257545976"><ele>171</ele><time>2020-02-02T08:23:38Z</time></trkpt>
<trkpt lat="43.749634959" lon="11.257527033"><ele>171</ele><time>2020-02-02T08:23:39Z</time></trkpt>
<trkpt lat="43.749665972" lon="11.257507"><ele>171</ele><time>2020-02-02T08:23:40Z</time></trkpt>
<trkpt lat="43.749696985" lon="11.257487973"><ele>171</ele><time>2020-02-02T08:23:41Z</time></trkpt>
<trkpt lat="43.749727998" lon="11.25746903"><ele>171</ele><time>2020-02-02T08:23:42Z</time></trkpt>
<trkpt lat="43.749759011" lon="11.257450003"><ele>170</ele><time>2020-02-02T08:23:43Z</time></trkpt>
<trkpt lat="43.749790024" lon="11.257431982"><ele>170</ele><time>2020-02-02T08:23:44Z</time></trkpt>
<trkpt lat="43.749821037" lon="11.257413961"><ele>170</ele><time>2020-02-02T08:23:45Z</time></trkpt>
<trkpt lat="43.74985096" lon="11.257396024"><ele>170</ele><time>2020-02-02T08:23:46Z</time></trkpt>
<trkpt lat="43.749881973" lon="11.257379008"><ele>169</ele><time>2020-02-02T08:23:47Z</time></trkpt>
<trkpt lat="43.749912987" lon="11.257361993"><ele>169</ele><time>2020-02-02T08:23:48Z</time></trkpt>
<trkpt lat="43.749942994" lon="11.257344978"><ele>169</ele><time>2020-02-02T08:23:49Z</time></trkpt>
<trkpt lat="43.749973001" lon="11.257328968"><ele>169</ele><time>2020-02-02T08:23:50Z</time></trkpt>
<trkpt lat="43.750003008" lon="11.257312959"><ele>168</ele><time>2020-02-02T08:23:51Z</time></trkpt>
<trkpt lat="43.750033015" lon="11.257298039"><ele>168</ele><time>2020-02-02T08:23:52Z</time></trkpt>
<trkpt lat="43.750063023" lon="11.257283036"><ele>168</ele><time>2020-02-02T08:23:53Z</time></trkpt>
<trkpt lat="43.75009303" lon="11.257268032"><ele>168</ele><time>2020-02-02T08:23:54Z</time></trkpt>
<trkpt lat="43.750122031" lon="11.257253028"><ele>168</ele><time>2020-02-02T08:23:55Z</time></trkpt>
<trkpt lat="43.750152038" lon="11.257238025"><ele>168</ele><time>2020-02-02T08:23:56Z</time></trkpt>
<trkpt lat="43.75018104" lon="11.257224027"><ele>169</ele><time>2020-02-02T08:23:57Z</time></trkpt>
<trkpt lat="43.750267038" lon="11.25718304"><ele>169</ele><time>2020-02-02T08:24:00Z</time></trkpt>
<trkpt lat="43.750295034" lon="11.257169964"><ele>169</ele><time>2020-02-02T08:24:01Z</time></trkpt>
<trkpt lat="43.750324035" lon="11.257155966"><ele>169</ele><time>2020-02-02T08:24:02Z</time></trkpt>
<trkpt lat="43.750352031" lon="11.257141968"><ele>169</ele><time>2020-02-02T08:24:03Z</time></trkpt>
<trkpt lat="43.750380026" lon="11.25712797"><ele>169</ele><time>2020-02-02T08:24:04Z</time></trkpt>
<trkpt lat="43.750407016" lon="11.257111961"><ele>169</ele><time>2020-02-02T08:24:05Z</time></trkpt>
<trkpt lat="43.750435011" lon="11.25709503"><ele>169</ele><time>2020-02-02T08:24:06Z</time></trkpt>
<trkpt lat="43.750463007" lon="11.257077008"><ele>169</ele><time>2020-02-02T08:24:07Z</time></trkpt>
<trkpt lat="43.750491003" lon="11.257056976"><ele>169</ele><time>2020-02-02T08:24:08Z</time></trkpt>
<trkpt lat="43.750517992" lon="11.257036021"><ele>169</ele><time>2020-02-02T08:24:09Z</time></trkpt>
<trkpt lat="43.750545988" lon="11.257012971"><ele>169</ele><time>2020-02-02T08:24:10Z</time></trkpt>
<trkpt lat="43.750572978" lon="11.256988999"><ele>169</ele><time>2020-02-02T08:24:11Z</time></trkpt>
<trkpt lat="43.750599967" lon="11.256963015"><ele>169</ele><time>2020-02-02T08:24:12Z</time></trkpt>
<trkpt lat="43.750626035" lon="11.256937031"><ele>169</ele><time>2020-02-02T08:24:13Z</time></trkpt>
<trkpt lat="43.750652019" lon="11.256910963"><ele>169</ele><time>2020-02-02T08:24:14Z</time></trkpt>
<trkpt lat="43.750676997" lon="11.256883973"><ele>169</ele><time>2020-02-02T08:24:15Z</time></trkpt>
<trkpt lat="43.750700969" lon="11.256856984"><ele>169</ele><time>2020-02-02T08:24:16Z</time></trkpt>
<trkpt lat="43.750724019" lon="11.256829994"><ele>169</ele><time>2020-02-02T08:24:17Z</time></trkpt>
<trkpt lat="43.75074598" lon="11.25680401"><ele>169</ele><time>2020-02-02T08:24:18Z</time></trkpt>
<trkpt lat="43.750767019" lon="11.256778026"><ele>169</ele><time>2020-02-02T08:24:19Z</time></trkpt>
<trkpt lat="43.750788979" lon="11.256751958"><ele>169</ele><time>2020-02-02T08:24:20Z</time></trkpt>
<trkpt lat="43.750810018" lon="11.256725974"><ele>169</ele><time>2020-02-02T08:24:21Z</time></trkpt>
<trkpt lat="43.750831978" lon="11.25669999"><ele>169</ele><time>2020-02-02T08:24:22Z</time></trkpt>
<trkpt lat="43.750856034" lon="11.256673001"><ele>169</ele><time>2020-02-02T08:24:23Z</time></trkpt>
<trkpt lat="43.750880007" lon="11.256647017"><ele>170</ele><time>2020-02-02T08:24:24Z</time></trkpt>
<trkpt lat="43.750903979" lon="11.256622039"><ele>170</ele><time>2020-02-02T08:24:25Z</time></trkpt>
<trkpt lat="43.750927029" lon="11.256597983"><ele>170</ele><time>2020-02-02T08:24:26Z</time></trkpt>
<trkpt lat="43.750949996" lon="11.256575016"><ele>171</ele><time>2020-02-02T08:24:27Z</time></trkpt>
<trkpt lat="43.750971034" lon="11.256553978"><ele>171</ele><time>2020-02-02T08:24:28Z</time></trkpt>
<trkpt lat="43.750991989" lon="11.256532017"><ele>171</ele><time>2020-02-02T08:24:29Z</time></trkpt>
<trkpt lat="43.751011016" lon="11.256508967"><ele>171</ele><time>2020-02-02T08:24:30Z</time></trkpt>
<trkpt lat="43.751029959" lon="11.256482983"><ele>172</ele><time>2020-02-02T08:24:31Z</time></trkpt>
<trkpt lat="43.75104798" lon="11.256454987"><ele>172</ele><time>2020-02-02T08:24:32Z</time></trkpt>
<trkpt lat="43.751066001" lon="11.25642498"><ele>172</ele><time>2020-02-02T08:24:33Z</time></trkpt>
<trkpt lat="43.751083016" lon="11.256394973"><ele>172</ele><time>2020-02-02T08:24:34Z</time></trkpt>
<trkpt lat="43.751101037" lon="11.256365972"><ele>172</ele><time>2020-02-02T08:24:35Z</time></trkpt>
<trkpt lat="43.751159962" lon="11.256295983"><ele>172</ele><time>2020-02-02T08:24:38Z</time></trkpt>
<trkpt lat="43.751182007" lon="11.256278967"><ele>172</ele><time>2020-02-02T08:24:39Z</time></trkpt>
<trkpt lat="43.751203967" lon="11.256263964"><ele>172</ele><time>2020-02-02T08:24:40Z</time></trkpt>
<trkpt lat="43.751228023" lon="11.256250972"><ele>173</ele><time>2020-02-02T08:24:41Z</time></trkpt>
<trkpt lat="43.751253001" lon="11.256242003"><ele>173</ele><time>2020-02-02T08:24:42Z</time></trkpt>
<trkpt lat="43.751278985" lon="11.256234962"><ele>173</ele><time>2020-02-02T08:24:43Z</time></trkpt>
<trkpt lat="43.751306981" lon="11.256231023"><ele>173</ele><time>2020-02-02T08:24:44Z</time></trkpt>
<trkpt lat="43.751335982" lon="11.256229011"><ele>173</ele><time>2020-02-02T08:24:45Z</time></trkpt>
<trkpt lat="43.751365989" lon="11.256229011"><ele>173</ele><time>2020-02-02T08:24:46Z</time></trkpt>
<trkpt lat="43.751397002" lon="11.256232029"><ele>173</ele><time>2020-02-02T08:24:47Z</time></trkpt>
<trkpt lat="43.751429021" lon="11.256235968"><ele>173</ele><time>2020-02-02T08:24:48Z</time></trkpt>
<trkpt lat="43.75146104" lon="11.256243009"><ele>173</ele><time>2020-02-02T08:24:49Z</time></trkpt>
<trkpt lat="43.751493981" lon="11.256249966"><ele>173</ele><time>2020-02-02T08:24:50Z</time></trkpt>
<trkpt lat="43.751527006" lon="11.256260024"><ele>173</ele><time>2020-02-02T08:24:51Z</time></trkpt>
<trkpt lat="43.751561036" lon="11.256269999"><ele>173</ele><time>2020-02-02T08:24:52Z</time></trkpt>
<trkpt lat="43.751592971" lon="11.256281985"><ele>173</ele><time>2020-02-02T08:24:53Z</time></trkpt>
<trkpt lat="43.751625996" lon="11.256293971"><ele>173</ele><time>2020-02-02T08:24:54Z</time></trkpt>
<trkpt lat="43.751658015" lon="11.256306963"><ele>174</ele><time>2020-02-02T08:24:55Z</time></trkpt>
<trkpt lat="43.751690034" lon="11.256320961"><ele>173</ele><time>2020-02-02T08:24:56Z</time></trkpt>
<trkpt lat="43.751721969" lon="11.256335964"><ele>173</ele><time>2020-02-02T08:24:57Z</time></trkpt>
<trkpt lat="43.751752982" lon="11.256350968"><ele>173</ele><time>2020-02-02T08:24:58Z</time></trkpt>
<trkpt lat="43.751783995" lon="11.256367983"><ele>173</ele><time>2020-02-02T08:24:59Z</time></trkpt>
<trkpt lat="43.751814002" lon="11.256383993"><ele>173</ele><time>2020-02-02T08:25:00Z</time></trkpt>
<trkpt lat="43.751844009" lon="11.256402014"><ele>172</ele><time>2020-02-02T08:25:01Z</time></trkpt>
<trkpt lat="43.751874017" lon="11.256420035"><ele>172</ele><time>2020-02-02T08:25:02Z</time></trkpt>
<trkpt lat="43.751903018" lon="11.256438978"><ele>172</ele><time>2020-02-02T08:25:03Z</time></trkpt>
<trkpt lat="43.751933025" lon="11.256459011"><ele>172</ele><time>2020-02-02T08:25:04Z</time></trkpt>
<trkpt lat="43.751962027" lon="11.25647896"><ele>172</ele><time>2020-02-02T08:25:05Z</time></trkpt>
<trkpt lat="43.751990022" lon="11.256498992"><ele>172</ele><time>2020-02-02T08:25:06Z</time></trkpt>
<trkpt lat="43.752019024" lon="11.256521037"><ele>172</ele><time>2020-02-02T08:25:07Z</time></trkpt>
<trkpt lat="43.752047019" lon="11.256541992"><ele>172</ele><time>2020-02-02T08:25:08Z</time></trkpt>
<trkpt lat="43.752075015" lon="11.256565042"><ele>172</ele><time>2020-02-02T08:25:09Z</time></trkpt>
<trkpt lat="43.752102004" lon="11.256587002"><ele>172</ele><time>2020-02-02T08:25:10Z</time></trkpt>
<trkpt lat="43.752128994" lon="11.256609969"><ele>172</ele><time>2020-02-02T08:25:11Z</time></trkpt>
<trkpt lat="43.75215699" lon="11.256634025"><ele>172</ele><time>2020-02-02T08:25:12Z</time></trkpt>
<trkpt lat="43.752183979" lon="11.256656991"><ele>173</ele><time>2020-02-02T08:25:13Z</time></trkpt>
<trkpt lat="43.752210969" lon="11.256680964"><ele>173</ele><time>2020-02-02T08:25:14Z</time></trkpt>
<trkpt lat="43.752238965" lon="11.256703008"><ele>173</ele><time>2020-02-02T08:25:15Z</time></trkpt>
<trkpt lat="43.752266038" lon="11.256725974"><ele>172</ele><time>2020-02-02T08:25:16Z</time></trkpt>
<trkpt lat="43.752294034" lon="11.256747013"><ele>172</ele><time>2020-02-02T08:25:17Z</time></trkpt>
<trkpt lat="43.752323035" lon="11.256767968"><ele>172</ele><time>2020-02-02T08:25:18Z</time></trkpt>
<trkpt lat="43.752352037" lon="11.256788"><ele>172</ele><time>2020-02-02T08:25:19Z</time></trkpt>
<trkpt lat="43.752381038" lon="11.256806022"><ele>172</ele><time>2020-02-02T08:25:20Z</time></trkpt>
<trkpt lat="43.752410961" lon="11.256822031"><ele>172</ele><time>2020-02-02T08:25:21Z</time></trkpt>
<trkpt lat="43.752504" lon="11.256864024"><ele>172</ele><time>2020-02-02T08:25:24Z</time></trkpt>
<trkpt lat="43.752536019" lon="11.25687601"><ele>171</ele><time>2020-02-02T08:25:25Z</time></trkpt>
<trkpt lat="43.752568038" lon="11.256885985"><ele>171</ele><time>2020-02-02T08:25:26Z</time></trkpt>
<trkpt lat="43.752599973" lon="11.256894032"><ele>170</ele><time>2020-02-02T08:25:27Z</time></trkpt>
<trkpt lat="43.752631992" lon="11.256901994"><ele>170</ele><time>2020-02-02T08:25:28Z</time></trkpt>
<trkpt lat="43.752665017" lon="11.256908029"><ele>169</ele><time>2020-02-02T08:25:29Z</time></trkpt>
<trkpt lat="43.752697036" lon="11.256912975"><ele>168</ele><time>2020-02-02T08:25:30Z</time></trkpt>
<trkpt lat="43.752728971" lon="11.256918004"><ele>168</ele><time>2020-02-02T08:25:31Z</time></trkpt>
<trkpt lat="43.752761995" lon="11.256923033"><ele>167</ele><time>2020-02-02T08:25:32Z</time></trkpt>
<trkpt lat="43.75279502" lon="11.256927978"><ele>167</ele><time>2020-02-02T08:25:33Z</time></trkpt>
<trkpt lat="43.752827039" lon="11.256934013"><ele>166</ele><time>2020-02-02T08:25:34Z</time></trkpt>
<trkpt lat="43.75285998" lon="11.25694097"><ele>166</ele><time>2020-02-02T08:25:35Z</time></trkpt>
<trkpt lat="43.752893005" lon="11.256949017"><ele>165</ele><time>2020-02-02T08:25:36Z</time></trkpt>
<trkpt lat="43.752926029" lon="11.256958991"><ele>165</ele><time>2020-02-02T08:25:37Z</time></trkpt>
<trkpt lat="43.752959976" lon="11.256971983"><ele>164</ele><time>2020-02-02T08:25:38Z</time></trkpt>
<trkpt lat="43.752993001" lon="11.256986987"><ele>164</ele><time>2020-02-02T08:25:39Z</time></trkpt>
<trkpt lat="43.753026025" lon="11.257004002"><ele>163</ele><time>2020-02-02T08:25:40Z</time></trkpt>
<trkpt lat="43.75305796" lon="11.257023029"><ele>163</ele><time>2020-02-02T08:25:41Z</time></trkpt>
<trkpt lat="43.753090985" lon="11.25704499"><ele>163</ele><time>2020-02-02T08:25:42Z</time></trkpt>
<trkpt lat="43.753121998" lon="11.257068962"><ele>162</ele><time>2020-02-02T08:25:43Z</time></trkpt>
<trkpt lat="43.753153011" lon="11.25709503"><ele>162</ele><time>2020-02-02T08:25:44Z</time></trkpt>
<trkpt lat="43.753182013" lon="11.257123025"><ele>162</ele><time>2020-02-02T08:25:45Z</time></trkpt>
<trkpt lat="43.753210008" lon="11.257153032"><ele>161</ele><time>2020-02-02T08:25:46Z</time></trkpt>
<trkpt lat="43.753236998" lon="11.257184967"><ele>161</ele><time>2020-02-02T08:25:47Z</time></trkpt>
<trkpt lat="43.753262982" lon="11.257218998"><ele>161</ele><time>2020-02-02T08:25:48Z</time></trkpt>
<trkpt lat="43.753288966" lon="11.25725504"><ele>161</ele><time>2020-02-02T08:25:49Z</time></trkpt>
<trkpt lat="43.753313022" lon="11.257292004"><ele>161</ele><time>2020-02-02T08:25:50Z</time></trkpt>
<trkpt lat="43.753335988" lon="11.257329974"><ele>161</ele><time>2020-02-02T08:25:51Z</time></trkpt>
<trkpt lat="43.753359038" lon="11.257369034"><ele>161</ele><time>2020-02-02T08:25:52Z</time></trkpt>
<trkpt lat="43.753380999" lon="11.257410021"><ele>161</ele><time>2020-02-02T08:25:53Z</time></trkpt>
<trkpt lat="43.753402038" lon="11.257451009"><ele>161</ele><time>2020-02-02T08:25:54Z</time></trkpt>
<trkpt lat="43.753422992" lon="11.257493002"><ele>161</ele><time>2020-02-02T08:25:55Z</time></trkpt>
<trkpt lat="43.753444031" lon="11.257534996"><ele>161</ele><time>2020-02-02T08:25:56Z</time></trkpt>
<trkpt lat="43.75346398" lon="11.257576989"><ele>161</ele><time>2020-02-02T08:25:57Z</time></trkpt>
<trkpt lat="43.753484013" lon="11.257619988"><ele>161</ele><time>2020-02-02T08:25:58Z</time></trkpt>
<trkpt lat="43.753503961" lon="11.257662987"><ele>160</ele><time>2020-02-02T08:25:59Z</time></trkpt>
<trkpt lat="43.753523994" lon="11.257704981"><ele>160</ele><time>2020-02-02T08:26:00Z</time></trkpt>
<trkpt lat="43.753544027" lon="11.257746974"><ele>160</ele><time>2020-02-02T08:26:01Z</time></trkpt>
<trkpt lat="43.753563976" lon="11.257787962"><ele>160</ele><time>2020-02-02T08:26:02Z</time></trkpt>
<trkpt lat="43.753584009" lon="11.257829033"><ele>160</ele><time>2020-02-02T08:26:03Z</time></trkpt>
<trkpt lat="43.753604963" lon="11.257869015"><ele>159</ele><time>2020-02-02T08:26:04Z</time></trkpt>
<trkpt lat="43.753624996" lon="11.25790799"><ele>159</ele><time>2020-02-02T08:26:05Z</time></trkpt>
<trkpt lat="43.753689034" lon="11.25802299"><ele>159</ele><time>2020-02-02T08:26:08Z</time></trkpt>
<trkpt lat="43.753709989" lon="11.258060038"><ele>159</ele><time>2020-02-02T08:26:09Z</time></trkpt>
<trkpt lat="43.753731027" lon="11.258098008"><ele>159</ele><time>2020-02-02T08:26:10Z</time></trkpt>
<trkpt lat="43.753752988" lon="11.258134972"><ele>159</ele><time>2020-02-02T08:26:11Z</time></trkpt>
<trkpt lat="43.753774026" lon="11.258173026"><ele>159</ele><time>2020-02-02T08:26:12Z</time></trkpt>
<trkpt lat="43.753795987" lon="11.258212002"><ele>159</ele><time>2020-02-02T08:26:13Z</time></trkpt>
<trkpt lat="43.753817026" lon="11.258249972"><ele>159</ele><time>2020-02-02T08:26:14Z</time></trkpt>
<trkpt lat="43.75383798" lon="11.258289032"><ele>159</ele><time>2020-02-02T08:26:15Z</time></trkpt>
<trkpt lat="43.753858013" lon="11.258328008"><ele>159</ele><time>2020-02-02T08:26:16Z</time></trkpt>
<trkpt lat="43.753877962" lon="11.258366983"><ele>158</ele><time>2020-02-02T08:26:17Z</time></trkpt>
<trkpt lat="43.753897995" lon="11.258405959"><ele>158</ele><time>2020-02-02T08:26:18Z</time></trkpt>
<trkpt lat="43.753917022" lon="11.258445019"><ele>158</ele><time>2020-02-02T08:26:19Z</time></trkpt>
<trkpt lat="43.753934959" lon="11.258482989"><ele>158</ele><time>2020-02-02T08:26:20Z</time></trkpt>
<trkpt lat="43.753951974" lon="11.258521965"><ele>158</ele><time>2020-02-02T08:26:21Z</time></trkpt>
<trkpt lat="43.753968989" lon="11.258560019"><ele>157</ele><time>2020-02-02T08:26:22Z</time></trkpt>
<trkpt lat="43.753986005" lon="11.258597989"><ele>157</ele><time>2020-02-02T08:26:23Z</time></trkpt>
<trkpt lat="43.75400302" lon="11.258634031"><ele>157</ele><time>2020-02-02T08:26:24Z</time></trkpt>
<trkpt lat="43.754020035" lon="11.258669989"><ele>157</ele><time>2020-02-02T08:26:25Z</time></trkpt>
<trkpt lat="43.754037973" lon="11.25870402"><ele>157</ele><time>2020-02-02T08:26:26Z</time></trkpt>
<trkpt lat="43.754056999" lon="11.258736039"><ele>157</ele><time>2020-02-02T08:26:27Z</time></trkpt>
<trkpt lat="43.754078038" lon="11.258765962"><ele>157</ele><time>2020-02-02T08:26:28Z</time></trkpt>
<trkpt lat="43.754099999" lon="11.258794041"><ele>156</ele><time>2020-02-02T08:26:29Z</time></trkpt>
<trkpt lat="43.754123971" lon="11.258820025"><ele>156</ele><time>2020-02-02T08:26:30Z</time></trkpt>
<trkpt lat="43.754150039" lon="11.258842992"><ele>156</ele><time>2020-02-02T08:26:31Z</time></trkpt>
<trkpt lat="43.754177028" lon="11.258865036"><ele>156</ele><time>2020-02-02T08:26:32Z</time></trkpt>
<trkpt lat="43.75420603" lon="11.258884985"><ele>156</ele><time>2020-02-02T08:26:33Z</time></trkpt>
<trkpt lat="43.754236037" lon="11.258903006"><ele>156</ele><time>2020-02-02T08:26:34Z</time></trkpt>
<trkpt lat="43.754266966" lon="11.258919016"><ele>156</ele><time>2020-02-02T08:26:35Z</time></trkpt>
<trkpt lat="43.754297979" lon="11.258935025"><ele>156</ele><time>2020-02-02T08:26:36Z</time></trkpt>
<trkpt lat="43.754329998" lon="11.258950029"><ele>156</ele><time>2020-02-02T08:26:37Z</time></trkpt>
<trkpt lat="43.754363023" lon="11.258964026"><ele>156</ele><time>2020-02-02T08:26:38Z</time></trkpt>
<trkpt lat="43.754395964" lon="11.258978024"><ele>156</ele><time>2020-02-02T08:26:39Z</time></trkpt>
<trkpt lat="43.754428988" lon="11.258992022"><ele>156</ele><time>2020-02-02T08:26:40Z</time></trkpt>
<trkpt lat="43.754462013" lon="11.259005014"><ele>156</ele><time>2020-02-02T08:26:41Z</time></trkpt>
<trkpt lat="43.754495038" lon="11.259018006"><ele>156</ele><time>2020-02-02T08:26:42Z</time></trkpt>
<trkpt lat="43.754527979" lon="11.259030998"><ele>156</ele><time>2020-02-02T08:26:43Z</time></trkpt>
<trkpt lat="43.754562009" lon="11.25904399"><ele>156</ele><time>2020-02-02T08:26:44Z</time></trkpt>
<trkpt lat="43.754595034" lon="11.259055976"><ele>156</ele><time>2020-02-02T08:26:45Z</time></trkpt>
<trkpt lat="43.754628981" lon="11.259068968"><ele>156</ele><time>2020-02-02T08:26:46Z</time></trkpt>
<trkpt lat="43.754663011" lon="11.25908196"><ele>156</ele><time>2020-02-02T08:26:47Z</time></trkpt>
<trkpt lat="43.754696036" lon="11.259095035"><ele>156</ele><time>2020-02-02T08:26:48Z</time></trkpt>
<trkpt lat="43.754729982" lon="11.259109033"><ele>155</ele><time>2020-02-02T08:26:49Z</time></trkpt>
<trkpt lat="43.754764013" lon="11.259122025"><ele>155</ele><time>2020-02-02T08:26:50Z</time></trkpt>
<trkpt lat="43.754798966" lon="11.259137029"><ele>155</ele><time>2020-02-02T08:26:51Z</time></trkpt>
<trkpt lat="43.754832996" lon="11.259151027"><ele>155</ele><time>2020-02-02T08:26:52Z</time></trkpt>
<trkpt lat="43.754867027" lon="11.25916603"><ele>155</ele><time>2020-02-02T08:26:53Z</time></trkpt>
<trkpt lat="43.754901979" lon="11.25918204"><ele>155</ele><time>2020-02-02T08:26:54Z</time></trkpt>
<trkpt lat="43.75493601" lon="11.259197965"><ele>155</ele><time>2020-02-02T08:26:55Z</time></trkpt>
<trkpt lat="43.754970962" lon="11.259214981"><ele>154</ele><time>2020-02-02T08:26:56Z</time></trkpt>
<trkpt lat="43.755005999" lon="11.259233002"><ele>154</ele><time>2020-02-02T08:26:57Z</time></trkpt>
<trkpt lat="43.755040029" lon="11.259251023"><ele>154</ele><time>2020-02-02T08:26:58Z</time></trkpt>
<trkpt lat="43.755074982" lon="11.25926896"><ele>153</ele><time>2020-02-02T08:26:59Z</time></trkpt>
<trkpt lat="43.755109012" lon="11.259287987"><ele>153</ele><time>2020-02-02T08:27:00Z</time></trkpt>
<trkpt lat="43.755143965" lon="11.259307014"><ele>153</ele><time>2020-02-02T08:27:01Z</time></trkpt>
<trkpt lat="43.755177995" lon="11.259326041"><ele>152</ele><time>2020-02-02T08:27:02Z</time></trkpt>
<trkpt lat="43.755213032" lon="11.259343978"><ele>152</ele><time>2020-02-02T08:27:03Z</time></trkpt>
<trkpt lat="43.755246978" lon="11.259363005"><ele>152</ele><time>2020-02-02T08:27:04Z</time></trkpt>
<trkpt lat="43.755280003" lon="11.259381026"><ele>152</ele><time>2020-02-02T08:27:05Z</time></trkpt>
<trkpt lat="43.755314033" lon="11.259399969"><ele>151</ele><time>2020-02-02T08:27:06Z</time></trkpt>
<trkpt lat="43.755346974" lon="11.259416984"><ele>151</ele><time>2020-02-02T08:27:07Z</time></trkpt>
<trkpt lat="43.755381005" lon="11.259435005"><ele>151</ele><time>2020-02-02T08:27:08Z</time></trkpt>
<trkpt lat="43.75541403" lon="11.259452021"><ele>150</ele><time>2020-02-02T08:27:09Z</time></trkpt>
<trkpt lat="43.75544697" lon="11.25946803"><ele>150</ele><time>2020-02-02T08:27:10Z</time></trkpt>
<trkpt lat="43.755545039" lon="11.259515975"><ele>149</ele><time>2020-02-02T08:27:13Z</time></trkpt>
<trkpt lat="43.75557798" lon="11.259530978"><ele>149</ele><time>2020-02-02T08:27:14Z</time></trkpt>
<trkpt lat="43.755609998" lon="11.259544976"><ele>149</ele><time>2020-02-02T08:27:15Z</time></trkpt>
<trkpt lat="43.755643023" lon="11.25955998"><ele>148</ele><time>2020-02-02T08:27:16Z</time></trkpt>
<trkpt lat="43.755674958" lon="11.259572972"><ele>148</ele><time>2020-02-02T08:27:17Z</time></trkpt>
<trkpt lat="43.755707983" lon="11.259586969"><ele>148</ele><time>2020-02-02T08:27:18Z</time></trkpt>
<trkpt lat="43.755740002" lon="11.259600967"><ele>148</ele><time>2020-02-02T08:27:19Z</time></trkpt>
<trkpt lat="43.755772021" lon="11.259613959"><ele>147</ele><time>2020-02-02T08:27:20Z</time></trkpt>
<trkpt lat="43.755804962" lon="11.259627035"><ele>147</ele><time>2020-02-02T08:27:21Z</time></trkpt>
<trkpt lat="43.75583698" lon="11.259640027"><ele>147</ele><time>2020-02-02T08:27:22Z</time></trkpt>
<trkpt lat="43.755868999" lon="11.259653019"><ele>146</ele><time>2020-02-02T08:27:23Z</time></trkpt>
<trkpt lat="43.755902024" lon="11.259666011"><ele>146</ele><time>2020-02-02T08:27:24Z</time></trkpt>
<trkpt lat="43.755933959" lon="11.259679003"><ele>146</ele><time>2020-02-02T08:27:25Z</time></trkpt>
<trkpt lat="43.755965978" lon="11.259693"><ele>146</ele><time>2020-02-02T08:27:26Z</time></trkpt>
<trkpt lat="43.755999003" lon="11.259705992"><ele>145</ele><time>2020-02-02T08:27:27Z</time></trkpt>
<trkpt lat="43.756096987" lon="11.25974698"><ele>144</ele><time>2020-02-02T08:27:30Z</time></trkpt>
<trkpt lat="43.756130012" lon="11.259761984"><ele>144</ele><time>2020-02-02T08:27:31Z</time></trkpt>
<trkpt lat="43.756163036" lon="11.259775981"><ele>144</ele><time>2020-02-02T08:27:32Z</time></trkpt>
<trkpt lat="43.756195977" lon="11.259790985"><ele>144</ele><time>2020-02-02T08:27:33Z</time></trkpt>
<trkpt lat="43.756230008" lon="11.259804983"><ele>143</ele><time>2020-02-02T08:27:34Z</time></trkpt>
<trkpt lat="43.756263033" lon="11.25981898"><ele>143</ele><time>2020-02-02T08:27:35Z</time></trkpt>
<trkpt lat="43.756296979" lon="11.259832978"><ele>143</ele><time>2020-02-02T08:27:36Z</time></trkpt>
<trkpt lat="43.75633101" lon="11.25984597"><ele>143</ele><time>2020-02-02T08:27:37Z</time></trkpt>
<trkpt lat="43.756364034" lon="11.259858962"><ele>143</ele><time>2020-02-02T08:27:38Z</time></trkpt>
<trkpt lat="43.756397981" lon="11.259871032"><ele>142</ele><time>2020-02-02T08:27:39Z</time></trkpt>
<trkpt lat="43.756431006" lon="11.259881007"><ele>142</ele><time>2020-02-02T08:27:40Z</time></trkpt>
<trkpt lat="43.756463025" lon="11.259890981"><ele>142</ele><time>2020-02-02T08:27:41Z</time></trkpt>
<trkpt lat="43.756492026" lon="11.259900033"><ele>142</ele><time>2020-02-02T08:27:42Z</time></trkpt>
<trkpt lat="43.756514993" lon="11.25990699"><ele>142</ele><time>2020-02-02T08:27:43Z</time></trkpt>
<trkpt lat="43.756532008" lon="11.259913025"><ele>142</ele><time>2020-02-02T08:27:44Z</time></trkpt>
<trkpt lat="43.756542988" lon="11.259917971"><ele>142</ele><time>2020-02-02T08:27:45Z</time></trkpt>
<trkpt lat="43.756553968" lon="11.259921994"><ele>142</ele><time>2020-02-02T08:27:46Z</time></trkpt>
<trkpt lat="43.75657199" lon="11.259927023"><ele>142</ele><time>2020-02-02T08:27:47Z</time></trkpt>
<trkpt lat="43.75659504" lon="11.259930963"><ele>142</ele><time>2020-02-02T08:27:48Z</time></trkpt>
<trkpt lat="43.756621024" lon="11.259934986"><ele>142</ele><time>2020-02-02T08:27:49Z</time></trkpt>
<trkpt lat="43.756648013" lon="11.259938003"><ele>142</ele><time>2020-02-02T08:27:50Z</time></trkpt>
<trkpt lat="43.756702999" lon="11.25993398"><ele>141</ele><time>2020-02-02T08:27:52Z</time></trkpt>
<trkpt lat="43.756730994" lon="11.259926017"><ele>141</ele><time>2020-02-02T08:27:53Z</time></trkpt>
<trkpt lat="43.756756978" lon="11.25991202"><ele>140</ele><time>2020-02-02T08:27:54Z</time></trkpt>
<trkpt lat="43.75678204" lon="11.259893999"><ele>140</ele><time>2020-02-02T08:27:55Z</time></trkpt>
<trkpt lat="43.756831996" lon="11.259842031"><ele>140</ele><time>2020-02-02T08:27:57Z</time></trkpt>
<trkpt lat="43.756855968" lon="11.259811018"><ele>140</ele><time>2020-02-02T08:27:58Z</time></trkpt>
<trkpt lat="43.756880024" lon="11.259775981"><ele>139</ele><time>2020-02-02T08:27:59Z</time></trkpt>
<trkpt lat="43.756903997" lon="11.259739017"><ele>139</ele><time>2020-02-02T08:28:00Z</time></trkpt>
<trkpt lat="43.756926963" lon="11.259700041"><ele>139</ele><time>2020-02-02T08:28:01Z</time></trkpt>
<trkpt lat="43.756950013" lon="11.25965897"><ele>139</ele><time>2020-02-02T08:28:02Z</time></trkpt>
<trkpt lat="43.756971974" lon="11.259616977"><ele>139</ele><time>2020-02-02T08:28:03Z</time></trkpt>
<trkpt lat="43.756993013" lon="11.259573977"><ele>139</ele><time>2020-02-02T08:28:04Z</time></trkpt>
<trkpt lat="43.757013967" lon="11.259530978"><ele>139</ele><time>2020-02-02T08:28:05Z</time></trkpt>
<trkpt lat="43.757032994" lon="11.259488985"><ele>139</ele><time>2020-02-02T08:28:06Z</time></trkpt>
<trkpt lat="43.757052021" lon="11.259446992"><ele>139</ele><time>2020-02-02T08:28:07Z</time></trkpt>
<trkpt lat="43.757069036" lon="11.259404998"><ele>139</ele><time>2020-02-02T08:28:08Z</time></trkpt>
<trkpt lat="43.757085968" lon="11.259364011"><ele>138</ele><time>2020-02-02T08:28:09Z</time></trkpt>
<trkpt lat="43.757102983" lon="11.259324029"><ele>138</ele><time>2020-02-02T08:28:10Z</time></trkpt>
<trkpt lat="43.757119998" lon="11.259283964"><ele>138</ele><time>2020-02-02T08:28:11Z</time></trkpt>
<trkpt lat="43.757136008" lon="11.259243982"><ele>138</ele><time>2020-02-02T08:28:12Z</time></trkpt>
<trkpt lat="43.757152017" lon="11.259205006"><ele>138</ele><time>2020-02-02T08:28:13Z</time></trkpt>
<trkpt lat="43.757169032" lon="11.259167036"><ele>138</ele><time>2020-02-02T08:28:14Z</time></trkpt>
<trkpt lat="43.757185964" lon="11.259128982"><ele>137</ele><time>2020-02-02T08:28:15Z</time></trkpt>
<trkpt lat="43.757202979" lon="11.259092018"><ele>137</ele><time>2020-02-02T08:28:16Z</time></trkpt>
<trkpt lat="43.757219994" lon="11.25905497"><ele>136</ele><time>2020-02-02T08:28:17Z</time></trkpt>
<trkpt lat="43.757238016" lon="11.259018006"><ele>136</ele><time>2020-02-02T08:28:18Z</time></trkpt>
<trkpt lat="43.757255031" lon="11.258981042"><ele>136</ele><time>2020-02-02T08:28:19Z</time></trkpt>
<trkpt lat="43.757272968" lon="11.258943994"><ele>135</ele><time>2020-02-02T08:28:20Z</time></trkpt>
<trkpt lat="43.757291995" lon="11.258907029"><ele>135</ele><time>2020-02-02T08:28:21Z</time></trkpt>
<trkpt lat="43.757310016" lon="11.258869981"><ele>134</ele><time>2020-02-02T08:28:22Z</time></trkpt>
<trkpt lat="43.757328037" lon="11.258832011"><ele>134</ele><time>2020-02-02T08:28:23Z</time></trkpt>
<trkpt lat="43.75734698" lon="11.258794041"><ele>133</ele><time>2020-02-02T08:28:24Z</time></trkpt>
<trkpt lat="43.757366007" lon="11.258756993"><ele>132</ele><time>2020-02-02T08:28:25Z</time></trkpt>
<trkpt lat="43.757385034" lon="11.258721035"><ele>132</ele><time>2020-02-02T08:28:26Z</time></trkpt>
<trkpt lat="43.757404983" lon="11.258687004"><ele>131</ele><time>2020-02-02T08:28:27Z</time></trkpt>
<trkpt lat="43.757425016" lon="11.258656997"><ele>131</ele><time>2020-02-02T08:28:28Z</time></trkpt>
<trkpt lat="43.757446976" lon="11.258631013"><ele>130</ele><time>2020-02-02T08:28:29Z</time></trkpt>
<trkpt lat="43.757470027" lon="11.258611986"><ele>129</ele><time>2020-02-02T08:28:30Z</time></trkpt>
<trkpt lat="43.757492993" lon="11.2586"><ele>129</ele><time>2020-02-02T08:28:31Z</time></trkpt>
<trkpt lat="43.757544039" lon="11.258605029"><ele>127</ele><time>2020-02-02T08:28:33Z</time></trkpt>
<trkpt lat="43.757570023" lon="11.258621961"><ele>127</ele><time>2020-02-02T08:28:34Z</time></trkpt>
<trkpt lat="43.757596007" lon="11.258648029"><ele>126</ele><time>2020-02-02T08:28:35Z</time></trkpt>
<trkpt lat="43.757620985" lon="11.258679964"><ele>125</ele><time>2020-02-02T08:28:36Z</time></trkpt>
<trkpt lat="43.757643029" lon="11.258718017"><ele>125</ele><time>2020-02-02T08:28:37Z</time></trkpt>
<trkpt lat="43.757662978" lon="11.258760011"><ele>124</ele><time>2020-02-02T08:28:38Z</time></trkpt>
<trkpt lat="43.757679993" lon="11.258805022"><ele>124</ele><time>2020-02-02T08:28:39Z</time></trkpt>
<trkpt lat="43.757691979" lon="11.258851038"><ele>124</ele><time>2020-02-02T08:28:40Z</time></trkpt>
<trkpt lat="43.75769902" lon="11.258897977"><ele>124</ele><time>2020-02-02T08:28:41Z</time></trkpt>
<trkpt lat="43.757701032" lon="11.258943994"><ele>124</ele><time>2020-02-02T08:28:42Z</time></trkpt>
<trkpt lat="43.75769902" lon="11.25899001"><ele>124</ele><time>2020-02-02T08:28:43Z</time></trkpt>
<trkpt lat="43.757692985" lon="11.259036027"><ele>124</ele><time>2020-02-02T08:28:44Z</time></trkpt>
<trkpt lat="43.757684017" lon="11.259081038"><ele>124</ele><time>2020-02-02T08:28:45Z</time></trkpt>
<trkpt lat="43.75767203" lon="11.259124037"><ele>125</ele><time>2020-02-02T08:28:46Z</time></trkpt>
<trkpt lat="43.757657027" lon="11.25916603"><ele>125</ele><time>2020-02-02T08:28:47Z</time></trkpt>
<trkpt lat="43.757640012" lon="11.259205006"><ele>126</ele><time>2020-02-02T08:28:48Z</time></trkpt>
<trkpt lat="43.757621991" lon="11.259239959"><ele>126</ele><time>2020-02-02T08:28:49Z</time></trkpt>
<trkpt lat="43.757603969" lon="11.259270972"><ele>126</ele><time>2020-02-02T08:28:50Z</time></trkpt>
<trkpt lat="43.757586032" lon="11.259299973"><ele>127</ele><time>2020-02-02T08:28:51Z</time></trkpt>
<trkpt lat="43.757568011" lon="11.259326041"><ele>127</ele><time>2020-02-02T08:28:52Z</time></trkpt>
<trkpt lat="43.757552002" lon="11.25935303"><ele>127</ele><time>2020-02-02T08:28:53Z</time></trkpt>
<trkpt lat="43.757535992" lon="11.25938002"><ele>127</ele><time>2020-02-02T08:28:54Z</time></trkpt>
<trkpt lat="43.757523" lon="11.259410027"><ele>128</ele><time>2020-02-02T08:28:55Z</time></trkpt>
<trkpt lat="43.75751202" lon="11.259442968"><ele>128</ele><time>2020-02-02T08:28:56Z</time></trkpt>
<trkpt lat="43.757501962" lon="11.25947901"><ele>128</ele><time>2020-02-02T08:28:57Z</time></trkpt>
<trkpt lat="43.757493999" lon="11.259517986"><ele>128</ele><time>2020-02-02T08:28:58Z</time></trkpt>
<trkpt lat="43.757487042" lon="11.259560985"><ele>128</ele><time>2020-02-02T08:28:59Z</time></trkpt>
<trkpt lat="43.757483019" lon="11.259605996"><ele>128</ele><time>2020-02-02T08:29:00Z</time></trkpt>
<trkpt lat="43.757497016" lon="11.259716973"><ele>127</ele><time>2020-02-02T08:29:03Z</time></trkpt>
<trkpt lat="43.757513026" lon="11.259737005"><ele>127</ele><time>2020-02-02T08:29:04Z</time></trkpt>
<trkpt lat="43.757531969" lon="11.25974698"><ele>126</ele><time>2020-02-02T08:29:05Z</time></trkpt>
<trkpt lat="43.757554013" lon="11.259747986"><ele>126</ele><time>2020-02-02T08:29:06Z</time></trkpt>
<trkpt lat="43.757573962" lon="11.259741029"><ele>125</ele><time>2020-02-02T08:29:07Z</time></trkpt>
<trkpt lat="43.757604975" lon="11.259701969"><ele>125</ele><time>2020-02-02T08:29:09Z</time></trkpt>
<trkpt lat="43.757616961" lon="11.259672968"><ele>125</ele><time>2020-02-02T08:29:10Z</time></trkpt>
<trkpt lat="43.757628025" lon="11.259639021"><ele>125</ele><time>2020-02-02T08:29:11Z</time></trkpt>
<trkpt lat="43.757636994" lon="11.259600967"><ele>125</ele><time>2020-02-02T08:29:12Z</time></trkpt>
<trkpt lat="43.757646969" lon="11.259560985"><ele>124</ele><time>2020-02-02T08:29:13Z</time></trkpt>
<trkpt lat="43.757657027" lon="11.259517986"><ele>124</ele><time>2020-02-02T08:29:14Z</time></trkpt>
<trkpt lat="43.757668007" lon="11.259475993"><ele>124</ele><time>2020-02-02T08:29:15Z</time></trkpt>
<trkpt lat="43.757680999" lon="11.259434"><ele>124</ele><time>2020-02-02T08:29:16Z</time></trkpt>
<trkpt lat="43.757696003" lon="11.259393012"><ele>124</ele><time>2020-02-02T08:29:17Z</time></trkpt>
<trkpt lat="43.757713018" lon="11.259354958"><ele>123</ele><time>2020-02-02T08:29:18Z</time></trkpt>
<trkpt lat="43.757732967" lon="11.259316988"><ele>123</ele><time>2020-02-02T08:29:19Z</time></trkpt>
<trkpt lat="43.757753" lon="11.25928103"><ele>123</ele><time>2020-02-02T08:29:20Z</time></trkpt>
<trkpt lat="43.757774038" lon="11.259245994"><ele>122</ele><time>2020-02-02T08:29:21Z</time></trkpt>
<trkpt lat="43.757795999" lon="11.259211963"><ele>122</ele><time>2020-02-02T08:29:22Z</time></trkpt>
<trkpt lat="43.757817959" lon="11.259179022"><ele>121</ele><time>2020-02-02T08:29:23Z</time></trkpt>
<trkpt lat="43.757838998" lon="11.259147003"><ele>121</ele><time>2020-02-02T08:29:24Z</time></trkpt>
<trkpt lat="43.757860037" lon="11.259114984"><ele>120</ele><time>2020-02-02T08:29:25Z</time></trkpt>
<trkpt lat="43.75787898" lon="11.259083971"><ele>120</ele><time>2020-02-02T08:29:26Z</time></trkpt>
<trkpt lat="43.757898007" lon="11.259052958"><ele>119</ele><time>2020-02-02T08:29:27Z</time></trkpt>
<trkpt lat="43.757914016" lon="11.259021023"><ele>119</ele><time>2020-02-02T08:29:28Z</time></trkpt>
<trkpt lat="43.757930025" lon="11.258989004"><ele>118</ele><time>2020-02-02T08:29:29Z</time></trkpt>
<trkpt lat="43.757944023" lon="11.25895598"><ele>118</ele><time>2020-02-02T08:29:30Z</time></trkpt>
<trkpt lat="43.757957015" lon="11.258921027"><ele>117</ele><time>2020-02-02T08:29:31Z</time></trkpt>
<trkpt lat="43.757969001" lon="11.258883979"><ele>117</ele><time>2020-02-02T08:29:32Z</time></trkpt>
<trkpt lat="43.757978976" lon="11.258843997"><ele>117</ele><time>2020-02-02T08:29:33Z</time></trkpt>
<trkpt lat="43.757988028" lon="11.258800998"><ele>116</ele><time>2020-02-02T08:29:34Z</time></trkpt>
<trkpt lat="43.757995991" lon="11.258755988"><ele>116</ele><time>2020-02-02T08:29:35Z</time></trkpt>
<trkpt lat="43.758002026" lon="11.258707037"><ele>116</ele><time>2020-02-02T08:29:36Z</time></trkpt>
<trkpt lat="43.758005966" lon="11.258656997"><ele>116</ele><time>2020-02-02T08:29:37Z</time></trkpt>
<trkpt lat="43.758007977" lon="11.258605029"><ele>115</ele><time>2020-02-02T08:29:38Z</time></trkpt>
<trkpt lat="43.758006971" lon="11.258552978"><ele>115</ele><time>2020-02-02T08:29:39Z</time></trkpt>
<trkpt lat="43.758004038" lon="11.258502016"><ele>115</ele><time>2020-02-02T08:29:40Z</time></trkpt>
<trkpt lat="43.757996997" lon="11.258451976"><ele>115</ele><time>2020-02-02T08:29:41Z</time></trkpt>
<trkpt lat="43.757957015" lon="11.258316021"><ele>116</ele><time>2020-02-02T08:29:44Z</time></trkpt>
<trkpt lat="43.757936982" lon="11.25827604"><ele>116</ele><time>2020-02-02T08:29:45Z</time></trkpt>
<trkpt lat="43.757914016" lon="11.258239998"><ele>116</ele><time>2020-02-02T08:29:46Z</time></trkpt>
<trkpt lat="43.757888032" lon="11.258205967"><ele>116</ele><time>2020-02-02T08:29:47Z</time></trkpt>
<trkpt lat="43.757860037" lon="11.258175038"><ele>116</ele><time>2020-02-02T08:29:48Z</time></trkpt>
<trkpt lat="43.757830029" lon="11.258145031"><ele>117</ele><time>2020-02-02T08:29:49Z</time></trkpt>
<trkpt lat="43.757799016" lon="11.258117035"><ele>117</ele><time>2020-02-02T08:29:50Z</time></trkpt>
<trkpt lat="43.757768003" lon="11.258089961"><ele>118</ele><time>2020-02-02T08:29:51Z</time></trkpt>
<trkpt lat="43.757735984" lon="11.258062972"><ele>118</ele><time>2020-02-02T08:29:52Z</time></trkpt>
<trkpt lat="43.75770296" lon="11.258037994"><ele>118</ele><time>2020-02-02T08:29:53Z</time></trkpt>
<trkpt lat="43.757671025" lon="11.258013016"><ele>119</ele><time>2020-02-02T08:29:54Z</time></trkpt>
<trkpt lat="43.757640012" lon="11.257988038"><ele>119</ele><time>2020-02-02T08:29:55Z</time></trkpt>
<trkpt lat="43.757608999" lon="11.257963981"><ele>120</ele><time>2020-02-02T08:29:56Z</time></trkpt>
<trkpt lat="43.757579997" lon="11.257940009"><ele>120</ele><time>2020-02-02T08:29:57Z</time></trkpt>
<trkpt lat="43.75750104" lon="11.257867003"><ele>121</ele><time>2020-02-02T08:30:00Z</time></trkpt>
<trkpt lat="43.757478995" lon="11.257842025"><ele>121</ele><time>2020-02-02T08:30:01Z</time></trkpt>
<trkpt lat="43.75745804" lon="11.257816963"><ele>121</ele><time>2020-02-02T08:30:02Z</time></trkpt>
<trkpt lat="43.757439014" lon="11.257790979"><ele>122</ele><time>2020-02-02T08:30:03Z</time></trkpt>
<trkpt lat="43.757421998" lon="11.257764995"><ele>122</ele><time>2020-02-02T08:30:04Z</time></trkpt>
<trkpt lat="43.757403977" lon="11.257739011"><ele>122</ele><time>2020-02-02T08:30:05Z</time></trkpt>
<trkpt lat="43.757386962" lon="11.257713027"><ele>122</ele><time>2020-02-02T08:30:06Z</time></trkpt>
<trkpt lat="43.757369025" lon="11.257686038"><ele>122</ele><time>2020-02-02T08:30:07Z</time></trkpt>
<trkpt lat="43.757351004" lon="11.257658964"><ele>123</ele><time>2020-02-02T08:30:08Z</time></trkpt>
<trkpt lat="43.757330971" lon="11.257631974"><ele>123</ele><time>2020-02-02T08:30:09Z</time></trkpt>
<trkpt lat="43.75730901" lon="11.257604985"><ele>123</ele><time>2020-02-02T08:30:10Z</time></trkpt>
<trkpt lat="43.757236004" lon="11.25752301"><ele>125</ele><time>2020-02-02T08:30:13Z</time></trkpt>
<trkpt lat="43.75721002" lon="11.257495014"><ele>125</ele><time>2020-02-02T08:30:14Z</time></trkpt>
<trkpt lat="43.75718303" lon="11.257468024"><ele>125</ele><time>2020-02-02T08:30:15Z</time></trkpt>
<trkpt lat="43.757155035" lon="11.257440029"><ele>126</ele><time>2020-02-02T08:30:16Z</time></trkpt>
<trkpt lat="43.757127039" lon="11.257412033"><ele>126</ele><time>2020-02-02T08:30:17Z</time></trkpt>
<trkpt lat="43.75709896" lon="11.257384038"><ele>127</ele><time>2020-02-02T08:30:18Z</time></trkpt>
<trkpt lat="43.757070964" lon="11.257356964"><ele>127</ele><time>2020-02-02T08:30:19Z</time></trkpt>
<trkpt lat="43.757043974" lon="11.257328968"><ele>127</ele><time>2020-02-02T08:30:20Z</time></trkpt>
<trkpt lat="43.757016985" lon="11.257300973"><ele>128</ele><time>2020-02-02T08:30:21Z</time></trkpt>
<trkpt lat="43.756989995" lon="11.257272977"><ele>128</ele><time>2020-02-02T08:30:22Z</time></trkpt>
<trkpt lat="43.756963005" lon="11.257244982"><ele>128</ele><time>2020-02-02T08:30:23Z</time></trkpt>
<trkpt lat="43.756938027" lon="11.257217992"><ele>128</ele><time>2020-02-02T08:30:24Z</time></trkpt>
<trkpt lat="43.756864015" lon="11.257137023"><ele>128</ele><time>2020-02-02T08:30:27Z</time></trkpt>
<trkpt lat="43.756840965" lon="11.257110033"><ele>128</ele><time>2020-02-02T08:30:28Z</time></trkpt>
<trkpt lat="43.756819004" lon="11.257083965"><ele>128</ele><time>2020-02-02T08:30:29Z</time></trkpt>
<trkpt lat="43.756796038" lon="11.257057982"><ele>128</ele><time>2020-02-02T08:30:30Z</time></trkpt>
<trkpt lat="43.756773993" lon="11.257031998"><ele>128</ele><time>2020-02-02T08:30:31Z</time></trkpt>
<trkpt lat="43.756752033" lon="11.25700702"><ele>128</ele><time>2020-02-02T08:30:32Z</time></trkpt>
<trkpt lat="43.756728983" lon="11.256982042"><ele>128</ele><time>2020-02-02T08:30:33Z</time></trkpt>
<trkpt lat="43.756706016" lon="11.25695698"><ele>128</ele><time>2020-02-02T08:30:34Z</time></trkpt>
<trkpt lat="43.756682966" lon="11.256933007"><ele>128</ele><time>2020-02-02T08:30:35Z</time></trkpt>
<trkpt lat="43.756657988" lon="11.256909035"><ele>128</ele><time>2020-02-02T08:30:36Z</time></trkpt>
<trkpt lat="43.75663301" lon="11.256884979"><ele>128</ele><time>2020-02-02T08:30:37Z</time></trkpt>
<trkpt lat="43.756608032" lon="11.256861007"><ele>128</ele><time>2020-02-02T08:30:38Z</time></trkpt>
<trkpt lat="43.756581964" lon="11.256837035"><ele>128</ele><time>2020-02-02T08:30:39Z</time></trkpt>
<trkpt lat="43.75655598" lon="11.256812979"><ele>127</ele><time>2020-02-02T08:30:40Z</time></trkpt>
<trkpt lat="43.756529996" lon="11.256789006"><ele>127</ele><time>2020-02-02T08:30:41Z</time></trkpt>
<trkpt lat="43.756504012" lon="11.256765034"><ele>127</ele><time>2020-02-02T08:30:42Z</time></trkpt>
<trkpt lat="43.756477023" lon="11.256739972"><ele>127</ele><time>2020-02-02T08:30:43Z</time></trkpt>
<trkpt lat="43.756451039" lon="11.256713988"><ele>127</ele><time>2020-02-02T08:30:44Z</time></trkpt>
<trkpt lat="43.756424971" lon="11.256688004"><ele>127</ele><time>2020-02-02T08:30:45Z</time></trkpt>
<trkpt lat="43.756399993" lon="11.256661015"><ele>127</ele><time>2020-02-02T08:30:46Z</time></trkpt>
<trkpt lat="43.756374009" lon="11.256633019"><ele>127</ele><time>2020-02-02T08:30:47Z</time></trkpt>
<trkpt lat="43.756301003" lon="11.256551966"><ele>127</ele><time>2020-02-02T08:30:50Z</time></trkpt>
<trkpt lat="43.75627703" lon="11.256524976"><ele>127</ele><time>2020-02-02T08:30:51Z</time></trkpt>
<trkpt lat="43.75625398" lon="11.256498992"><ele>127</ele><time>2020-02-02T08:30:52Z</time></trkpt>
<trkpt lat="43.756231014" lon="11.256474014"><ele>127</ele><time>2020-02-02T08:30:53Z</time></trkpt>
<trkpt lat="43.756208969" lon="11.256449958"><ele>126</ele><time>2020-02-02T08:30:54Z</time></trkpt>
<trkpt lat="43.756187009" lon="11.256426992"><ele>126</ele><time>2020-02-02T08:30:55Z</time></trkpt>
<trkpt lat="43.756164964" lon="11.256404025"><ele>126</ele><time>2020-02-02T08:30:56Z</time></trkpt>
<trkpt lat="43.756143004" lon="11.256381981"><ele>126</ele><time>2020-02-02T08:30:57Z</time></trkpt>
<trkpt lat="43.756120037" lon="11.25636002"><ele>126</ele><time>2020-02-02T08:30:58Z</time></trkpt>
<trkpt lat="43.756095981" lon="11.256338982"><ele>126</ele><time>2020-02-02T08:30:59Z</time></trkpt>
<trkpt lat="43.756072009" lon="11.256317021"><ele>126</ele><time>2020-02-02T08:31:00Z</time></trkpt>
<trkpt lat="43.756046025" lon="11.256294977"><ele>126</ele><time>2020-02-02T08:31:01Z</time></trkpt>
<trkpt lat="43.756019035" lon="11.256273016"><ele>126</ele><time>2020-02-02T08:31:02Z</time></trkpt>
<trkpt lat="43.75599104" lon="11.256249966"><ele>126</ele><time>2020-02-02T08:31:03Z</time></trkpt>
<trkpt lat="43.755962038" lon="11.256228006"><ele>126</ele><time>2020-02-02T08:31:04Z</time></trkpt>
<trkpt lat="43.755932031" lon="11.256205961"><ele>126</ele><time>2020-02-02T08:31:05Z</time></trkpt>
<trkpt lat="43.75590303" lon="11.256184001"><ele>126</ele><time>2020-02-02T08:31:06Z</time></trkpt>
<trkpt lat="43.755874028" lon="11.256162962"><ele>125</ele><time>2020-02-02T08:31:07Z</time></trkpt>
<trkpt lat="43.755846033" lon="11.256143013"><ele>125</ele><time>2020-02-02T08:31:08Z</time></trkpt>
<trkpt lat="43.755818037" lon="11.256124992"><ele>125</ele><time>2020-02-02T08:31:09Z</time></trkpt>
<trkpt lat="43.75579197" lon="11.256107977"><ele>125</ele><time>2020-02-02T08:31:10Z</time></trkpt>
<trkpt lat="43.755767997" lon="11.256092973"><ele>124</ele><time>2020-02-02T08:31:11Z</time></trkpt>
<trkpt lat="43.755745031" lon="11.256078975"><ele>124</ele><time>2020-02-02T08:31:12Z</time></trkpt>
<trkpt lat="43.755722987" lon="11.256066989"><ele>123</ele><time>2020-02-02T08:31:13Z</time></trkpt>
<trkpt lat="43.755703038" lon="11.256056009"><ele>123</ele><time>2020-02-02T08:31:14Z</time></trkpt>
<trkpt lat="43.755681999" lon="11.256046034"><ele>123</ele><time>2020-02-02T08:31:15Z</time></trkpt>
<trkpt lat="43.755661966" lon="11.256036982"><ele>123</ele><time>2020-02-02T08:31:16Z</time></trkpt>
<trkpt lat="43.755642017" lon="11.256028013"><ele>122</ele><time>2020-02-02T08:31:17Z</time></trkpt>
<trkpt lat="43.755620979" lon="11.256019967"><ele>122</ele><time>2020-02-02T08:31:18Z</time></trkpt>
<trkpt lat="43.755599018" lon="11.256012004"><ele>122</ele><time>2020-02-02T08:31:19Z</time></trkpt>
<trkpt lat="43.755575968" lon="11.256004041"><ele>122</ele><time>2020-02-02T08:31:20Z</time></trkpt>
<trkpt lat="43.755553002" lon="11.255995994"><ele>122</ele><time>2020-02-02T08:31:21Z</time></trkpt>
<trkpt lat="43.75550204" lon="11.255985014"><ele>121</ele><time>2020-02-02T08:31:23Z</time></trkpt>
<trkpt lat="43.755474966" lon="11.255980991"><ele>121</ele><time>2020-02-02T08:31:24Z</time></trkpt>
<trkpt lat="43.755447976" lon="11.255979985"><ele>121</ele><time>2020-02-02T08:31:25Z</time></trkpt>
<trkpt lat="43.755418975" lon="11.255979985"><ele>121</ele><time>2020-02-02T08:31:26Z</time></trkpt>
<trkpt lat="43.755389974" lon="11.255979985"><ele>121</ele><time>2020-02-02T08:31:27Z</time></trkpt>
<trkpt lat="43.755358038" lon="11.255978979"><ele>121</ele><time>2020-02-02T08:31:28Z</time></trkpt>
<trkpt lat="43.75532602" lon="11.255975962"><ele>121</ele><time>2020-02-02T08:31:29Z</time></trkpt>
<trkpt lat="43.755292995" lon="11.255971016"><ele>121</ele><time>2020-02-02T08:31:30Z</time></trkpt>
<trkpt lat="43.75525997" lon="11.255963976"><ele>121</ele><time>2020-02-02T08:31:31Z</time></trkpt>
<trkpt lat="43.755228035" lon="11.255956013"><ele>121</ele><time>2020-02-02T08:31:32Z</time></trkpt>
<trkpt lat="43.755197022" lon="11.255947966"><ele>121</ele><time>2020-02-02T08:31:33Z</time></trkpt>
<trkpt lat="43.755115969" lon="11.255923994"><ele>121</ele><time>2020-02-02T08:31:36Z</time></trkpt>
<trkpt lat="43.755089985" lon="11.255917959"><ele>120</ele><time>2020-02-02T08:31:37Z</time></trkpt>
<trkpt lat="43.75506199" lon="11.255915025"><ele>120</ele><time>2020-02-02T08:31:38Z</time></trkpt>
<trkpt lat="43.755032988" lon="11.255913014"><ele>120</ele><time>2020-02-02T08:31:39Z</time></trkpt>
<trkpt lat="43.755003987" lon="11.255914019"><ele>120</ele><time>2020-02-02T08:31:40Z</time></trkpt>
<trkpt lat="43.754972974" lon="11.255916031"><ele>121</ele><time>2020-02-02T08:31:41Z</time></trkpt>
<trkpt lat="43.754942967" lon="11.255919971"><ele>121</ele><time>2020-02-02T08:31:42Z</time></trkpt>
<trkpt lat="43.754912037" lon="11.255923994"><ele>122</ele><time>2020-02-02T08:31:43Z</time></trkpt>
<trkpt lat="43.75488203" lon="11.255930029"><ele>122</ele><time>2020-02-02T08:31:44Z</time></trkpt>
<trkpt lat="43.754852023" lon="11.255936986"><ele>122</ele><time>2020-02-02T08:31:45Z</time></trkpt>
<trkpt lat="43.754823022" lon="11.255943021"><ele>123</ele><time>2020-02-02T08:31:46Z</time></trkpt>
<trkpt lat="43.754795026" lon="11.255949978"><ele>123</ele><time>2020-02-02T08:31:47Z</time></trkpt>
<trkpt lat="43.75476703" lon="11.255957019"><ele>124</ele><time>2020-02-02T08:31:48Z</time></trkpt>
<trkpt lat="43.754740041" lon="11.255961964"><ele>124</ele><time>2020-02-02T08:31:49Z</time></trkpt>
<trkpt lat="43.754657982" lon="11.255964981"><ele>125</ele><time>2020-02-02T08:31:52Z</time></trkpt>
<trkpt lat="43.754629986" lon="11.25595903"><ele>125</ele><time>2020-02-02T08:31:53Z</time></trkpt>
<trkpt lat="43.754601991" lon="11.255949978"><ele>125</ele><time>2020-02-02T08:31:54Z</time></trkpt>
<trkpt lat="43.754573995" lon="11.255936986"><ele>125</ele><time>2020-02-02T08:31:55Z</time></trkpt>
<trkpt lat="43.754547006" lon="11.255919971"><ele>125</ele><time>2020-02-02T08:31:56Z</time></trkpt>
<trkpt lat="43.754466036" lon="11.255852999"><ele>125</ele><time>2020-02-02T08:31:59Z</time></trkpt>
<trkpt lat="43.754439969" lon="11.255828021"><ele>125</ele><time>2020-02-02T08:32:00Z</time></trkpt>
<trkpt lat="43.754413985" lon="11.255803965"><ele>125</ele><time>2020-02-02T08:32:01Z</time></trkpt>
<trkpt lat="43.754389007" lon="11.255778987"><ele>125</ele><time>2020-02-02T08:32:02Z</time></trkpt>
<trkpt lat="43.754364029" lon="11.255757026"><ele>126</ele><time>2020-02-02T08:32:03Z</time></trkpt>
<trkpt lat="43.754338967" lon="11.255736994"><ele>126</ele><time>2020-02-02T08:32:04Z</time></trkpt>
<trkpt lat="43.754313989" lon="11.255718973"><ele>126</ele><time>2020-02-02T08:32:05Z</time></trkpt>
<trkpt lat="43.754290016" lon="11.255702963"><ele>126</ele><time>2020-02-02T08:32:06Z</time></trkpt>
<trkpt lat="43.754266966" lon="11.255687037"><ele>126</ele><time>2020-02-02T08:32:07Z</time></trkpt>
<trkpt lat="43.754244" lon="11.255669016"><ele>127</ele><time>2020-02-02T08:32:08Z</time></trkpt>
<trkpt lat="43.754221033" lon="11.255646972"><ele>127</ele><time>2020-02-02T08:32:09Z</time></trkpt>
<trkpt lat="43.754201001" lon="11.255620988"><ele>127</ele><time>2020-02-02T08:32:10Z</time></trkpt>
<trkpt lat="43.754181974" lon="11.255589975"><ele>127</ele><time>2020-02-02T08:32:11Z</time></trkpt>
<trkpt lat="43.754165964" lon="11.255555023"><ele>127</ele><time>2020-02-02T08:32:12Z</time></trkpt>
<trkpt lat="43.754153978" lon="11.255515041"><ele>127</ele><time>2020-02-02T08:32:13Z</time></trkpt>
<trkpt lat="43.754144004" lon="11.255472964"><ele>128</ele><time>2020-02-02T08:32:14Z</time></trkpt>
<trkpt lat="43.754136963" lon="11.255428959"><ele>128</ele><time>2020-02-02T08:32:15Z</time></trkpt>
<trkpt lat="43.754132017" lon="11.255386965"><ele>127</ele><time>2020-02-02T08:32:16Z</time></trkpt>
<trkpt lat="43.754126988" lon="11.255347989"><ele>127</ele><time>2020-02-02T08:32:17Z</time></trkpt>
<trkpt lat="43.754123971" lon="11.255313959"><ele>127</ele><time>2020-02-02T08:32:18Z</time></trkpt>
<trkpt lat="43.754120031" lon="11.255282024"><ele>127</ele><time>2020-02-02T08:32:19Z</time></trkpt>
<trkpt lat="43.754117014" lon="11.255250005"><ele>127</ele><time>2020-02-02T08:32:20Z</time></trkpt>
<trkpt lat="43.754112991" lon="11.255215975"><ele>127</ele><time>2020-02-02T08:32:21Z</time></trkpt>
<trkpt lat="43.754110979" lon="11.255178005"><ele>127</ele><time>2020-02-02T08:32:22Z</time></trkpt>
<trkpt lat="43.754108967" lon="11.255137017"><ele>127</ele><time>2020-02-02T08:32:23Z</time></trkpt>
<trkpt lat="43.754107961" lon="11.255093012"><ele>127</ele><time>2020-02-02T08:32:24Z</time></trkpt>
<trkpt lat="43.754109973" lon="11.255048001"><ele>127</ele><time>2020-02-02T08:32:25Z</time></trkpt>
<trkpt lat="43.754113996" lon="11.255003996"><ele>127</ele><time>2020-02-02T08:32:26Z</time></trkpt>
<trkpt lat="43.754121959" lon="11.254960997"><ele>127</ele><time>2020-02-02T08:32:27Z</time></trkpt>
<trkpt lat="43.754133023" lon="11.25492001"><ele>127</ele><time>2020-02-02T08:32:28Z</time></trkpt>
<trkpt lat="43.754145009" lon="11.254879022"><ele>127</ele><time>2020-02-02T08:32:29Z</time></trkpt>
<trkpt lat="43.754159007" lon="11.25483904"><ele>127</ele><time>2020-02-02T08:32:30Z</time></trkpt>
<trkpt lat="43.754173005" lon="11.254798975"><ele>127</ele><time>2020-02-02T08:32:31Z</time></trkpt>
<trkpt lat="43.754187003" lon="11.254758993"><ele>127</ele><time>2020-02-02T08:32:32Z</time></trkpt>
<trkpt lat="43.754201001" lon="11.254720017"><ele>127</ele><time>2020-02-02T08:32:33Z</time></trkpt>
<trkpt lat="43.754213993" lon="11.254680036"><ele>127</ele><time>2020-02-02T08:32:34Z</time></trkpt>
<trkpt lat="43.75422799" lon="11.254640976"><ele>127</ele><time>2020-02-02T08:32:35Z</time></trkpt>
<trkpt lat="43.754240982" lon="11.254602"><ele>127</ele><time>2020-02-02T08:32:36Z</time></trkpt>
<trkpt lat="43.754252968" lon="11.25456403"><ele>127</ele><time>2020-02-02T08:32:37Z</time></trkpt>
<trkpt lat="43.754264032" lon="11.254525976"><ele>127</ele><time>2020-02-02T08:32:38Z</time></trkpt>
<trkpt lat="43.754275013" lon="11.254488006"><ele>127</ele><time>2020-02-02T08:32:39Z</time></trkpt>
<trkpt lat="43.754284987" lon="11.254451964"><ele>127</ele><time>2020-02-02T08:32:40Z</time></trkpt>
<trkpt lat="43.75429404" lon="11.254415"><ele>127</ele><time>2020-02-02T08:32:41Z</time></trkpt>
<trkpt lat="43.754302002" lon="11.254379041"><ele>127</ele><time>2020-02-02T08:32:42Z</time></trkpt>
<trkpt lat="43.754309965" lon="11.254341993"><ele>127</ele><time>2020-02-02T08:32:43Z</time></trkpt>
<trkpt lat="43.754317006" lon="11.254306035"><ele>127</ele><time>2020-02-02T08:32:44Z</time></trkpt>
<trkpt lat="43.754324969" lon="11.254268987"><ele>127</ele><time>2020-02-02T08:32:45Z</time></trkpt>
<trkpt lat="43.75433201" lon="11.254231017"><ele>127</ele><time>2020-02-02T08:32:46Z</time></trkpt>
<trkpt lat="43.754339973" lon="11.254192041"><ele>127</ele><time>2020-02-02T08:32:47Z</time></trkpt>
<trkpt lat="43.754348019" lon="11.254152982"><ele>127</ele><time>2020-02-02T08:32:48Z</time></trkpt>
<trkpt lat="43.754355982" lon="11.254111994"><ele>127</ele><time>2020-02-02T08:32:49Z</time></trkpt>
<trkpt lat="43.754388001" lon="11.253988026"><ele>127</ele><time>2020-02-02T08:32:52Z</time></trkpt>
<trkpt lat="43.754400993" lon="11.253946032"><ele>126</ele><time>2020-02-02T08:32:53Z</time></trkpt>
<trkpt lat="43.754414991" lon="11.253904039"><ele>126</ele><time>2020-02-02T08:32:54Z</time></trkpt>
<trkpt lat="43.754428988" lon="11.253863974"><ele>126</ele><time>2020-02-02T08:32:55Z</time></trkpt>
<trkpt lat="43.75444198" lon="11.253823992"><ele>126</ele><time>2020-02-02T08:32:56Z</time></trkpt>
<trkpt lat="43.754454972" lon="11.253785016"><ele>125</ele><time>2020-02-02T08:32:57Z</time></trkpt>
<trkpt lat="43.754466036" lon="11.253746962"><ele>125</ele><time>2020-02-02T08:32:58Z</time></trkpt>
<trkpt lat="43.754477017" lon="11.253709998"><ele>125</ele><time>2020-02-02T08:32:59Z</time></trkpt>
<trkpt lat="43.754486991" lon="11.253673034"><ele>125</ele><time>2020-02-02T08:33:00Z</time></trkpt>
<trkpt lat="43.75449596" lon="11.253635986"><ele>125</ele><time>2020-02-02T08:33:01Z</time></trkpt>
<trkpt lat="43.754505012" lon="11.253600027"><ele>124</ele><time>2020-02-02T08:33:02Z</time></trkpt>
<trkpt lat="43.754512975" lon="11.253562979"><ele>124</ele><time>2020-02-02T08:33:03Z</time></trkpt>
<trkpt lat="43.754522027" lon="11.253527021"><ele>124</ele><time>2020-02-02T08:33:04Z</time></trkpt>
<trkpt lat="43.75452999" lon="11.253489973"><ele>124</ele><time>2020-02-02T08:33:05Z</time></trkpt>
<trkpt lat="43.754538037" lon="11.253454015"><ele>124</ele><time>2020-02-02T08:33:06Z</time></trkpt>
<trkpt lat="43.754546" lon="11.253418978"><ele>124</ele><time>2020-02-02T08:33:07Z</time></trkpt>
<trkpt lat="43.754554968" lon="11.25338302"><ele>123</ele><time>2020-02-02T08:33:08Z</time></trkpt>
<trkpt lat="43.754563015" lon="11.253347984"><ele>123</ele><time>2020-02-02T08:33:09Z</time></trkpt>
<trkpt lat="43.754572989" lon="11.253312025"><ele>123</ele><time>2020-02-02T08:33:10Z</time></trkpt>
<trkpt lat="43.754582042" lon="11.253276989"><ele>123</ele><time>2020-02-02T08:33:11Z</time></trkpt>
<trkpt lat="43.754593022" lon="11.25324103"><ele>123</ele><time>2020-02-02T08:33:12Z</time></trkpt>
<trkpt lat="43.754604002" lon="11.253205994"><ele>123</ele><time>2020-02-02T08:33:13Z</time></trkpt>
<trkpt lat="43.754615989" lon="11.253170036"><ele>123</ele><time>2020-02-02T08:33:14Z</time></trkpt>
<trkpt lat="43.754628981" lon="11.253133994"><ele>123</ele><time>2020-02-02T08:33:15Z</time></trkpt>
<trkpt lat="43.754642978" lon="11.253098035"><ele>123</ele><time>2020-02-02T08:33:16Z</time></trkpt>
<trkpt lat="43.754656976" lon="11.253060987"><ele>123</ele><time>2020-02-02T08:33:17Z</time></trkpt>
<trkpt lat="43.75467198" lon="11.253024023"><ele>123</ele><time>2020-02-02T08:33:18Z</time></trkpt>
<trkpt lat="43.754686983" lon="11.252985969"><ele>123</ele><time>2020-02-02T08:33:19Z</time></trkpt>
<trkpt lat="43.754700981" lon="11.252947999"><ele>123</ele><time>2020-02-02T08:33:20Z</time></trkpt>
<trkpt lat="43.754714979" lon="11.252909023"><ele>123</ele><time>2020-02-02T08:33:21Z</time></trkpt>
<trkpt lat="43.754727971" lon="11.252869964"><ele>123</ele><time>2020-02-02T08:33:22Z</time></trkpt>
<trkpt lat="43.754740963" lon="11.252829982"><ele>123</ele><time>2020-02-02T08:33:23Z</time></trkpt>
<trkpt lat="43.754752027" lon="11.252788994"><ele>123</ele><time>2020-02-02T08:33:24Z</time></trkpt>
<trkpt lat="43.754762001" lon="11.252748007"><ele>123</ele><time>2020-02-02T08:33:25Z</time></trkpt>
<trkpt lat="43.754771976" lon="11.252706014"><ele>123</ele><time>2020-02-02T08:33:26Z</time></trkpt>
<trkpt lat="43.754780022" lon="11.25266402"><ele>123</ele><time>2020-02-02T08:33:27Z</time></trkpt>
<trkpt lat="43.754787985" lon="11.252621021"><ele>123</ele><time>2020-02-02T08:33:28Z</time></trkpt>
<trkpt lat="43.754795026" lon="11.252578022"><ele>123</ele><time>2020-02-02T08:33:29Z</time></trkpt>
<trkpt lat="43.754800977" lon="11.252534017"><ele>123</ele><time>2020-02-02T08:33:30Z</time></trkpt>
<trkpt lat="43.754807012" lon="11.252489006"><ele>123</ele><time>2020-02-02T08:33:31Z</time></trkpt>
<trkpt lat="43.754812041" lon="11.252445001"><ele>123</ele><time>2020-02-02T08:33:32Z</time></trkpt>
<trkpt lat="43.754815981" lon="11.252398985"><ele>123</ele><time>2020-02-02T08:33:33Z</time></trkpt>
<trkpt lat="43.754820004" lon="11.252353974"><ele>123</ele><time>2020-02-02T08:33:34Z</time></trkpt>
<trkpt lat="43.754823022" lon="11.252308041"><ele>123</ele><time>2020-02-02T08:33:35Z</time></trkpt>
<trkpt lat="43.754826039" lon="11.252262024"><ele>123</ele><time>2020-02-02T08:33:36Z</time></trkpt>
<trkpt lat="43.754827967" lon="11.252216008"><ele>123</ele><time>2020-02-02T08:33:37Z</time></trkpt>
<trkpt lat="43.754830984" lon="11.252168985"><ele>123</ele><time>2020-02-02T08:33:38Z</time></trkpt>
<trkpt lat="43.75483199" lon="11.252121963"><ele>123</ele><time>2020-02-02T08:33:39Z</time></trkpt>
<trkpt lat="43.754834002" lon="11.252075024"><ele>123</ele><time>2020-02-02T08:33:40Z</time></trkpt>
<trkpt lat="43.754835008" lon="11.252028001"><ele>123</ele><time>2020-02-02T08:33:41Z</time></trkpt>
<trkpt lat="43.754835008" lon="11.251980979"><ele>123</ele><time>2020-02-02T08:33:42Z</time></trkpt>
<trkpt lat="43.754836014" lon="11.25193404"><ele>123</ele><time>2020-02-02T08:33:43Z</time></trkpt>
<trkpt lat="43.754837019" lon="11.251887018"><ele>123</ele><time>2020-02-02T08:33:44Z</time></trkpt>
<trkpt lat="43.754837019" lon="11.251841001"><ele>123</ele><time>2020-02-02T08:33:45Z</time></trkpt>
<trkpt lat="43.754837019" lon="11.251794985"><ele>123</ele><time>2020-02-02T08:33:46Z</time></trkpt>
<trkpt lat="43.754837019" lon="11.251749974"><ele>122</ele><time>2020-02-02T08:33:47Z</time></trkpt>
<trkpt lat="43.754837019" lon="11.251704963"><ele>122</ele><time>2020-02-02T08:33:48Z</time></trkpt>
<trkpt lat="43.754837019" lon="11.251661964"><ele>122</ele><time>2020-02-02T08:33:49Z</time></trkpt>
<trkpt lat="43.754837019" lon="11.251618965"><ele>122</ele><time>2020-02-02T08:33:50Z</time></trkpt>
<trkpt lat="43.754837019" lon="11.251577977"><ele>122</ele><time>2020-02-02T08:33:51Z</time></trkpt>
<trkpt lat="43.754838025" lon="11.25153699"><ele>122</ele><time>2020-02-02T08:33:52Z</time></trkpt>
<trkpt lat="43.754839031" lon="11.251496002"><ele>122</ele><time>2020-02-02T08:33:53Z</time></trkpt>
<trkpt lat="43.754840959" lon="11.251455015"><ele>122</ele><time>2020-02-02T08:33:54Z</time></trkpt>
<trkpt lat="43.754843976" lon="11.251415033"><ele>122</ele><time>2020-02-02T08:33:55Z</time></trkpt>
<trkpt lat="43.754846994" lon="11.25137304"><ele>121</ele><time>2020-02-02T08:33:56Z</time></trkpt>
<trkpt lat="43.754852023" lon="11.251331968"><ele>121</ele><time>2020-02-02T08:33:57Z</time></trkpt>
<trkpt lat="43.75485898" lon="11.251288969"><ele>121</ele><time>2020-02-02T08:33:58Z</time></trkpt>
<trkpt lat="43.754867027" lon="11.25124597"><ele>121</ele><time>2020-02-02T08:33:59Z</time></trkpt>
<trkpt lat="43.754877001" lon="11.251201965"><ele>121</ele><time>2020-02-02T08:34:00Z</time></trkpt>
<trkpt lat="43.754913965" lon="11.251069028"><ele>121</ele><time>2020-02-02T08:34:03Z</time></trkpt>
<trkpt lat="43.754928969" lon="11.251025023"><ele>120</ele><time>2020-02-02T08:34:04Z</time></trkpt>
<trkpt lat="43.754944978" lon="11.25098303"><ele>120</ele><time>2020-02-02T08:34:05Z</time></trkpt>
<trkpt lat="43.754961994" lon="11.250942964"><ele>120</ele><time>2020-02-02T08:34:06Z</time></trkpt>
<trkpt lat="43.754980015" lon="11.250904994"><ele>120</ele><time>2020-02-02T08:34:07Z</time></trkpt>
<trkpt lat="43.754998036" lon="11.25086803"><ele>120</ele><time>2020-02-02T08:34:08Z</time></trkpt>
<trkpt lat="43.755016979" lon="11.250833999"><ele>120</ele><time>2020-02-02T08:34:09Z</time></trkpt>
<trkpt lat="43.755036006" lon="11.250799969"><ele>120</ele><time>2020-02-02T08:34:10Z</time></trkpt>
<trkpt lat="43.755056038" lon="11.250768034"><ele>120</ele><time>2020-02-02T08:34:11Z</time></trkpt>
<trkpt lat="43.755073976" lon="11.250735009"><ele>120</ele><time>2020-02-02T08:34:12Z</time></trkpt>
<trkpt lat="43.755093003" lon="11.250701984"><ele>120</ele><time>2020-02-02T08:34:13Z</time></trkpt>
<trkpt lat="43.755110018" lon="11.250668038"><ele>120</ele><time>2020-02-02T08:34:14Z</time></trkpt>
<trkpt lat="43.755126027" lon="11.250631995"><ele>120</ele><time>2020-02-02T08:34:15Z</time></trkpt>
<trkpt lat="43.755141031" lon="11.250594025"><ele>120</ele><time>2020-02-02T08:34:16Z</time></trkpt>
<trkpt lat="43.755154023" lon="11.250553038"><ele>120</ele><time>2020-02-02T08:34:17Z</time></trkpt>
<trkpt lat="43.755166009" lon="11.250510039"><ele>120</ele><time>2020-02-02T08:34:18Z</time></trkpt>
<trkpt lat="43.755174978" lon="11.250466034"><ele>120</ele><time>2020-02-02T08:34:19Z</time></trkpt>
<trkpt lat="43.755182019" lon="11.250420017"><ele>120</ele><time>2020-02-02T08:34:20Z</time></trkpt>
<trkpt lat="43.755186964" lon="11.250374001"><ele>120</ele><time>2020-02-02T08:34:21Z</time></trkpt>
<trkpt lat="43.755188975" lon="11.250326978"><ele>120</ele><time>2020-02-02T08:34:22Z</time></trkpt>
<trkpt lat="43.755188975" lon="11.250280961"><ele>120</ele><time>2020-02-02T08:34:23Z</time></trkpt>
<trkpt lat="43.755185036" lon="11.250235029"><ele>120</ele><time>2020-02-02T08:34:24Z</time></trkpt>
<trkpt lat="43.755179001" lon="11.250191024"><ele>120</ele><time>2020-02-02T08:34:25Z</time></trkpt>
<trkpt lat="43.755169027" lon="11.25014903"><ele>120</ele><time>2020-02-02T08:34:26Z</time></trkpt>
<trkpt lat="43.755156035" lon="11.250107959"><ele>120</ele><time>2020-02-02T08:34:27Z</time></trkpt>
<trkpt lat="43.755141031" lon="11.250068983"><ele>120</ele><time>2020-02-02T08:34:28Z</time></trkpt>
<trkpt lat="43.755124016" lon="11.250031013"><ele>120</ele><time>2020-02-02T08:34:29Z</time></trkpt>
<trkpt lat="43.755105995" lon="11.249994971"><ele>120</ele><time>2020-02-02T08:34:30Z</time></trkpt>
<trkpt lat="43.755086968" lon="11.249959012"><ele>119</ele><time>2020-02-02T08:34:31Z</time></trkpt>
<trkpt lat="43.755067019" lon="11.249924982"><ele>119</ele><time>2020-02-02T08:34:32Z</time></trkpt>
<trkpt lat="43.755046986" lon="11.249892041"><ele>119</ele><time>2020-02-02T08:34:33Z</time></trkpt>
<trkpt lat="43.755027959" lon="11.249859016"><ele>119</ele><time>2020-02-02T08:34:34Z</time></trkpt>
<trkpt lat="43.755009016" lon="11.249826998"><ele>118</ele><time>2020-02-02T08:34:35Z</time></trkpt>
<trkpt lat="43.754989989" lon="11.249794979"><ele>118</ele><time>2020-02-02T08:34:36Z</time></trkpt>
<trkpt lat="43.75497004" lon="11.24976296"><ele>118</ele><time>2020-02-02T08:34:37Z</time></trkpt>
<trkpt lat="43.754947996" lon="11.249730019"><ele>118</ele><time>2020-02-02T08:34:38Z</time></trkpt>
<trkpt lat="43.754924024" lon="11.249695988"><ele>117</ele><time>2020-02-02T08:34:39Z</time></trkpt>
<trkpt lat="43.75489804" lon="11.249662042"><ele>117</ele><time>2020-02-02T08:34:40Z</time></trkpt>
<trkpt lat="43.754871972" lon="11.249628011"><ele>117</ele><time>2020-02-02T08:34:41Z</time></trkpt>
<trkpt lat="43.754843976" lon="11.249593981"><ele>117</ele><time>2020-02-02T08:34:42Z</time></trkpt>
<trkpt lat="43.754815981" lon="11.24956104"><ele>117</ele><time>2020-02-02T08:34:43Z</time></trkpt>
<trkpt lat="43.754787985" lon="11.249529021"><ele>116</ele><time>2020-02-02T08:34:44Z</time></trkpt>
<trkpt lat="43.754760996" lon="11.249495996"><ele>116</ele><time>2020-02-02T08:34:45Z</time></trkpt>
<trkpt lat="43.754734006" lon="11.249461966"><ele>116</ele><time>2020-02-02T08:34:46Z</time></trkpt>
<trkpt lat="43.754709028" lon="11.249428019"><ele>116</ele><time>2020-02-02T08:34:47Z</time></trkpt>
<trkpt lat="43.754684972" lon="11.249391977"><ele>116</ele><time>2020-02-02T08:34:48Z</time></trkpt>
<trkpt lat="43.754663011" lon="11.249355013"><ele>116</ele><time>2020-02-02T08:34:49Z</time></trkpt>
<trkpt lat="43.754641972" lon="11.24931897"><ele>116</ele><time>2020-02-02T08:34:50Z</time></trkpt>
<trkpt lat="43.754620012" lon="11.249284018"><ele>115</ele><time>2020-02-02T08:34:51Z</time></trkpt>
<trkpt lat="43.754597967" lon="11.249249987"><ele>115</ele><time>2020-02-02T08:34:52Z</time></trkpt>
<trkpt lat="43.754575001" lon="11.249217968"><ele>115</ele><time>2020-02-02T08:34:53Z</time></trkpt>
<trkpt lat="43.754509035" lon="11.24912099"><ele>115</ele><time>2020-02-02T08:34:56Z</time></trkpt>
<trkpt lat="43.754487997" lon="11.249086037"><ele>115</ele><time>2020-02-02T08:34:57Z</time></trkpt>
<trkpt lat="43.754467964" lon="11.249048989"><ele>115</ele><time>2020-02-02T08:34:58Z</time></trkpt>
<trkpt lat="43.754450027" lon="11.249009008"><ele>115</ele><time>2020-02-02T08:34:59Z</time></trkpt>
<trkpt lat="43.754433012" lon="11.248963997"><ele>114</ele><time>2020-02-02T08:35:00Z</time></trkpt>
<trkpt lat="43.754417002" lon="11.248915968"><ele>114</ele><time>2020-02-02T08:35:01Z</time></trkpt>
<trkpt lat="43.754403004" lon="11.248865006"><ele>114</ele><time>2020-02-02T08:35:02Z</time></trkpt>
<trkpt lat="43.754386995" lon="11.248814967"><ele>114</ele><time>2020-02-02T08:35:03Z</time></trkpt>
<trkpt lat="43.754368974" lon="11.248769034"><ele>114</ele><time>2020-02-02T08:35:04Z</time></trkpt>
<trkpt lat="43.754348019" lon="11.24872704"><ele>114</ele><time>2020-02-02T08:35:05Z</time></trkpt>
<trkpt lat="43.754324969" lon="11.248688987"><ele>114</ele><time>2020-02-02T08:35:06Z</time></trkpt>
<trkpt lat="43.754299991" lon="11.248653028"><ele>114</ele><time>2020-02-02T08:35:07Z</time></trkpt>
<trkpt lat="43.754276019" lon="11.248617992"><ele>114</ele><time>2020-02-02T08:35:08Z</time></trkpt>
<trkpt lat="43.754253974" lon="11.248581028"><ele>113</ele><time>2020-02-02T08:35:09Z</time></trkpt>
<trkpt lat="43.754232014" lon="11.248542974"><ele>113</ele><time>2020-02-02T08:35:10Z</time></trkpt>
<trkpt lat="43.754211981" lon="11.248502992"><ele>113</ele><time>2020-02-02T08:35:11Z</time></trkpt>
<trkpt lat="43.75419396" lon="11.24846301"><ele>113</ele><time>2020-02-02T08:35:12Z</time></trkpt>
<trkpt lat="43.754176022" lon="11.248422023"><ele>113</ele><time>2020-02-02T08:35:13Z</time></trkpt>
<trkpt lat="43.754159007" lon="11.24838003"><ele>113</ele><time>2020-02-02T08:35:14Z</time></trkpt>
<trkpt lat="43.754141992" lon="11.24833703"><ele>113</ele><time>2020-02-02T08:35:15Z</time></trkpt>
<trkpt lat="43.754125983" lon="11.248295037"><ele>113</ele><time>2020-02-02T08:35:16Z</time></trkpt>
<trkpt lat="43.754110979" lon="11.248252038"><ele>113</ele><time>2020-02-02T08:35:17Z</time></trkpt>
<trkpt lat="43.754094969" lon="11.248209039"><ele>112</ele><time>2020-02-02T08:35:18Z</time></trkpt>
<trkpt lat="43.754079966" lon="11.24816604"><ele>112</ele><time>2020-02-02T08:35:19Z</time></trkpt>
<trkpt lat="43.75406404" lon="11.248123962"><ele>112</ele><time>2020-02-02T08:35:20Z</time></trkpt>
<trkpt lat="43.754049037" lon="11.248081969"><ele>112</ele><time>2020-02-02T08:35:21Z</time></trkpt>
<trkpt lat="43.754033027" lon="11.248039976"><ele>112</ele><time>2020-02-02T08:35:22Z</time></trkpt>
<trkpt lat="43.754017018" lon="11.247997982"><ele>112</ele><time>2020-02-02T08:35:23Z</time></trkpt>
<trkpt lat="43.754001008" lon="11.247955989"><ele>112</ele><time>2020-02-02T08:35:24Z</time></trkpt>
<trkpt lat="43.753984999" lon="11.247915002"><ele>111</ele><time>2020-02-02T08:35:25Z</time></trkpt>
<trkpt lat="43.753967984" lon="11.247874014"><ele>111</ele><time>2020-02-02T08:35:26Z</time></trkpt>
<trkpt lat="43.753950968" lon="11.247833027"><ele>111</ele><time>2020-02-02T08:35:27Z</time></trkpt>
<trkpt lat="43.753933031" lon="11.247792961"><ele>111</ele><time>2020-02-02T08:35:28Z</time></trkpt>
<trkpt lat="43.75391501" lon="11.247751974"><ele>111</ele><time>2020-02-02T08:35:29Z</time></trkpt>
<trkpt lat="43.753896989" lon="11.247712998"><ele>111</ele><time>2020-02-02T08:35:30Z</time></trkpt>
<trkpt lat="43.753878968" lon="11.247673016"><ele>111</ele><time>2020-02-02T08:35:31Z</time></trkpt>
<trkpt lat="43.753860025" lon="11.24763404"><ele>111</ele><time>2020-02-02T08:35:32Z</time></trkpt>
<trkpt lat="43.753839992" lon="11.247593975"><ele>111</ele><time>2020-02-02T08:35:33Z</time></trkpt>
<trkpt lat="43.753820965" lon="11.247554999"><ele>110</ele><time>2020-02-02T08:35:34Z</time></trkpt>
<trkpt lat="43.753802022" lon="11.247517029"><ele>110</ele><time>2020-02-02T08:35:35Z</time></trkpt>
<trkpt lat="43.753781989" lon="11.247477969"><ele>110</ele><time>2020-02-02T08:35:36Z</time></trkpt>
<trkpt lat="43.75376204" lon="11.247438993"><ele>110</ele><time>2020-02-02T08:35:37Z</time></trkpt>
<trkpt lat="43.753742008" lon="11.247401023"><ele>110</ele><time>2020-02-02T08:35:38Z</time></trkpt>
<trkpt lat="43.753721975" lon="11.247361964"><ele>110</ele><time>2020-02-02T08:35:39Z</time></trkpt>
<trkpt lat="43.753703032" lon="11.247322988"><ele>110</ele><time>2020-02-02T08:35:40Z</time></trkpt>
<trkpt lat="43.753682999" lon="11.247284012"><ele>109</ele><time>2020-02-02T08:35:41Z</time></trkpt>
<trkpt lat="43.753663972" lon="11.247245036"><ele>109</ele><time>2020-02-02T08:35:42Z</time></trkpt>
<trkpt lat="43.753645029" lon="11.247204971"><ele>109</ele><time>2020-02-02T08:35:43Z</time></trkpt>
<trkpt lat="43.753627008" lon="11.247163983"><ele>109</ele><time>2020-02-02T08:35:44Z</time></trkpt>
<trkpt lat="43.753608987" lon="11.247124001"><ele>108</ele><time>2020-02-02T08:35:45Z</time></trkpt>
<trkpt lat="43.753591971" lon="11.247082008"><ele>108</ele><time>2020-02-02T08:35:46Z</time></trkpt>
<trkpt lat="43.75357504" lon="11.247041021"><ele>108</ele><time>2020-02-02T08:35:47Z</time></trkpt>
<trkpt lat="43.753558025" lon="11.246999027"><ele>108</ele><time>2020-02-02T08:35:48Z</time></trkpt>
<trkpt lat="43.75354101" lon="11.246957034"><ele>107</ele><time>2020-02-02T08:35:49Z</time></trkpt>
<trkpt lat="43.753525" lon="11.246915041"><ele>107</ele><time>2020-02-02T08:35:50Z</time></trkpt>
<trkpt lat="43.753508991" lon="11.246872963"><ele>107</ele><time>2020-02-02T08:35:51Z</time></trkpt>
<trkpt lat="43.753491975" lon="11.24683097"><ele>106</ele><time>2020-02-02T08:35:52Z</time></trkpt>
<trkpt lat="43.753475966" lon="11.246788977"><ele>106</ele><time>2020-02-02T08:35:53Z</time></trkpt>
<trkpt lat="43.753459034" lon="11.246746983"><ele>106</ele><time>2020-02-02T08:35:54Z</time></trkpt>
<trkpt lat="43.753443025" lon="11.24670499"><ele>105</ele><time>2020-02-02T08:35:55Z</time></trkpt>
<trkpt lat="43.75342601" lon="11.246664003"><ele>105</ele><time>2020-02-02T08:35:56Z</time></trkpt>
<trkpt lat="43.753408995" lon="11.246623015"><ele>105</ele><time>2020-02-02T08:35:57Z</time></trkpt>
<trkpt lat="43.753390973" lon="11.246582028"><ele>105</ele><time>2020-02-02T08:35:58Z</time></trkpt>
<trkpt lat="43.753373958" lon="11.246541962"><ele>105</ele><time>2020-02-02T08:35:59Z</time></trkpt>
<trkpt lat="43.753355015" lon="11.246502986"><ele>104</ele><time>2020-02-02T08:36:00Z</time></trkpt>
<trkpt lat="43.753336994" lon="11.24646401"><ele>104</ele><time>2020-02-02T08:36:01Z</time></trkpt>
<trkpt lat="43.753317967" lon="11.24642604"><ele>104</ele><time>2020-02-02T08:36:02Z</time></trkpt>
<trkpt lat="43.753298018" lon="11.246387986"><ele>104</ele><time>2020-02-02T08:36:03Z</time></trkpt>
<trkpt lat="43.753277985" lon="11.246351022"><ele>104</ele><time>2020-02-02T08:36:04Z</time></trkpt>
<trkpt lat="43.753257031" lon="11.246313974"><ele>104</ele><time>2020-02-02T08:36:05Z</time></trkpt>
<trkpt lat="43.753236998" lon="11.246278016"><ele>103</ele><time>2020-02-02T08:36:06Z</time></trkpt>
<trkpt lat="43.753215959" lon="11.246240968"><ele>103</ele><time>2020-02-02T08:36:07Z</time></trkpt>
<trkpt lat="43.75319601" lon="11.24620501"><ele>103</ele><time>2020-02-02T08:36:08Z</time></trkpt>
<trkpt lat="43.753175978" lon="11.246168967"><ele>103</ele><time>2020-02-02T08:36:09Z</time></trkpt>
<trkpt lat="43.753155023" lon="11.246132003"><ele>103</ele><time>2020-02-02T08:36:10Z</time></trkpt>
<trkpt lat="43.753135996" lon="11.246095039"><ele>103</ele><time>2020-02-02T08:36:11Z</time></trkpt>
<trkpt lat="43.753115963" lon="11.246057991"><ele>103</ele><time>2020-02-02T08:36:12Z</time></trkpt>
<trkpt lat="43.753096014" lon="11.246023038"><ele>102</ele><time>2020-02-02T08:36:13Z</time></trkpt>
<trkpt lat="43.753076987" lon="11.245988002"><ele>102</ele><time>2020-02-02T08:36:14Z</time></trkpt>
<trkpt lat="43.75305796" lon="11.245955983"><ele>102</ele><time>2020-02-02T08:36:15Z</time></trkpt>
<trkpt lat="43.753039017" lon="11.245925976"><ele>102</ele><time>2020-02-02T08:36:16Z</time></trkpt>
<trkpt lat="43.753018985" lon="11.245899992"><ele>102</ele><time>2020-02-02T08:36:17Z</time></trkpt>
<trkpt lat="43.753000041" lon="11.245877026"><ele>102</ele><time>2020-02-02T08:36:18Z</time></trkpt>
<trkpt lat="43.752980009" lon="11.245859005"><ele>102</ele><time>2020-02-02T08:36:19Z</time></trkpt>
<trkpt lat="43.752959976" lon="11.245844001"><ele>102</ele><time>2020-02-02T08:36:20Z</time></trkpt>
<trkpt lat="43.752939021" lon="11.245834026"><ele>102</ele><time>2020-02-02T08:36:21Z</time></trkpt>
<trkpt lat="43.752918988" lon="11.245826986"><ele>102</ele><time>2020-02-02T08:36:22Z</time></trkpt>
<trkpt lat="43.752898034" lon="11.245822962"><ele>102</ele><time>2020-02-02T08:36:23Z</time></trkpt>
<trkpt lat="43.752876995" lon="11.245822962"><ele>102</ele><time>2020-02-02T08:36:24Z</time></trkpt>
<trkpt lat="43.752855035" lon="11.245824974"><ele>101</ele><time>2020-02-02T08:36:25Z</time></trkpt>
<trkpt lat="43.75283299" lon="11.245830003"><ele>101</ele><time>2020-02-02T08:36:26Z</time></trkpt>
<trkpt lat="43.752810024" lon="11.245837966"><ele>101</ele><time>2020-02-02T08:36:27Z</time></trkpt>
<trkpt lat="43.752786973" lon="11.245847018"><ele>101</ele><time>2020-02-02T08:36:28Z</time></trkpt>
<trkpt lat="43.752764007" lon="11.245859005"><ele>101</ele><time>2020-02-02T08:36:29Z</time></trkpt>
<trkpt lat="43.752740035" lon="11.245871997"><ele>101</ele><time>2020-02-02T08:36:30Z</time></trkpt>
<trkpt lat="43.752716985" lon="11.245885994"><ele>101</ele><time>2020-02-02T08:36:31Z</time></trkpt>
<trkpt lat="43.752693012" lon="11.245899992"><ele>101</ele><time>2020-02-02T08:36:32Z</time></trkpt>
<trkpt lat="43.752668034" lon="11.245914996"><ele>101</ele><time>2020-02-02T08:36:33Z</time></trkpt>
<trkpt lat="43.752643978" lon="11.245929999"><ele>101</ele><time>2020-02-02T08:36:34Z</time></trkpt>
<trkpt lat="43.752620006" lon="11.245945003"><ele>101</ele><time>2020-02-02T08:36:35Z</time></trkpt>
<trkpt lat="43.752596034" lon="11.245959001"><ele>101</ele><time>2020-02-02T08:36:36Z</time></trkpt>
<trkpt lat="43.752571978" lon="11.245971993"><ele>101</ele><time>2020-02-02T08:36:37Z</time></trkpt>
<trkpt lat="43.752549011" lon="11.245983979"><ele>101</ele><time>2020-02-02T08:36:38Z</time></trkpt>
<trkpt lat="43.752525961" lon="11.245994959"><ele>101</ele><time>2020-02-02T08:36:39Z</time></trkpt>
<trkpt lat="43.752504" lon="11.246004011"><ele>101</ele><time>2020-02-02T08:36:40Z</time></trkpt>
<trkpt lat="43.752482962" lon="11.246011974"><ele>102</ele><time>2020-02-02T08:36:41Z</time></trkpt>
<trkpt lat="43.752463013" lon="11.246019015"><ele>102</ele><time>2020-02-02T08:36:42Z</time></trkpt>
<trkpt lat="43.75244298" lon="11.246024966"><ele>102</ele><time>2020-02-02T08:36:43Z</time></trkpt>
<trkpt lat="43.752423031" lon="11.246031001"><ele>102</ele><time>2020-02-02T08:36:44Z</time></trkpt>
<trkpt lat="43.752402999" lon="11.246037958"><ele>102</ele><time>2020-02-02T08:36:45Z</time></trkpt>
<trkpt lat="43.752380032" lon="11.246047011"><ele>102</ele><time>2020-02-02T08:36:46Z</time></trkpt>
<trkpt lat="43.752356982" lon="11.246057991"><ele>102</ele><time>2020-02-02T08:36:47Z</time></trkpt>
<trkpt lat="43.752332004" lon="11.246069977"><ele>103</ele><time>2020-02-02T08:36:48Z</time></trkpt>
<trkpt lat="43.752252962" lon="11.246110965"><ele>103</ele><time>2020-02-02T08:36:51Z</time></trkpt>
<trkpt lat="43.752225973" lon="11.246124962"><ele>104</ele><time>2020-02-02T08:36:52Z</time></trkpt>
<trkpt lat="43.752198983" lon="11.24613896"><ele>104</ele><time>2020-02-02T08:36:53Z</time></trkpt>
<trkpt lat="43.752172999" lon="11.246153042"><ele>104</ele><time>2020-02-02T08:36:54Z</time></trkpt>
<trkpt lat="43.752147015" lon="11.246167039"><ele>104</ele><time>2020-02-02T08:36:55Z</time></trkpt>
<trkpt lat="43.752121031" lon="11.246181037"><ele>104</ele><time>2020-02-02T08:36:56Z</time></trkpt>
<trkpt lat="43.752095969" lon="11.246194029"><ele>105</ele><time>2020-02-02T08:36:57Z</time></trkpt>
<trkpt lat="43.752071997" lon="11.246207021"><ele>105</ele><time>2020-02-02T08:36:58Z</time></trkpt>
<trkpt lat="43.752048025" lon="11.246220013"><ele>105</ele><time>2020-02-02T08:36:59Z</time></trkpt>
<trkpt lat="43.752023969" lon="11.246233005"><ele>105</ele><time>2020-02-02T08:37:00Z</time></trkpt>
<trkpt lat="43.752001002" lon="11.246244991"><ele>105</ele><time>2020-02-02T08:37:01Z</time></trkpt>
<trkpt lat="43.751979042" lon="11.246257983"><ele>106</ele><time>2020-02-02T08:37:02Z</time></trkpt>
<trkpt lat="43.751956997" lon="11.246269969"><ele>106</ele><time>2020-02-02T08:37:03Z</time></trkpt>
<trkpt lat="43.751893966" lon="11.246307017"><ele>106</ele><time>2020-02-02T08:37:06Z</time></trkpt>
<trkpt lat="43.751874017" lon="11.246319003"><ele>106</ele><time>2020-02-02T08:37:07Z</time></trkpt>
<trkpt lat="43.751852978" lon="11.24633099"><ele>107</ele><time>2020-02-02T08:37:08Z</time></trkpt>
<trkpt lat="43.751833029" lon="11.246342976"><ele>107</ele><time>2020-02-02T08:37:09Z</time></trkpt>
<trkpt lat="43.751812996" lon="11.24635404"><ele>107</ele><time>2020-02-02T08:37:10Z</time></trkpt>
<trkpt lat="43.751792042" lon="11.24636502"><ele>107</ele><time>2020-02-02T08:37:11Z</time></trkpt>
<trkpt lat="43.751771003" lon="11.246376"><ele>107</ele><time>2020-02-02T08:37:12Z</time></trkpt>
<trkpt lat="43.751749964" lon="11.246385975"><ele>107</ele><time>2020-02-02T08:37:13Z</time></trkpt>
<trkpt lat="43.751728004" lon="11.246396033"><ele>108</ele><time>2020-02-02T08:37:14Z</time></trkpt>
<trkpt lat="43.751706965" lon="11.246406008"><ele>108</ele><time>2020-02-02T08:37:15Z</time></trkpt>
<trkpt lat="43.751685005" lon="11.246415982"><ele>108</ele><time>2020-02-02T08:37:16Z</time></trkpt>
<trkpt lat="43.75166296" lon="11.246425034"><ele>108</ele><time>2020-02-02T08:37:17Z</time></trkpt>
<trkpt lat="43.751641" lon="11.246435009"><ele>108</ele><time>2020-02-02T08:37:18Z</time></trkpt>
<trkpt lat="43.751618033" lon="11.246444983"><ele>109</ele><time>2020-02-02T08:37:19Z</time></trkpt>
<trkpt lat="43.751595989" lon="11.246455042"><ele>109</ele><time>2020-02-02T08:37:20Z</time></trkpt>
<trkpt lat="43.751573022" lon="11.246465016"><ele>109</ele><time>2020-02-02T08:37:21Z</time></trkpt>
<trkpt lat="43.751550978" lon="11.246474991"><ele>109</ele><time>2020-02-02T08:37:22Z</time></trkpt>
<trkpt lat="43.751528012" lon="11.246484965"><ele>109</ele><time>2020-02-02T08:37:23Z</time></trkpt>
<trkpt lat="43.751505967" lon="11.246496029"><ele>109</ele><time>2020-02-02T08:37:24Z</time></trkpt>
<trkpt lat="43.751483001" lon="11.246507009"><ele>110</ele><time>2020-02-02T08:37:25Z</time></trkpt>
<trkpt lat="43.75146104" lon="11.246518996"><ele>110</ele><time>2020-02-02T08:37:26Z</time></trkpt>
<trkpt lat="43.75143799" lon="11.246530982"><ele>110</ele><time>2020-02-02T08:37:27Z</time></trkpt>
<trkpt lat="43.751416029" lon="11.246543974"><ele>110</ele><time>2020-02-02T08:37:28Z</time></trkpt>
<trkpt lat="43.751393985" lon="11.246557971"><ele>110</ele><time>2020-02-02T08:37:29Z</time></trkpt>
<trkpt lat="43.751371019" lon="11.246571969"><ele>110</ele><time>2020-02-02T08:37:30Z</time></trkpt>
<trkpt lat="43.75134998" lon="11.246585967"><ele>111</ele><time>2020-02-02T08:37:31Z</time></trkpt>
<trkpt lat="43.751328019" lon="11.246599965"><ele>111</ele><time>2020-02-02T08:37:32Z</time></trkpt>
<trkpt lat="43.751306981" lon="11.246614968"><ele>111</ele><time>2020-02-02T08:37:33Z</time></trkpt>
<trkpt lat="43.751286026" lon="11.246628966"><ele>111</ele><time>2020-02-02T08:37:34Z</time></trkpt>
<trkpt lat="43.751264988" lon="11.246642964"><ele>111</ele><time>2020-02-02T08:37:35Z</time></trkpt>
<trkpt lat="43.751205979" lon="11.246681018"><ele>112</ele><time>2020-02-02T08:37:38Z</time></trkpt>
<trkpt lat="43.751187036" lon="11.246691998"><ele>112</ele><time>2020-02-02T08:37:39Z</time></trkpt>
<trkpt lat="43.751168009" lon="11.246702978"><ele>112</ele><time>2020-02-02T08:37:40Z</time></trkpt>
<trkpt lat="43.751149988" lon="11.246713037"><ele>112</ele><time>2020-02-02T08:37:41Z</time></trkpt>
<trkpt lat="43.751130961" lon="11.246723011"><ele>112</ele><time>2020-02-02T08:37:42Z</time></trkpt>
<trkpt lat="43.751112018" lon="11.246732986"><ele>112</ele><time>2020-02-02T08:37:43Z</time></trkpt>
<trkpt lat="43.751049992" lon="11.246762993"><ele>113</ele><time>2020-02-02T08:37:46Z</time></trkpt>
<trkpt lat="43.751028031" lon="11.246772967"><ele>113</ele><time>2020-02-02T08:37:47Z</time></trkpt>
<trkpt lat="43.751003975" lon="11.246784031"><ele>113</ele><time>2020-02-02T08:37:48Z</time></trkpt>
<trkpt lat="43.750980003" lon="11.246795012"><ele>113</ele><time>2020-02-02T08:37:49Z</time></trkpt>
<trkpt lat="43.750955025" lon="11.246806998"><ele>113</ele><time>2020-02-02T08:37:50Z</time></trkpt>
<trkpt lat="43.750929963" lon="11.246818984"><ele>113</ele><time>2020-02-02T08:37:51Z</time></trkpt>
<trkpt lat="43.750903979" lon="11.246831976"><ele>113</ele><time>2020-02-02T08:37:52Z</time></trkpt>
<trkpt lat="43.750877995" lon="11.246844968"><ele>114</ele><time>2020-02-02T08:37:53Z</time></trkpt>
<trkpt lat="43.750851005" lon="11.246858966"><ele>114</ele><time>2020-02-02T08:37:54Z</time></trkpt>
<trkpt lat="43.750798032" lon="11.246888973"><ele>114</ele><time>2020-02-02T08:37:56Z</time></trkpt>
<trkpt lat="43.750771964" lon="11.246903976"><ele>114</ele><time>2020-02-02T08:37:57Z</time></trkpt>
<trkpt lat="43.75074598" lon="11.246919986"><ele>114</ele><time>2020-02-02T08:37:58Z</time></trkpt>
<trkpt lat="43.750719996" lon="11.246935995"><ele>114</ele><time>2020-02-02T08:37:59Z</time></trkpt>
<trkpt lat="43.750695018" lon="11.246952005"><ele>114</ele><time>2020-02-02T08:38:00Z</time></trkpt>
<trkpt lat="43.750670962" lon="11.246968014"><ele>114</ele><time>2020-02-02T08:38:01Z</time></trkpt>
<trkpt lat="43.75064699" lon="11.246983018"><ele>115</ele><time>2020-02-02T08:38:02Z</time></trkpt>
<trkpt lat="43.750624023" lon="11.246998021"><ele>115</ele><time>2020-02-02T08:38:03Z</time></trkpt>
<trkpt lat="43.750602985" lon="11.247012019"><ele>115</ele><time>2020-02-02T08:38:04Z</time></trkpt>
<trkpt lat="43.75058203" lon="11.247025011"><ele>115</ele><time>2020-02-02T08:38:05Z</time></trkpt>
<trkpt lat="43.750560991" lon="11.247038003"><ele>115</ele><time>2020-02-02T08:38:06Z</time></trkpt>
<trkpt lat="43.750541965" lon="11.247049989"><ele>115</ele><time>2020-02-02T08:38:07Z</time></trkpt>
<trkpt lat="43.750522016" lon="11.247060969"><ele>115</ele><time>2020-02-02T08:38:08Z</time></trkpt>
<trkpt lat="43.750503995" lon="11.247072034"><ele>115</ele><time>2020-02-02T08:38:09Z</time></trkpt>
<trkpt lat="43.750484968" lon="11.247083014"><ele>115</ele><time>2020-02-02T08:38:10Z</time></trkpt>
<trkpt lat="43.750466025" lon="11.247092988"><ele>116</ele><time>2020-02-02T08:38:11Z</time></trkpt>
<trkpt lat="43.750446998" lon="11.247102963"><ele>116</ele><time>2020-02-02T08:38:12Z</time></trkpt>
<trkpt lat="43.750427971" lon="11.247113021"><ele>116</ele><time>2020-02-02T08:38:13Z</time></trkpt>
<trkpt lat="43.750409028" lon="11.247124001"><ele>116</ele><time>2020-02-02T08:38:14Z</time></trkpt>
<trkpt lat="43.750388995" lon="11.247134982"><ele>116</ele><time>2020-02-02T08:38:15Z</time></trkpt>
<trkpt lat="43.750369968" lon="11.247146968"><ele>116</ele><time>2020-02-02T08:38:16Z</time></trkpt>
<trkpt lat="43.750318" lon="11.24719399"><ele>117</ele><time>2020-02-02T08:38:19Z</time></trkpt>
<trkpt lat="43.750301991" lon="11.247214023"><ele>117</ele><time>2020-02-02T08:38:20Z</time></trkpt>
<trkpt lat="43.750286987" lon="11.247237995"><ele>117</ele><time>2020-02-02T08:38:21Z</time></trkpt>
<trkpt lat="43.750273995" lon="11.247264985"><ele>117</ele><time>2020-02-02T08:38:22Z</time></trkpt>
<trkpt lat="43.750263015" lon="11.247294992"><ele>117</ele><time>2020-02-02T08:38:23Z</time></trkpt>
<trkpt lat="43.750252035" lon="11.247328017"><ele>117</ele><time>2020-02-02T08:38:24Z</time></trkpt>
<trkpt lat="43.750241976" lon="11.247362969"><ele>118</ele><time>2020-02-02T08:38:25Z</time></trkpt>
<trkpt lat="43.750233008" lon="11.247399012"><ele>118</ele><time>2020-02-02T08:38:26Z</time></trkpt>
<trkpt lat="43.750224961" lon="11.247436982"><ele>118</ele><time>2020-02-02T08:38:27Z</time></trkpt>
<trkpt lat="43.750216998" lon="11.247476041"><ele>118</ele><time>2020-02-02T08:38:28Z</time></trkpt>
<trkpt lat="43.750209035" lon="11.247515017"><ele>118</ele><time>2020-02-02T08:38:29Z</time></trkpt>
<trkpt lat="43.750201995" lon="11.247553993"><ele>119</ele><time>2020-02-02T08:38:30Z</time></trkpt>
<trkpt lat="43.750194032" lon="11.247592969"><ele>119</ele><time>2020-02-02T08:38:31Z</time></trkpt>
<trkpt lat="43.750185985" lon="11.247631023"><ele>119</ele><time>2020-02-02T08:38:32Z</time></trkpt>
<trkpt lat="43.750179028" lon="11.247668993"><ele>119</ele><time>2020-02-02T08:38:33Z</time></trkpt>
<trkpt lat="43.750169976" lon="11.247705035"><ele>119</ele><time>2020-02-02T08:38:34Z</time></trkpt>
<trkpt lat="43.750162013" lon="11.247740993"><ele>120</ele><time>2020-02-02T08:38:35Z</time></trkpt>
<trkpt lat="43.75015296" lon="11.24777603"><ele>120</ele><time>2020-02-02T08:38:36Z</time></trkpt>
<trkpt lat="43.750142986" lon="11.247809976"><ele>120</ele><time>2020-02-02T08:38:37Z</time></trkpt>
<trkpt lat="43.750133011" lon="11.247843001"><ele>120</ele><time>2020-02-02T08:38:38Z</time></trkpt>
<trkpt lat="43.750123037" lon="11.24787502"><ele>120</ele><time>2020-02-02T08:38:39Z</time></trkpt>
<trkpt lat="43.750111973" lon="11.247905027"><ele>121</ele><time>2020-02-02T08:38:40Z</time></trkpt>
<trkpt lat="43.750099987" lon="11.247934029"><ele>121</ele><time>2020-02-02T08:38:41Z</time></trkpt>
<trkpt lat="43.750088001" lon="11.24796303"><ele>121</ele><time>2020-02-02T08:38:42Z</time></trkpt>
<trkpt lat="43.750047013" lon="11.248043999"><ele>122</ele><time>2020-02-02T08:38:45Z</time></trkpt>
<trkpt lat="43.75003201" lon="11.248069983"><ele>122</ele><time>2020-02-02T08:38:46Z</time></trkpt>
<trkpt lat="43.750017006" lon="11.248095967"><ele>122</ele><time>2020-02-02T08:38:47Z</time></trkpt>
<trkpt lat="43.750000997" lon="11.248121029"><ele>122</ele><time>2020-02-02T08:38:48Z</time></trkpt>
<trkpt lat="43.749983981" lon="11.248147013"><ele>122</ele><time>2020-02-02T08:38:49Z</time></trkpt>
<trkpt lat="43.749966966" lon="11.248172997"><ele>123</ele><time>2020-02-02T08:38:50Z</time></trkpt>
<trkpt lat="43.74995104" lon="11.248199986"><ele>123</ele><time>2020-02-02T08:38:51Z</time></trkpt>
<trkpt lat="43.749935031" lon="11.248226976"><ele>123</ele><time>2020-02-02T08:38:52Z</time></trkpt>
<trkpt lat="43.749919022" lon="11.248253966"><ele>123</ele><time>2020-02-02T08:38:53Z</time></trkpt>
<trkpt lat="43.749905024" lon="11.248282967"><ele>123</ele><time>2020-02-02T08:38:54Z</time></trkpt>
<trkpt lat="43.749893038" lon="11.248311969"><ele>123</ele><time>2020-02-02T08:38:55Z</time></trkpt>
<trkpt lat="43.749881973" lon="11.248342982"><ele>123</ele><time>2020-02-02T08:38:56Z</time></trkpt>
<trkpt lat="43.749874011" lon="11.248375"><ele>123</ele><time>2020-02-02T08:38:57Z</time></trkpt>
<trkpt lat="43.749868982" lon="11.248408025"><ele>123</ele><time>2020-02-02T08:38:58Z</time></trkpt>
<trkpt lat="43.749865964" lon="11.248442978"><ele>123</ele><time>2020-02-02T08:38:59Z</time></trkpt>
<trkpt lat="43.749865964" lon="11.24847902"><ele>123</ele><time>2020-02-02T08:39:00Z</time></trkpt>
<trkpt lat="43.74986697" lon="11.248514978"><ele>123</ele><time>2020-02-02T08:39:01Z</time></trkpt>
<trkpt lat="43.749870993" lon="11.248552026"><ele>123</ele><time>2020-02-02T08:39:02Z</time></trkpt>
<trkpt lat="43.749876022" lon="11.24858899"><ele>123</ele><time>2020-02-02T08:39:03Z</time></trkpt>
<trkpt lat="43.749881973" lon="11.24862696"><ele>123</ele><time>2020-02-02T08:39:04Z</time></trkpt>
<trkpt lat="43.74989002" lon="11.248664008"><ele>123</ele><time>2020-02-02T08:39:05Z</time></trkpt>
<trkpt lat="43.749898989" lon="11.248700973"><ele>122</ele><time>2020-02-02T08:39:06Z</time></trkpt>
<trkpt lat="43.749908963" lon="11.248738021"><ele>122</ele><time>2020-02-02T08:39:07Z</time></trkpt>
<trkpt lat="43.749919022" lon="11.248773979"><ele>122</ele><time>2020-02-02T08:39:08Z</time></trkpt>
<trkpt lat="43.749930002" lon="11.248810021"><ele>122</ele><time>2020-02-02T08:39:09Z</time></trkpt>
<trkpt lat="43.749941988" lon="11.24884598"><ele>122</ele><time>2020-02-02T08:39:10Z</time></trkpt>
<trkpt lat="43.749953974" lon="11.248881016"><ele>122</ele><time>2020-02-02T08:39:11Z</time></trkpt>
<trkpt lat="43.74996596" lon="11.248916974"><ele>122</ele><time>2020-02-02T08:39:12Z</time></trkpt>
<trkpt lat="43.749979036" lon="11.248952011"><ele>122</ele><time>2020-02-02T08:39:13Z</time></trkpt>
<trkpt lat="43.749991022" lon="11.248987969"><ele>122</ele><time>2020-02-02T08:39:14Z</time></trkpt>
<trkpt lat="43.750004014" lon="11.249024011"><ele>122</ele><time>2020-02-02T08:39:15Z</time></trkpt>
<trkpt lat="43.750017006" lon="11.24905997"><ele>122</ele><time>2020-02-02T08:39:16Z</time></trkpt>
<trkpt lat="43.750029998" lon="11.249098023"><ele>122</ele><time>2020-02-02T08:39:17Z</time></trkpt>
<trkpt lat="43.750041984" lon="11.249135993"><ele>122</ele><time>2020-02-02T08:39:18Z</time></trkpt>
<trkpt lat="43.750054976" lon="11.249174969"><ele>122</ele><time>2020-02-02T08:39:19Z</time></trkpt>
<trkpt lat="43.750066962" lon="11.249216041"><ele>122</ele><time>2020-02-02T08:39:20Z</time></trkpt>
<trkpt lat="43.750076015" lon="11.249257028"><ele>122</ele><time>2020-02-02T08:39:21Z</time></trkpt>
<trkpt lat="43.750078026" lon="11.249293992"><ele>122</ele><time>2020-02-02T08:39:22Z</time></trkpt>
<trkpt lat="43.750072997" lon="11.249326011"><ele>122</ele><time>2020-02-02T08:39:23Z</time></trkpt>
<trkpt lat="43.750055982" lon="11.249351995"><ele>122</ele><time>2020-02-02T08:39:24Z</time></trkpt>
<trkpt lat="43.74997803" lon="11.249393988"><ele>122</ele><time>2020-02-02T08:39:27Z</time></trkpt>
<trkpt lat="43.74995498" lon="11.249399018"><ele>122</ele><time>2020-02-02T08:39:28Z</time></trkpt>
<trkpt lat="43.74993897" lon="11.249401029"><ele>122</ele><time>2020-02-02T08:39:29Z</time></trkpt>
<trkpt lat="43.749926984" lon="11.249402035"><ele>122</ele><time>2020-02-02T08:39:30Z</time></trkpt>
<trkpt lat="43.749916004" lon="11.249403963"><ele>122</ele><time>2020-02-02T08:39:31Z</time></trkpt>
<trkpt lat="43.749902006" lon="11.249407986"><ele>122</ele><time>2020-02-02T08:39:32Z</time></trkpt>
<trkpt lat="43.749880968" lon="11.249416033"><ele>122</ele><time>2020-02-02T08:39:33Z</time></trkpt>
<trkpt lat="43.749853978" lon="11.249427013"><ele>122</ele><time>2020-02-02T08:39:34Z</time></trkpt>
<trkpt lat="43.74974099" lon="11.24945702"><ele>122</ele><time>2020-02-02T08:39:37Z</time></trkpt>
<trkpt lat="43.749693967" lon="11.24946096"><ele>122</ele><time>2020-02-02T08:39:38Z</time></trkpt>
<trkpt lat="43.749646023" lon="11.24946096"><ele>122</ele><time>2020-02-02T08:39:39Z</time></trkpt>
<trkpt lat="43.749597995" lon="11.249459032"><ele>121</ele><time>2020-02-02T08:39:40Z</time></trkpt>
<trkpt lat="43.749550972" lon="11.249455009"><ele>121</ele><time>2020-02-02T08:39:41Z</time></trkpt>
<trkpt lat="43.749506967" lon="11.24944998"><ele>121</ele><time>2020-02-02T08:39:42Z</time></trkpt>
<trkpt lat="43.74946598" lon="11.249444028"><ele>121</ele><time>2020-02-02T08:39:43Z</time></trkpt>
<trkpt lat="43.749427004" lon="11.249436988"><ele>121</ele><time>2020-02-02T08:39:44Z</time></trkpt>
<trkpt lat="43.749387022" lon="11.249431036"><ele>121</ele><time>2020-02-02T08:39:45Z</time></trkpt>
<trkpt lat="43.74934704" lon="11.249423996"><ele>121</ele><time>2020-02-02T08:39:46Z</time></trkpt>
<trkpt lat="43.749306975" lon="11.249417961"><ele>121</ele><time>2020-02-02T08:39:47Z</time></trkpt>
<trkpt lat="43.749267999" lon="11.249409998"><ele>120</ele><time>2020-02-02T08:39:48Z</time></trkpt>
<trkpt lat="43.749232041" lon="11.249401029"><ele>120</ele><time>2020-02-02T08:39:49Z</time></trkpt>
<trkpt lat="43.749200022" lon="11.249390971"><ele>120</ele><time>2020-02-02T08:39:50Z</time></trkpt>
<trkpt lat="43.749170015" lon="11.249378985"><ele>120</ele><time>2020-02-02T08:39:51Z</time></trkpt>
<trkpt lat="43.749142019" lon="11.249366999"><ele>120</ele><time>2020-02-02T08:39:52Z</time></trkpt>
<trkpt lat="43.749115029" lon="11.249355013"><ele>119</ele><time>2020-02-02T08:39:53Z</time></trkpt>
<trkpt lat="43.74908804" lon="11.249345038"><ele>119</ele><time>2020-02-02T08:39:54Z</time></trkpt>
<trkpt lat="43.74905996" lon="11.249335986"><ele>119</ele><time>2020-02-02T08:39:55Z</time></trkpt>
<trkpt lat="43.749030959" lon="11.249329029"><ele>118</ele><time>2020-02-02T08:39:56Z</time></trkpt>
<trkpt lat="43.749001035" lon="11.249321988"><ele>118</ele><time>2020-02-02T08:39:57Z</time></trkpt>
<trkpt lat="43.748900034" lon="11.249301033"><ele>117</ele><time>2020-02-02T08:40:00Z</time></trkpt>
<trkpt lat="43.748864997" lon="11.249293992"><ele>117</ele><time>2020-02-02T08:40:01Z</time></trkpt>
<trkpt lat="43.748829039" lon="11.249286029"><ele>117</ele><time>2020-02-02T08:40:02Z</time></trkpt>
<trkpt lat="43.748795008" lon="11.249279995"><ele>116</ele><time>2020-02-02T08:40:03Z</time></trkpt>
<trkpt lat="43.748699035" lon="11.249262979"><ele>115</ele><time>2020-02-02T08:40:06Z</time></trkpt>
<trkpt lat="43.748668022" lon="11.24925904"><ele>115</ele><time>2020-02-02T08:40:07Z</time></trkpt>
<trkpt lat="43.748637009" lon="11.249256022"><ele>115</ele><time>2020-02-02T08:40:08Z</time></trkpt>
<trkpt lat="43.748607002" lon="11.249253005"><ele>115</ele><time>2020-02-02T08:40:09Z</time></trkpt>
<trkpt lat="43.748576995" lon="11.249250993"><ele>115</ele><time>2020-02-02T08:40:10Z</time></trkpt>
<trkpt lat="43.748546988" lon="11.249249987"><ele>114</ele><time>2020-02-02T08:40:11Z</time></trkpt>
<trkpt lat="43.748517986" lon="11.249249987"><ele>114</ele><time>2020-02-02T08:40:12Z</time></trkpt>
<trkpt lat="43.748487979" lon="11.249251999"><ele>114</ele><time>2020-02-02T08:40:13Z</time></trkpt>
<trkpt lat="43.748458978" lon="11.249255016"><ele>114</ele><time>2020-02-02T08:40:14Z</time></trkpt>
<trkpt lat="43.748429976" lon="11.24925904"><ele>114</ele><time>2020-02-02T08:40:15Z</time></trkpt>
<trkpt lat="43.748401981" lon="11.249264991"><ele>113</ele><time>2020-02-02T08:40:16Z</time></trkpt>
<trkpt lat="43.748316988" lon="11.249294998"><ele>113</ele><time>2020-02-02T08:40:19Z</time></trkpt>
<trkpt lat="43.748288993" lon="11.249308996"><ele>113</ele><time>2020-02-02T08:40:20Z</time></trkpt>
<trkpt lat="43.748260997" lon="11.249325005"><ele>113</ele><time>2020-02-02T08:40:21Z</time></trkpt>
<trkpt lat="43.748234008" lon="11.249344032"><ele>113</ele><time>2020-02-02T08:40:22Z</time></trkpt>
<trkpt lat="43.748206012" lon="11.249365993"><ele>113</ele><time>2020-02-02T08:40:23Z</time></trkpt>
<trkpt lat="43.748179022" lon="11.249389965"><ele>113</ele><time>2020-02-02T08:40:24Z</time></trkpt>
<trkpt lat="43.748153038" lon="11.249417961"><ele>113</ele><time>2020-02-02T08:40:25Z</time></trkpt>
<trkpt lat="43.748125965" lon="11.249447968"><ele>113</ele><time>2020-02-02T08:40:26Z</time></trkpt>
<trkpt lat="43.748099981" lon="11.249479987"><ele>113</ele><time>2020-02-02T08:40:27Z</time></trkpt>
<trkpt lat="43.748075003" lon="11.249513011"><ele>113</ele><time>2020-02-02T08:40:28Z</time></trkpt>
<trkpt lat="43.748050025" lon="11.24954897"><ele>113</ele><time>2020-02-02T08:40:29Z</time></trkpt>
<trkpt lat="43.748025969" lon="11.249585012"><ele>113</ele><time>2020-02-02T08:40:30Z</time></trkpt>
<trkpt lat="43.748003002" lon="11.249621976"><ele>113</ele><time>2020-02-02T08:40:31Z</time></trkpt>
<trkpt lat="43.747980036" lon="11.24966003"><ele>113</ele><time>2020-02-02T08:40:32Z</time></trkpt>
<trkpt lat="43.747958997" lon="11.249696994"><ele>114</ele><time>2020-02-02T08:40:33Z</time></trkpt>
<trkpt lat="43.747938965" lon="11.249733958"><ele>114</ele><time>2020-02-02T08:40:34Z</time></trkpt>
<trkpt lat="43.747920021" lon="11.249771006"><ele>114</ele><time>2020-02-02T08:40:35Z</time></trkpt>
<trkpt lat="43.747900994" lon="11.249806965"><ele>114</ele><time>2020-02-02T08:40:36Z</time></trkpt>
<trkpt lat="43.747882973" lon="11.249843007"><ele>114</ele><time>2020-02-02T08:40:37Z</time></trkpt>
<trkpt lat="43.747865036" lon="11.249878965"><ele>114</ele><time>2020-02-02T08:40:38Z</time></trkpt>
<trkpt lat="43.747848021" lon="11.249916013"><ele>114</ele><time>2020-02-02T08:40:39Z</time></trkpt>
<trkpt lat="43.74783" lon="11.249951972"><ele>114</ele><time>2020-02-02T08:40:40Z</time></trkpt>
<trkpt lat="43.747811979" lon="11.24998902"><ele>114</ele><time>2020-02-02T08:40:41Z</time></trkpt>
<trkpt lat="43.747793036" lon="11.250025984"><ele>114</ele><time>2020-02-02T08:40:42Z</time></trkpt>
<trkpt lat="43.747774009" lon="11.250063032"><ele>114</ele><time>2020-02-02T08:40:43Z</time></trkpt>
<trkpt lat="43.747753976" lon="11.250101002"><ele>114</ele><time>2020-02-02T08:40:44Z</time></trkpt>
<trkpt lat="43.747735033" lon="11.250138972"><ele>114</ele><time>2020-02-02T08:40:45Z</time></trkpt>
<trkpt lat="43.747715" lon="11.250177026"><ele>114</ele><time>2020-02-02T08:40:46Z</time></trkpt>
<trkpt lat="43.747661021" lon="11.250294037"><ele>114</ele><time>2020-02-02T08:40:49Z</time></trkpt>
<trkpt lat="43.747645011" lon="11.250334019"><ele>114</ele><time>2020-02-02T08:40:50Z</time></trkpt>
<trkpt lat="43.747632019" lon="11.250374001"><ele>114</ele><time>2020-02-02T08:40:51Z</time></trkpt>
<trkpt lat="43.747620033" lon="11.250414988"><ele>114</ele><time>2020-02-02T08:40:52Z</time></trkpt>
<trkpt lat="43.747609975" lon="11.25045497"><ele>114</ele><time>2020-02-02T08:40:53Z</time></trkpt>
<trkpt lat="43.747602012" lon="11.250495035"><ele>114</ele><time>2020-02-02T08:40:54Z</time></trkpt>
<trkpt lat="43.747595977" lon="11.250534011"><ele>114</ele><time>2020-02-02T08:40:55Z</time></trkpt>
<trkpt lat="43.747590026" lon="11.250572987"><ele>114</ele><time>2020-02-02T08:40:56Z</time></trkpt>
<trkpt lat="43.747584997" lon="11.250610035"><ele>114</ele><time>2020-02-02T08:40:57Z</time></trkpt>
<trkpt lat="43.747580973" lon="11.250644987"><ele>114</ele><time>2020-02-02T08:40:58Z</time></trkpt>
<trkpt lat="43.747577034" lon="11.250679018"><ele>114</ele><time>2020-02-02T08:40:59Z</time></trkpt>
<trkpt lat="43.747572005" lon="11.250711037"><ele>114</ele><time>2020-02-02T08:41:00Z</time></trkpt>
<trkpt lat="43.747567981" lon="11.250740038"><ele>114</ele><time>2020-02-02T08:41:01Z</time></trkpt>
<trkpt lat="43.747560019" lon="11.250763005"><ele>114</ele><time>2020-02-02T08:41:02Z</time></trkpt>
<trkpt lat="43.747546021" lon="11.250779014"><ele>114</ele><time>2020-02-02T08:41:03Z</time></trkpt>
<trkpt lat="43.74747796" lon="11.250769962"><ele>113</ele><time>2020-02-02T08:41:06Z</time></trkpt>
<trkpt lat="43.747459017" lon="11.250752024"><ele>114</ele><time>2020-02-02T08:41:07Z</time></trkpt>
<trkpt lat="43.747442001" lon="11.25072998"><ele>114</ele><time>2020-02-02T08:41:08Z</time></trkpt>
<trkpt lat="43.747424986" lon="11.250707014"><ele>115</ele><time>2020-02-02T08:41:09Z</time></trkpt>
<trkpt lat="43.747407971" lon="11.250684969"><ele>115</ele><time>2020-02-02T08:41:10Z</time></trkpt>
<trkpt lat="43.74739104" lon="11.250664014"><ele>115</ele><time>2020-02-02T08:41:11Z</time></trkpt>
<trkpt lat="43.747374024" lon="11.250643982"><ele>116</ele><time>2020-02-02T08:41:12Z</time></trkpt>
<trkpt lat="43.747357009" lon="11.250624033"><ele>116</ele><time>2020-02-02T08:41:13Z</time></trkpt>
<trkpt lat="43.747339994" lon="11.250604"><ele>116</ele><time>2020-02-02T08:41:14Z</time></trkpt>
<trkpt lat="43.747322978" lon="11.250582961"><ele>117</ele><time>2020-02-02T08:41:15Z</time></trkpt>
<trkpt lat="43.747306969" lon="11.250562007"><ele>117</ele><time>2020-02-02T08:41:16Z</time></trkpt>
<trkpt lat="43.74729096" lon="11.250539962"><ele>117</ele><time>2020-02-02T08:41:17Z</time></trkpt>
<trkpt lat="43.74727604" lon="11.25051599"><ele>117</ele><time>2020-02-02T08:41:18Z</time></trkpt>
<trkpt lat="43.747261036" lon="11.250491012"><ele>118</ele><time>2020-02-02T08:41:19Z</time></trkpt>
<trkpt lat="43.747247038" lon="11.250464022"><ele>118</ele><time>2020-02-02T08:41:20Z</time></trkpt>
<trkpt lat="43.747233963" lon="11.250436027"><ele>118</ele><time>2020-02-02T08:41:21Z</time></trkpt>
<trkpt lat="43.747221977" lon="11.250408031"><ele>118</ele><time>2020-02-02T08:41:22Z</time></trkpt>
<trkpt lat="43.74720999" lon="11.25037903"><ele>118</ele><time>2020-02-02T08:41:23Z</time></trkpt>
<trkpt lat="43.747200016" lon="11.250351034"><ele>118</ele><time>2020-02-02T08:41:24Z</time></trkpt>
<trkpt lat="43.747190041" lon="11.250323039"><ele>119</ele><time>2020-02-02T08:41:25Z</time></trkpt>
<trkpt lat="43.747180989" lon="11.250294959"><ele>119</ele><time>2020-02-02T08:41:26Z</time></trkpt>
<trkpt lat="43.747173026" lon="11.250268975"><ele>119</ele><time>2020-02-02T08:41:27Z</time></trkpt>
<trkpt lat="43.74716498" lon="11.250243997"><ele>119</ele><time>2020-02-02T08:41:28Z</time></trkpt>
<trkpt lat="43.747159028" lon="11.250221031"><ele>119</ele><time>2020-02-02T08:41:29Z</time></trkpt>
<trkpt lat="43.747152993" lon="11.250197981"><ele>119</ele><time>2020-02-02T08:41:30Z</time></trkpt>
<trkpt lat="43.747147964" lon="11.250175014"><ele>119</ele><time>2020-02-02T08:41:31Z</time></trkpt>
<trkpt lat="43.747144025" lon="11.250151964"><ele>119</ele><time>2020-02-02T08:41:32Z</time></trkpt>
<trkpt lat="43.747140002" lon="11.250128997"><ele>119</ele><time>2020-02-02T08:41:33Z</time></trkpt>
<trkpt lat="43.747136984" lon="11.250106031"><ele>119</ele><time>2020-02-02T08:41:34Z</time></trkpt>
<trkpt lat="43.747133967" lon="11.250080969"><ele>119</ele><time>2020-02-02T08:41:35Z</time></trkpt>
<trkpt lat="43.747132039" lon="11.250053979"><ele>119</ele><time>2020-02-02T08:41:36Z</time></trkpt>
<trkpt lat="43.747130027" lon="11.250025984"><ele>119</ele><time>2020-02-02T08:41:37Z</time></trkpt>
<trkpt lat="43.747128015" lon="11.249996983"><ele>119</ele><time>2020-02-02T08:41:38Z</time></trkpt>
<trkpt lat="43.747126004" lon="11.249966975"><ele>118</ele><time>2020-02-02T08:41:39Z</time></trkpt>
<trkpt lat="43.747123992" lon="11.24993504"><ele>118</ele><time>2020-02-02T08:41:40Z</time></trkpt>
<trkpt lat="43.747120975" lon="11.249902016"><ele>118</ele><time>2020-02-02T08:41:41Z</time></trkpt>
<trkpt lat="43.747118041" lon="11.249867985"><ele>118</ele><time>2020-02-02T08:41:42Z</time></trkpt>
<trkpt lat="43.747113012" lon="11.249833032"><ele>118</ele><time>2020-02-02T08:41:43Z</time></trkpt>
<trkpt lat="43.747107983" lon="11.24979699"><ele>118</ele><time>2020-02-02T08:41:44Z</time></trkpt>
<trkpt lat="43.747101026" lon="11.249761032"><ele>118</ele><time>2020-02-02T08:41:45Z</time></trkpt>
<trkpt lat="43.747092979" lon="11.249723984"><ele>118</ele><time>2020-02-02T08:41:46Z</time></trkpt>
<trkpt lat="43.747085016" lon="11.24968702"><ele>118</ele><time>2020-02-02T08:41:47Z</time></trkpt>
<trkpt lat="43.747075964" lon="11.249649972"><ele>118</ele><time>2020-02-02T08:41:48Z</time></trkpt>
<trkpt lat="43.747066995" lon="11.249613008"><ele>118</ele><time>2020-02-02T08:41:49Z</time></trkpt>
<trkpt lat="43.747037994" lon="11.249512006"><ele>117</ele><time>2020-02-02T08:41:52Z</time></trkpt>
<trkpt lat="43.747023996" lon="11.249483004"><ele>117</ele><time>2020-02-02T08:41:53Z</time></trkpt>
<trkpt lat="43.747007987" lon="11.24945702"><ele>118</ele><time>2020-02-02T08:41:54Z</time></trkpt>
<trkpt lat="43.746988038" lon="11.24943397"><ele>118</ele><time>2020-02-02T08:41:55Z</time></trkpt>
<trkpt lat="43.746966999" lon="11.249413015"><ele>118</ele><time>2020-02-02T08:41:56Z</time></trkpt>
<trkpt lat="43.746943027" lon="11.249394994"><ele>118</ele><time>2020-02-02T08:41:57Z</time></trkpt>
<trkpt lat="43.746867003" lon="11.249350989"><ele>119</ele><time>2020-02-02T08:42:00Z</time></trkpt>
<trkpt lat="43.746841019" lon="11.249339003"><ele>120</ele><time>2020-02-02T08:42:01Z</time></trkpt>
<trkpt lat="43.746816963" lon="11.249328023"><ele>120</ele><time>2020-02-02T08:42:02Z</time></trkpt>
<trkpt lat="43.746792991" lon="11.249316959"><ele>120</ele><time>2020-02-02T08:42:03Z</time></trkpt>
<trkpt lat="43.74677103" lon="11.249305978"><ele>121</ele><time>2020-02-02T08:42:04Z</time></trkpt>
<trkpt lat="43.746749992" lon="11.249294998"><ele>121</ele><time>2020-02-02T08:42:05Z</time></trkpt>
<trkpt lat="43.746729037" lon="11.249285024"><ele>121</ele><time>2020-02-02T08:42:06Z</time></trkpt>
<trkpt lat="43.74671001" lon="11.24927396"><ele>121</ele><time>2020-02-02T08:42:07Z</time></trkpt>
<trkpt lat="43.746690983" lon="11.249262979"><ele>121</ele><time>2020-02-02T08:42:08Z</time></trkpt>
<trkpt lat="43.74667204" lon="11.249251999"><ele>122</ele><time>2020-02-02T08:42:09Z</time></trkpt>
<trkpt lat="43.746653013" lon="11.249241019"><ele>122</ele><time>2020-02-02T08:42:10Z</time></trkpt>
<trkpt lat="43.746634992" lon="11.249229033"><ele>122</ele><time>2020-02-02T08:42:11Z</time></trkpt>
<trkpt lat="43.746616971" lon="11.249216041"><ele>123</ele><time>2020-02-02T08:42:12Z</time></trkpt>
<trkpt lat="43.746598028" lon="11.249202965"><ele>123</ele><time>2020-02-02T08:42:13Z</time></trkpt>
<trkpt lat="43.746580007" lon="11.249189973"><ele>123</ele><time>2020-02-02T08:42:14Z</time></trkpt>
<trkpt lat="43.746561985" lon="11.249175975"><ele>124</ele><time>2020-02-02T08:42:15Z</time></trkpt>
<trkpt lat="43.746543964" lon="11.249161977"><ele>124</ele><time>2020-02-02T08:42:16Z</time></trkpt>
<trkpt lat="43.746526027" lon="11.24914798"><ele>124</ele><time>2020-02-02T08:42:17Z</time></trkpt>
<trkpt lat="43.746509012" lon="11.249132976"><ele>125</ele><time>2020-02-02T08:42:18Z</time></trkpt>
<trkpt lat="43.746490991" lon="11.249118978"><ele>125</ele><time>2020-02-02T08:42:19Z</time></trkpt>
<trkpt lat="43.746439023" lon="11.249073967"><ele>126</ele><time>2020-02-02T08:42:22Z</time></trkpt>
<trkpt lat="43.746422008" lon="11.249058964"><ele>126</ele><time>2020-02-02T08:42:23Z</time></trkpt>
<trkpt lat="43.746404992" lon="11.249043038"><ele>126</ele><time>2020-02-02T08:42:24Z</time></trkpt>
<trkpt lat="43.746355036" lon="11.248998027"><ele>127</ele><time>2020-02-02T08:42:27Z</time></trkpt>
<trkpt lat="43.746338021" lon="11.24898403"><ele>127</ele><time>2020-02-02T08:42:28Z</time></trkpt>
<trkpt lat="43.746322012" lon="11.248969026"><ele>127</ele><time>2020-02-02T08:42:29Z</time></trkpt>
<trkpt lat="43.746306002" lon="11.248955028"><ele>127</ele><time>2020-02-02T08:42:30Z</time></trkpt>
<trkpt lat="43.746290999" lon="11.248940025"><ele>128</ele><time>2020-02-02T08:42:31Z</time></trkpt>
<trkpt lat="43.746275995" lon="11.248924015"><ele>128</ele><time>2020-02-02T08:42:32Z</time></trkpt>
<trkpt lat="43.746260991" lon="11.248907"><ele>128</ele><time>2020-02-02T08:42:33Z</time></trkpt>
<trkpt lat="43.746246994" lon="11.248888979"><ele>128</ele><time>2020-02-02T08:42:34Z</time></trkpt>
<trkpt lat="43.74623199" lon="11.248870036"><ele>128</ele><time>2020-02-02T08:42:35Z</time></trkpt>
<trkpt lat="43.746217992" lon="11.248850003"><ele>128</ele><time>2020-02-02T08:42:36Z</time></trkpt>
<trkpt lat="43.746202989" lon="11.248828964"><ele>128</ele><time>2020-02-02T08:42:37Z</time></trkpt>
<trkpt lat="43.746186979" lon="11.248807004"><ele>128</ele><time>2020-02-02T08:42:38Z</time></trkpt>
<trkpt lat="43.746133" lon="11.248735003"><ele>128</ele><time>2020-02-02T08:42:41Z</time></trkpt>
<trkpt lat="43.746114979" lon="11.248710025"><ele>128</ele><time>2020-02-02T08:42:42Z</time></trkpt>
<trkpt lat="43.746096035" lon="11.248683035"><ele>128</ele><time>2020-02-02T08:42:43Z</time></trkpt>
<trkpt lat="43.746076003" lon="11.248655962"><ele>129</ele><time>2020-02-02T08:42:44Z</time></trkpt>
<trkpt lat="43.746056976" lon="11.248627966"><ele>128</ele><time>2020-02-02T08:42:45Z</time></trkpt>
<trkpt lat="43.746038033" lon="11.248597959"><ele>128</ele><time>2020-02-02T08:42:46Z</time></trkpt>
<trkpt lat="43.746018" lon="11.248569041"><ele>128</ele><time>2020-02-02T08:42:47Z</time></trkpt>
<trkpt lat="43.745998973" lon="11.248539034"><ele>128</ele><time>2020-02-02T08:42:48Z</time></trkpt>
<trkpt lat="43.745978018" lon="11.248510033"><ele>128</ele><time>2020-02-02T08:42:49Z</time></trkpt>
<trkpt lat="43.74595698" lon="11.248481032"><ele>128</ele><time>2020-02-02T08:42:50Z</time></trkpt>
<trkpt lat="43.745935019" lon="11.248453036"><ele>128</ele><time>2020-02-02T08:42:51Z</time></trkpt>
<trkpt lat="43.745911969" lon="11.248425962"><ele>128</ele><time>2020-02-02T08:42:52Z</time></trkpt>
<trkpt lat="43.745887997" lon="11.248400984"><ele>128</ele><time>2020-02-02T08:42:53Z</time></trkpt>
<trkpt lat="43.745861007" lon="11.248378018"><ele>128</ele><time>2020-02-02T08:42:54Z</time></trkpt>
<trkpt lat="43.745833011" lon="11.248356979"><ele>128</ele><time>2020-02-02T08:42:55Z</time></trkpt>
<trkpt lat="43.74580401" lon="11.248338036"><ele>129</ele><time>2020-02-02T08:42:56Z</time></trkpt>
<trkpt lat="43.745774003" lon="11.248320015"><ele>129</ele><time>2020-02-02T08:42:57Z</time></trkpt>
<trkpt lat="43.74574299" lon="11.248303"><ele>129</ele><time>2020-02-02T08:42:58Z</time></trkpt>
<trkpt lat="43.745712982" lon="11.24828699"><ele>129</ele><time>2020-02-02T08:42:59Z</time></trkpt>
<trkpt lat="43.745683981" lon="11.248269975"><ele>129</ele><time>2020-02-02T08:43:00Z</time></trkpt>
<trkpt lat="43.74565498" lon="11.248252038"><ele>130</ele><time>2020-02-02T08:43:01Z</time></trkpt>
<trkpt lat="43.745628996" lon="11.248233011"><ele>130</ele><time>2020-02-02T08:43:02Z</time></trkpt>
<trkpt lat="43.745605024" lon="11.248211972"><ele>130</ele><time>2020-02-02T08:43:03Z</time></trkpt>
<trkpt lat="43.745582979" lon="11.248189006"><ele>130</ele><time>2020-02-02T08:43:04Z</time></trkpt>
<trkpt lat="43.745564036" lon="11.248164028"><ele>130</ele><time>2020-02-02T08:43:05Z</time></trkpt>
<trkpt lat="43.745546015" lon="11.24813796"><ele>130</ele><time>2020-02-02T08:43:06Z</time></trkpt>
<trkpt lat="43.745530006" lon="11.248109965"><ele>129</ele><time>2020-02-02T08:43:07Z</time></trkpt>
<trkpt lat="43.745515002" lon="11.248080963"><ele>129</ele><time>2020-02-02T08:43:08Z</time></trkpt>
<trkpt lat="43.745501004" lon="11.24805104"><ele>129</ele><time>2020-02-02T08:43:09Z</time></trkpt>
<trkpt lat="43.745486001" lon="11.248021033"><ele>129</ele><time>2020-02-02T08:43:10Z</time></trkpt>
<trkpt lat="43.745469991" lon="11.247991025"><ele>128</ele><time>2020-02-02T08:43:11Z</time></trkpt>
<trkpt lat="43.745452976" lon="11.247961018"><ele>128</ele><time>2020-02-02T08:43:12Z</time></trkpt>
<trkpt lat="43.745435039" lon="11.247932017"><ele>128</ele><time>2020-02-02T08:43:13Z</time></trkpt>
<trkpt lat="43.745416012" lon="11.247904021"><ele>128</ele><time>2020-02-02T08:43:14Z</time></trkpt>
<trkpt lat="43.745394973" lon="11.247876026"><ele>128</ele><time>2020-02-02T08:43:15Z</time></trkpt>
<trkpt lat="43.745374018" lon="11.247850042"><ele>128</ele><time>2020-02-02T08:43:16Z</time></trkpt>
<trkpt lat="43.745351974" lon="11.247823974"><ele>128</ele><time>2020-02-02T08:43:17Z</time></trkpt>
<trkpt lat="43.745330013" lon="11.247798996"><ele>128</ele><time>2020-02-02T08:43:18Z</time></trkpt>
<trkpt lat="43.745308975" lon="11.24777603"><ele>128</ele><time>2020-02-02T08:43:19Z</time></trkpt>
<trkpt lat="43.74528802" lon="11.247752979"><ele>128</ele><time>2020-02-02T08:43:20Z</time></trkpt>
<trkpt lat="43.745266981" lon="11.247732025"><ele>128</ele><time>2020-02-02T08:43:21Z</time></trkpt>
<trkpt lat="43.745248038" lon="11.247711992"><ele>128</ele><time>2020-02-02T08:43:22Z</time></trkpt>
<trkpt lat="43.745230017" lon="11.247692965"><ele>128</ele><time>2020-02-02T08:43:23Z</time></trkpt>
<trkpt lat="43.745211996" lon="11.247675028"><ele>128</ele><time>2020-02-02T08:43:24Z</time></trkpt>
<trkpt lat="43.745194981" lon="11.247658012"><ele>128</ele><time>2020-02-02T08:43:25Z</time></trkpt>
<trkpt lat="43.745178971" lon="11.247640997"><ele>128</ele><time>2020-02-02T08:43:26Z</time></trkpt>
<trkpt lat="43.745162962" lon="11.247624988"><ele>128</ele><time>2020-02-02T08:43:27Z</time></trkpt>
<trkpt lat="43.745147958" lon="11.247608978"><ele>128</ele><time>2020-02-02T08:43:28Z</time></trkpt>
<trkpt lat="43.745133039" lon="11.247592969"><ele>128</ele><time>2020-02-02T08:43:29Z</time></trkpt>
<trkpt lat="43.745118035" lon="11.247576959"><ele>128</ele><time>2020-02-02T08:43:30Z</time></trkpt>
<trkpt lat="43.745103031" lon="11.247561034"><ele>128</ele><time>2020-02-02T08:43:31Z</time></trkpt>
<trkpt lat="43.745088028" lon="11.247544019"><ele>128</ele><time>2020-02-02T08:43:32Z</time></trkpt>
<trkpt lat="43.745072018" lon="11.247527003"><ele>128</ele><time>2020-02-02T08:43:33Z</time></trkpt>
<trkpt lat="43.745056009" lon="11.247509988"><ele>128</ele><time>2020-02-02T08:43:34Z</time></trkpt>
<trkpt lat="43.745037988" lon="11.247490961"><ele>128</ele><time>2020-02-02T08:43:35Z</time></trkpt>
<trkpt lat="43.745019967" lon="11.247472018"><ele>128</ele><time>2020-02-02T08:43:36Z</time></trkpt>
<trkpt lat="43.745001024" lon="11.247452991"><ele>128</ele><time>2020-02-02T08:43:37Z</time></trkpt>
<trkpt lat="43.744979985" lon="11.247432036"><ele>128</ele><time>2020-02-02T08:43:38Z</time></trkpt>
<trkpt lat="43.744957019" lon="11.247409992"><ele>128</ele><time>2020-02-02T08:43:39Z</time></trkpt>
<trkpt lat="43.744932963" lon="11.247387026"><ele>128</ele><time>2020-02-02T08:43:40Z</time></trkpt>
<trkpt lat="43.74490899" lon="11.24735903"><ele>128</ele><time>2020-02-02T08:43:41Z</time></trkpt>
<trkpt lat="43.744886024" lon="11.247324999"><ele>128</ele><time>2020-02-02T08:43:42Z</time></trkpt>
<trkpt lat="43.744865991" lon="11.247282"><ele>128</ele><time>2020-02-02T08:43:43Z</time></trkpt>
<trkpt lat="43.744848976" lon="11.247233972"><ele>127</ele><time>2020-02-02T08:43:44Z</time></trkpt>
<trkpt lat="43.744834978" lon="11.247185022"><ele>127</ele><time>2020-02-02T08:43:45Z</time></trkpt>
<trkpt lat="43.744821986" lon="11.247135988"><ele>126</ele><time>2020-02-02T08:43:46Z</time></trkpt>
<trkpt lat="43.74481" lon="11.247088965"><ele>126</ele><time>2020-02-02T08:43:47Z</time></trkpt>
<trkpt lat="43.744797008" lon="11.247044038"><ele>125</ele><time>2020-02-02T08:43:48Z</time></trkpt>
<trkpt lat="43.74478301" lon="11.247001039"><ele>125</ele><time>2020-02-02T08:43:49Z</time></trkpt>
<trkpt lat="43.744765995" lon="11.246960973"><ele>125</ele><time>2020-02-02T08:43:50Z</time></trkpt>
<trkpt lat="43.74474898" lon="11.246921998"><ele>124</ele><time>2020-02-02T08:43:51Z</time></trkpt>
<trkpt lat="43.744730037" lon="11.246885033"><ele>124</ele><time>2020-02-02T08:43:52Z</time></trkpt>
<trkpt lat="43.744708998" lon="11.246848991"><ele>124</ele><time>2020-02-02T08:43:53Z</time></trkpt>
<trkpt lat="43.74468796" lon="11.246813033"><ele>124</ele><time>2020-02-02T08:43:54Z</time></trkpt>
<trkpt lat="43.744665999" lon="11.246777996"><ele>123</ele><time>2020-02-02T08:43:55Z</time></trkpt>
<trkpt lat="43.744643033" lon="11.24674296"><ele>123</ele><time>2020-02-02T08:43:56Z</time></trkpt>
<trkpt lat="43.744619982" lon="11.246708008"><ele>123</ele><time>2020-02-02T08:43:57Z</time></trkpt>
<trkpt lat="43.744597016" lon="11.246671965"><ele>123</ele><time>2020-02-02T08:43:58Z</time></trkpt>
<trkpt lat="43.74457296" lon="11.246636007"><ele>123</ele><time>2020-02-02T08:43:59Z</time></trkpt>
<trkpt lat="43.744548988" lon="11.246600971"><ele>122</ele><time>2020-02-02T08:44:00Z</time></trkpt>
<trkpt lat="43.744525015" lon="11.246566018"><ele>122</ele><time>2020-02-02T08:44:01Z</time></trkpt>
<trkpt lat="43.744500959" lon="11.246531988"><ele>122</ele><time>2020-02-02T08:44:02Z</time></trkpt>
<trkpt lat="43.744476987" lon="11.246498963"><ele>122</ele><time>2020-02-02T08:44:03Z</time></trkpt>
<trkpt lat="43.744453015" lon="11.246467028"><ele>121</ele><time>2020-02-02T08:44:04Z</time></trkpt>
<trkpt lat="43.744428959" lon="11.246437021"><ele>121</ele><time>2020-02-02T08:44:05Z</time></trkpt>
<trkpt lat="43.744405992" lon="11.246408019"><ele>121</ele><time>2020-02-02T08:44:06Z</time></trkpt>
<trkpt lat="43.744383026" lon="11.246381029"><ele>121</ele><time>2020-02-02T08:44:07Z</time></trkpt>
<trkpt lat="43.744359976" lon="11.246354962"><ele>121</ele><time>2020-02-02T08:44:08Z</time></trkpt>
<trkpt lat="43.744338015" lon="11.24633099"><ele>121</ele><time>2020-02-02T08:44:09Z</time></trkpt>
<trkpt lat="43.744314965" lon="11.246308023"><ele>121</ele><time>2020-02-02T08:44:10Z</time></trkpt>
<trkpt lat="43.744291998" lon="11.246285979"><ele>121</ele><time>2020-02-02T08:44:11Z</time></trkpt>
<trkpt lat="43.744270038" lon="11.246265024"><ele>121</ele><time>2020-02-02T08:44:12Z</time></trkpt>
<trkpt lat="43.744246988" lon="11.246245997"><ele>121</ele><time>2020-02-02T08:44:13Z</time></trkpt>
<trkpt lat="43.744224021" lon="11.24622697"><ele>121</ele><time>2020-02-02T08:44:14Z</time></trkpt>
<trkpt lat="43.744199965" lon="11.246209033"><ele>121</ele><time>2020-02-02T08:44:15Z</time></trkpt>
<trkpt lat="43.744176999" lon="11.246192018"><ele>121</ele><time>2020-02-02T08:44:16Z</time></trkpt>
<trkpt lat="43.744153026" lon="11.246175002"><ele>121</ele><time>2020-02-02T08:44:17Z</time></trkpt>
<trkpt lat="43.74412897" lon="11.246158993"><ele>121</ele><time>2020-02-02T08:44:18Z</time></trkpt>
<trkpt lat="43.744103992" lon="11.246142983"><ele>121</ele><time>2020-02-02T08:44:19Z</time></trkpt>
<trkpt lat="43.74408002" lon="11.24612798"><ele>121</ele><time>2020-02-02T08:44:20Z</time></trkpt>
<trkpt lat="43.744054958" lon="11.24611197"><ele>121</ele><time>2020-02-02T08:44:21Z</time></trkpt>
<trkpt lat="43.74402998" lon="11.246096967"><ele>121</ele><time>2020-02-02T08:44:22Z</time></trkpt>
<trkpt lat="43.744003996" lon="11.246081041"><ele>121</ele><time>2020-02-02T08:44:23Z</time></trkpt>
<trkpt lat="43.743979018" lon="11.246065032"><ele>121</ele><time>2020-02-02T08:44:24Z</time></trkpt>
<trkpt lat="43.743953034" lon="11.246049022"><ele>121</ele><time>2020-02-02T08:44:25Z</time></trkpt>
<trkpt lat="43.743926967" lon="11.246033013"><ele>121</ele><time>2020-02-02T08:44:26Z</time></trkpt>
<trkpt lat="43.743900983" lon="11.246015998"><ele>121</ele><time>2020-02-02T08:44:27Z</time></trkpt>
<trkpt lat="43.743873993" lon="11.245997977"><ele>121</ele><time>2020-02-02T08:44:28Z</time></trkpt>
<trkpt lat="43.743848009" lon="11.245980039"><ele>121</ele><time>2020-02-02T08:44:29Z</time></trkpt>
<trkpt lat="43.743821019" lon="11.245960006"><ele>121</ele><time>2020-02-02T08:44:30Z</time></trkpt>
<trkpt lat="43.74379403" lon="11.245939974"><ele>121</ele><time>2020-02-02T08:44:31Z</time></trkpt>
<trkpt lat="43.74376704" lon="11.245918013"><ele>121</ele><time>2020-02-02T08:44:32Z</time></trkpt>
<trkpt lat="43.743739966" lon="11.245895969"><ele>121</ele><time>2020-02-02T08:44:33Z</time></trkpt>
<trkpt lat="43.743711971" lon="11.245873002"><ele>121</ele><time>2020-02-02T08:44:34Z</time></trkpt>
<trkpt lat="43.743684981" lon="11.245850036"><ele>121</ele><time>2020-02-02T08:44:35Z</time></trkpt>
<trkpt lat="43.743656985" lon="11.245826986"><ele>121</ele><time>2020-02-02T08:44:36Z</time></trkpt>
<trkpt lat="43.74362899" lon="11.245804019"><ele>122</ele><time>2020-02-02T08:44:37Z</time></trkpt>
<trkpt lat="43.743600994" lon="11.245781975"><ele>122</ele><time>2020-02-02T08:44:38Z</time></trkpt>
<trkpt lat="43.743572999" lon="11.24576102"><ele>122</ele><time>2020-02-02T08:44:39Z</time></trkpt>
<trkpt lat="43.743545003" lon="11.245740987"><ele>122</ele><time>2020-02-02T08:44:40Z</time></trkpt>
<trkpt lat="43.743517008" lon="11.245722966"><ele>122</ele><time>2020-02-02T08:44:41Z</time></trkpt>
<trkpt lat="43.743488006" lon="11.245706035"><ele>123</ele><time>2020-02-02T08:44:42Z</time></trkpt>
<trkpt lat="43.743460011" lon="11.245690025"><ele>123</ele><time>2020-02-02T08:44:43Z</time></trkpt>
<trkpt lat="43.743432015" lon="11.245674016"><ele>123</ele><time>2020-02-02T08:44:44Z</time></trkpt>
<trkpt lat="43.74340402" lon="11.245660018"><ele>123</ele><time>2020-02-02T08:44:45Z</time></trkpt>
<trkpt lat="43.74337703" lon="11.245645015"><ele>124</ele><time>2020-02-02T08:44:46Z</time></trkpt>
<trkpt lat="43.74335004" lon="11.245631017"><ele>124</ele><time>2020-02-02T08:44:47Z</time></trkpt>
<trkpt lat="43.743322967" lon="11.245617019"><ele>124</ele><time>2020-02-02T08:44:48Z</time></trkpt>
<trkpt lat="43.743297989" lon="11.245602015"><ele>124</ele><time>2020-02-02T08:44:49Z</time></trkpt>
<trkpt lat="43.74327301" lon="11.245587012"><ele>124</ele><time>2020-02-02T08:44:50Z</time></trkpt>
<trkpt lat="43.743249038" lon="11.245572008"><ele>124</ele><time>2020-02-02T08:44:51Z</time></trkpt>
<trkpt lat="43.743224982" lon="11.245555999"><ele>124</ele><time>2020-02-02T08:44:52Z</time></trkpt>
<trkpt lat="43.743203022" lon="11.245539989"><ele>123</ele><time>2020-02-02T08:44:53Z</time></trkpt>
<trkpt lat="43.743180977" lon="11.24552398"><ele>123</ele><time>2020-02-02T08:44:54Z</time></trkpt>
<trkpt lat="43.743159017" lon="11.245506965"><ele>123</ele><time>2020-02-02T08:44:55Z</time></trkpt>
<trkpt lat="43.743137978" lon="11.245491039"><ele>123</ele><time>2020-02-02T08:44:56Z</time></trkpt>
<trkpt lat="43.743118029" lon="11.245474024"><ele>123</ele><time>2020-02-02T08:44:57Z</time></trkpt>
<trkpt lat="43.743099002" lon="11.245457008"><ele>123</ele><time>2020-02-02T08:44:58Z</time></trkpt>
<trkpt lat="43.743079975" lon="11.245440999"><ele>123</ele><time>2020-02-02T08:44:59Z</time></trkpt>
<trkpt lat="43.743062038" lon="11.24542499"><ele>123</ele><time>2020-02-02T08:45:00Z</time></trkpt>
<trkpt lat="43.743044017" lon="11.24540898"><ele>123</ele><time>2020-02-02T08:45:01Z</time></trkpt>
<trkpt lat="43.743025996" lon="11.245394982"><ele>123</ele><time>2020-02-02T08:45:02Z</time></trkpt>
<trkpt lat="43.743008981" lon="11.24538199"><ele>123</ele><time>2020-02-02T08:45:03Z</time></trkpt>
<trkpt lat="43.742991965" lon="11.245370004"><ele>123</ele><time>2020-02-02T08:45:04Z</time></trkpt>
<trkpt lat="43.742975034" lon="11.245361036"><ele>123</ele><time>2020-02-02T08:45:05Z</time></trkpt>
<trkpt lat="43.742958019" lon="11.245352989"><ele>123</ele><time>2020-02-02T08:45:06Z</time></trkpt>
<trkpt lat="43.742941003" lon="11.24534796"><ele>123</ele><time>2020-02-02T08:45:07Z</time></trkpt>
<trkpt lat="43.742923988" lon="11.245347038"><ele>123</ele><time>2020-02-02T08:45:08Z</time></trkpt>
<trkpt lat="43.742907979" lon="11.245349972"><ele>123</ele><time>2020-02-02T08:45:09Z</time></trkpt>
<trkpt lat="43.742893981" lon="11.245358018"><ele>123</ele><time>2020-02-02T08:45:10Z</time></trkpt>
<trkpt lat="43.742880989" lon="11.245373022"><ele>123</ele><time>2020-02-02T08:45:11Z</time></trkpt>
<trkpt lat="43.742870009" lon="11.245393977"><ele>123</ele><time>2020-02-02T08:45:12Z</time></trkpt>
<trkpt lat="43.742852993" lon="11.245451979"><ele>123</ele><time>2020-02-02T08:45:14Z</time></trkpt>
<trkpt lat="43.742846958" lon="11.245483998"><ele>123</ele><time>2020-02-02T08:45:15Z</time></trkpt>
<trkpt lat="43.742843019" lon="11.245517023"><ele>123</ele><time>2020-02-02T08:45:16Z</time></trkpt>
<trkpt lat="43.742838996" lon="11.245549042"><ele>123</ele><time>2020-02-02T08:45:17Z</time></trkpt>
<trkpt lat="43.742835978" lon="11.245581983"><ele>123</ele><time>2020-02-02T08:45:18Z</time></trkpt>
<trkpt lat="43.742832039" lon="11.245615007"><ele>123</ele><time>2020-02-02T08:45:19Z</time></trkpt>
<trkpt lat="43.742827009" lon="11.245648032"><ele>123</ele><time>2020-02-02T08:45:20Z</time></trkpt>
<trkpt lat="43.742820974" lon="11.245680973"><ele>123</ele><time>2020-02-02T08:45:21Z</time></trkpt>
<trkpt lat="43.742814017" lon="11.245712992"><ele>123</ele><time>2020-02-02T08:45:22Z</time></trkpt>
<trkpt lat="43.742806977" lon="11.245746017"><ele>124</ele><time>2020-02-02T08:45:23Z</time></trkpt>
<trkpt lat="43.742801026" lon="11.245778035"><ele>124</ele><time>2020-02-02T08:45:24Z</time></trkpt>
<trkpt lat="43.742797002" lon="11.245808965"><ele>124</ele><time>2020-02-02T08:45:25Z</time></trkpt>
<trkpt lat="43.742793985" lon="11.245838972"><ele>124</ele><time>2020-02-02T08:45:26Z</time></trkpt>
<trkpt lat="43.742792979" lon="11.245868979"><ele>124</ele><time>2020-02-02T08:45:27Z</time></trkpt>
<trkpt lat="43.742792979" lon="11.245898986"><ele>124</ele><time>2020-02-02T08:45:28Z</time></trkpt>
<trkpt lat="43.742791973" lon="11.245928993"><ele>124</ele><time>2020-02-02T08:45:29Z</time></trkpt>
<trkpt lat="43.742791973" lon="11.245959001"><ele>124</ele><time>2020-02-02T08:45:30Z</time></trkpt>
<trkpt lat="43.742791973" lon="11.245989008"><ele>123</ele><time>2020-02-02T08:45:31Z</time></trkpt>
<trkpt lat="43.742790967" lon="11.246020021"><ele>123</ele><time>2020-02-02T08:45:32Z</time></trkpt>
<trkpt lat="43.742788034" lon="11.24605204"><ele>123</ele><time>2020-02-02T08:45:33Z</time></trkpt>
<trkpt lat="43.74278401" lon="11.246084981"><ele>123</ele><time>2020-02-02T08:45:34Z</time></trkpt>
<trkpt lat="43.742780993" lon="11.246117"><ele>123</ele><time>2020-02-02T08:45:35Z</time></trkpt>
<trkpt lat="43.742779987" lon="11.246148013"><ele>123</ele><time>2020-02-02T08:45:36Z</time></trkpt>
<trkpt lat="43.742783004" lon="11.246176008"><ele>123</ele><time>2020-02-02T08:45:37Z</time></trkpt>
<trkpt lat="43.742790967" lon="11.24619998"><ele>123</ele><time>2020-02-02T08:45:38Z</time></trkpt>
<trkpt lat="43.742804965" lon="11.246221019"><ele>123</ele><time>2020-02-02T08:45:39Z</time></trkpt>
<trkpt lat="43.742820974" lon="11.246239962"><ele>123</ele><time>2020-02-02T08:45:40Z</time></trkpt>
<trkpt lat="43.74283799" lon="11.246257983"><ele>123</ele><time>2020-02-02T08:45:41Z</time></trkpt>
<trkpt lat="43.742855005" lon="11.24627701"><ele>124</ele><time>2020-02-02T08:45:42Z</time></trkpt>
<trkpt lat="43.74287202" lon="11.246295031"><ele>124</ele><time>2020-02-02T08:45:43Z</time></trkpt>
<trkpt lat="43.74288803" lon="11.246312968"><ele>124</ele><time>2020-02-02T08:45:44Z</time></trkpt>
<trkpt lat="43.742937986" lon="11.246367032"><ele>124</ele><time>2020-02-02T08:45:47Z</time></trkpt>
<trkpt lat="43.742955001" lon="11.246384969"><ele>124</ele><time>2020-02-02T08:45:48Z</time></trkpt>
<trkpt lat="43.742972016" lon="11.246401984"><ele>125</ele><time>2020-02-02T08:45:49Z</time></trkpt>
<trkpt lat="43.742990037" lon="11.246417994"><ele>125</ele><time>2020-02-02T08:45:50Z</time></trkpt>
<trkpt lat="43.743007975" lon="11.246434003"><ele>125</ele><time>2020-02-02T08:45:51Z</time></trkpt>
<trkpt lat="43.743028007" lon="11.246449007"><ele>125</ele><time>2020-02-02T08:45:52Z</time></trkpt>
<trkpt lat="43.743047034" lon="11.24646401"><ele>126</ele><time>2020-02-02T08:45:53Z</time></trkpt>
<trkpt lat="43.743066983" lon="11.246478008"><ele>126</ele><time>2020-02-02T08:45:54Z</time></trkpt>
<trkpt lat="43.743087016" lon="11.246492006"><ele>126</ele><time>2020-02-02T08:45:55Z</time></trkpt>
<trkpt lat="43.743107971" lon="11.246507009"><ele>126</ele><time>2020-02-02T08:45:56Z</time></trkpt>
<trkpt lat="43.743128004" lon="11.246521007"><ele>127</ele><time>2020-02-02T08:45:57Z</time></trkpt>
<trkpt lat="43.743148036" lon="11.246535005"><ele>127</ele><time>2020-02-02T08:45:58Z</time></trkpt>
<trkpt lat="43.743167985" lon="11.246549003"><ele>127</ele><time>2020-02-02T08:45:59Z</time></trkpt>
<trkpt lat="43.743187012" lon="11.246563001"><ele>128</ele><time>2020-02-02T08:46:00Z</time></trkpt>
<trkpt lat="43.743206039" lon="11.246578004"><ele>128</ele><time>2020-02-02T08:46:01Z</time></trkpt>
<trkpt lat="43.743224982" lon="11.246593008"><ele>128</ele><time>2020-02-02T08:46:02Z</time></trkpt>
<trkpt lat="43.743244009" lon="11.246608011"><ele>128</ele><time>2020-02-02T08:46:03Z</time></trkpt>
<trkpt lat="43.74326203" lon="11.246624021"><ele>129</ele><time>2020-02-02T08:46:04Z</time></trkpt>
<trkpt lat="43.743279967" lon="11.246639024"><ele>129</ele><time>2020-02-02T08:46:05Z</time></trkpt>
<trkpt lat="43.743296983" lon="11.246655034"><ele>129</ele><time>2020-02-02T08:46:06Z</time></trkpt>
<trkpt lat="43.743315004" lon="11.246671965"><ele>130</ele><time>2020-02-02T08:46:07Z</time></trkpt>
<trkpt lat="43.743332019" lon="11.246687975"><ele>130</ele><time>2020-02-02T08:46:08Z</time></trkpt>
<trkpt lat="43.743381975" lon="11.246739021"><ele>130</ele><time>2020-02-02T08:46:11Z</time></trkpt>
<trkpt lat="43.74339899" lon="11.246757042"><ele>130</ele><time>2020-02-02T08:46:12Z</time></trkpt>
<trkpt lat="43.743416006" lon="11.246774979"><ele>130</ele><time>2020-02-02T08:46:13Z</time></trkpt>
<trkpt lat="43.743432015" lon="11.246793"><ele>130</ele><time>2020-02-02T08:46:14Z</time></trkpt>
<trkpt lat="43.74344903" lon="11.246811021"><ele>130</ele><time>2020-02-02T08:46:15Z</time></trkpt>
<trkpt lat="43.74346504" lon="11.246829964"><ele>130</ele><time>2020-02-02T08:46:16Z</time></trkpt>
<trkpt lat="43.743481971" lon="11.246848991"><ele>130</ele><time>2020-02-02T08:46:17Z</time></trkpt>
<trkpt lat="43.743497981" lon="11.246867012"><ele>130</ele><time>2020-02-02T08:46:18Z</time></trkpt>
<trkpt lat="43.743514996" lon="11.246886039"><ele>130</ele><time>2020-02-02T08:46:19Z</time></trkpt>
<trkpt lat="43.743531005" lon="11.246904982"><ele>130</ele><time>2020-02-02T08:46:20Z</time></trkpt>
<trkpt lat="43.743548021" lon="11.246923003"><ele>130</ele><time>2020-02-02T08:46:21Z</time></trkpt>
<trkpt lat="43.74356403" lon="11.246941024"><ele>130</ele><time>2020-02-02T08:46:22Z</time></trkpt>
<trkpt lat="43.743580962" lon="11.24695804"><ele>130</ele><time>2020-02-02T08:46:23Z</time></trkpt>
<trkpt lat="43.743596971" lon="11.246974971"><ele>131</ele><time>2020-02-02T08:46:24Z</time></trkpt>
<trkpt lat="43.743613986" lon="11.246989975"><ele>131</ele><time>2020-02-02T08:46:25Z</time></trkpt>
<trkpt lat="43.743629996" lon="11.247004978"><ele>131</ele><time>2020-02-02T08:46:26Z</time></trkpt>
<trkpt lat="43.743647011" lon="11.24701797"><ele>131</ele><time>2020-02-02T08:46:27Z</time></trkpt>
<trkpt lat="43.743664026" lon="11.247030962"><ele>131</ele><time>2020-02-02T08:46:28Z</time></trkpt>
<trkpt lat="43.743718006" lon="11.247063987"><ele>131</ele><time>2020-02-02T08:46:31Z</time></trkpt>
<trkpt lat="43.743738038" lon="11.247073961"><ele>132</ele><time>2020-02-02T08:46:32Z</time></trkpt>
<trkpt lat="43.743757987" lon="11.24708402"><ele>132</ele><time>2020-02-02T08:46:33Z</time></trkpt>
<trkpt lat="43.743779026" lon="11.247093994"><ele>132</ele><time>2020-02-02T08:46:34Z</time></trkpt>
<trkpt lat="43.743800987" lon="11.247102963"><ele>132</ele><time>2020-02-02T08:46:35Z</time></trkpt>
<trkpt lat="43.743824037" lon="11.247113021"><ele>132</ele><time>2020-02-02T08:46:36Z</time></trkpt>
<trkpt lat="43.743845997" lon="11.247124001"><ele>133</ele><time>2020-02-02T08:46:37Z</time></trkpt>
<trkpt lat="43.743868964" lon="11.247135988"><ele>133</ele><time>2020-02-02T08:46:38Z</time></trkpt>
<trkpt lat="43.743890002" lon="11.247148979"><ele>133</ele><time>2020-02-02T08:46:39Z</time></trkpt>
<trkpt lat="43.743909029" lon="11.247164989"><ele>134</ele><time>2020-02-02T08:46:40Z</time></trkpt>
<trkpt lat="43.743927972" lon="11.24718301"><ele>134</ele><time>2020-02-02T08:46:41Z</time></trkpt>
<trkpt lat="43.743943982" lon="11.247201031"><ele>134</ele><time>2020-02-02T08:46:42Z</time></trkpt>
<trkpt lat="43.743959991" lon="11.247219974"><ele>134</ele><time>2020-02-02T08:46:43Z</time></trkpt>
<trkpt lat="43.743973989" lon="11.247239001"><ele>135</ele><time>2020-02-02T08:46:44Z</time></trkpt>
<trkpt lat="43.743987987" lon="11.247258028"><ele>135</ele><time>2020-02-02T08:46:45Z</time></trkpt>
<trkpt lat="43.743999973" lon="11.247276971"><ele>135</ele><time>2020-02-02T08:46:46Z</time></trkpt>
<trkpt lat="43.744012965" lon="11.247294992"><ele>136</ele><time>2020-02-02T08:46:47Z</time></trkpt>
<trkpt lat="43.744025035" lon="11.247314019"><ele>136</ele><time>2020-02-02T08:46:48Z</time></trkpt>
<trkpt lat="43.744037021" lon="11.24733204"><ele>136</ele><time>2020-02-02T08:46:49Z</time></trkpt>
<trkpt lat="43.744050013" lon="11.247350983"><ele>137</ele><time>2020-02-02T08:46:50Z</time></trkpt>
<trkpt lat="43.744063005" lon="11.247369004"><ele>137</ele><time>2020-02-02T08:46:51Z</time></trkpt>
<trkpt lat="43.744078008" lon="11.247388031"><ele>137</ele><time>2020-02-02T08:46:52Z</time></trkpt>
<trkpt lat="43.744093012" lon="11.247406974"><ele>138</ele><time>2020-02-02T08:46:53Z</time></trkpt>
<trkpt lat="43.744108016" lon="11.247426001"><ele>138</ele><time>2020-02-02T08:46:54Z</time></trkpt>
<trkpt lat="43.744124025" lon="11.247445028"><ele>139</ele><time>2020-02-02T08:46:55Z</time></trkpt>
<trkpt lat="43.744140035" lon="11.247464977"><ele>139</ele><time>2020-02-02T08:46:56Z</time></trkpt>
<trkpt lat="43.744156966" lon="11.247484004"><ele>140</ele><time>2020-02-02T08:46:57Z</time></trkpt>
<trkpt lat="43.744173981" lon="11.247504037"><ele>140</ele><time>2020-02-02T08:46:58Z</time></trkpt>
<trkpt lat="43.744189991" lon="11.247523986"><ele>140</ele><time>2020-02-02T08:46:59Z</time></trkpt>
<trkpt lat="43.744207006" lon="11.247544019"><ele>140</ele><time>2020-02-02T08:47:00Z</time></trkpt>
<trkpt lat="43.744223015" lon="11.247564973"><ele>139</ele><time>2020-02-02T08:47:01Z</time></trkpt>
<trkpt lat="43.744239025" lon="11.247585006"><ele>139</ele><time>2020-02-02T08:47:02Z</time></trkpt>
<trkpt lat="43.744255034" lon="11.247605961"><ele>139</ele><time>2020-02-02T08:47:03Z</time></trkpt>
<trkpt lat="43.744270038" lon="11.247626999"><ele>139</ele><time>2020-02-02T08:47:04Z</time></trkpt>
<trkpt lat="43.744285041" lon="11.247647032"><ele>139</ele><time>2020-02-02T08:47:05Z</time></trkpt>
<trkpt lat="43.744300967" lon="11.247667987"><ele>139</ele><time>2020-02-02T08:47:06Z</time></trkpt>
<trkpt lat="43.744315971" lon="11.247689025"><ele>139</ele><time>2020-02-02T08:47:07Z</time></trkpt>
<trkpt lat="43.744330974" lon="11.24770998"><ele>139</ele><time>2020-02-02T08:47:08Z</time></trkpt>
<trkpt lat="43.744345978" lon="11.247731019"><ele>139</ele><time>2020-02-02T08:47:09Z</time></trkpt>
<trkpt lat="43.744360982" lon="11.247751974"><ele>139</ele><time>2020-02-02T08:47:10Z</time></trkpt>
<trkpt lat="43.744375985" lon="11.247773012"><ele>139</ele><time>2020-02-02T08:47:11Z</time></trkpt>
<trkpt lat="43.744390989" lon="11.247793967"><ele>139</ele><time>2020-02-02T08:47:12Z</time></trkpt>
<trkpt lat="43.744405992" lon="11.247816011"><ele>139</ele><time>2020-02-02T08:47:13Z</time></trkpt>
<trkpt lat="43.744422002" lon="11.247837972"><ele>139</ele><time>2020-02-02T08:47:14Z</time></trkpt>
<trkpt lat="43.744438011" lon="11.247862028"><ele>139</ele><time>2020-02-02T08:47:15Z</time></trkpt>
<trkpt lat="43.744454021" lon="11.247886"><ele>139</ele><time>2020-02-02T08:47:16Z</time></trkpt>
<trkpt lat="43.744471036" lon="11.247910978"><ele>139</ele><time>2020-02-02T08:47:17Z</time></trkpt>
<trkpt lat="43.744487967" lon="11.247937968"><ele>139</ele><time>2020-02-02T08:47:18Z</time></trkpt>
<trkpt lat="43.744505988" lon="11.247965964"><ele>139</ele><time>2020-02-02T08:47:19Z</time></trkpt>
<trkpt lat="43.744523004" lon="11.247995971"><ele>139</ele><time>2020-02-02T08:47:20Z</time></trkpt>
<trkpt lat="43.744540019" lon="11.248025978"><ele>139</ele><time>2020-02-02T08:47:21Z</time></trkpt>
<trkpt lat="43.744556028" lon="11.248056991"><ele>139</ele><time>2020-02-02T08:47:22Z</time></trkpt>
<trkpt lat="43.74456902" lon="11.24808901"><ele>140</ele><time>2020-02-02T08:47:23Z</time></trkpt>
<trkpt lat="43.744581006" lon="11.248120023"><ele>140</ele><time>2020-02-02T08:47:24Z</time></trkpt>
<trkpt lat="43.744590981" lon="11.248152042"><ele>140</ele><time>2020-02-02T08:47:25Z</time></trkpt>
<trkpt lat="43.744599028" lon="11.248183977"><ele>140</ele><time>2020-02-02T08:47:26Z</time></trkpt>
<trkpt lat="43.74460699" lon="11.248215996"><ele>141</ele><time>2020-02-02T08:47:27Z</time></trkpt>
<trkpt lat="43.744614031" lon="11.248248015"><ele>141</ele><time>2020-02-02T08:47:28Z</time></trkpt>
<trkpt lat="43.744618976" lon="11.248280033"><ele>141</ele><time>2020-02-02T08:47:29Z</time></trkpt>
<trkpt lat="43.744632974" lon="11.248373995"><ele>142</ele><time>2020-02-02T08:47:32Z</time></trkpt>
<trkpt lat="43.744636998" lon="11.248404002"><ele>142</ele><time>2020-02-02T08:47:33Z</time></trkpt>
<trkpt lat="43.744640015" lon="11.248435015"><ele>142</ele><time>2020-02-02T08:47:34Z</time></trkpt>
<trkpt lat="43.744643033" lon="11.248466028"><ele>143</ele><time>2020-02-02T08:47:35Z</time></trkpt>
<trkpt lat="43.74464496" lon="11.248498969"><ele>143</ele><time>2020-02-02T08:47:36Z</time></trkpt>
<trkpt lat="43.744646972" lon="11.248530988"><ele>143</ele><time>2020-02-02T08:47:37Z</time></trkpt>
<trkpt lat="43.744647978" lon="11.248564012"><ele>143</ele><time>2020-02-02T08:47:38Z</time></trkpt>
<trkpt lat="43.744646972" lon="11.248596031"><ele>144</ele><time>2020-02-02T08:47:39Z</time></trkpt>
<trkpt lat="43.74464496" lon="11.24862696"><ele>144</ele><time>2020-02-02T08:47:40Z</time></trkpt>
<trkpt lat="43.744642027" lon="11.248656968"><ele>144</ele><time>2020-02-02T08:47:41Z</time></trkpt>
<trkpt lat="43.744636998" lon="11.248684041"><ele>144</ele><time>2020-02-02T08:47:42Z</time></trkpt>
<trkpt lat="43.744630041" lon="11.248708013"><ele>144</ele><time>2020-02-02T08:47:43Z</time></trkpt>
<trkpt lat="43.744619982" lon="11.248728968"><ele>144</ele><time>2020-02-02T08:47:44Z</time></trkpt>
<trkpt lat="43.744607996" lon="11.248746989"><ele>144</ele><time>2020-02-02T08:47:45Z</time></trkpt>
<trkpt lat="43.744595004" lon="11.248762999"><ele>144</ele><time>2020-02-02T08:47:46Z</time></trkpt>
<trkpt lat="43.744578995" lon="11.248780014"><ele>144</ele><time>2020-02-02T08:47:47Z</time></trkpt>
<trkpt lat="43.744562985" lon="11.248800969"><ele>144</ele><time>2020-02-02T08:47:48Z</time></trkpt>
<trkpt lat="43.74454597" lon="11.248827958"><ele>144</ele><time>2020-02-02T08:47:49Z</time></trkpt>
<trkpt lat="43.744529039" lon="11.248861989"><ele>144</ele><time>2020-02-02T08:47:50Z</time></trkpt>
<trkpt lat="43.744514035" lon="11.248901971"><ele>144</ele><time>2020-02-02T08:47:51Z</time></trkpt>
<trkpt lat="43.744502971" lon="11.24894497"><ele>144</ele><time>2020-02-02T08:47:52Z</time></trkpt>
<trkpt lat="43.74449702" lon="11.248988975"><ele>144</ele><time>2020-02-02T08:47:53Z</time></trkpt>
<trkpt lat="43.744498026" lon="11.249030968"><ele>144</ele><time>2020-02-02T08:47:54Z</time></trkpt>
<trkpt lat="43.744504983" lon="11.249071034"><ele>144</ele><time>2020-02-02T08:47:55Z</time></trkpt>
<trkpt lat="43.744515963" lon="11.249111015"><ele>145</ele><time>2020-02-02T08:47:56Z</time></trkpt>
<trkpt lat="43.744529039" lon="11.249148985"><ele>145</ele><time>2020-02-02T08:47:57Z</time></trkpt>
<trkpt lat="43.744571032" lon="11.249260968"><ele>146</ele><time>2020-02-02T08:48:00Z</time></trkpt>
<trkpt lat="43.744583018" lon="11.249298016"><ele>146</ele><time>2020-02-02T08:48:01Z</time></trkpt>
<trkpt lat="43.744595004" lon="11.249333974"><ele>146</ele><time>2020-02-02T08:48:02Z</time></trkpt>
<trkpt lat="43.74460699" lon="11.249370016"><ele>147</ele><time>2020-02-02T08:48:03Z</time></trkpt>
<trkpt lat="43.744617971" lon="11.249404969"><ele>147</ele><time>2020-02-02T08:48:04Z</time></trkpt>
<trkpt lat="43.744629035" lon="11.249438999"><ele>147</ele><time>2020-02-02T08:48:05Z</time></trkpt>
<trkpt lat="43.744639009" lon="11.24947303"><ele>147</ele><time>2020-02-02T08:48:06Z</time></trkpt>
<trkpt lat="43.744648984" lon="11.249506976"><ele>148</ele><time>2020-02-02T08:48:07Z</time></trkpt>
<trkpt lat="43.744658958" lon="11.249540001"><ele>148</ele><time>2020-02-02T08:48:08Z</time></trkpt>
<trkpt lat="43.744668011" lon="11.249573026"><ele>148</ele><time>2020-02-02T08:48:09Z</time></trkpt>
<trkpt lat="43.744677985" lon="11.249605967"><ele>148</ele><time>2020-02-02T08:48:10Z</time></trkpt>
<trkpt lat="43.744687038" lon="11.249637986"><ele>149</ele><time>2020-02-02T08:48:11Z</time></trkpt>
<trkpt lat="43.744696006" lon="11.24967101"><ele>149</ele><time>2020-02-02T08:48:12Z</time></trkpt>
<trkpt lat="43.744704975" lon="11.249704035"><ele>149</ele><time>2020-02-02T08:48:13Z</time></trkpt>
<trkpt lat="43.744714027" lon="11.249737982"><ele>149</ele><time>2020-02-02T08:48:14Z</time></trkpt>
<trkpt lat="43.74472199" lon="11.249771006"><ele>150</ele><time>2020-02-02T08:48:15Z</time></trkpt>
<trkpt lat="43.744730959" lon="11.249805037"><ele>150</ele><time>2020-02-02T08:48:16Z</time></trkpt>
<trkpt lat="43.744740011" lon="11.249838984"><ele>150</ele><time>2020-02-02T08:48:17Z</time></trkpt>
<trkpt lat="43.74474898" lon="11.24987402"><ele>151</ele><time>2020-02-02T08:48:18Z</time></trkpt>
<trkpt lat="43.74477597" lon="11.249983991"><ele>152</ele><time>2020-02-02T08:48:21Z</time></trkpt>
<trkpt lat="43.744786028" lon="11.250021961"><ele>152</ele><time>2020-02-02T08:48:22Z</time></trkpt>
<trkpt lat="43.744794996" lon="11.250060014"><ele>152</ele><time>2020-02-02T08:48:23Z</time></trkpt>
<trkpt lat="43.744804971" lon="11.25009899"><ele>152</ele><time>2020-02-02T08:48:24Z</time></trkpt>
<trkpt lat="43.744815029" lon="11.25013696"><ele>152</ele><time>2020-02-02T08:48:25Z</time></trkpt>
<trkpt lat="43.744825004" lon="11.25017602"><ele>152</ele><time>2020-02-02T08:48:26Z</time></trkpt>
<trkpt lat="43.744834978" lon="11.25021399"><ele>152</ele><time>2020-02-02T08:48:27Z</time></trkpt>
<trkpt lat="43.744845958" lon="11.250251038"><ele>152</ele><time>2020-02-02T08:48:28Z</time></trkpt>
<trkpt lat="43.744857023" lon="11.250288002"><ele>152</ele><time>2020-02-02T08:48:29Z</time></trkpt>
<trkpt lat="43.744868003" lon="11.250323961"><ele>152</ele><time>2020-02-02T08:48:30Z</time></trkpt>
<trkpt lat="43.744878983" lon="11.250358997"><ele>152</ele><time>2020-02-02T08:48:31Z</time></trkpt>
<trkpt lat="43.744890969" lon="11.250394033"><ele>152</ele><time>2020-02-02T08:48:32Z</time></trkpt>
<trkpt lat="43.744903039" lon="11.25042798"><ele>152</ele><time>2020-02-02T08:48:33Z</time></trkpt>
<trkpt lat="43.744914019" lon="11.250462011"><ele>152</ele><time>2020-02-02T08:48:34Z</time></trkpt>
<trkpt lat="43.744926006" lon="11.250496041"><ele>152</ele><time>2020-02-02T08:48:35Z</time></trkpt>
<trkpt lat="43.744937992" lon="11.250530994"><ele>152</ele><time>2020-02-02T08:48:36Z</time></trkpt>
<trkpt lat="43.744949978" lon="11.250565024"><ele>152</ele><time>2020-02-02T08:48:37Z</time></trkpt>
<trkpt lat="43.744961964" lon="11.250599977"><ele>152</ele><time>2020-02-02T08:48:38Z</time></trkpt>
<trkpt lat="43.744974034" lon="11.250636019"><ele>152</ele><time>2020-02-02T08:48:39Z</time></trkpt>
<trkpt lat="43.74498602" lon="11.250671977"><ele>152</ele><time>2020-02-02T08:48:40Z</time></trkpt>
<trkpt lat="43.744998006" lon="11.250708019"><ele>151</ele><time>2020-02-02T08:48:41Z</time></trkpt>
<trkpt lat="43.745009992" lon="11.250743978"><ele>151</ele><time>2020-02-02T08:48:42Z</time></trkpt>
<trkpt lat="43.745021978" lon="11.25078002"><ele>151</ele><time>2020-02-02T08:48:43Z</time></trkpt>
<trkpt lat="43.745033965" lon="11.250815978"><ele>150</ele><time>2020-02-02T08:48:44Z</time></trkpt>
<trkpt lat="43.745046034" lon="11.25085202"><ele>150</ele><time>2020-02-02T08:48:45Z</time></trkpt>
<trkpt lat="43.745058021" lon="11.250886973"><ele>150</ele><time>2020-02-02T08:48:46Z</time></trkpt>
<trkpt lat="43.745069001" lon="11.250922009"><ele>150</ele><time>2020-02-02T08:48:47Z</time></trkpt>
<trkpt lat="43.745080987" lon="11.25095604"><ele>149</ele><time>2020-02-02T08:48:48Z</time></trkpt>
<trkpt lat="43.745092973" lon="11.250989987"><ele>149</ele><time>2020-02-02T08:48:49Z</time></trkpt>
<trkpt lat="43.745104959" lon="11.251023011"><ele>149</ele><time>2020-02-02T08:48:50Z</time></trkpt>
<trkpt lat="43.745116023" lon="11.251056036"><ele>149</ele><time>2020-02-02T08:48:51Z</time></trkpt>
<trkpt lat="43.745128009" lon="11.251087971"><ele>148</ele><time>2020-02-02T08:48:52Z</time></trkpt>
<trkpt lat="43.745139996" lon="11.25111999"><ele>148</ele><time>2020-02-02T08:48:53Z</time></trkpt>
<trkpt lat="43.745151982" lon="11.251152009"><ele>148</ele><time>2020-02-02T08:48:54Z</time></trkpt>
<trkpt lat="43.745163968" lon="11.251184028"><ele>148</ele><time>2020-02-02T08:48:55Z</time></trkpt>
<trkpt lat="43.745176038" lon="11.251215041"><ele>148</ele><time>2020-02-02T08:48:56Z</time></trkpt>
<trkpt lat="43.74518903" lon="11.25124597"><ele>147</ele><time>2020-02-02T08:48:57Z</time></trkpt>
<trkpt lat="43.745202022" lon="11.251275977"><ele>147</ele><time>2020-02-02T08:48:58Z</time></trkpt>
<trkpt lat="43.745215014" lon="11.251305984"><ele>147</ele><time>2020-02-02T08:48:59Z</time></trkpt>
<trkpt lat="43.745228006" lon="11.251335992"><ele>147</ele><time>2020-02-02T08:49:00Z</time></trkpt>
<trkpt lat="43.745242003" lon="11.251365999"><ele>147</ele><time>2020-02-02T08:49:01Z</time></trkpt>
<trkpt lat="43.745256001" lon="11.251395"><ele>147</ele><time>2020-02-02T08:49:02Z</time></trkpt>
<trkpt lat="43.745271005" lon="11.251424002"><ele>146</ele><time>2020-02-02T08:49:03Z</time></trkpt>
<trkpt lat="43.745287014" lon="11.251451997"><ele>146</ele><time>2020-02-02T08:49:04Z</time></trkpt>
<trkpt lat="43.745303024" lon="11.251479993"><ele>146</ele><time>2020-02-02T08:49:05Z</time></trkpt>
<trkpt lat="43.745319033" lon="11.251507988"><ele>146</ele><time>2020-02-02T08:49:06Z</time></trkpt>
<trkpt lat="43.74533697" lon="11.251534978"><ele>146</ele><time>2020-02-02T08:49:07Z</time></trkpt>
<trkpt lat="43.745354991" lon="11.251561968"><ele>146</ele><time>2020-02-02T08:49:08Z</time></trkpt>
<trkpt lat="43.745374018" lon="11.251588035"><ele>146</ele><time>2020-02-02T08:49:09Z</time></trkpt>
<trkpt lat="43.745394973" lon="11.251615025"><ele>146</ele><time>2020-02-02T08:49:10Z</time></trkpt>
<trkpt lat="43.745416012" lon="11.251640003"><ele>146</ele><time>2020-02-02T08:49:11Z</time></trkpt>
<trkpt lat="43.745437972" lon="11.251664981"><ele>146</ele><time>2020-02-02T08:49:12Z</time></trkpt>
<trkpt lat="43.745461022" lon="11.251689959"><ele>146</ele><time>2020-02-02T08:49:13Z</time></trkpt>
<trkpt lat="43.745484995" lon="11.251715021"><ele>146</ele><time>2020-02-02T08:49:14Z</time></trkpt>
<trkpt lat="43.745509973" lon="11.251739999"><ele>146</ele><time>2020-02-02T08:49:15Z</time></trkpt>
<trkpt lat="43.745535035" lon="11.251764977"><ele>146</ele><time>2020-02-02T08:49:16Z</time></trkpt>
<trkpt lat="43.745559007" lon="11.251790961"><ele>146</ele><time>2020-02-02T08:49:17Z</time></trkpt>
<trkpt lat="43.745583985" lon="11.251818035"><ele>146</ele><time>2020-02-02T08:49:18Z</time></trkpt>
<trkpt lat="43.745608041" lon="11.25184603"><ele>147</ele><time>2020-02-02T08:49:19Z</time></trkpt>
<trkpt lat="43.745632013" lon="11.251876038"><ele>147</ele><time>2020-02-02T08:49:20Z</time></trkpt>
<trkpt lat="43.74565498" lon="11.251907973"><ele>147</ele><time>2020-02-02T08:49:21Z</time></trkpt>
<trkpt lat="43.745676018" lon="11.251940997"><ele>147</ele><time>2020-02-02T08:49:22Z</time></trkpt>
<trkpt lat="43.745695967" lon="11.25197704"><ele>147</ele><time>2020-02-02T08:49:23Z</time></trkpt>
<trkpt lat="43.745714994" lon="11.252014004"><ele>147</ele><time>2020-02-02T08:49:24Z</time></trkpt>
<trkpt lat="43.745733015" lon="11.252051974"><ele>147</ele><time>2020-02-02T08:49:25Z</time></trkpt>
<trkpt lat="43.745749025" lon="11.252091033"><ele>147</ele><time>2020-02-02T08:49:26Z</time></trkpt>
<trkpt lat="43.745764028" lon="11.252130009"><ele>147</ele><time>2020-02-02T08:49:27Z</time></trkpt>
<trkpt lat="43.745778026" lon="11.252167979"><ele>147</ele><time>2020-02-02T08:49:28Z</time></trkpt>
<trkpt lat="43.745791018" lon="11.252206033"><ele>147</ele><time>2020-02-02T08:49:29Z</time></trkpt>
<trkpt lat="43.745801998" lon="11.252242997"><ele>147</ele><time>2020-02-02T08:49:30Z</time></trkpt>
<trkpt lat="43.745811973" lon="11.252279039"><ele>147</ele><time>2020-02-02T08:49:31Z</time></trkpt>
<trkpt lat="43.745821025" lon="11.252312986"><ele>147</ele><time>2020-02-02T08:49:32Z</time></trkpt>
<trkpt lat="43.745829994" lon="11.252347017"><ele>147</ele><time>2020-02-02T08:49:33Z</time></trkpt>
<trkpt lat="43.74583804" lon="11.252380963"><ele>147</ele><time>2020-02-02T08:49:34Z</time></trkpt>
<trkpt lat="43.745847009" lon="11.252414994"><ele>147</ele><time>2020-02-02T08:49:35Z</time></trkpt>
<trkpt lat="43.745854972" lon="11.252449024"><ele>147</ele><time>2020-02-02T08:49:36Z</time></trkpt>
<trkpt lat="43.745864024" lon="11.252482971"><ele>147</ele><time>2020-02-02T08:49:37Z</time></trkpt>
<trkpt lat="43.745871987" lon="11.252518008"><ele>147</ele><time>2020-02-02T08:49:38Z</time></trkpt>
<trkpt lat="43.745879028" lon="11.252552038"><ele>147</ele><time>2020-02-02T08:49:39Z</time></trkpt>
<trkpt lat="43.745882967" lon="11.252585985"><ele>147</ele><time>2020-02-02T08:49:40Z</time></trkpt>
<trkpt lat="43.745885985" lon="11.252619009"><ele>147</ele><time>2020-02-02T08:49:41Z</time></trkpt>
<trkpt lat="43.745886991" lon="11.252651028"><ele>148</ele><time>2020-02-02T08:49:42Z</time></trkpt>
<trkpt lat="43.745886991" lon="11.252682963"><ele>148</ele><time>2020-02-02T08:49:43Z</time></trkpt>
<trkpt lat="43.745885985" lon="11.252714982"><ele>148</ele><time>2020-02-02T08:49:44Z</time></trkpt>
<trkpt lat="43.745884979" lon="11.252745995"><ele>148</ele><time>2020-02-02T08:49:45Z</time></trkpt>
<trkpt lat="43.745882967" lon="11.252776003"><ele>149</ele><time>2020-02-02T08:49:46Z</time></trkpt>
<trkpt lat="43.745881962" lon="11.252807016"><ele>149</ele><time>2020-02-02T08:49:47Z</time></trkpt>
<trkpt lat="43.74588104" lon="11.252837023"><ele>149</ele><time>2020-02-02T08:49:48Z</time></trkpt>
<trkpt lat="43.745880034" lon="11.252866024"><ele>149</ele><time>2020-02-02T08:49:49Z</time></trkpt>
<trkpt lat="43.745880034" lon="11.252896031"><ele>149</ele><time>2020-02-02T08:49:50Z</time></trkpt>
<trkpt lat="43.74588104" lon="11.252925033"><ele>150</ele><time>2020-02-02T08:49:51Z</time></trkpt>
<trkpt lat="43.74588104" lon="11.252954034"><ele>150</ele><time>2020-02-02T08:49:52Z</time></trkpt>
<trkpt lat="43.745881962" lon="11.25298203"><ele>150</ele><time>2020-02-02T08:49:53Z</time></trkpt>
<trkpt lat="43.745883973" lon="11.253011031"><ele>150</ele><time>2020-02-02T08:49:54Z</time></trkpt>
<trkpt lat="43.745890008" lon="11.253095018"><ele>151</ele><time>2020-02-02T08:49:57Z</time></trkpt>
<trkpt lat="43.745893026" lon="11.253123013"><ele>151</ele><time>2020-02-02T08:49:58Z</time></trkpt>
<trkpt lat="43.745895037" lon="11.253150003"><ele>151</ele><time>2020-02-02T08:49:59Z</time></trkpt>
<trkpt lat="43.745897971" lon="11.253177999"><ele>151</ele><time>2020-02-02T08:50:00Z</time></trkpt>
<trkpt lat="43.745901994" lon="11.253205994"><ele>151</ele><time>2020-02-02T08:50:01Z</time></trkpt>
<trkpt lat="43.745905012" lon="11.253232984"><ele>152</ele><time>2020-02-02T08:50:02Z</time></trkpt>
<trkpt lat="43.745909035" lon="11.253259974"><ele>152</ele><time>2020-02-02T08:50:03Z</time></trkpt>
<trkpt lat="43.745911969" lon="11.253287969"><ele>152</ele><time>2020-02-02T08:50:04Z</time></trkpt>
<trkpt lat="43.745915992" lon="11.253314959"><ele>152</ele><time>2020-02-02T08:50:05Z</time></trkpt>
<trkpt lat="43.745920015" lon="11.253343038"><ele>152</ele><time>2020-02-02T08:50:06Z</time></trkpt>
<trkpt lat="43.745924039" lon="11.253370028"><ele>152</ele><time>2020-02-02T08:50:07Z</time></trkpt>
<trkpt lat="43.745927978" lon="11.253397018"><ele>152</ele><time>2020-02-02T08:50:08Z</time></trkpt>
<trkpt lat="43.745933007" lon="11.253424007"><ele>152</ele><time>2020-02-02T08:50:09Z</time></trkpt>
<trkpt lat="43.745937031" lon="11.253450997"><ele>153</ele><time>2020-02-02T08:50:10Z</time></trkpt>
<trkpt lat="43.745941976" lon="11.253477987"><ele>153</ele><time>2020-02-02T08:50:11Z</time></trkpt>
<trkpt lat="43.745945999" lon="11.253504977"><ele>153</ele><time>2020-02-02T08:50:12Z</time></trkpt>
<trkpt lat="43.745951029" lon="11.253530961"><ele>153</ele><time>2020-02-02T08:50:13Z</time></trkpt>
<trkpt lat="43.745955974" lon="11.253557028"><ele>153</ele><time>2020-02-02T08:50:14Z</time></trkpt>
<trkpt lat="43.745961003" lon="11.253583012"><ele>153</ele><time>2020-02-02T08:50:15Z</time></trkpt>
<trkpt lat="43.745966032" lon="11.25360799"><ele>153</ele><time>2020-02-02T08:50:16Z</time></trkpt>
<trkpt lat="43.745971983" lon="11.253632968"><ele>153</ele><time>2020-02-02T08:50:17Z</time></trkpt>
<trkpt lat="43.745977012" lon="11.25365803"><ele>153</ele><time>2020-02-02T08:50:18Z</time></trkpt>
<trkpt lat="43.745982964" lon="11.253682002"><ele>153</ele><time>2020-02-02T08:50:19Z</time></trkpt>
<trkpt lat="43.745988999" lon="11.253704969"><ele>153</ele><time>2020-02-02T08:50:20Z</time></trkpt>
<trkpt lat="43.745995034" lon="11.253728019"><ele>154</ele><time>2020-02-02T08:50:21Z</time></trkpt>
<trkpt lat="43.746000985" lon="11.25374998"><ele>154</ele><time>2020-02-02T08:50:22Z</time></trkpt>
<trkpt lat="43.746008025" lon="11.253771018"><ele>154</ele><time>2020-02-02T08:50:23Z</time></trkpt>
<trkpt lat="43.746013977" lon="11.253791973"><ele>154</ele><time>2020-02-02T08:50:24Z</time></trkpt>
<trkpt lat="43.746021017" lon="11.253812006"><ele>154</ele><time>2020-02-02T08:50:25Z</time></trkpt>
<trkpt lat="43.746027974" lon="11.253832038"><ele>154</ele><time>2020-02-02T08:50:26Z</time></trkpt>
<trkpt lat="43.746035015" lon="11.253851987"><ele>154</ele><time>2020-02-02T08:50:27Z</time></trkpt>
<trkpt lat="43.746042978" lon="11.25387202"><ele>154</ele><time>2020-02-02T08:50:28Z</time></trkpt>
<trkpt lat="43.746050019" lon="11.253891969"><ele>154</ele><time>2020-02-02T08:50:29Z</time></trkpt>
<trkpt lat="43.746057982" lon="11.253913008"><ele>154</ele><time>2020-02-02T08:50:30Z</time></trkpt>
<trkpt lat="43.746066028" lon="11.253933962"><ele>154</ele><time>2020-02-02T08:50:31Z</time></trkpt>
<trkpt lat="43.746073991" lon="11.253956007"><ele>154</ele><time>2020-02-02T08:50:32Z</time></trkpt>
<trkpt lat="43.746082038" lon="11.253978973"><ele>154</ele><time>2020-02-02T08:50:33Z</time></trkpt>
<trkpt lat="43.74609" lon="11.254004035"><ele>154</ele><time>2020-02-02T08:50:34Z</time></trkpt>
<trkpt lat="43.746097963" lon="11.254029013"><ele>155</ele><time>2020-02-02T08:50:35Z</time></trkpt>
<trkpt lat="43.746107016" lon="11.254056003"><ele>155</ele><time>2020-02-02T08:50:36Z</time></trkpt>
<trkpt lat="43.746114979" lon="11.254082993"><ele>155</ele><time>2020-02-02T08:50:37Z</time></trkpt>
<trkpt lat="43.746123025" lon="11.254113"><ele>155</ele><time>2020-02-02T08:50:38Z</time></trkpt>
<trkpt lat="43.746129982" lon="11.254143007"><ele>155</ele><time>2020-02-02T08:50:39Z</time></trkpt>
<trkpt lat="43.746138029" lon="11.254175026"><ele>155</ele><time>2020-02-02T08:50:40Z</time></trkpt>
<trkpt lat="43.746144986" lon="11.254207967"><ele>155</ele><time>2020-02-02T08:50:41Z</time></trkpt>
<trkpt lat="43.746152027" lon="11.254243003"><ele>155</ele><time>2020-02-02T08:50:42Z</time></trkpt>
<trkpt lat="43.746158984" lon="11.254278962"><ele>156</ele><time>2020-02-02T08:50:43Z</time></trkpt>
<trkpt lat="43.746165019" lon="11.25431601"><ele>156</ele><time>2020-02-02T08:50:44Z</time></trkpt>
<trkpt lat="43.746171976" lon="11.254352974"><ele>156</ele><time>2020-02-02T08:50:45Z</time></trkpt>
<trkpt lat="43.746179016" lon="11.254390022"><ele>156</ele><time>2020-02-02T08:50:46Z</time></trkpt>
<trkpt lat="43.746186979" lon="11.254426986"><ele>156</ele><time>2020-02-02T08:50:47Z</time></trkpt>
<trkpt lat="43.746196032" lon="11.254464034"><ele>156</ele><time>2020-02-02T08:50:48Z</time></trkpt>
<trkpt lat="43.746205" lon="11.254499992"><ele>156</ele><time>2020-02-02T08:50:49Z</time></trkpt>
<trkpt lat="43.74621598" lon="11.254535029"><ele>156</ele><time>2020-02-02T08:50:50Z</time></trkpt>
<trkpt lat="43.746226961" lon="11.25456797"><ele>157</ele><time>2020-02-02T08:50:51Z</time></trkpt>
<trkpt lat="43.746240037" lon="11.254599988"><ele>157</ele><time>2020-02-02T08:50:52Z</time></trkpt>
<trkpt lat="43.746253029" lon="11.254632007"><ele>157</ele><time>2020-02-02T08:50:53Z</time></trkpt>
<trkpt lat="43.74626602" lon="11.25466302"><ele>157</ele><time>2020-02-02T08:50:54Z</time></trkpt>
<trkpt lat="43.746279012" lon="11.254695039"><ele>157</ele><time>2020-02-02T08:50:55Z</time></trkpt>
<trkpt lat="43.746290999" lon="11.254726974"><ele>157</ele><time>2020-02-02T08:50:56Z</time></trkpt>
<trkpt lat="43.746301979" lon="11.254759999"><ele>157</ele><time>2020-02-02T08:50:57Z</time></trkpt>
<trkpt lat="43.746312037" lon="11.25479403"><ele>158</ele><time>2020-02-02T08:50:58Z</time></trkpt>
<trkpt lat="43.74632" lon="11.254830994"><ele>158</ele><time>2020-02-02T08:50:59Z</time></trkpt>
<trkpt lat="43.746327041" lon="11.254868042"><ele>158</ele><time>2020-02-02T08:51:00Z</time></trkpt>
<trkpt lat="43.746332992" lon="11.254905006"><ele>158</ele><time>2020-02-02T08:51:01Z</time></trkpt>
<trkpt lat="43.746339027" lon="11.25494197"><ele>158</ele><time>2020-02-02T08:51:02Z</time></trkpt>
<trkpt lat="43.746344978" lon="11.254978012"><ele>159</ele><time>2020-02-02T08:51:03Z</time></trkpt>
<trkpt lat="43.746352019" lon="11.255011959"><ele>159</ele><time>2020-02-02T08:51:04Z</time></trkpt>
<trkpt lat="43.746358976" lon="11.255044984"><ele>159</ele><time>2020-02-02T08:51:05Z</time></trkpt>
<trkpt lat="43.746367022" lon="11.255077003"><ele>159</ele><time>2020-02-02T08:51:06Z</time></trkpt>
<trkpt lat="43.746375991" lon="11.255110027"><ele>159</ele><time>2020-02-02T08:51:07Z</time></trkpt>
<trkpt lat="43.746384038" lon="11.255143974"><ele>159</ele><time>2020-02-02T08:51:08Z</time></trkpt>
<trkpt lat="43.746394012" lon="11.255178005"><ele>159</ele><time>2020-02-02T08:51:09Z</time></trkpt>
<trkpt lat="43.746402981" lon="11.255213963"><ele>159</ele><time>2020-02-02T08:51:10Z</time></trkpt>
<trkpt lat="43.746412033" lon="11.255251011"><ele>160</ele><time>2020-02-02T08:51:11Z</time></trkpt>
<trkpt lat="43.746421002" lon="11.255287975"><ele>160</ele><time>2020-02-02T08:51:12Z</time></trkpt>
<trkpt lat="43.74642997" lon="11.255326029"><ele>160</ele><time>2020-02-02T08:51:13Z</time></trkpt>
<trkpt lat="43.746438017" lon="11.255362993"><ele>160</ele><time>2020-02-02T08:51:14Z</time></trkpt>
<trkpt lat="43.746444974" lon="11.255401969"><ele>160</ele><time>2020-02-02T08:51:15Z</time></trkpt>
<trkpt lat="43.746451009" lon="11.255440023"><ele>160</ele><time>2020-02-02T08:51:16Z</time></trkpt>
<trkpt lat="43.746456038" lon="11.255477993"><ele>160</ele><time>2020-02-02T08:51:17Z</time></trkpt>
<trkpt lat="43.746459978" lon="11.255515963"><ele>161</ele><time>2020-02-02T08:51:18Z</time></trkpt>
<trkpt lat="43.746462995" lon="11.255554017"><ele>161</ele><time>2020-02-02T08:51:19Z</time></trkpt>
<trkpt lat="43.746465007" lon="11.255590981"><ele>161</ele><time>2020-02-02T08:51:20Z</time></trkpt>
<trkpt lat="43.746466013" lon="11.255629035"><ele>161</ele><time>2020-02-02T08:51:21Z</time></trkpt>
<trkpt lat="43.746466013" lon="11.255665999"><ele>161</ele><time>2020-02-02T08:51:22Z</time></trkpt>
<trkpt lat="43.746465007" lon="11.255703969"><ele>161</ele><time>2020-02-02T08:51:23Z</time></trkpt>
<trkpt lat="43.746462995" lon="11.255741017"><ele>161</ele><time>2020-02-02T08:51:24Z</time></trkpt>
<trkpt lat="43.746460984" lon="11.255777981"><ele>161</ele><time>2020-02-02T08:51:25Z</time></trkpt>
<trkpt lat="43.746457966" lon="11.255815029"><ele>161</ele><time>2020-02-02T08:51:26Z</time></trkpt>
<trkpt lat="43.746455032" lon="11.255851993"><ele>162</ele><time>2020-02-02T08:51:27Z</time></trkpt>
<trkpt lat="43.746451009" lon="11.255889041"><ele>162</ele><time>2020-02-02T08:51:28Z</time></trkpt>
<trkpt lat="43.74644598" lon="11.255926006"><ele>162</ele><time>2020-02-02T08:51:29Z</time></trkpt>
<trkpt lat="43.74644204" lon="11.255961964"><ele>162</ele><time>2020-02-02T08:51:30Z</time></trkpt>
<trkpt lat="43.746436005" lon="11.255999012"><ele>163</ele><time>2020-02-02T08:51:31Z</time></trkpt>
<trkpt lat="43.746430976" lon="11.25603497"><ele>163</ele><time>2020-02-02T08:51:32Z</time></trkpt>
<trkpt lat="43.746426031" lon="11.256072018"><ele>163</ele><time>2020-02-02T08:51:33Z</time></trkpt>
<trkpt lat="43.746419996" lon="11.256107977"><ele>163</ele><time>2020-02-02T08:51:34Z</time></trkpt>
<trkpt lat="43.746413961" lon="11.256144019"><ele>164</ele><time>2020-02-02T08:51:35Z</time></trkpt>
<trkpt lat="43.74640801" lon="11.256180983"><ele>164</ele><time>2020-02-02T08:51:36Z</time></trkpt>
<trkpt lat="43.746401975" lon="11.256217025"><ele>164</ele><time>2020-02-02T08:51:37Z</time></trkpt>
<trkpt lat="43.74639703" lon="11.256252984"><ele>164</ele><time>2020-02-02T08:51:38Z</time></trkpt>
<trkpt lat="43.746390995" lon="11.256289026"><ele>165</ele><time>2020-02-02T08:51:39Z</time></trkpt>
<trkpt lat="43.746385965" lon="11.256324984"><ele>165</ele><time>2020-02-02T08:51:40Z</time></trkpt>
<trkpt lat="43.74638102" lon="11.25636002"><ele>165</ele><time>2020-02-02T08:51:41Z</time></trkpt>
<trkpt lat="43.746376997" lon="11.256395979"><ele>165</ele><time>2020-02-02T08:51:42Z</time></trkpt>
<trkpt lat="43.746372974" lon="11.256432021"><ele>166</ele><time>2020-02-02T08:51:43Z</time></trkpt>
<trkpt lat="43.746369034" lon="11.256466974"><ele>166</ele><time>2020-02-02T08:51:44Z</time></trkpt>
<trkpt lat="43.746366017" lon="11.25650201"><ele>166</ele><time>2020-02-02T08:51:45Z</time></trkpt>
<trkpt lat="43.746362999" lon="11.256537968"><ele>166</ele><time>2020-02-02T08:51:46Z</time></trkpt>
<trkpt lat="43.746361993" lon="11.256573005"><ele>167</ele><time>2020-02-02T08:51:47Z</time></trkpt>
<trkpt lat="43.746359982" lon="11.256608041"><ele>167</ele><time>2020-02-02T08:51:48Z</time></trkpt>
<trkpt lat="43.746359982" lon="11.256642994"><ele>167</ele><time>2020-02-02T08:51:49Z</time></trkpt>
<trkpt lat="43.746360987" lon="11.25667803"><ele>167</ele><time>2020-02-02T08:51:50Z</time></trkpt>
<trkpt lat="43.746361993" lon="11.256711977"><ele>168</ele><time>2020-02-02T08:51:51Z</time></trkpt>
<trkpt lat="43.746365011" lon="11.256747013"><ele>168</ele><time>2020-02-02T08:51:52Z</time></trkpt>
<trkpt lat="43.746368028" lon="11.25678096"><ele>168</ele><time>2020-02-02T08:51:53Z</time></trkpt>
<trkpt lat="43.746372974" lon="11.256815996"><ele>169</ele><time>2020-02-02T08:51:54Z</time></trkpt>
<trkpt lat="43.746378003" lon="11.256850027"><ele>169</ele><time>2020-02-02T08:51:55Z</time></trkpt>
<trkpt lat="43.74638496" lon="11.256883973"><ele>169</ele><time>2020-02-02T08:51:56Z</time></trkpt>
<trkpt lat="43.746392" lon="11.256918004"><ele>169</ele><time>2020-02-02T08:51:57Z</time></trkpt>
<trkpt lat="43.746399963" lon="11.256952034"><ele>170</ele><time>2020-02-02T08:51:58Z</time></trkpt>
<trkpt lat="43.746409016" lon="11.256984975"><ele>170</ele><time>2020-02-02T08:51:59Z</time></trkpt>
<trkpt lat="43.746417984" lon="11.257019006"><ele>170</ele><time>2020-02-02T08:52:00Z</time></trkpt>
<trkpt lat="43.746428965" lon="11.25705203"><ele>170</ele><time>2020-02-02T08:52:01Z</time></trkpt>
<trkpt lat="43.746440029" lon="11.257084971"><ele>171</ele><time>2020-02-02T08:52:02Z</time></trkpt>
<trkpt lat="43.746452015" lon="11.257117996"><ele>171</ele><time>2020-02-02T08:52:03Z</time></trkpt>
<trkpt lat="43.746466013" lon="11.257150015"><ele>171</ele><time>2020-02-02T08:52:04Z</time></trkpt>
<trkpt lat="43.74648001" lon="11.257181028"><ele>171</ele><time>2020-02-02T08:52:05Z</time></trkpt>
<trkpt lat="43.74649602" lon="11.257212041"><ele>171</ele><time>2020-02-02T08:52:06Z</time></trkpt>
<trkpt lat="43.746512029" lon="11.257241964"><ele>171</ele><time>2020-02-02T08:52:07Z</time></trkpt>
<trkpt lat="43.746530972" lon="11.25726996"><ele>171</ele><time>2020-02-02T08:52:08Z</time></trkpt>
<trkpt lat="43.746549999" lon="11.257297033"><ele>172</ele><time>2020-02-02T08:52:09Z</time></trkpt>
<trkpt lat="43.746570032" lon="11.257324023"><ele>172</ele><time>2020-02-02T08:52:10Z</time></trkpt>
<trkpt lat="43.746590987" lon="11.257349001"><ele>172</ele><time>2020-02-02T08:52:11Z</time></trkpt>
<trkpt lat="43.746613031" lon="11.257373979"><ele>172</ele><time>2020-02-02T08:52:12Z</time></trkpt>
<trkpt lat="43.746633986" lon="11.257398035"><ele>172</ele><time>2020-02-02T08:52:13Z</time></trkpt>
<trkpt lat="43.746655025" lon="11.257422008"><ele>172</ele><time>2020-02-02T08:52:14Z</time></trkpt>
<trkpt lat="43.746675979" lon="11.25744598"><ele>172</ele><time>2020-02-02T08:52:15Z</time></trkpt>
<trkpt lat="43.746695006" lon="11.25746903"><ele>172</ele><time>2020-02-02T08:52:16Z</time></trkpt>
<trkpt lat="43.746713027" lon="11.257493002"><ele>172</ele><time>2020-02-02T08:52:17Z</time></trkpt>
<trkpt lat="43.746729037" lon="11.257516975"><ele>172</ele><time>2020-02-02T08:52:18Z</time></trkpt>
<trkpt lat="43.74674404" lon="11.257541031"><ele>172</ele><time>2020-02-02T08:52:19Z</time></trkpt>
<trkpt lat="43.746758038" lon="11.257565003"><ele>172</ele><time>2020-02-02T08:52:20Z</time></trkpt>
<trkpt lat="43.74677103" lon="11.257589981"><ele>173</ele><time>2020-02-02T08:52:21Z</time></trkpt>
<trkpt lat="43.746785028" lon="11.257614037"><ele>173</ele><time>2020-02-02T08:52:22Z</time></trkpt>
<trkpt lat="43.74679802" lon="11.257639015"><ele>173</ele><time>2020-02-02T08:52:23Z</time></trkpt>
<trkpt lat="43.746812018" lon="11.257663993"><ele>173</ele><time>2020-02-02T08:52:24Z</time></trkpt>
<trkpt lat="43.746827021" lon="11.257688971"><ele>173</ele><time>2020-02-02T08:52:25Z</time></trkpt>
<trkpt lat="43.746843031" lon="11.257714033"><ele>173</ele><time>2020-02-02T08:52:26Z</time></trkpt>
<trkpt lat="43.746901033" lon="11.25778704"><ele>173</ele><time>2020-02-02T08:52:29Z</time></trkpt>
<trkpt lat="43.746921988" lon="11.257810006"><ele>173</ele><time>2020-02-02T08:52:30Z</time></trkpt>
<trkpt lat="43.746945038" lon="11.257831967"><ele>173</ele><time>2020-02-02T08:52:31Z</time></trkpt>
<trkpt lat="43.746969011" lon="11.257851999"><ele>173</ele><time>2020-02-02T08:52:32Z</time></trkpt>
<trkpt lat="43.746993989" lon="11.257871026"><ele>173</ele><time>2020-02-02T08:52:33Z</time></trkpt>
<trkpt lat="43.747018967" lon="11.257888041"><ele>173</ele><time>2020-02-02T08:52:34Z</time></trkpt>
<trkpt lat="43.747044029" lon="11.257902961"><ele>173</ele><time>2020-02-02T08:52:35Z</time></trkpt>
<trkpt lat="43.747070013" lon="11.257915031"><ele>173</ele><time>2020-02-02T08:52:36Z</time></trkpt>
<trkpt lat="43.747095997" lon="11.257924"><ele>173</ele><time>2020-02-02T08:52:37Z</time></trkpt>
<trkpt lat="43.74712198" lon="11.257931963"><ele>173</ele><time>2020-02-02T08:52:38Z</time></trkpt>
<trkpt lat="43.747147964" lon="11.257936992"><ele>173</ele><time>2020-02-02T08:52:39Z</time></trkpt>
<trkpt lat="43.747174032" lon="11.257940009"><ele>173</ele><time>2020-02-02T08:52:40Z</time></trkpt>
<trkpt lat="43.747201022" lon="11.257941015"><ele>173</ele><time>2020-02-02T08:52:41Z</time></trkpt>
<trkpt lat="43.747227006" lon="11.257940009"><ele>173</ele><time>2020-02-02T08:52:42Z</time></trkpt>
<trkpt lat="43.747253995" lon="11.257937998"><ele>173</ele><time>2020-02-02T08:52:43Z</time></trkpt>
<trkpt lat="43.747279979" lon="11.257933974"><ele>173</ele><time>2020-02-02T08:52:44Z</time></trkpt>
<trkpt lat="43.747305963" lon="11.257928023"><ele>173</ele><time>2020-02-02T08:52:45Z</time></trkpt>
<trkpt lat="43.747332031" lon="11.257920982"><ele>173</ele><time>2020-02-02T08:52:46Z</time></trkpt>
<trkpt lat="43.747359021" lon="11.25791302"><ele>172</ele><time>2020-02-02T08:52:47Z</time></trkpt>
<trkpt lat="43.747385005" lon="11.257902961"><ele>172</ele><time>2020-02-02T08:52:48Z</time></trkpt>
<trkpt lat="43.747410988" lon="11.257891981"><ele>172</ele><time>2020-02-02T08:52:49Z</time></trkpt>
<trkpt lat="43.747437978" lon="11.257879995"><ele>172</ele><time>2020-02-02T08:52:50Z</time></trkpt>
<trkpt lat="43.747463962" lon="11.257865997"><ele>172</ele><time>2020-02-02T08:52:51Z</time></trkpt>
<trkpt lat="43.747491036" lon="11.257850993"><ele>172</ele><time>2020-02-02T08:52:52Z</time></trkpt>
<trkpt lat="43.747518025" lon="11.257834984"><ele>172</ele><time>2020-02-02T08:52:53Z</time></trkpt>
<trkpt lat="43.747545015" lon="11.257817969"><ele>172</ele><time>2020-02-02T08:52:54Z</time></trkpt>
<trkpt lat="43.747572005" lon="11.257800031"><ele>172</ele><time>2020-02-02T08:52:55Z</time></trkpt>
<trkpt lat="43.747598995" lon="11.25778201"><ele>172</ele><time>2020-02-02T08:52:56Z</time></trkpt>
<trkpt lat="43.747625984" lon="11.257763989"><ele>172</ele><time>2020-02-02T08:52:57Z</time></trkpt>
<trkpt lat="43.747652974" lon="11.257746974"><ele>173</ele><time>2020-02-02T08:52:58Z</time></trkpt>
<trkpt lat="43.747679964" lon="11.257730965"><ele>173</ele><time>2020-02-02T08:52:59Z</time></trkpt>
<trkpt lat="43.747707037" lon="11.257715961"><ele>173</ele><time>2020-02-02T08:53:00Z</time></trkpt>
<trkpt lat="43.747733021" lon="11.257702969"><ele>173</ele><time>2020-02-02T08:53:01Z</time></trkpt>
<trkpt lat="43.747757999" lon="11.257692995"><ele>173</ele><time>2020-02-02T08:53:02Z</time></trkpt>
<trkpt lat="43.747782977" lon="11.257685032"><ele>173</ele><time>2020-02-02T08:53:03Z</time></trkpt>
<trkpt lat="43.747808039" lon="11.257680003"><ele>173</ele><time>2020-02-02T08:53:04Z</time></trkpt>
<trkpt lat="43.747832011" lon="11.257676985"><ele>173</ele><time>2020-02-02T08:53:05Z</time></trkpt>
<trkpt lat="43.747854978" lon="11.257675979"><ele>173</ele><time>2020-02-02T08:53:06Z</time></trkpt>
<trkpt lat="43.747879034" lon="11.257676985"><ele>173</ele><time>2020-02-02T08:53:07Z</time></trkpt>
<trkpt lat="43.747902" lon="11.257681008"><ele>173</ele><time>2020-02-02T08:53:08Z</time></trkpt>
<trkpt lat="43.747949023" lon="11.257690983"><ele>173</ele><time>2020-02-02T08:53:10Z</time></trkpt>
<trkpt lat="43.747971989" lon="11.257698024"><ele>173</ele><time>2020-02-02T08:53:11Z</time></trkpt>
<trkpt lat="43.747995961" lon="11.257706992"><ele>173</ele><time>2020-02-02T08:53:12Z</time></trkpt>
<trkpt lat="43.748020018" lon="11.257715961"><ele>173</ele><time>2020-02-02T08:53:13Z</time></trkpt>
<trkpt lat="43.748044996" lon="11.257726019"><ele>173</ele><time>2020-02-02T08:53:14Z</time></trkpt>
<trkpt lat="43.748069974" lon="11.257735994"><ele>173</ele><time>2020-02-02T08:53:15Z</time></trkpt>
<trkpt lat="43.748095036" lon="11.257745968"><ele>173</ele><time>2020-02-02T08:53:16Z</time></trkpt>
<trkpt lat="43.748121019" lon="11.257757032"><ele>173</ele><time>2020-02-02T08:53:17Z</time></trkpt>
<trkpt lat="43.748148009" lon="11.257767007"><ele>173</ele><time>2020-02-02T08:53:18Z</time></trkpt>
<trkpt lat="43.748176005" lon="11.257776981"><ele>173</ele><time>2020-02-02T08:53:19Z</time></trkpt>
<trkpt lat="43.748205006" lon="11.257786034"><ele>173</ele><time>2020-02-02T08:53:20Z</time></trkpt>
<trkpt lat="43.748234008" lon="11.257795002"><ele>173</ele><time>2020-02-02T08:53:21Z</time></trkpt>
<trkpt lat="43.748264015" lon="11.257802965"><ele>173</ele><time>2020-02-02T08:53:22Z</time></trkpt>
<trkpt lat="43.748294022" lon="11.257810006"><ele>173</ele><time>2020-02-02T08:53:23Z</time></trkpt>
<trkpt lat="43.748324029" lon="11.257816963"><ele>173</ele><time>2020-02-02T08:53:24Z</time></trkpt>
<trkpt lat="43.748353031" lon="11.257821992"><ele>173</ele><time>2020-02-02T08:53:25Z</time></trkpt>
<trkpt lat="43.748381026" lon="11.257826015"><ele>173</ele><time>2020-02-02T08:53:26Z</time></trkpt>
<trkpt lat="43.748408016" lon="11.257829033"><ele>173</ele><time>2020-02-02T08:53:27Z</time></trkpt>
<trkpt lat="43.748434" lon="11.257830961"><ele>173</ele><time>2020-02-02T08:53:28Z</time></trkpt>
<trkpt lat="43.748457972" lon="11.257831967"><ele>173</ele><time>2020-02-02T08:53:29Z</time></trkpt>
<trkpt lat="43.748481022" lon="11.257830961"><ele>173</ele><time>2020-02-02T08:53:30Z</time></trkpt>
<trkpt lat="43.748524021" lon="11.257828027"><ele>173</ele><time>2020-02-02T08:53:32Z</time></trkpt>
<trkpt lat="43.74854397" lon="11.257826015"><ele>173</ele><time>2020-02-02T08:53:33Z</time></trkpt>
<trkpt lat="43.748565009" lon="11.257824004"><ele>173</ele><time>2020-02-02T08:53:34Z</time></trkpt>
<trkpt lat="43.748585042" lon="11.257822998"><ele>173</ele><time>2020-02-02T08:53:35Z</time></trkpt>
<trkpt lat="43.748605996" lon="11.257821992"><ele>173</ele><time>2020-02-02T08:53:36Z</time></trkpt>
<trkpt lat="43.748652013" lon="11.25782501"><ele>173</ele><time>2020-02-02T08:53:38Z</time></trkpt>
<trkpt lat="43.748675985" lon="11.257827021"><ele>173</ele><time>2020-02-02T08:53:39Z</time></trkpt>
<trkpt lat="43.748702975" lon="11.257828027"><ele>173</ele><time>2020-02-02T08:53:40Z</time></trkpt>
<trkpt lat="43.748732982" lon="11.257828027"><ele>173</ele><time>2020-02-02T08:53:41Z</time></trkpt>
<trkpt lat="43.748766007" lon="11.257824004"><ele>173</ele><time>2020-02-02T08:53:42Z</time></trkpt>
<trkpt lat="43.748801965" lon="11.257816963"><ele>173</ele><time>2020-02-02T08:53:43Z</time></trkpt>
<trkpt lat="43.748840019" lon="11.257806988"><ele>173</ele><time>2020-02-02T08:53:44Z</time></trkpt>
<trkpt lat="43.748880001" lon="11.257795002"><ele>173</ele><time>2020-02-02T08:53:45Z</time></trkpt>
<trkpt lat="43.748919982" lon="11.257781005"><ele>173</ele><time>2020-02-02T08:53:46Z</time></trkpt>
<trkpt lat="43.748958036" lon="11.257767007"><ele>173</ele><time>2020-02-02T08:53:47Z</time></trkpt>
<trkpt lat="43.749043029" lon="11.257744962"><ele>173</ele><time>2020-02-02T08:53:50Z</time></trkpt>
<trkpt lat="43.749069013" lon="11.257742029"><ele>173</ele><time>2020-02-02T08:53:51Z</time></trkpt>
<trkpt lat="43.749096002" lon="11.257740017"><ele>173</ele><time>2020-02-02T08:53:52Z</time></trkpt>
<trkpt lat="43.749125004" lon="11.257735994"><ele>172</ele><time>2020-02-02T08:53:53Z</time></trkpt>
<trkpt lat="43.749155011" lon="11.25773197"><ele>172</ele><time>2020-02-02T08:53:54Z</time></trkpt>
<trkpt lat="43.749185018" lon="11.257726019"><ele>172</ele><time>2020-02-02T08:53:55Z</time></trkpt>
<trkpt lat="43.749216031" lon="11.257718978"><ele>172</ele><time>2020-02-02T08:53:56Z</time></trkpt>
<trkpt lat="43.749247966" lon="11.25771001"><ele>172</ele><time>2020-02-02T08:53:57Z</time></trkpt>
<trkpt lat="43.749279985" lon="11.257700035"><ele>172</ele><time>2020-02-02T08:53:58Z</time></trkpt>
<trkpt lat="43.74931301" lon="11.257688971"><ele>172</ele><time>2020-02-02T08:53:59Z</time></trkpt>
<trkpt lat="43.749346035" lon="11.257676985"><ele>172</ele><time>2020-02-02T08:54:00Z</time></trkpt>
<trkpt lat="43.749378975" lon="11.257662987"><ele>172</ele><time>2020-02-02T08:54:01Z</time></trkpt>
<trkpt lat="43.749412" lon="11.257647984"><ele>172</ele><time>2020-02-02T08:54:02Z</time></trkpt>
<trkpt lat="43.749445025" lon="11.25763298"><ele>172</ele><time>2020-02-02T08:54:03Z</time></trkpt>
<trkpt lat="43.749477966" lon="11.257615965"><ele>172</ele><time>2020-02-02T08:54:04Z</time></trkpt>
<trkpt lat="43.74951099" lon="11.257599033"><ele>172</ele><time>2020-02-02T08:54:05Z</time></trkpt>
<trkpt lat="43.749544015" lon="11.257581012"><ele>172</ele><time>2020-02-02T08:54:06Z</time></trkpt>
<trkpt lat="43.74957704" lon="11.257561985"><ele>172</ele><time>2020-02-02T08:54:07Z</time></trkpt>
<trkpt lat="43.749608975" lon="11.257543964"><ele>171</ele><time>2020-02-02T08:54:08Z</time></trkpt>
<trkpt lat="43.749640994" lon="11.257525021"><ele>171</ele><time>2020-02-02T08:54:09Z</time></trkpt>
<trkpt lat="43.749673013" lon="11.257507"><ele>171</ele><time>2020-02-02T08:54:10Z</time></trkpt>
<trkpt lat="43.749704026" lon="11.257487973"><ele>171</ele><time>2020-02-02T08:54:11Z</time></trkpt>
<trkpt lat="43.749735039" lon="11.257470036"><ele>171</ele><time>2020-02-02T08:54:12Z</time></trkpt>
<trkpt lat="43.749764962" lon="11.257453021"><ele>170</ele><time>2020-02-02T08:54:13Z</time></trkpt>
<trkpt lat="43.749794969" lon="11.257436005"><ele>170</ele><time>2020-02-02T08:54:14Z</time></trkpt>
<trkpt lat="43.749824977" lon="11.257419996"><ele>170</ele><time>2020-02-02T08:54:15Z</time></trkpt>
<trkpt lat="43.749853978" lon="11.257403987"><ele>170</ele><time>2020-02-02T08:54:16Z</time></trkpt>
<trkpt lat="43.749882979" lon="11.257387977"><ele>169</ele><time>2020-02-02T08:54:17Z</time></trkpt>
<trkpt lat="43.749969983" lon="11.257340033"><ele>169</ele><time>2020-02-02T08:54:20Z</time></trkpt>
<trkpt lat="43.749998985" lon="11.257323017"><ele>169</ele><time>2020-02-02T08:54:21Z</time></trkpt>
<trkpt lat="43.750027986" lon="11.257307008"><ele>168</ele><time>2020-02-02T08:54:22Z</time></trkpt>
<trkpt lat="43.750057993" lon="11.257289993"><ele>168</ele><time>2020-02-02T08:54:23Z</time></trkpt>
<trkpt lat="43.750088001" lon="11.257272977"><ele>168</ele><time>2020-02-02T08:54:24Z</time></trkpt>
<trkpt lat="43.750118008" lon="11.257255962"><ele>168</ele><time>2020-02-02T08:54:25Z</time></trkpt>
<trkpt lat="43.750148015" lon="11.257240037"><ele>168</ele><time>2020-02-02T08:54:26Z</time></trkpt>
<trkpt lat="43.750178022" lon="11.257224027"><ele>168</ele><time>2020-02-02T08:54:27Z</time></trkpt>
<trkpt lat="43.750209035" lon="11.257209023"><ele>169</ele><time>2020-02-02T08:54:28Z</time></trkpt>
<trkpt lat="43.750238959" lon="11.257196032"><ele>169</ele><time>2020-02-02T08:54:29Z</time></trkpt>
<trkpt lat="43.750269972" lon="11.25718304"><ele>169</ele><time>2020-02-02T08:54:30Z</time></trkpt>
<trkpt lat="43.750300985" lon="11.25717097"><ele>169</ele><time>2020-02-02T08:54:31Z</time></trkpt>
<trkpt lat="43.750331998" lon="11.257159989"><ele>169</ele><time>2020-02-02T08:54:32Z</time></trkpt>
<trkpt lat="43.750363011" lon="11.257149009"><ele>169</ele><time>2020-02-02T08:54:33Z</time></trkpt>
<trkpt lat="43.750394024" lon="11.257138029"><ele>169</ele><time>2020-02-02T08:54:34Z</time></trkpt>
<trkpt lat="43.750425037" lon="11.257125959"><ele>169</ele><time>2020-02-02T08:54:35Z</time></trkpt>
<trkpt lat="43.75045496" lon="11.257113973"><ele>169</ele><time>2020-02-02T08:54:36Z</time></trkpt>
<trkpt lat="43.750484968" lon="11.257098969"><ele>170</ele><time>2020-02-02T08:54:37Z</time></trkpt>
<trkpt lat="43.750513969" lon="11.25708296"><ele>170</ele><time>2020-02-02T08:54:38Z</time></trkpt>
<trkpt lat="43.750541965" lon="11.257065022"><ele>170</ele><time>2020-02-02T08:54:39Z</time></trkpt>
<trkpt lat="43.75056996" lon="11.25704499"><ele>170</ele><time>2020-02-02T08:54:40Z</time></trkpt>
<trkpt lat="43.750598039" lon="11.257023029"><ele>170</ele><time>2020-02-02T08:54:41Z</time></trkpt>
<trkpt lat="43.750624023" lon="11.257000985"><ele>170</ele><time>2020-02-02T08:54:42Z</time></trkpt>
<trkpt lat="43.750650007" lon="11.256977012"><ele>170</ele><time>2020-02-02T08:54:43Z</time></trkpt>
<trkpt lat="43.750674985" lon="11.256952034"><ele>170</ele><time>2020-02-02T08:54:44Z</time></trkpt>
<trkpt lat="43.750699041" lon="11.256926972"><ele>170</ele><time>2020-02-02T08:54:45Z</time></trkpt>
<trkpt lat="43.750723014" lon="11.256903"><ele>170</ele><time>2020-02-02T08:54:46Z</time></trkpt>
<trkpt lat="43.750744974" lon="11.256878022"><ele>170</ele><time>2020-02-02T08:54:47Z</time></trkpt>
<trkpt lat="43.750767019" lon="11.256853966"><ele>170</ele><time>2020-02-02T08:54:48Z</time></trkpt>
<trkpt lat="43.750787973" lon="11.256829994"><ele>170</ele><time>2020-02-02T08:54:49Z</time></trkpt>
<trkpt lat="43.750808006" lon="11.256807027"><ele>170</ele><time>2020-02-02T08:54:50Z</time></trkpt>
<trkpt lat="43.750828039" lon="11.256783977"><ele>170</ele><time>2020-02-02T08:54:51Z</time></trkpt>
<trkpt lat="43.750846982" lon="11.256761011"><ele>170</ele><time>2020-02-02T08:54:52Z</time></trkpt>
<trkpt lat="43.750866009" lon="11.256738966"><ele>170</ele><time>2020-02-02T08:54:53Z</time></trkpt>
<trkpt lat="43.750886042" lon="11.256717006"><ele>170</ele><time>2020-02-02T08:54:54Z</time></trkpt>
<trkpt lat="43.750904985" lon="11.256694039"><ele>170</ele><time>2020-02-02T08:54:55Z</time></trkpt>
<trkpt lat="43.750924012" lon="11.256671995"><ele>170</ele><time>2020-02-02T08:54:56Z</time></trkpt>
<trkpt lat="43.750943961" lon="11.256649029"><ele>170</ele><time>2020-02-02T08:54:57Z</time></trkpt>
<trkpt lat="43.750963993" lon="11.256625978"><ele>170</ele><time>2020-02-02T08:54:58Z</time></trkpt>
<trkpt lat="43.750984026" lon="11.256602006"><ele>171</ele><time>2020-02-02T08:54:59Z</time></trkpt>
<trkpt lat="43.751003975" lon="11.25657904"><ele>171</ele><time>2020-02-02T08:55:00Z</time></trkpt>
<trkpt lat="43.751023002" lon="11.256553978"><ele>171</ele><time>2020-02-02T08:55:01Z</time></trkpt>
<trkpt lat="43.751042029" lon="11.256529"><ele>171</ele><time>2020-02-02T08:55:02Z</time></trkpt>
<trkpt lat="43.751059966" lon="11.256503016"><ele>172</ele><time>2020-02-02T08:55:03Z</time></trkpt>
<trkpt lat="43.751076981" lon="11.256477032"><ele>172</ele><time>2020-02-02T08:55:04Z</time></trkpt>
<trkpt lat="43.751092991" lon="11.256449036"><ele>172</ele><time>2020-02-02T08:55:05Z</time></trkpt>
<trkpt lat="43.751107994" lon="11.256421963"><ele>172</ele><time>2020-02-02T08:55:06Z</time></trkpt>
<trkpt lat="43.751122998" lon="11.256394973"><ele>172</ele><time>2020-02-02T08:55:07Z</time></trkpt>
<trkpt lat="43.751138002" lon="11.256367983"><ele>172</ele><time>2020-02-02T08:55:08Z</time></trkpt>
<trkpt lat="43.751155017" lon="11.256343005"><ele>172</ele><time>2020-02-02T08:55:09Z</time></trkpt>
<trkpt lat="43.751172032" lon="11.256320039"><ele>172</ele><time>2020-02-02T08:55:10Z</time></trkpt>
<trkpt lat="43.751190975" lon="11.256301012"><ele>172</ele><time>2020-02-02T08:55:11Z</time></trkpt>
<trkpt lat="43.751212014" lon="11.256283997"><ele>173</ele><time>2020-02-02T08:55:12Z</time></trkpt>
<trkpt lat="43.751235986" lon="11.256271005"><ele>173</ele><time>2020-02-02T08:55:13Z</time></trkpt>
<trkpt lat="43.75126197" lon="11.256263042"><ele>173</ele><time>2020-02-02T08:55:14Z</time></trkpt>
<trkpt lat="43.751290971" lon="11.256259019"><ele>173</ele><time>2020-02-02T08:55:15Z</time></trkpt>
<trkpt lat="43.751319973" lon="11.256257007"><ele>173</ele><time>2020-02-02T08:55:16Z</time></trkpt>
<trkpt lat="43.751347968" lon="11.256259019"><ele>173</ele><time>2020-02-02T08:55:17Z</time></trkpt>
<trkpt lat="43.751374036" lon="11.256263042"><ele>173</ele><time>2020-02-02T08:55:18Z</time></trkpt>
<trkpt lat="43.751397002" lon="11.256267987"><ele>173</ele><time>2020-02-02T08:55:19Z</time></trkpt>
<trkpt lat="43.751418041" lon="11.256274022"><ele>173</ele><time>2020-02-02T08:55:20Z</time></trkpt>
<trkpt lat="43.751440002" lon="11.256279973"><ele>173</ele><time>2020-02-02T08:55:21Z</time></trkpt>
<trkpt lat="43.751461962" lon="11.256286008"><ele>173</ele><time>2020-02-02T08:55:22Z</time></trkpt>
<trkpt lat="43.751487024" lon="11.256291959"><ele>173</ele><time>2020-02-02T08:55:23Z</time></trkpt>
<trkpt lat="43.75151502" lon="11.256297994"><ele>173</ele><time>2020-02-02T08:55:24Z</time></trkpt>
<trkpt lat="43.751544021" lon="11.256304029"><ele>173</ele><time>2020-02-02T08:55:25Z</time></trkpt>
<trkpt lat="43.751575034" lon="11.256309981"><ele>173</ele><time>2020-02-02T08:55:26Z</time></trkpt>
<trkpt lat="43.751607975" lon="11.256318027"><ele>174</ele><time>2020-02-02T08:55:27Z</time></trkpt>
<trkpt lat="43.751641" lon="11.256326996"><ele>174</ele><time>2020-02-02T08:55:28Z</time></trkpt>
<trkpt lat="43.751673019" lon="11.25633697"><ele>174</ele><time>2020-02-02T08:55:29Z</time></trkpt>
<trkpt lat="43.751705959" lon="11.25634904"><ele>174</ele><time>2020-02-02T08:55:30Z</time></trkpt>
<trkpt lat="43.751737978" lon="11.25636396"><ele>173</ele><time>2020-02-02T08:55:31Z</time></trkpt>
<trkpt lat="43.751768991" lon="11.256381981"><ele>173</ele><time>2020-02-02T08:55:32Z</time></trkpt>
<trkpt lat="43.751798999" lon="11.256402014"><ele>173</ele><time>2020-02-02T08:55:33Z</time></trkpt>
<trkpt lat="43.751826994" lon="11.256422969"><ele>173</ele><time>2020-02-02T08:55:34Z</time></trkpt>
<trkpt lat="43.75185499" lon="11.256447025"><ele>173</ele><time>2020-02-02T08:55:35Z</time></trkpt>
<trkpt lat="43.751881979" lon="11.256470997"><ele>173</ele><time>2020-02-02T08:55:36Z</time></trkpt>
<trkpt lat="43.751907963" lon="11.256494969"><ele>173</ele><time>2020-02-02T08:55:37Z</time></trkpt>
<trkpt lat="43.751934031" lon="11.256520031"><ele>173</ele><time>2020-02-02T08:55:38Z</time></trkpt>
<trkpt lat="43.751959009" lon="11.256544003"><ele>173</ele><time>2020-02-02T08:55:39Z</time></trkpt>
<trkpt lat="43.751982981" lon="11.25656697"><ele>173</ele><time>2020-02-02T08:55:40Z</time></trkpt>
<trkpt lat="43.752007037" lon="11.25659002"><ele>173</ele><time>2020-02-02T08:55:41Z</time></trkpt>
<trkpt lat="43.75203101" lon="11.256610975"><ele>173</ele><time>2020-02-02T08:55:42Z</time></trkpt>
<trkpt lat="43.752054982" lon="11.256633019"><ele>173</ele><time>2020-02-02T08:55:43Z</time></trkpt>
<trkpt lat="43.752079038" lon="11.256653974"><ele>173</ele><time>2020-02-02T08:55:44Z</time></trkpt>
<trkpt lat="43.752104016" lon="11.256674007"><ele>173</ele><time>2020-02-02T08:55:45Z</time></trkpt>
<trkpt lat="43.752127988" lon="11.256694961"><ele>173</ele><time>2020-02-02T08:55:46Z</time></trkpt>
<trkpt lat="43.752153972" lon="11.256714994"><ele>173</ele><time>2020-02-02T08:55:47Z</time></trkpt>
<trkpt lat="43.752179034" lon="11.256736033"><ele>173</ele><time>2020-02-02T08:55:48Z</time></trkpt>
<trkpt lat="43.752206024" lon="11.256756987"><ele>173</ele><time>2020-02-02T08:55:49Z</time></trkpt>
<trkpt lat="43.752233014" lon="11.256779032"><ele>173</ele><time>2020-02-02T08:55:50Z</time></trkpt>
<trkpt lat="43.752262015" lon="11.256799987"><ele>173</ele><time>2020-02-02T08:55:51Z</time></trkpt>
<trkpt lat="43.752352037" lon="11.256863018"><ele>173</ele><time>2020-02-02T08:55:54Z</time></trkpt>
<trkpt lat="43.752383972" lon="11.256883973"><ele>173</ele><time>2020-02-02T08:55:55Z</time></trkpt>
<trkpt lat="43.75241599" lon="11.256904006"><ele>173</ele><time>2020-02-02T08:55:56Z</time></trkpt>
<trkpt lat="43.752519004" lon="11.256961003"><ele>172</ele><time>2020-02-02T08:55:59Z</time></trkpt>
<trkpt lat="43.75255404" lon="11.256978018"><ele>172</ele><time>2020-02-02T08:56:00Z</time></trkpt>
<trkpt lat="43.752587987" lon="11.256992016"><ele>171</ele><time>2020-02-02T08:56:01Z</time></trkpt>
<trkpt lat="43.752622018" lon="11.257004002"><ele>171</ele><time>2020-02-02T08:56:02Z</time></trkpt>
<trkpt lat="43.752654959" lon="11.257011965"><ele>170</ele><time>2020-02-02T08:56:03Z</time></trkpt>
<trkpt lat="43.752686977" lon="11.257019006"><ele>170</ele><time>2020-02-02T08:56:04Z</time></trkpt>
<trkpt lat="43.752718996" lon="11.257024035"><ele>169</ele><time>2020-02-02T08:56:05Z</time></trkpt>
<trkpt lat="43.752751015" lon="11.257027974"><ele>169</ele><time>2020-02-02T08:56:06Z</time></trkpt>
<trkpt lat="43.75278404" lon="11.257031998"><ele>168</ele><time>2020-02-02T08:56:07Z</time></trkpt>
<trkpt lat="43.752816981" lon="11.257036021"><ele>167</ele><time>2020-02-02T08:56:08Z</time></trkpt>
<trkpt lat="43.752851011" lon="11.25703996"><ele>167</ele><time>2020-02-02T08:56:09Z</time></trkpt>
<trkpt lat="43.752885964" lon="11.257042978"><ele>166</ele><time>2020-02-02T08:56:10Z</time></trkpt>
<trkpt lat="43.752921" lon="11.257045995"><ele>166</ele><time>2020-02-02T08:56:11Z</time></trkpt>
<trkpt lat="43.752956958" lon="11.257050019"><ele>165</ele><time>2020-02-02T08:56:12Z</time></trkpt>
<trkpt lat="43.752993001" lon="11.25705597"><ele>164</ele><time>2020-02-02T08:56:13Z</time></trkpt>
<trkpt lat="43.753029965" lon="11.257066028"><ele>164</ele><time>2020-02-02T08:56:14Z</time></trkpt>
<trkpt lat="43.753067013" lon="11.257081032"><ele>163</ele><time>2020-02-02T08:56:15Z</time></trkpt>
<trkpt lat="43.753103977" lon="11.257099975"><ele>163</ele><time>2020-02-02T08:56:16Z</time></trkpt>
<trkpt lat="43.753139013" lon="11.257124031"><ele>162</ele><time>2020-02-02T08:56:17Z</time></trkpt>
<trkpt lat="43.75317296" lon="11.257150015"><ele>162</ele><time>2020-02-02T08:56:18Z</time></trkpt>
<trkpt lat="43.753202967" lon="11.25717801"><ele>162</ele><time>2020-02-02T08:56:19Z</time></trkpt>
<trkpt lat="43.753230963" lon="11.257207012"><ele>162</ele><time>2020-02-02T08:56:20Z</time></trkpt>
<trkpt lat="43.753255019" lon="11.257238025"><ele>162</ele><time>2020-02-02T08:56:21Z</time></trkpt>
<trkpt lat="43.753277985" lon="11.25726996"><ele>162</ele><time>2020-02-02T08:56:22Z</time></trkpt>
<trkpt lat="43.753299024" lon="11.257304996"><ele>162</ele><time>2020-02-02T08:56:23Z</time></trkpt>
<trkpt lat="43.753318973" lon="11.25734196"><ele>162</ele><time>2020-02-02T08:56:24Z</time></trkpt>
<trkpt lat="43.753339006" lon="11.257382026"><ele>162</ele><time>2020-02-02T08:56:25Z</time></trkpt>
<trkpt lat="43.753394997" lon="11.257510018"><ele>162</ele><time>2020-02-02T08:56:28Z</time></trkpt>
<trkpt lat="43.753414024" lon="11.257554023"><ele>162</ele><time>2020-02-02T08:56:29Z</time></trkpt>
<trkpt lat="43.753431961" lon="11.257599033"><ele>161</ele><time>2020-02-02T08:56:30Z</time></trkpt>
<trkpt lat="43.753450988" lon="11.25764396"><ele>161</ele><time>2020-02-02T08:56:31Z</time></trkpt>
<trkpt lat="43.753470015" lon="11.257687965"><ele>161</ele><time>2020-02-02T08:56:32Z</time></trkpt>
<trkpt lat="43.753489964" lon="11.257730965"><ele>161</ele><time>2020-02-02T08:56:33Z</time></trkpt>
<trkpt lat="43.753509996" lon="11.257773964"><ele>161</ele><time>2020-02-02T08:56:34Z</time></trkpt>
<trkpt lat="43.753530029" lon="11.257815035"><ele>160</ele><time>2020-02-02T08:56:35Z</time></trkpt>
<trkpt lat="43.753550984" lon="11.257856023"><ele>160</ele><time>2020-02-02T08:56:36Z</time></trkpt>
<trkpt lat="43.753572023" lon="11.25789701"><ele>160</ele><time>2020-02-02T08:56:37Z</time></trkpt>
<trkpt lat="43.753592977" lon="11.257936992"><ele>160</ele><time>2020-02-02T08:56:38Z</time></trkpt>
<trkpt lat="43.753615022" lon="11.257975968"><ele>160</ele><time>2020-02-02T08:56:39Z</time></trkpt>
<trkpt lat="43.753636982" lon="11.258015027"><ele>160</ele><time>2020-02-02T08:56:40Z</time></trkpt>
<trkpt lat="43.753660033" lon="11.258054003"><ele>159</ele><time>2020-02-02T08:56:41Z</time></trkpt>
<trkpt lat="43.753729016" lon="11.258167997"><ele>159</ele><time>2020-02-02T08:56:44Z</time></trkpt>
<trkpt lat="43.753751982" lon="11.258205967"><ele>159</ele><time>2020-02-02T08:56:45Z</time></trkpt>
<trkpt lat="43.753775032" lon="11.258244021"><ele>159</ele><time>2020-02-02T08:56:46Z</time></trkpt>
<trkpt lat="43.753799004" lon="11.258281991"><ele>159</ele><time>2020-02-02T08:56:47Z</time></trkpt>
<trkpt lat="43.753822977" lon="11.258319961"><ele>159</ele><time>2020-02-02T08:56:48Z</time></trkpt>
<trkpt lat="43.753846027" lon="11.258358015"><ele>159</ele><time>2020-02-02T08:56:49Z</time></trkpt>
<trkpt lat="43.753869999" lon="11.258396991"><ele>158</ele><time>2020-02-02T08:56:50Z</time></trkpt>
<trkpt lat="43.753893971" lon="11.258435966"><ele>158</ele><time>2020-02-02T08:56:51Z</time></trkpt>
<trkpt lat="43.753918028" lon="11.258475026"><ele>158</ele><time>2020-02-02T08:56:52Z</time></trkpt>
<trkpt lat="43.753940994" lon="11.258512996"><ele>158</ele><time>2020-02-02T08:56:53Z</time></trkpt>
<trkpt lat="43.75396396" lon="11.258550966"><ele>157</ele><time>2020-02-02T08:56:54Z</time></trkpt>
<trkpt lat="43.753986005" lon="11.258588014"><ele>157</ele><time>2020-02-02T08:56:55Z</time></trkpt>
<trkpt lat="43.754006959" lon="11.258624978"><ele>157</ele><time>2020-02-02T08:56:56Z</time></trkpt>
<trkpt lat="43.754026992" lon="11.258662026"><ele>157</ele><time>2020-02-02T08:56:57Z</time></trkpt>
<trkpt lat="43.754044008" lon="11.258697985"><ele>157</ele><time>2020-02-02T08:56:58Z</time></trkpt>
<trkpt lat="43.754059011" lon="11.258734027"><ele>157</ele><time>2020-02-02T08:56:59Z</time></trkpt>
<trkpt lat="43.754073009" lon="11.258768979"><ele>157</ele><time>2020-02-02T08:57:00Z</time></trkpt>
<trkpt lat="43.754087007" lon="11.258802004"><ele>156</ele><time>2020-02-02T08:57:01Z</time></trkpt>
<trkpt lat="43.754103016" lon="11.258832011"><ele>156</ele><time>2020-02-02T08:57:02Z</time></trkpt>
<trkpt lat="43.754121959" lon="11.258860007"><ele>156</ele><time>2020-02-02T08:57:03Z</time></trkpt>
<trkpt lat="43.754145009" lon="11.258884985"><ele>156</ele><time>2020-02-02T08:57:04Z</time></trkpt>
<trkpt lat="43.754173005" lon="11.258906024"><ele>156</ele><time>2020-02-02T08:57:05Z</time></trkpt>
<trkpt lat="43.754203012" lon="11.258925973"><ele>156</ele><time>2020-02-02T08:57:06Z</time></trkpt>
<trkpt lat="43.754235031" lon="11.258943994"><ele>156</ele><time>2020-02-02T08:57:07Z</time></trkpt>
<trkpt lat="43.754267972" lon="11.258961009"><ele>156</ele><time>2020-02-02T08:57:08Z</time></trkpt>
<trkpt lat="43.754302002" lon="11.258978024"><ele>156</ele><time>2020-02-02T08:57:09Z</time></trkpt>
<trkpt lat="43.754337039" lon="11.258995039"><ele>156</ele><time>2020-02-02T08:57:10Z</time></trkpt>
<trkpt lat="43.754371991" lon="11.259010965"><ele>156</ele><time>2020-02-02T08:57:11Z</time></trkpt>
<trkpt lat="43.754407028" lon="11.259026974"><ele>156</ele><time>2020-02-02T08:57:12Z</time></trkpt>
<trkpt lat="43.754442986" lon="11.259042984"><ele>156</ele><time>2020-02-02T08:57:13Z</time></trkpt>
<trkpt lat="43.754479028" lon="11.259057987"><ele>156</ele><time>2020-02-02T08:57:14Z</time></trkpt>
<trkpt lat="43.754513981" lon="11.259072991"><ele>156</ele><time>2020-02-02T08:57:15Z</time></trkpt>
<trkpt lat="43.754549017" lon="11.259087995"><ele>156</ele><time>2020-02-02T08:57:16Z</time></trkpt>
<trkpt lat="43.75458397" lon="11.259102998"><ele>156</ele><time>2020-02-02T08:57:17Z</time></trkpt>
<trkpt lat="43.754618" lon="11.259118002"><ele>156</ele><time>2020-02-02T08:57:18Z</time></trkpt>
<trkpt lat="43.754652031" lon="11.259133006"><ele>156</ele><time>2020-02-02T08:57:19Z</time></trkpt>
<trkpt lat="43.754685977" lon="11.259148009"><ele>155</ele><time>2020-02-02T08:57:20Z</time></trkpt>
<trkpt lat="43.754720008" lon="11.259163013"><ele>155</ele><time>2020-02-02T08:57:21Z</time></trkpt>
<trkpt lat="43.754754039" lon="11.259178016"><ele>155</ele><time>2020-02-02T08:57:22Z</time></trkpt>
<trkpt lat="43.754787985" lon="11.25919302"><ele>155</ele><time>2020-02-02T08:57:23Z</time></trkpt>
<trkpt lat="43.754823022" lon="11.259209029"><ele>155</ele><time>2020-02-02T08:57:24Z</time></trkpt>
<trkpt lat="43.754857974" lon="11.259224033"><ele>154</ele><time>2020-02-02T08:57:25Z</time></trkpt>
<trkpt lat="43.754965011" lon="11.259272983"><ele>153</ele><time>2020-02-02T08:57:28Z</time></trkpt>
<trkpt lat="43.755000969" lon="11.259288993"><ele>153</ele><time>2020-02-02T08:57:29Z</time></trkpt>
<trkpt lat="43.755037012" lon="11.259306008"><ele>153</ele><time>2020-02-02T08:57:30Z</time></trkpt>
<trkpt lat="43.75507297" lon="11.259322017"><ele>152</ele><time>2020-02-02T08:57:31Z</time></trkpt>
<trkpt lat="43.755108006" lon="11.259338027"><ele>152</ele><time>2020-02-02T08:57:32Z</time></trkpt>
<trkpt lat="43.755142037" lon="11.259354036"><ele>152</ele><time>2020-02-02T08:57:33Z</time></trkpt>
<trkpt lat="43.755240021" lon="11.259400975"><ele>151</ele><time>2020-02-02T08:57:36Z</time></trkpt>
<trkpt lat="43.755271034" lon="11.259415979"><ele>151</ele><time>2020-02-02T08:57:37Z</time></trkpt>
<trkpt lat="43.755301042" lon="11.259430982"><ele>151</ele><time>2020-02-02T08:57:38Z</time></trkpt>
<trkpt lat="43.755330965" lon="11.259445986"><ele>150</ele><time>2020-02-02T08:57:39Z</time></trkpt>
<trkpt lat="43.755360972" lon="11.259460989"><ele>150</ele><time>2020-02-02T08:57:40Z</time></trkpt>
<trkpt lat="43.755390979" lon="11.259475993"><ele>150</ele><time>2020-02-02T08:57:41Z</time></trkpt>
<trkpt lat="43.755419981" lon="11.259492002"><ele>150</ele><time>2020-02-02T08:57:42Z</time></trkpt>
<trkpt lat="43.755450994" lon="11.259507006"><ele>149</ele><time>2020-02-02T08:57:43Z</time></trkpt>
<trkpt lat="43.755481001" lon="11.259523015"><ele>149</ele><time>2020-02-02T08:57:44Z</time></trkpt>
<trkpt lat="43.755512014" lon="11.259540031"><ele>149</ele><time>2020-02-02T08:57:45Z</time></trkpt>
<trkpt lat="43.755544033" lon="11.259556962"><ele>148</ele><time>2020-02-02T08:57:46Z</time></trkpt>
<trkpt lat="43.755640006" lon="11.259608008"><ele>147</ele><time>2020-02-02T08:57:49Z</time></trkpt>
<trkpt lat="43.75567303" lon="11.259625023"><ele>147</ele><time>2020-02-02T08:57:50Z</time></trkpt>
<trkpt lat="43.755704965" lon="11.259641033"><ele>147</ele><time>2020-02-02T08:57:51Z</time></trkpt>
<trkpt lat="43.75573799" lon="11.259657964"><ele>146</ele><time>2020-02-02T08:57:52Z</time></trkpt>
<trkpt lat="43.755771015" lon="11.259673974"><ele>146</ele><time>2020-02-02T08:57:53Z</time></trkpt>
<trkpt lat="43.75580404" lon="11.259689983"><ele>146</ele><time>2020-02-02T08:57:54Z</time></trkpt>
<trkpt lat="43.755837986" lon="11.259704987"><ele>145</ele><time>2020-02-02T08:57:55Z</time></trkpt>
<trkpt lat="43.755871011" lon="11.25971999"><ele>145</ele><time>2020-02-02T08:57:56Z</time></trkpt>
<trkpt lat="43.755904036" lon="11.259733988"><ele>145</ele><time>2020-02-02T08:57:57Z</time></trkpt>
<trkpt lat="43.755936977" lon="11.259747986"><ele>144</ele><time>2020-02-02T08:57:58Z</time></trkpt>
<trkpt lat="43.755968995" lon="11.259759972"><ele>144</ele><time>2020-02-02T08:57:59Z</time></trkpt>
<trkpt lat="43.75600202" lon="11.259772042"><ele>144</ele><time>2020-02-02T08:58:00Z</time></trkpt>
<trkpt lat="43.756034039" lon="11.259783022"><ele>144</ele><time>2020-02-02T08:58:01Z</time></trkpt>
<trkpt lat="43.756065974" lon="11.259794002"><ele>144</ele><time>2020-02-02T08:58:02Z</time></trkpt>
<trkpt lat="43.756097993" lon="11.259803977"><ele>143</ele><time>2020-02-02T08:58:03Z</time></trkpt>
<trkpt lat="43.756130012" lon="11.259814035"><ele>143</ele><time>2020-02-02T08:58:04Z</time></trkpt>
<trkpt lat="43.756162031" lon="11.259826021"><ele>143</ele><time>2020-02-02T08:58:05Z</time></trkpt>
<trkpt lat="43.75619296" lon="11.259838007"><ele>143</ele><time>2020-02-02T08:58:06Z</time></trkpt>
<trkpt lat="43.756224979" lon="11.259850999"><ele>143</ele><time>2020-02-02T08:58:07Z</time></trkpt>
<trkpt lat="43.756256998" lon="11.259864997"><ele>142</ele><time>2020-02-02T08:58:08Z</time></trkpt>
<trkpt lat="43.756290022" lon="11.259877989"><ele>142</ele><time>2020-02-02T08:58:09Z</time></trkpt>
<trkpt lat="43.756322963" lon="11.259890981"><ele>142</ele><time>2020-02-02T08:58:10Z</time></trkpt>
<trkpt lat="43.756355988" lon="11.259902967"><ele>142</ele><time>2020-02-02T08:58:11Z</time></trkpt>
<trkpt lat="43.756387001" lon="11.259915037"><ele>142</ele><time>2020-02-02T08:58:12Z</time></trkpt>
<trkpt lat="43.756416002" lon="11.259926017"><ele>142</ele><time>2020-02-02T08:58:13Z</time></trkpt>
<trkpt lat="43.756478028" lon="11.259958036"><ele>141</ele><time>2020-02-02T08:58:16Z</time></trkpt>
<trkpt lat="43.756492026" lon="11.259969017"><ele>141</ele><time>2020-02-02T08:58:17Z</time></trkpt>
<trkpt lat="43.756505018" lon="11.259981003"><ele>141</ele><time>2020-02-02T08:58:18Z</time></trkpt>
<trkpt lat="43.756519016" lon="11.259996006"><ele>141</ele><time>2020-02-02T08:58:19Z</time></trkpt>
<trkpt lat="43.756533014" lon="11.260013022"><ele>141</ele><time>2020-02-02T08:58:20Z</time></trkpt>
<trkpt lat="43.756548017" lon="11.260033976"><ele>141</ele><time>2020-02-02T08:58:21Z</time></trkpt>
<trkpt lat="43.756565033" lon="11.260059038"><ele>141</ele><time>2020-02-02T08:58:22Z</time></trkpt>
<trkpt lat="43.75658297" lon="11.260088962"><ele>141</ele><time>2020-02-02T08:58:23Z</time></trkpt>
<trkpt lat="43.756603003" lon="11.260122992"><ele>141</ele><time>2020-02-02T08:58:24Z</time></trkpt>
<trkpt lat="43.756624041" lon="11.260162974"><ele>140</ele><time>2020-02-02T08:58:25Z</time></trkpt>
<trkpt lat="43.756644996" lon="11.260204967"><ele>140</ele><time>2020-02-02T08:58:26Z</time></trkpt>
<trkpt lat="43.756664023" lon="11.260249978"><ele>140</ele><time>2020-02-02T08:58:27Z</time></trkpt>
<trkpt lat="43.756680032" lon="11.260294989"><ele>140</ele><time>2020-02-02T08:58:28Z</time></trkpt>
<trkpt lat="43.756695036" lon="11.260341005"><ele>140</ele><time>2020-02-02T08:58:29Z</time></trkpt>
<trkpt lat="43.756706016" lon="11.260387022"><ele>140</ele><time>2020-02-02T08:58:30Z</time></trkpt>
<trkpt lat="43.756713979" lon="11.260433039"><ele>139</ele><time>2020-02-02T08:58:31Z</time></trkpt>
<trkpt lat="43.756719008" lon="11.260476038"><ele>139</ele><time>2020-02-02T08:58:32Z</time></trkpt>
<trkpt lat="43.75672102" lon="11.260519037"><ele>139</ele><time>2020-02-02T08:58:33Z</time></trkpt>
<trkpt lat="43.756720014" lon="11.26056103"><ele>139</ele><time>2020-02-02T08:58:34Z</time></trkpt>
<trkpt lat="43.756715991" lon="11.26060403"><ele>139</ele><time>2020-02-02T08:58:35Z</time></trkpt>
<trkpt lat="43.756709034" lon="11.260646023"><ele>139</ele><time>2020-02-02T08:58:36Z</time></trkpt>
<trkpt lat="43.756699981" lon="11.260688016"><ele>139</ele><time>2020-02-02T08:58:37Z</time></trkpt>
<trkpt lat="43.756687995" lon="11.26073001"><ele>139</ele><time>2020-02-02T08:58:38Z</time></trkpt>
<trkpt lat="43.756675003" lon="11.260769991"><ele>139</ele><time>2020-02-02T08:58:39Z</time></trkpt>
<trkpt lat="43.756658994" lon="11.260808967"><ele>139</ele><time>2020-02-02T08:58:40Z</time></trkpt>
<trkpt lat="43.756641978" lon="11.260845009"><ele>139</ele><time>2020-02-02T08:58:41Z</time></trkpt>
<trkpt lat="43.756623035" lon="11.260878034"><ele>138</ele><time>2020-02-02T08:58:42Z</time></trkpt>
<trkpt lat="43.756605014" lon="11.260909969"><ele>138</ele><time>2020-02-02T08:58:43Z</time></trkpt>
<trkpt lat="43.756585987" lon="11.26093897"><ele>138</ele><time>2020-02-02T08:58:44Z</time></trkpt>
<trkpt lat="43.756568972" lon="11.26096596"><ele>138</ele><time>2020-02-02T08:58:45Z</time></trkpt>
<trkpt lat="43.756552963" lon="11.260994039"><ele>137</ele><time>2020-02-02T08:58:46Z</time></trkpt>
<trkpt lat="43.756538965" lon="11.261023963"><ele>137</ele><time>2020-02-02T08:58:47Z</time></trkpt>
<trkpt lat="43.756526979" lon="11.261057993"><ele>137</ele><time>2020-02-02T08:58:48Z</time></trkpt>
<trkpt lat="43.756517004" lon="11.261097975"><ele>137</ele><time>2020-02-02T08:58:49Z</time></trkpt>
<trkpt lat="43.756509041" lon="11.261144998"><ele>136</ele><time>2020-02-02T08:58:50Z</time></trkpt>
<trkpt lat="43.756503006" lon="11.261196965"><ele>136</ele><time>2020-02-02T08:58:51Z</time></trkpt>
<trkpt lat="43.756481968" lon="11.261345996"><ele>135</ele><time>2020-02-02T08:58:54Z</time></trkpt>
<trkpt lat="43.756470988" lon="11.261386983"><ele>135</ele><time>2020-02-02T08:58:55Z</time></trkpt>
<trkpt lat="43.756460007" lon="11.261425037"><ele>135</ele><time>2020-02-02T08:58:56Z</time></trkpt>
<trkpt lat="43.756448021" lon="11.261462001"><ele>135</ele><time>2020-02-02T08:58:57Z</time></trkpt>
<trkpt lat="43.756436035" lon="11.261500977"><ele>134</ele><time>2020-02-02T08:58:58Z</time></trkpt>
<trkpt lat="43.756424971" lon="11.261541964"><ele>134</ele><time>2020-02-02T08:58:59Z</time></trkpt>
<trkpt lat="43.756412985" lon="11.261584964"><ele>134</ele><time>2020-02-02T08:59:00Z</time></trkpt>
<trkpt lat="43.756371997" lon="11.261721002"><ele>133</ele><time>2020-02-02T08:59:03Z</time></trkpt>
<trkpt lat="43.756359005" lon="11.26176903"><ele>132</ele><time>2020-02-02T08:59:04Z</time></trkpt>
<trkpt lat="43.756350037" lon="11.261816975"><ele>132</ele><time>2020-02-02T08:59:05Z</time></trkpt>
<trkpt lat="43.756350037" lon="11.261867015"><ele>132</ele><time>2020-02-02T08:59:06Z</time></trkpt>
<trkpt lat="43.756361017" lon="11.261918982"><ele>131</ele><time>2020-02-02T08:59:07Z</time></trkpt>
<trkpt lat="43.75637996" lon="11.261971034"><ele>131</ele><time>2020-02-02T08:59:08Z</time></trkpt>
<trkpt lat="43.75640301" lon="11.26202099"><ele>131</ele><time>2020-02-02T08:59:09Z</time></trkpt>
<trkpt lat="43.756428994" lon="11.262067007"><ele>131</ele><time>2020-02-02T08:59:10Z</time></trkpt>
<trkpt lat="43.756452966" lon="11.262107994"><ele>130</ele><time>2020-02-02T08:59:11Z</time></trkpt>
<trkpt lat="43.756476017" lon="11.262144037"><ele>130</ele><time>2020-02-02T08:59:12Z</time></trkpt>
<trkpt lat="43.756498983" lon="11.262174966"><ele>130</ele><time>2020-02-02T08:59:13Z</time></trkpt>
<trkpt lat="43.756523039" lon="11.262202961"><ele>130</ele><time>2020-02-02T08:59:14Z</time></trkpt>
<trkpt lat="43.756548017" lon="11.262228023"><ele>130</ele><time>2020-02-02T08:59:15Z</time></trkpt>
<trkpt lat="43.756576013" lon="11.262251996"><ele>129</ele><time>2020-02-02T08:59:16Z</time></trkpt>
<trkpt lat="43.756605014" lon="11.26227404"><ele>129</ele><time>2020-02-02T08:59:17Z</time></trkpt>
<trkpt lat="43.756635021" lon="11.262294995"><ele>129</ele><time>2020-02-02T08:59:18Z</time></trkpt>
<trkpt lat="43.756666034" lon="11.262317039"><ele>129</ele><time>2020-02-02T08:59:19Z</time></trkpt>
<trkpt lat="43.756696964" lon="11.262340005"><ele>129</ele><time>2020-02-02T08:59:20Z</time></trkpt>
<trkpt lat="43.756727977" lon="11.262363978"><ele>129</ele><time>2020-02-02T08:59:21Z</time></trkpt>
<trkpt lat="43.756759996" lon="11.262388034"><ele>128</ele><time>2020-02-02T08:59:22Z</time></trkpt>
<trkpt lat="43.756791009" lon="11.262413012"><ele>128</ele><time>2020-02-02T08:59:23Z</time></trkpt>
<trkpt lat="43.756823028" lon="11.262436984"><ele>128</ele><time>2020-02-02T08:59:24Z</time></trkpt>
<trkpt lat="43.756854041" lon="11.262460034"><ele>128</ele><time>2020-02-02T08:59:25Z</time></trkpt>
<trkpt lat="43.756885976" lon="11.262483001"><ele>127</ele><time>2020-02-02T08:59:26Z</time></trkpt>
<trkpt lat="43.756916989" lon="11.262504961"><ele>127</ele><time>2020-02-02T08:59:27Z</time></trkpt>
<trkpt lat="43.756949008" lon="11.262524994"><ele>127</ele><time>2020-02-02T08:59:28Z</time></trkpt>
<trkpt lat="43.756980021" lon="11.262544021"><ele>127</ele><time>2020-02-02T08:59:29Z</time></trkpt>
<trkpt lat="43.757012039" lon="11.262561036"><ele>127</ele><time>2020-02-02T08:59:30Z</time></trkpt>
<trkpt lat="43.757043974" lon="11.26257604"><ele>127</ele><time>2020-02-02T08:59:31Z</time></trkpt>
<trkpt lat="43.757075993" lon="11.26259096"><ele>126</ele><time>2020-02-02T08:59:32Z</time></trkpt>
<trkpt lat="43.757108012" lon="11.262605041"><ele>126</ele><time>2020-02-02T08:59:33Z</time></trkpt>
<trkpt lat="43.757140031" lon="11.262619039"><ele>126</ele><time>2020-02-02T08:59:34Z</time></trkpt>
<trkpt lat="43.757171966" lon="11.262632031"><ele>126</ele><time>2020-02-02T08:59:35Z</time></trkpt>
<trkpt lat="43.757204991" lon="11.262646029"><ele>126</ele><time>2020-02-02T08:59:36Z</time></trkpt>
<trkpt lat="43.757238016" lon="11.262660027"><ele>126</ele><time>2020-02-02T08:59:37Z</time></trkpt>
<trkpt lat="43.757271962" lon="11.262674024"><ele>126</ele><time>2020-02-02T08:59:38Z</time></trkpt>
<trkpt lat="43.757305993" lon="11.262689028"><ele>126</ele><time>2020-02-02T08:59:39Z</time></trkpt>
<trkpt lat="43.757340023" lon="11.262704032"><ele>126</ele><time>2020-02-02T08:59:40Z</time></trkpt>
<trkpt lat="43.75737397" lon="11.262718029"><ele>126</ele><time>2020-02-02T08:59:41Z</time></trkpt>
<trkpt lat="43.757475978" lon="11.262757005"><ele>126</ele><time>2020-02-02T08:59:44Z</time></trkpt>
<trkpt lat="43.757510008" lon="11.26276698"><ele>126</ele><time>2020-02-02T08:59:45Z</time></trkpt>
<trkpt lat="43.757543033" lon="11.262776032"><ele>126</ele><time>2020-02-02T08:59:46Z</time></trkpt>
<trkpt lat="43.757575974" lon="11.262781983"><ele>126</ele><time>2020-02-02T08:59:47Z</time></trkpt>
<trkpt lat="43.757608999" lon="11.262787012"><ele>126</ele><time>2020-02-02T08:59:48Z</time></trkpt>
<trkpt lat="43.757641017" lon="11.26279003"><ele>126</ele><time>2020-02-02T08:59:49Z</time></trkpt>
<trkpt lat="43.757673036" lon="11.262792042"><ele>126</ele><time>2020-02-02T08:59:50Z</time></trkpt>
<trkpt lat="43.757764986" lon="11.262797993"><ele>125</ele><time>2020-02-02T08:59:53Z</time></trkpt>
<trkpt lat="43.757794993" lon="11.26280101"><ele>125</ele><time>2020-02-02T08:59:54Z</time></trkpt>
<trkpt lat="43.757823994" lon="11.262805033"><ele>125</ele><time>2020-02-02T08:59:55Z</time></trkpt>
<trkpt lat="43.757852996" lon="11.262809979"><ele>125</ele><time>2020-02-02T08:59:56Z</time></trkpt>
<trkpt lat="43.757880991" lon="11.26281702"><ele>125</ele><time>2020-02-02T08:59:57Z</time></trkpt>
<trkpt lat="43.757908987" lon="11.262825988"><ele>125</ele><time>2020-02-02T08:59:58Z</time></trkpt>
<trkpt lat="43.757935977" lon="11.262835041"><ele>125</ele><time>2020-02-02T08:59:59Z</time></trkpt>
<trkpt lat="43.757962966" lon="11.262847027"><ele>126</ele><time>2020-02-02T09:00:00Z</time></trkpt>
<trkpt lat="43.757989034" lon="11.262859013"><ele>126</ele><time>2020-02-02T09:00:01Z</time></trkpt>
<trkpt lat="43.758015018" lon="11.262873011"><ele>126</ele><time>2020-02-02T09:00:02Z</time></trkpt>
<trkpt lat="43.758039996" lon="11.26288902"><ele>126</ele><time>2020-02-02T09:00:03Z</time></trkpt>
<trkpt lat="43.758063968" lon="11.26290503"><ele>126</ele><time>2020-02-02T09:00:04Z</time></trkpt>
<trkpt lat="43.758088024" lon="11.262922967"><ele>126</ele><time>2020-02-02T09:00:05Z</time></trkpt>
<trkpt lat="43.758109985" lon="11.262941994"><ele>126</ele><time>2020-02-02T09:00:06Z</time></trkpt>
<trkpt lat="43.75816497" lon="11.262998991"><ele>127</ele><time>2020-02-02T09:00:09Z</time></trkpt>
<trkpt lat="43.75817704" lon="11.263018018"><ele>127</ele><time>2020-02-02T09:00:10Z</time></trkpt>
<trkpt lat="43.758186009" lon="11.263036039"><ele>127</ele><time>2020-02-02T09:00:11Z</time></trkpt>
<trkpt lat="43.758194977" lon="11.263054982"><ele>127</ele><time>2020-02-02T09:00:12Z</time></trkpt>
<trkpt lat="43.75820403" lon="11.26307602"><ele>127</ele><time>2020-02-02T09:00:13Z</time></trkpt>
<trkpt lat="43.758212999" lon="11.263098987"><ele>128</ele><time>2020-02-02T09:00:14Z</time></trkpt>
<trkpt lat="43.758223979" lon="11.263123965"><ele>128</ele><time>2020-02-02T09:00:15Z</time></trkpt>
<trkpt lat="43.758234037" lon="11.263149027"><ele>128</ele><time>2020-02-02T09:00:16Z</time></trkpt>
<trkpt lat="43.758243006" lon="11.263175011"><ele>129</ele><time>2020-02-02T09:00:17Z</time></trkpt>
<trkpt lat="43.758250969" lon="11.263199989"><ele>129</ele><time>2020-02-02T09:00:18Z</time></trkpt>
<trkpt lat="43.758257004" lon="11.263224967"><ele>129</ele><time>2020-02-02T09:00:19Z</time></trkpt>
<trkpt lat="43.758262033" lon="11.263249023"><ele>129</ele><time>2020-02-02T09:00:20Z</time></trkpt>
<trkpt lat="43.758264966" lon="11.263272995"><ele>130</ele><time>2020-02-02T09:00:21Z</time></trkpt>
<trkpt lat="43.758266978" lon="11.26329504"><ele>130</ele><time>2020-02-02T09:00:22Z</time></trkpt>
<trkpt lat="43.758267984" lon="11.263318006"><ele>130</ele><time>2020-02-02T09:00:23Z</time></trkpt>
<trkpt lat="43.758266978" lon="11.263339967"><ele>130</ele><time>2020-02-02T09:00:24Z</time></trkpt>
<trkpt lat="43.758264966" lon="11.263361005"><ele>130</ele><time>2020-02-02T09:00:25Z</time></trkpt>
<trkpt lat="43.758262033" lon="11.263383972"><ele>131</ele><time>2020-02-02T09:00:26Z</time></trkpt>
<trkpt lat="43.758258009" lon="11.263406016"><ele>131</ele><time>2020-02-02T09:00:27Z</time></trkpt>
<trkpt lat="43.75825298" lon="11.263428982"><ele>131</ele><time>2020-02-02T09:00:28Z</time></trkpt>
<trkpt lat="43.758248035" lon="11.263453038"><ele>131</ele><time>2020-02-02T09:00:29Z</time></trkpt>
<trkpt lat="43.758240994" lon="11.263478016"><ele>131</ele><time>2020-02-02T09:00:30Z</time></trkpt>
<trkpt lat="43.758234037" lon="11.263504"><ele>131</ele><time>2020-02-02T09:00:31Z</time></trkpt>
<trkpt lat="43.758226996" lon="11.263531996"><ele>131</ele><time>2020-02-02T09:00:32Z</time></trkpt>
<trkpt lat="43.758219033" lon="11.263559991"><ele>131</ele><time>2020-02-02T09:00:33Z</time></trkpt>
<trkpt lat="43.758209981" lon="11.263589999"><ele>132</ele><time>2020-02-02T09:00:34Z</time></trkpt>
<trkpt lat="43.758200007" lon="11.263620006"><ele>132</ele><time>2020-02-02T09:00:35Z</time></trkpt>
<trkpt lat="43.758190032" lon="11.263651019"><ele>132</ele><time>2020-02-02T09:00:36Z</time></trkpt>
<trkpt lat="43.758179974" lon="11.263683038"><ele>132</ele><time>2020-02-02T09:00:37Z</time></trkpt>
<trkpt lat="43.758168994" lon="11.263715979"><ele>132</ele><time>2020-02-02T09:00:38Z</time></trkpt>
<trkpt lat="43.758157007" lon="11.263749003"><ele>132</ele><time>2020-02-02T09:00:39Z</time></trkpt>
<trkpt lat="43.758145021" lon="11.263783034"><ele>132</ele><time>2020-02-02T09:00:40Z</time></trkpt>
<trkpt lat="43.758132029" lon="11.263816981"><ele>132</ele><time>2020-02-02T09:00:41Z</time></trkpt>
<trkpt lat="43.758119037" lon="11.263851011"><ele>132</ele><time>2020-02-02T09:00:42Z</time></trkpt>
<trkpt lat="43.758105962" lon="11.263885964"><ele>132</ele><time>2020-02-02T09:00:43Z</time></trkpt>
<trkpt lat="43.758091964" lon="11.263921"><ele>132</ele><time>2020-02-02T09:00:44Z</time></trkpt>
<trkpt lat="43.758077966" lon="11.263956036"><ele>132</ele><time>2020-02-02T09:00:45Z</time></trkpt>
<trkpt lat="43.758063968" lon="11.263990989"><ele>132</ele><time>2020-02-02T09:00:46Z</time></trkpt>
<trkpt lat="43.758048965" lon="11.264026025"><ele>132</ele><time>2020-02-02T09:00:47Z</time></trkpt>
<trkpt lat="43.758033961" lon="11.264061984"><ele>132</ele><time>2020-02-02T09:00:48Z</time></trkpt>
<trkpt lat="43.757989034" lon="11.264167009"><ele>132</ele><time>2020-02-02T09:00:51Z</time></trkpt>
<trkpt lat="43.757973025" lon="11.264201961"><ele>132</ele><time>2020-02-02T09:00:52Z</time></trkpt>
<trkpt lat="43.757958021" lon="11.264236998"><ele>132</ele><time>2020-02-02T09:00:53Z</time></trkpt>
<trkpt lat="43.757943017" lon="11.264271028"><ele>132</ele><time>2020-02-02T09:00:54Z</time></trkpt>
<trkpt lat="43.757927008" lon="11.264305981"><ele>132</ele><time>2020-02-02T09:00:55Z</time></trkpt>
<trkpt lat="43.757912004" lon="11.264339006"><ele>132</ele><time>2020-02-02T09:00:56Z</time></trkpt>
<trkpt lat="43.757897001" lon="11.264373036"><ele>131</ele><time>2020-02-02T09:00:57Z</time></trkpt>
<trkpt lat="43.757881997" lon="11.264404971"><ele>131</ele><time>2020-02-02T09:00:58Z</time></trkpt>
<trkpt lat="43.757866994" lon="11.264437996"><ele>131</ele><time>2020-02-02T09:00:59Z</time></trkpt>
<trkpt lat="43.757850984" lon="11.264471021"><ele>131</ele><time>2020-02-02T09:01:00Z</time></trkpt>
<trkpt lat="43.757834975" lon="11.264503039"><ele>131</ele><time>2020-02-02T09:01:01Z</time></trkpt>
<trkpt lat="43.757818965" lon="11.264534974"><ele>131</ele><time>2020-02-02T09:01:02Z</time></trkpt>
<trkpt lat="43.757801028" lon="11.264566993"><ele>131</ele><time>2020-02-02T09:01:03Z</time></trkpt>
<trkpt lat="43.757783007" lon="11.264599012"><ele>131</ele><time>2020-02-02T09:01:04Z</time></trkpt>
<trkpt lat="43.757762974" lon="11.264632037"><ele>131</ele><time>2020-02-02T09:01:05Z</time></trkpt>
<trkpt lat="43.757742019" lon="11.264663972"><ele>130</ele><time>2020-02-02T09:01:06Z</time></trkpt>
<trkpt lat="43.757719975" lon="11.264696997"><ele>130</ele><time>2020-02-02T09:01:07Z</time></trkpt>
<trkpt lat="43.757698014" lon="11.264731027"><ele>130</ele><time>2020-02-02T09:01:08Z</time></trkpt>
<trkpt lat="43.757674964" lon="11.264764974"><ele>130</ele><time>2020-02-02T09:01:09Z</time></trkpt>
<trkpt lat="43.757651998" lon="11.26480001"><ele>130</ele><time>2020-02-02T09:01:10Z</time></trkpt>
<trkpt lat="43.757630037" lon="11.264835969"><ele>130</ele><time>2020-02-02T09:01:11Z</time></trkpt>
<trkpt lat="43.757607993" lon="11.264874022"><ele>130</ele><time>2020-02-02T09:01:12Z</time></trkpt>
<trkpt lat="43.757587038" lon="11.264911992"><ele>130</ele><time>2020-02-02T09:01:13Z</time></trkpt>
<trkpt lat="43.757567005" lon="11.264951974"><ele>130</ele><time>2020-02-02T09:01:14Z</time></trkpt>
<trkpt lat="43.757548984" lon="11.264993967"><ele>130</ele><time>2020-02-02T09:01:15Z</time></trkpt>
<trkpt lat="43.757532975" lon="11.265036967"><ele>129</ele><time>2020-02-02T09:01:16Z</time></trkpt>
<trkpt lat="43.757517971" lon="11.265080972"><ele>129</ele><time>2020-02-02T09:01:17Z</time></trkpt>
<trkpt lat="43.757505985" lon="11.265124977"><ele>129</ele><time>2020-02-02T09:01:18Z</time></trkpt>
<trkpt lat="43.757496011" lon="11.265168982"><ele>128</ele><time>2020-02-02T09:01:19Z</time></trkpt>
<trkpt lat="43.75748897" lon="11.265212987"><ele>128</ele><time>2020-02-02T09:01:20Z</time></trkpt>
<trkpt lat="43.757484024" lon="11.26525498"><ele>127</ele><time>2020-02-02T09:01:21Z</time></trkpt>
<trkpt lat="43.757481007" lon="11.265295967"><ele>127</ele><time>2020-02-02T09:01:22Z</time></trkpt>
<trkpt lat="43.757482013" lon="11.265336033"><ele>127</ele><time>2020-02-02T09:01:23Z</time></trkpt>
<trkpt lat="43.757486036" lon="11.265372997"><ele>127</ele><time>2020-02-02T09:01:24Z</time></trkpt>
<trkpt lat="43.757491987" lon="11.265408034"><ele>127</ele><time>2020-02-02T09:01:25Z</time></trkpt>
<trkpt lat="43.757501962" lon="11.265440974"><ele>127</ele><time>2020-02-02T09:01:26Z</time></trkpt>
<trkpt lat="43.757514032" lon="11.265471987"><ele>127</ele><time>2020-02-02T09:01:27Z</time></trkpt>
<trkpt lat="43.757528029" lon="11.265499983"><ele>127</ele><time>2020-02-02T09:01:28Z</time></trkpt>
<trkpt lat="43.757544961" lon="11.265525967"><ele>127</ele><time>2020-02-02T09:01:29Z</time></trkpt>
<trkpt lat="43.757562982" lon="11.265549017"><ele>127</ele><time>2020-02-02T09:01:30Z</time></trkpt>
<trkpt lat="43.75758402" lon="11.265570978"><ele>127</ele><time>2020-02-02T09:01:31Z</time></trkpt>
<trkpt lat="43.757605981" lon="11.265588999"><ele>127</ele><time>2020-02-02T09:01:32Z</time></trkpt>
<trkpt lat="43.757629031" lon="11.265606014"><ele>128</ele><time>2020-02-02T09:01:33Z</time></trkpt>
<trkpt lat="43.757653004" lon="11.265621018"><ele>128</ele><time>2020-02-02T09:01:34Z</time></trkpt>
<trkpt lat="43.757677982" lon="11.26563401"><ele>128</ele><time>2020-02-02T09:01:35Z</time></trkpt>
<trkpt lat="43.757702038" lon="11.265645996"><ele>128</ele><time>2020-02-02T09:01:36Z</time></trkpt>
<trkpt lat="43.757727016" lon="11.265656976"><ele>129</ele><time>2020-02-02T09:01:37Z</time></trkpt>
<trkpt lat="43.757749982" lon="11.26566804"><ele>129</ele><time>2020-02-02T09:01:38Z</time></trkpt>
<trkpt lat="43.757773032" lon="11.265678015"><ele>129</ele><time>2020-02-02T09:01:39Z</time></trkpt>
<trkpt lat="43.757793987" lon="11.265687989"><ele>129</ele><time>2020-02-02T09:01:40Z</time></trkpt>
<trkpt lat="43.75781402" lon="11.265697964"><ele>129</ele><time>2020-02-02T09:01:41Z</time></trkpt>
<trkpt lat="43.757832963" lon="11.265709028"><ele>130</ele><time>2020-02-02T09:01:42Z</time></trkpt>
<trkpt lat="43.757852996" lon="11.265720008"><ele>130</ele><time>2020-02-02T09:01:43Z</time></trkpt>
<trkpt lat="43.75787504" lon="11.265733"><ele>130</ele><time>2020-02-02T09:01:44Z</time></trkpt>
<trkpt lat="43.757899012" lon="11.265745992"><ele>130</ele><time>2020-02-02T09:01:45Z</time></trkpt>
<trkpt lat="43.757928014" lon="11.265760995"><ele>131</ele><time>2020-02-02T09:01:46Z</time></trkpt>
<trkpt lat="43.757959027" lon="11.265777005"><ele>131</ele><time>2020-02-02T09:01:47Z</time></trkpt>
<trkpt lat="43.757990962" lon="11.265791003"><ele>131</ele><time>2020-02-02T09:01:48Z</time></trkpt>
<trkpt lat="43.758019963" lon="11.265803995"><ele>131</ele><time>2020-02-02T09:01:49Z</time></trkpt>
<trkpt lat="43.758047037" lon="11.265814975"><ele>132</ele><time>2020-02-02T09:01:50Z</time></trkpt>
<trkpt lat="43.758070003" lon="11.265824027"><ele>132</ele><time>2020-02-02T09:01:51Z</time></trkpt>
<trkpt lat="43.758091964" lon="11.26583199"><ele>132</ele><time>2020-02-02T09:01:52Z</time></trkpt>
<trkpt lat="43.758111997" lon="11.265840959"><ele>132</ele><time>2020-02-02T09:01:53Z</time></trkpt>
<trkpt lat="43.758133035" lon="11.265852023"><ele>132</ele><time>2020-02-02T09:01:54Z</time></trkpt>
<trkpt lat="43.75815399" lon="11.265865015"><ele>132</ele><time>2020-02-02T09:01:55Z</time></trkpt>
<trkpt lat="43.758176034" lon="11.265881024"><ele>133</ele><time>2020-02-02T09:01:56Z</time></trkpt>
<trkpt lat="43.758196989" lon="11.265899967"><ele>133</ele><time>2020-02-02T09:01:57Z</time></trkpt>
<trkpt lat="43.758216016" lon="11.265921006"><ele>132</ele><time>2020-02-02T09:01:58Z</time></trkpt>
<trkpt lat="43.75826899" lon="11.265999041"><ele>132</ele><time>2020-02-02T09:02:01Z</time></trkpt>
<trkpt lat="43.758286005" lon="11.266027959"><ele>132</ele><time>2020-02-02T09:02:02Z</time></trkpt>
<trkpt lat="43.758305032" lon="11.266057966"><ele>132</ele><time>2020-02-02T09:02:03Z</time></trkpt>
<trkpt lat="43.758326992" lon="11.266087973"><ele>132</ele><time>2020-02-02T09:02:04Z</time></trkpt>
<trkpt lat="43.758350965" lon="11.266115969"><ele>131</ele><time>2020-02-02T09:02:05Z</time></trkpt>
<trkpt lat="43.758378038" lon="11.266141031"><ele>131</ele><time>2020-02-02T09:02:06Z</time></trkpt>
<trkpt lat="43.758408967" lon="11.266162992"><ele>131</ele><time>2020-02-02T09:02:07Z</time></trkpt>
<trkpt lat="43.758441992" lon="11.266177995"><ele>130</ele><time>2020-02-02T09:02:08Z</time></trkpt>
<trkpt lat="43.758477028" lon="11.266188975"><ele>130</ele><time>2020-02-02T09:02:09Z</time></trkpt>
<trkpt lat="43.758512987" lon="11.266196016"><ele>130</ele><time>2020-02-02T09:02:10Z</time></trkpt>
<trkpt lat="43.758550035" lon="11.266199034"><ele>130</ele><time>2020-02-02T09:02:11Z</time></trkpt>
<trkpt lat="43.758584987" lon="11.266199034"><ele>130</ele><time>2020-02-02T09:02:12Z</time></trkpt>
<trkpt lat="43.758619018" lon="11.266198028"><ele>130</ele><time>2020-02-02T09:02:13Z</time></trkpt>
<trkpt lat="43.758651037" lon="11.266194005"><ele>130</ele><time>2020-02-02T09:02:14Z</time></trkpt>
<trkpt lat="43.758681966" lon="11.266189981"><ele>130</ele><time>2020-02-02T09:02:15Z</time></trkpt>
<trkpt lat="43.758709962" lon="11.266186042"><ele>130</ele><time>2020-02-02T09:02:16Z</time></trkpt>
<trkpt lat="43.758736029" lon="11.266182018"><ele>130</ele><time>2020-02-02T09:02:17Z</time></trkpt>
<trkpt lat="43.758762013" lon="11.266179001"><ele>130</ele><time>2020-02-02T09:02:18Z</time></trkpt>
<trkpt lat="43.758787997" lon="11.266174978"><ele>130</ele><time>2020-02-02T09:02:19Z</time></trkpt>
<trkpt lat="43.758813981" lon="11.266171038"><ele>130</ele><time>2020-02-02T09:02:20Z</time></trkpt>
<trkpt lat="43.758842982" lon="11.266167015"><ele>130</ele><time>2020-02-02T09:02:21Z</time></trkpt>
<trkpt lat="43.758875001" lon="11.26616098"><ele>130</ele><time>2020-02-02T09:02:22Z</time></trkpt>
<trkpt lat="43.758910038" lon="11.266155029"><ele>130</ele><time>2020-02-02T09:02:23Z</time></trkpt>
<trkpt lat="43.75894499" lon="11.266148994"><ele>130</ele><time>2020-02-02T09:02:24Z</time></trkpt>
<trkpt lat="43.758982038" lon="11.266143965"><ele>130</ele><time>2020-02-02T09:02:25Z</time></trkpt>
<trkpt lat="43.759017996" lon="11.266138013"><ele>131</ele><time>2020-02-02T09:02:26Z</time></trkpt>
<trkpt lat="43.759054961" lon="11.26613399"><ele>131</ele><time>2020-02-02T09:02:27Z</time></trkpt>
<trkpt lat="43.759089997" lon="11.266129967"><ele>131</ele><time>2020-02-02T09:02:28Z</time></trkpt>
<trkpt lat="43.759126039" lon="11.266126027"><ele>131</ele><time>2020-02-02T09:02:29Z</time></trkpt>
<trkpt lat="43.759160992" lon="11.26612301"><ele>131</ele><time>2020-02-02T09:02:30Z</time></trkpt>
<trkpt lat="43.759195022" lon="11.266119992"><ele>131</ele><time>2020-02-02T09:02:31Z</time></trkpt>
<trkpt lat="43.759227963" lon="11.266116975"><ele>131</ele><time>2020-02-02T09:02:32Z</time></trkpt>
<trkpt lat="43.759259982" lon="11.266113035"><ele>131</ele><time>2020-02-02T09:02:33Z</time></trkpt>
<trkpt lat="43.759289989" lon="11.266110018"><ele>131</ele><time>2020-02-02T09:02:34Z</time></trkpt>
<trkpt lat="43.759319996" lon="11.266107"><ele>131</ele><time>2020-02-02T09:02:35Z</time></trkpt>
<trkpt lat="43.759348998" lon="11.266103983"><ele>131</ele><time>2020-02-02T09:02:36Z</time></trkpt>
<trkpt lat="43.759375988" lon="11.266100965"><ele>130</ele><time>2020-02-02T09:02:37Z</time></trkpt>
<trkpt lat="43.759403983" lon="11.26609996"><ele>130</ele><time>2020-02-02T09:02:38Z</time></trkpt>
<trkpt lat="43.759430973" lon="11.26609996"><ele>130</ele><time>2020-02-02T09:02:39Z</time></trkpt>
<trkpt lat="43.759485036" lon="11.266107"><ele>130</ele><time>2020-02-02T09:02:41Z</time></trkpt>
<trkpt lat="43.759513032" lon="11.266114963"><ele>130</ele><time>2020-02-02T09:02:42Z</time></trkpt>
<trkpt lat="43.759542033" lon="11.266126027"><ele>130</ele><time>2020-02-02T09:02:43Z</time></trkpt>
<trkpt lat="43.759631971" lon="11.266175983"><ele>129</ele><time>2020-02-02T09:02:46Z</time></trkpt>
<trkpt lat="43.759662984" lon="11.266197022"><ele>129</ele><time>2020-02-02T09:02:47Z</time></trkpt>
<trkpt lat="43.759693997" lon="11.266220994"><ele>129</ele><time>2020-02-02T09:02:48Z</time></trkpt>
<trkpt lat="43.75972501" lon="11.266245972"><ele>129</ele><time>2020-02-02T09:02:49Z</time></trkpt>
<trkpt lat="43.759757029" lon="11.26627204"><ele>129</ele><time>2020-02-02T09:02:50Z</time></trkpt>
<trkpt lat="43.759787958" lon="11.26629903"><ele>128</ele><time>2020-02-02T09:02:51Z</time></trkpt>
<trkpt lat="43.759819977" lon="11.26632602"><ele>128</ele><time>2020-02-02T09:02:52Z</time></trkpt>
<trkpt lat="43.75985099" lon="11.266354015"><ele>128</ele><time>2020-02-02T09:02:53Z</time></trkpt>
<trkpt lat="43.759882003" lon="11.266383016"><ele>128</ele><time>2020-02-02T09:02:54Z</time></trkpt>
<trkpt lat="43.75991201" lon="11.266410006"><ele>128</ele><time>2020-02-02T09:02:55Z</time></trkpt>
<trkpt lat="43.759942017" lon="11.266438002"><ele>127</ele><time>2020-02-02T09:02:56Z</time></trkpt>
<trkpt lat="43.759972025" lon="11.266463986"><ele>127</ele><time>2020-02-02T09:02:57Z</time></trkpt>
<trkpt lat="43.76000002" lon="11.26648997"><ele>127</ele><time>2020-02-02T09:02:58Z</time></trkpt>
<trkpt lat="43.760028016" lon="11.266514026"><ele>127</ele><time>2020-02-02T09:02:59Z</time></trkpt>
<trkpt lat="43.760055006" lon="11.266535986"><ele>126</ele><time>2020-02-02T09:03:00Z</time></trkpt>
<trkpt lat="43.760080989" lon="11.266556019"><ele>126</ele><time>2020-02-02T09:03:01Z</time></trkpt>
<trkpt lat="43.760106973" lon="11.266574962"><ele>125</ele><time>2020-02-02T09:03:02Z</time></trkpt>
<trkpt lat="43.760132035" lon="11.266593989"><ele>125</ele><time>2020-02-02T09:03:03Z</time></trkpt>
<trkpt lat="43.760157013" lon="11.266614022"><ele>125</ele><time>2020-02-02T09:03:04Z</time></trkpt>
<trkpt lat="43.760182997" lon="11.266634976"><ele>124</ele><time>2020-02-02T09:03:05Z</time></trkpt>
<trkpt lat="43.760208981" lon="11.266658027"><ele>124</ele><time>2020-02-02T09:03:06Z</time></trkpt>
<trkpt lat="43.760234965" lon="11.266685016"><ele>123</ele><time>2020-02-02T09:03:07Z</time></trkpt>
<trkpt lat="43.760257009" lon="11.266714018"><ele>123</ele><time>2020-02-02T09:03:08Z</time></trkpt>
<trkpt lat="43.760275031" lon="11.266747965"><ele>122</ele><time>2020-02-02T09:03:09Z</time></trkpt>
<trkpt lat="43.760287017" lon="11.266785013"><ele>122</ele><time>2020-02-02T09:03:10Z</time></trkpt>
<trkpt lat="43.760292968" lon="11.266826"><ele>122</ele><time>2020-02-02T09:03:11Z</time></trkpt>
<trkpt lat="43.760292968" lon="11.266868999"><ele>121</ele><time>2020-02-02T09:03:12Z</time></trkpt>
<trkpt lat="43.760290034" lon="11.26691401"><ele>121</ele><time>2020-02-02T09:03:13Z</time></trkpt>
<trkpt lat="43.760283999" lon="11.266960027"><ele>121</ele><time>2020-02-02T09:03:14Z</time></trkpt>
<trkpt lat="43.760252986" lon="11.267092964"><ele>120</ele><time>2020-02-02T09:03:17Z</time></trkpt>
<trkpt lat="43.760242006" lon="11.267134035"><ele>120</ele><time>2020-02-02T09:03:18Z</time></trkpt>
<trkpt lat="43.760231026" lon="11.267173011"><ele>120</ele><time>2020-02-02T09:03:19Z</time></trkpt>
<trkpt lat="43.760219961" lon="11.267211987"><ele>120</ele><time>2020-02-02T09:03:20Z</time></trkpt>
<trkpt lat="43.760209987" lon="11.267250963"><ele>120</ele><time>2020-02-02T09:03:21Z</time></trkpt>
<trkpt lat="43.760201018" lon="11.267291028"><ele>119</ele><time>2020-02-02T09:03:22Z</time></trkpt>
<trkpt lat="43.760192972" lon="11.267333021"><ele>119</ele><time>2020-02-02T09:03:23Z</time></trkpt>
<trkpt lat="43.760187021" lon="11.267378032"><ele>119</ele><time>2020-02-02T09:03:24Z</time></trkpt>
<trkpt lat="43.760180986" lon="11.267426983"><ele>119</ele><time>2020-02-02T09:03:25Z</time></trkpt>
<trkpt lat="43.760176962" lon="11.267481968"><ele>118</ele><time>2020-02-02T09:03:26Z</time></trkpt>
<trkpt lat="43.760175034" lon="11.267540976"><ele>118</ele><time>2020-02-02T09:03:27Z</time></trkpt>
<trkpt lat="43.760174029" lon="11.267603002"><ele>118</ele><time>2020-02-02T09:03:28Z</time></trkpt>
<trkpt lat="43.760175034" lon="11.267663017"><ele>118</ele><time>2020-02-02T09:03:29Z</time></trkpt>
<trkpt lat="43.760176962" lon="11.267719008"><ele>118</ele><time>2020-02-02T09:03:30Z</time></trkpt>
<trkpt lat="43.760178974" lon="11.267767036"><ele>117</ele><time>2020-02-02T09:03:31Z</time></trkpt>
<trkpt lat="43.760182997" lon="11.267802995"><ele>117</ele><time>2020-02-02T09:03:32Z</time></trkpt>
<trkpt lat="43.760188026" lon="11.26783099"><ele>117</ele><time>2020-02-02T09:03:33Z</time></trkpt>
<trkpt lat="43.760195989" lon="11.267853035"><ele>117</ele><time>2020-02-02T09:03:34Z</time></trkpt>
<trkpt lat="43.760208981" lon="11.267870972"><ele>117</ele><time>2020-02-02T09:03:35Z</time></trkpt>
<trkpt lat="43.760276036" lon="11.267919"><ele>116</ele><time>2020-02-02T09:03:38Z</time></trkpt>
<trkpt lat="43.76030202" lon="11.267936016"><ele>116</ele><time>2020-02-02T09:03:39Z</time></trkpt>
<trkpt lat="43.76032901" lon="11.267953031"><ele>116</ele><time>2020-02-02T09:03:40Z</time></trkpt>
<trkpt lat="43.760354994" lon="11.267970968"><ele>115</ele><time>2020-02-02T09:03:41Z</time></trkpt>
<trkpt lat="43.760378966" lon="11.267989995"><ele>115</ele><time>2020-02-02T09:03:42Z</time></trkpt>
<trkpt lat="43.760404028" lon="11.268009022"><ele>115</ele><time>2020-02-02T09:03:43Z</time></trkpt>
<trkpt lat="43.760429006" lon="11.268027965"><ele>114</ele><time>2020-02-02T09:03:44Z</time></trkpt>
<trkpt lat="43.760455996" lon="11.268047998"><ele>114</ele><time>2020-02-02T09:03:45Z</time></trkpt>
<trkpt lat="43.760483991" lon="11.268067025"><ele>114</ele><time>2020-02-02T09:03:46Z</time></trkpt>
<trkpt lat="43.760511987" lon="11.268086974"><ele>114</ele><time>2020-02-02T09:03:47Z</time></trkpt>
<trkpt lat="43.760539982" lon="11.268107006"><ele>113</ele><time>2020-02-02T09:03:48Z</time></trkpt>
<trkpt lat="43.760568984" lon="11.268127039"><ele>113</ele><time>2020-02-02T09:03:49Z</time></trkpt>
<trkpt lat="43.760622041" lon="11.268169032"><ele>113</ele><time>2020-02-02T09:03:51Z</time></trkpt>
<trkpt lat="43.760647019" lon="11.268190993"><ele>113</ele><time>2020-02-02T09:03:52Z</time></trkpt>
<trkpt lat="43.760670992" lon="11.268213959"><ele>112</ele><time>2020-02-02T09:03:53Z</time></trkpt>
<trkpt lat="43.760693036" lon="11.268238015"><ele>112</ele><time>2020-02-02T09:03:54Z</time></trkpt>
<trkpt lat="43.760716002" lon="11.268262994"><ele>112</ele><time>2020-02-02T09:03:55Z</time></trkpt>
<trkpt lat="43.760738969" lon="11.268288977"><ele>112</ele><time>2020-02-02T09:03:56Z</time></trkpt>
<trkpt lat="43.760765037" lon="11.268314961"><ele>112</ele><time>2020-02-02T09:03:57Z</time></trkpt>
<trkpt lat="43.760793032" lon="11.268343041"><ele>111</ele><time>2020-02-02T09:03:58Z</time></trkpt>
<trkpt lat="43.760823961" lon="11.268371958"><ele>111</ele><time>2020-02-02T09:03:59Z</time></trkpt>
<trkpt lat="43.760856986" lon="11.268402971"><ele>110</ele><time>2020-02-02T09:04:00Z</time></trkpt>
<trkpt lat="43.760891017" lon="11.268433984"><ele>110</ele><time>2020-02-02T09:04:01Z</time></trkpt>
<trkpt lat="43.760924963" lon="11.268467009"><ele>109</ele><time>2020-02-02T09:04:02Z</time></trkpt>
<trkpt lat="43.761026971" lon="11.268577985"><ele>106</ele><time>2020-02-02T09:04:05Z</time></trkpt>
<trkpt lat="43.761059996" lon="11.268618973"><ele>106</ele><time>2020-02-02T09:04:06Z</time></trkpt>
<trkpt lat="43.76109302" lon="11.268662978"><ele>105</ele><time>2020-02-02T09:04:07Z</time></trkpt>
<trkpt lat="43.761124033" lon="11.268707989"><ele>104</ele><time>2020-02-02T09:04:08Z</time></trkpt>
<trkpt lat="43.761151023" lon="11.268754005"><ele>104</ele><time>2020-02-02T09:04:09Z</time></trkpt>
<trkpt lat="43.761174995" lon="11.268800022"><ele>103</ele><time>2020-02-02T09:04:10Z</time></trkpt>
<trkpt lat="43.761216989" lon="11.268933965"><ele>102</ele><time>2020-02-02T09:04:13Z</time></trkpt>
<trkpt lat="43.761223024" lon="11.26897797"><ele>102</ele><time>2020-02-02T09:04:14Z</time></trkpt>
<trkpt lat="43.761225035" lon="11.269020969"><ele>102</ele><time>2020-02-02T09:04:15Z</time></trkpt>
<trkpt lat="43.76122403" lon="11.269063968"><ele>102</ele><time>2020-02-02T09:04:16Z</time></trkpt>
<trkpt lat="43.761221012" lon="11.269106967"><ele>102</ele><time>2020-02-02T09:04:17Z</time></trkpt>
<trkpt lat="43.761215983" lon="11.269149967"><ele>102</ele><time>2020-02-02T09:04:18Z</time></trkpt>
<trkpt lat="43.761210032" lon="11.269192966"><ele>102</ele><time>2020-02-02T09:04:19Z</time></trkpt>
<trkpt lat="43.761201985" lon="11.269236971"><ele>102</ele><time>2020-02-02T09:04:20Z</time></trkpt>
<trkpt lat="43.761194022" lon="11.26927997"><ele>102</ele><time>2020-02-02T09:04:21Z</time></trkpt>
<trkpt lat="43.76118497" lon="11.269323975"><ele>102</ele><time>2020-02-02T09:04:22Z</time></trkpt>
<trkpt lat="43.761176001" lon="11.26936798"><ele>101</ele><time>2020-02-02T09:04:23Z</time></trkpt>
<trkpt lat="43.761166027" lon="11.269410979"><ele>101</ele><time>2020-02-02T09:04:24Z</time></trkpt>
<trkpt lat="43.761156974" lon="11.269453978"><ele>101</ele><time>2020-02-02T09:04:25Z</time></trkpt>
<trkpt lat="43.761148006" lon="11.269496977"><ele>101</ele><time>2020-02-02T09:04:26Z</time></trkpt>
<trkpt lat="43.761139959" lon="11.269538971"><ele>101</ele><time>2020-02-02T09:04:27Z</time></trkpt>
<trkpt lat="43.761131996" lon="11.269580964"><ele>101</ele><time>2020-02-02T09:04:28Z</time></trkpt>
<trkpt lat="43.761124033" lon="11.269622035"><ele>101</ele><time>2020-02-02T09:04:29Z</time></trkpt>
<trkpt lat="43.761116993" lon="11.269662017"><ele>100</ele><time>2020-02-02T09:04:30Z</time></trkpt>
<trkpt lat="43.76110903" lon="11.269700993"><ele>100</ele><time>2020-02-02T09:04:31Z</time></trkpt>
<trkpt lat="43.761099977" lon="11.269739969"><ele>100</ele><time>2020-02-02T09:04:32Z</time></trkpt>
<trkpt lat="43.761090003" lon="11.269777017"><ele>100</ele><time>2020-02-02T09:04:33Z</time></trkpt>
<trkpt lat="43.761078017" lon="11.269812975"><ele>100</ele><time>2020-02-02T09:04:34Z</time></trkpt>
<trkpt lat="43.761065025" lon="11.269848011"><ele>100</ele><time>2020-02-02T09:04:35Z</time></trkpt>
<trkpt lat="43.761049015" lon="11.269881036"><ele>100</ele><time>2020-02-02T09:04:36Z</time></trkpt>
<trkpt lat="43.761029989" lon="11.269913977"><ele>100</ele><time>2020-02-02T09:04:37Z</time></trkpt>
<trkpt lat="43.761009034" lon="11.26994499"><ele>100</ele><time>2020-02-02T09:04:38Z</time></trkpt>
<trkpt lat="43.760985984" lon="11.269973991"><ele>100</ele><time>2020-02-02T09:04:39Z</time></trkpt>
<trkpt lat="43.760961005" lon="11.270002993"><ele>100</ele><time>2020-02-02T09:04:40Z</time></trkpt>
<trkpt lat="43.760935022" lon="11.270030988"><ele>99</ele><time>2020-02-02T09:04:41Z</time></trkpt>
<trkpt lat="43.760908032" lon="11.270058984"><ele>99</ele><time>2020-02-02T09:04:42Z</time></trkpt>
<trkpt lat="43.760880036" lon="11.270084968"><ele>99</ele><time>2020-02-02T09:04:43Z</time></trkpt>
<trkpt lat="43.760851035" lon="11.270109024"><ele>99</ele><time>2020-02-02T09:04:44Z</time></trkpt>
<trkpt lat="43.760755984" lon="11.270169038"><ele>97</ele><time>2020-02-02T09:04:47Z</time></trkpt>
<trkpt lat="43.760722959" lon="11.270183958"><ele>97</ele><time>2020-02-02T09:04:48Z</time></trkpt>
<trkpt lat="43.760688007" lon="11.270196028"><ele>96</ele><time>2020-02-02T09:04:49Z</time></trkpt>
<trkpt lat="43.760651965" lon="11.270206003"><ele>96</ele><time>2020-02-02T09:04:50Z</time></trkpt>
<trkpt lat="43.760615001" lon="11.270214971"><ele>95</ele><time>2020-02-02T09:04:51Z</time></trkpt>
<trkpt lat="43.760578036" lon="11.270221006"><ele>95</ele><time>2020-02-02T09:04:52Z</time></trkpt>
<trkpt lat="43.760540988" lon="11.270225029"><ele>94</ele><time>2020-02-02T09:04:53Z</time></trkpt>
<trkpt lat="43.760503018" lon="11.270227963"><ele>94</ele><time>2020-02-02T09:04:54Z</time></trkpt>
<trkpt lat="43.760463959" lon="11.270228969"><ele>94</ele><time>2020-02-02T09:04:55Z</time></trkpt>
<trkpt lat="43.760424983" lon="11.270227963"><ele>93</ele><time>2020-02-02T09:04:56Z</time></trkpt>
<trkpt lat="43.760387013" lon="11.270225029"><ele>93</ele><time>2020-02-02T09:04:57Z</time></trkpt>
<trkpt lat="43.760348959" lon="11.270221006"><ele>93</ele><time>2020-02-02T09:04:58Z</time></trkpt>
<trkpt lat="43.760311995" lon="11.270214971"><ele>93</ele><time>2020-02-02T09:04:59Z</time></trkpt>
<trkpt lat="43.760276036" lon="11.270207008"><ele>93</ele><time>2020-02-02T09:05:00Z</time></trkpt>
<trkpt lat="43.760241" lon="11.270197034"><ele>93</ele><time>2020-02-02T09:05:01Z</time></trkpt>
<trkpt lat="43.760207975" lon="11.270184964"><ele>93</ele><time>2020-02-02T09:05:02Z</time></trkpt>
<trkpt lat="43.760176962" lon="11.270171972"><ele>93</ele><time>2020-02-02T09:05:03Z</time></trkpt>
<trkpt lat="43.760146033" lon="11.270155963"><ele>93</ele><time>2020-02-02T09:05:04Z</time></trkpt>
<trkpt lat="43.760116026" lon="11.270139031"><ele>93</ele><time>2020-02-02T09:05:05Z</time></trkpt>
<trkpt lat="43.760085013" lon="11.27012101"><ele>94</ele><time>2020-02-02T09:05:06Z</time></trkpt>
<trkpt lat="43.760052994" lon="11.270100977"><ele>94</ele><time>2020-02-02T09:05:07Z</time></trkpt>
<trkpt lat="43.760018963" lon="11.270080023"><ele>94</ele><time>2020-02-02T09:05:08Z</time></trkpt>
<trkpt lat="43.759984011" lon="11.270058984"><ele>94</ele><time>2020-02-02T09:05:09Z</time></trkpt>
<trkpt lat="43.759948974" lon="11.270037023"><ele>94</ele><time>2020-02-02T09:05:10Z</time></trkpt>
<trkpt lat="43.759914022" lon="11.270014979"><ele>94</ele><time>2020-02-02T09:05:11Z</time></trkpt>
<trkpt lat="43.759879991" lon="11.269993018"><ele>94</ele><time>2020-02-02T09:05:12Z</time></trkpt>
<trkpt lat="43.759846967" lon="11.26997198"><ele>94</ele><time>2020-02-02T09:05:13Z</time></trkpt>
<trkpt lat="43.759815032" lon="11.269951025"><ele>93</ele><time>2020-02-02T09:05:14Z</time></trkpt>
<trkpt lat="43.759785024" lon="11.269929986"><ele>93</ele><time>2020-02-02T09:05:15Z</time></trkpt>
<trkpt lat="43.759755017" lon="11.269909032"><ele>93</ele><time>2020-02-02T09:05:16Z</time></trkpt>
<trkpt lat="43.75972501" lon="11.269887993"><ele>93</ele><time>2020-02-02T09:05:17Z</time></trkpt>
<trkpt lat="43.759696009" lon="11.269867038"><ele>92</ele><time>2020-02-02T09:05:18Z</time></trkpt>
<trkpt lat="43.759666001" lon="11.269844994"><ele>92</ele><time>2020-02-02T09:05:19Z</time></trkpt>
<trkpt lat="43.759637" lon="11.269823033"><ele>92</ele><time>2020-02-02T09:05:20Z</time></trkpt>
<trkpt lat="43.759547984" lon="11.269752961"><ele>91</ele><time>2020-02-02T09:05:23Z</time></trkpt>
<trkpt lat="43.759517977" lon="11.269728988"><ele>91</ele><time>2020-02-02T09:05:24Z</time></trkpt>
<trkpt lat="43.75948797" lon="11.269705016"><ele>91</ele><time>2020-02-02T09:05:25Z</time></trkpt>
<trkpt lat="43.759457963" lon="11.269680038"><ele>91</ele><time>2020-02-02T09:05:26Z</time></trkpt>
<trkpt lat="43.759428039" lon="11.269654976"><ele>91</ele><time>2020-02-02T09:05:27Z</time></trkpt>
<trkpt lat="43.759398032" lon="11.269629998"><ele>90</ele><time>2020-02-02T09:05:28Z</time></trkpt>
<trkpt lat="43.759367019" lon="11.26960502"><ele>90</ele><time>2020-02-02T09:05:29Z</time></trkpt>
<trkpt lat="43.759337012" lon="11.269579958"><ele>90</ele><time>2020-02-02T09:05:30Z</time></trkpt>
<trkpt lat="43.759307005" lon="11.26955498"><ele>90</ele><time>2020-02-02T09:05:31Z</time></trkpt>
<trkpt lat="43.759276997" lon="11.269531008"><ele>90</ele><time>2020-02-02T09:05:32Z</time></trkpt>
<trkpt lat="43.75924699" lon="11.26950603"><ele>90</ele><time>2020-02-02T09:05:33Z</time></trkpt>
<trkpt lat="43.759217989" lon="11.269481974"><ele>89</ele><time>2020-02-02T09:05:34Z</time></trkpt>
<trkpt lat="43.759187981" lon="11.269459007"><ele>89</ele><time>2020-02-02T09:05:35Z</time></trkpt>
<trkpt lat="43.75915898" lon="11.269436041"><ele>89</ele><time>2020-02-02T09:05:36Z</time></trkpt>
<trkpt lat="43.759129979" lon="11.269413996"><ele>89</ele><time>2020-02-02T09:05:37Z</time></trkpt>
<trkpt lat="43.759100977" lon="11.269393042"><ele>89</ele><time>2020-02-02T09:05:38Z</time></trkpt>
<trkpt lat="43.759072982" lon="11.269372003"><ele>89</ele><time>2020-02-02T09:05:39Z</time></trkpt>
<trkpt lat="43.75904398" lon="11.269350965"><ele>89</ele><time>2020-02-02T09:05:40Z</time></trkpt>
<trkpt lat="43.759015985" lon="11.269331016"><ele>89</ele><time>2020-02-02T09:05:41Z</time></trkpt>
<trkpt lat="43.758986983" lon="11.269309977"><ele>88</ele><time>2020-02-02T09:05:42Z</time></trkpt>
<trkpt lat="43.758957982" lon="11.269290028"><ele>88</ele><time>2020-02-02T09:05:43Z</time></trkpt>
<trkpt lat="43.758928981" lon="11.26926899"><ele>88</ele><time>2020-02-02T09:05:44Z</time></trkpt>
<trkpt lat="43.758899979" lon="11.269248035"><ele>88</ele><time>2020-02-02T09:05:45Z</time></trkpt>
<trkpt lat="43.758869972" lon="11.26922599"><ele>88</ele><time>2020-02-02T09:05:46Z</time></trkpt>
<trkpt lat="43.758839965" lon="11.269203024"><ele>88</ele><time>2020-02-02T09:05:47Z</time></trkpt>
<trkpt lat="43.758809036" lon="11.269179974"><ele>87</ele><time>2020-02-02T09:05:48Z</time></trkpt>
<trkpt lat="43.758778023" lon="11.269156002"><ele>87</ele><time>2020-02-02T09:05:49Z</time></trkpt>
<trkpt lat="43.758746004" lon="11.269131023"><ele>87</ele><time>2020-02-02T09:05:50Z</time></trkpt>
<trkpt lat="43.758713985" lon="11.269106967"><ele>87</ele><time>2020-02-02T09:05:51Z</time></trkpt>
<trkpt lat="43.758682972" lon="11.269081989"><ele>87</ele><time>2020-02-02T09:05:52Z</time></trkpt>
<trkpt lat="43.758588005" lon="11.269008983"><ele>86</ele><time>2020-02-02T09:05:55Z</time></trkpt>
<trkpt lat="43.758556992" lon="11.268985011"><ele>86</ele><time>2020-02-02T09:05:56Z</time></trkpt>
<trkpt lat="43.758526985" lon="11.26896196"><ele>86</ele><time>2020-02-02T09:05:57Z</time></trkpt>
<trkpt lat="43.758495972" lon="11.268938994"><ele>86</ele><time>2020-02-02T09:05:58Z</time></trkpt>
<trkpt lat="43.75846697" lon="11.268917033"><ele>86</ele><time>2020-02-02T09:05:59Z</time></trkpt>
<trkpt lat="43.758436963" lon="11.268893983"><ele>85</ele><time>2020-02-02T09:06:00Z</time></trkpt>
<trkpt lat="43.758407962" lon="11.268872023"><ele>85</ele><time>2020-02-02T09:06:01Z</time></trkpt>
<trkpt lat="43.75837896" lon="11.268848972"><ele>85</ele><time>2020-02-02T09:06:02Z</time></trkpt>
<trkpt lat="43.758350965" lon="11.268826006"><ele>85</ele><time>2020-02-02T09:06:03Z</time></trkpt>
<trkpt lat="43.758322969" lon="11.26880304"><ele>85</ele><time>2020-02-02T09:06:04Z</time></trkpt>
<trkpt lat="43.758295979" lon="11.268779989"><ele>85</ele><time>2020-02-02T09:06:05Z</time></trkpt>
<trkpt lat="43.75826899" lon="11.268757023"><ele>85</ele><time>2020-02-02T09:06:06Z</time></trkpt>
<trkpt lat="43.758242" lon="11.268732967"><ele>85</ele><time>2020-02-02T09:06:07Z</time></trkpt>
<trkpt lat="43.75821501" lon="11.26871"><ele>85</ele><time>2020-02-02T09:06:08Z</time></trkpt>
<trkpt lat="43.75818802" lon="11.26868804"><ele>85</ele><time>2020-02-02T09:06:09Z</time></trkpt>
<trkpt lat="43.758161031" lon="11.268665995"><ele>85</ele><time>2020-02-02T09:06:10Z</time></trkpt>
<trkpt lat="43.758133035" lon="11.268645041"><ele>85</ele><time>2020-02-02T09:06:11Z</time></trkpt>
<trkpt lat="43.75810504" lon="11.268624002"><ele>85</ele><time>2020-02-02T09:06:12Z</time></trkpt>
<trkpt lat="43.758076038" lon="11.268605981"><ele>85</ele><time>2020-02-02T09:06:13Z</time></trkpt>
<trkpt lat="43.758047037" lon="11.26858796"><ele>85</ele><time>2020-02-02T09:06:14Z</time></trkpt>
<trkpt lat="43.75801703" lon="11.268571028"><ele>85</ele><time>2020-02-02T09:06:15Z</time></trkpt>
<trkpt lat="43.757987022" lon="11.268554013"><ele>85</ele><time>2020-02-02T09:06:16Z</time></trkpt>
<trkpt lat="43.757957015" lon="11.268538004"><ele>85</ele><time>2020-02-02T09:06:17Z</time></trkpt>
<trkpt lat="43.757927008" lon="11.268521994"><ele>85</ele><time>2020-02-02T09:06:18Z</time></trkpt>
<trkpt lat="43.757897001" lon="11.268505985"><ele>85</ele><time>2020-02-02T09:06:19Z</time></trkpt>
<trkpt lat="43.757867999" lon="11.26848897"><ele>85</ele><time>2020-02-02T09:06:20Z</time></trkpt>
<trkpt lat="43.757838998" lon="11.268472038"><ele>85</ele><time>2020-02-02T09:06:21Z</time></trkpt>
<trkpt lat="43.757809997" lon="11.268455023"><ele>85</ele><time>2020-02-02T09:06:22Z</time></trkpt>
<trkpt lat="43.757780995" lon="11.268435996"><ele>84</ele><time>2020-02-02T09:06:23Z</time></trkpt>
<trkpt lat="43.757753" lon="11.268417975"><ele>84</ele><time>2020-02-02T09:06:24Z</time></trkpt>
<trkpt lat="43.757725004" lon="11.268398026"><ele>84</ele><time>2020-02-02T09:06:25Z</time></trkpt>
<trkpt lat="43.757697009" lon="11.268377993"><ele>84</ele><time>2020-02-02T09:06:26Z</time></trkpt>
<trkpt lat="43.757669013" lon="11.268357961"><ele>84</ele><time>2020-02-02T09:06:27Z</time></trkpt>
<trkpt lat="43.757579997" lon="11.268299036"><ele>85</ele><time>2020-02-02T09:06:30Z</time></trkpt>
<trkpt lat="43.757547978" lon="11.268280009"><ele>85</ele><time>2020-02-02T09:06:31Z</time></trkpt>
<trkpt lat="43.757515037" lon="11.268260982"><ele>85</ele><time>2020-02-02T09:06:32Z</time></trkpt>
<trkpt lat="43.757480001" lon="11.268242961"><ele>85</ele><time>2020-02-02T09:06:33Z</time></trkpt>
<trkpt lat="43.757444965" lon="11.268227035"><ele>85</ele><time>2020-02-02T09:06:34Z</time></trkpt>
<trkpt lat="43.757409006" lon="11.268211026"><ele>85</ele><time>2020-02-02T09:06:35Z</time></trkpt>
<trkpt lat="43.757372964" lon="11.268196022"><ele>85</ele><time>2020-02-02T09:06:36Z</time></trkpt>
<trkpt lat="43.757338012" lon="11.26818303"><ele>85</ele><time>2020-02-02T09:06:37Z</time></trkpt>
<trkpt lat="43.757302975" lon="11.26817096"><ele>85</ele><time>2020-02-02T09:06:38Z</time></trkpt>
<trkpt lat="43.757268023" lon="11.268160986"><ele>85</ele><time>2020-02-02T09:06:39Z</time></trkpt>
<trkpt lat="43.757234998" lon="11.268152017"><ele>85</ele><time>2020-02-02T09:06:40Z</time></trkpt>
<trkpt lat="43.757201973" lon="11.268144976"><ele>85</ele><time>2020-02-02T09:06:41Z</time></trkpt>
<trkpt lat="43.75717096" lon="11.268140031"><ele>85</ele><time>2020-02-02T09:06:42Z</time></trkpt>
<trkpt lat="43.757140031" lon="11.268137014"><ele>85</ele><time>2020-02-02T09:06:43Z</time></trkpt>
<trkpt lat="43.757052021" lon="11.268139025"><ele>84</ele><time>2020-02-02T09:06:46Z</time></trkpt>
<trkpt lat="43.757024026" lon="11.268144976"><ele>84</ele><time>2020-02-02T09:06:47Z</time></trkpt>
<trkpt lat="43.75699603" lon="11.268152017"><ele>84</ele><time>2020-02-02T09:06:48Z</time></trkpt>
<trkpt lat="43.75696904" lon="11.268161992"><ele>83</ele><time>2020-02-02T09:06:49Z</time></trkpt>
<trkpt lat="43.756941967" lon="11.268173978"><ele>83</ele><time>2020-02-02T09:06:50Z</time></trkpt>
<trkpt lat="43.756914977" lon="11.268188981"><ele>83</ele><time>2020-02-02T09:06:51Z</time></trkpt>
<trkpt lat="43.756886981" lon="11.268205997"><ele>82</ele><time>2020-02-02T09:06:52Z</time></trkpt>
<trkpt lat="43.756858986" lon="11.268226029"><ele>82</ele><time>2020-02-02T09:06:53Z</time></trkpt>
<trkpt lat="43.756828979" lon="11.26824799"><ele>81</ele><time>2020-02-02T09:06:54Z</time></trkpt>
<trkpt lat="43.75676997" lon="11.268299036"><ele>80</ele><time>2020-02-02T09:06:56Z</time></trkpt>
<trkpt lat="43.756740969" lon="11.268327031"><ele>79</ele><time>2020-02-02T09:06:57Z</time></trkpt>
<trkpt lat="43.756712973" lon="11.268357038"><ele>79</ele><time>2020-02-02T09:06:58Z</time></trkpt>
<trkpt lat="43.756684978" lon="11.268387968"><ele>79</ele><time>2020-02-02T09:06:59Z</time></trkpt>
<trkpt lat="43.756658994" lon="11.268419987"><ele>79</ele><time>2020-02-02T09:07:00Z</time></trkpt>
<trkpt lat="43.756634016" lon="11.268454017"><ele>78</ele><time>2020-02-02T09:07:01Z</time></trkpt>
<trkpt lat="43.756609038" lon="11.26848897"><ele>78</ele><time>2020-02-02T09:07:02Z</time></trkpt>
<trkpt lat="43.756585987" lon="11.268525012"><ele>78</ele><time>2020-02-02T09:07:03Z</time></trkpt>
<trkpt lat="43.756564027" lon="11.268561976"><ele>77</ele><time>2020-02-02T09:07:04Z</time></trkpt>
<trkpt lat="43.756542988" lon="11.268599024"><ele>77</ele><time>2020-02-02T09:07:05Z</time></trkpt>
<trkpt lat="43.756523039" lon="11.268638"><ele>77</ele><time>2020-02-02T09:07:06Z</time></trkpt>
<trkpt lat="43.756504012" lon="11.268676976"><ele>77</ele><time>2020-02-02T09:07:07Z</time></trkpt>
<trkpt lat="43.756485991" lon="11.268717041"><ele>76</ele><time>2020-02-02T09:07:08Z</time></trkpt>
<trkpt lat="43.756434023" lon="11.268836986"><ele>76</ele><time>2020-02-02T09:07:11Z</time></trkpt>
<trkpt lat="43.756417008" lon="11.268875962"><ele>76</ele><time>2020-02-02T09:07:12Z</time></trkpt>
<trkpt lat="43.756385995" lon="11.268951986"><ele>76</ele><time>2020-02-02T09:07:14Z</time></trkpt>
<trkpt lat="43.756374009" lon="11.268987022"><ele>76</ele><time>2020-02-02T09:07:15Z</time></trkpt>
<trkpt lat="43.756364034" lon="11.269019041"><ele>76</ele><time>2020-02-02T09:07:16Z</time></trkpt>
<trkpt lat="43.756356994" lon="11.269051982"><ele>76</ele><time>2020-02-02T09:07:17Z</time></trkpt>
<trkpt lat="43.75635297" lon="11.269086013"><ele>76</ele><time>2020-02-02T09:07:18Z</time></trkpt>
<trkpt lat="43.75635297" lon="11.269124988"><ele>75</ele><time>2020-02-02T09:07:19Z</time></trkpt>
<trkpt lat="43.756356994" lon="11.269171005"><ele>75</ele><time>2020-02-02T09:07:20Z</time></trkpt>
<trkpt lat="43.756363029" lon="11.269220961"><ele>76</ele><time>2020-02-02T09:07:21Z</time></trkpt>
<trkpt lat="43.756370991" lon="11.269274019"><ele>76</ele><time>2020-02-02T09:07:22Z</time></trkpt>
<trkpt lat="43.756379038" lon="11.269325987"><ele>76</ele><time>2020-02-02T09:07:23Z</time></trkpt>
<trkpt lat="43.756385995" lon="11.269377032"><ele>77</ele><time>2020-02-02T09:07:24Z</time></trkpt>
<trkpt lat="43.756393036" lon="11.269423971"><ele>77</ele><time>2020-02-02T09:07:25Z</time></trkpt>
<trkpt lat="43.756398987" lon="11.269469988"><ele>77</ele><time>2020-02-02T09:07:26Z</time></trkpt>
<trkpt lat="43.756405022" lon="11.269513993"><ele>77</ele><time>2020-02-02T09:07:27Z</time></trkpt>
<trkpt lat="43.756411979" lon="11.269555986"><ele>77</ele><time>2020-02-02T09:07:28Z</time></trkpt>
<trkpt lat="43.75641902" lon="11.269596973"><ele>78</ele><time>2020-02-02T09:07:29Z</time></trkpt>
<trkpt lat="43.756426983" lon="11.269637961"><ele>78</ele><time>2020-02-02T09:07:30Z</time></trkpt>
<trkpt lat="43.756437041" lon="11.269677021"><ele>78</ele><time>2020-02-02T09:07:31Z</time></trkpt>
<trkpt lat="43.756447015" lon="11.269717002"><ele>78</ele><time>2020-02-02T09:07:32Z</time></trkpt>
<trkpt lat="43.756460007" lon="11.269756984"><ele>78</ele><time>2020-02-02T09:07:33Z</time></trkpt>
<trkpt lat="43.756474005" lon="11.26979596"><ele>78</ele><time>2020-02-02T09:07:34Z</time></trkpt>
<trkpt lat="43.756490014" lon="11.269835019"><ele>78</ele><time>2020-02-02T09:07:35Z</time></trkpt>
<trkpt lat="43.75650703" lon="11.26987299"><ele>78</ele><time>2020-02-02T09:07:36Z</time></trkpt>
<trkpt lat="43.756524967" lon="11.269910038"><ele>78</ele><time>2020-02-02T09:07:37Z</time></trkpt>
<trkpt lat="43.756543994" lon="11.269945996"><ele>78</ele><time>2020-02-02T09:07:38Z</time></trkpt>
<trkpt lat="43.756564027" lon="11.269980026"><ele>77</ele><time>2020-02-02T09:07:39Z</time></trkpt>
<trkpt lat="43.756584981" lon="11.270011961"><ele>77</ele><time>2020-02-02T09:07:40Z</time></trkpt>
<trkpt lat="43.75660602" lon="11.270041969"><ele>77</ele><time>2020-02-02T09:07:41Z</time></trkpt>
<trkpt lat="43.756627981" lon="11.270069964"><ele>77</ele><time>2020-02-02T09:07:42Z</time></trkpt>
<trkpt lat="43.756649019" lon="11.270096032"><ele>77</ele><time>2020-02-02T09:07:43Z</time></trkpt>
<trkpt lat="43.756669974" lon="11.27012101"><ele>77</ele><time>2020-02-02T09:07:44Z</time></trkpt>
<trkpt lat="43.756691013" lon="11.270146994"><ele>77</ele><time>2020-02-02T09:07:45Z</time></trkpt>
<trkpt lat="43.756710961" lon="11.270174989"><ele>77</ele><time>2020-02-02T09:07:46Z</time></trkpt>
<trkpt lat="43.756729988" lon="11.270203991"><ele>77</ele><time>2020-02-02T09:07:47Z</time></trkpt>
<trkpt lat="43.756748009" lon="11.270235004"><ele>78</ele><time>2020-02-02T09:07:48Z</time></trkpt>
<trkpt lat="43.756767958" lon="11.270267023"><ele>78</ele><time>2020-02-02T09:07:49Z</time></trkpt>
<trkpt lat="43.756791009" lon="11.270299964"><ele>78</ele><time>2020-02-02T09:07:50Z</time></trkpt>
<trkpt lat="43.756815987" lon="11.270332988"><ele>78</ele><time>2020-02-02T09:07:51Z</time></trkpt>
<trkpt lat="43.756842976" lon="11.270365007"><ele>78</ele><time>2020-02-02T09:07:52Z</time></trkpt>
<trkpt lat="43.756870972" lon="11.27039602"><ele>78</ele><time>2020-02-02T09:07:53Z</time></trkpt>
<trkpt lat="43.75689704" lon="11.270426027"><ele>77</ele><time>2020-02-02T09:07:54Z</time></trkpt>
<trkpt lat="43.756921012" lon="11.270453017"><ele>77</ele><time>2020-02-02T09:07:55Z</time></trkpt>
<trkpt lat="43.756941967" lon="11.270480007"><ele>77</ele><time>2020-02-02T09:07:56Z</time></trkpt>
<trkpt lat="43.756961999" lon="11.270505991"><ele>77</ele><time>2020-02-02T09:07:57Z</time></trkpt>
<trkpt lat="43.757012961" lon="11.270588972"><ele>77</ele><time>2020-02-02T09:08:00Z</time></trkpt>
<trkpt lat="43.757029977" lon="11.270618979"><ele>77</ele><time>2020-02-02T09:08:01Z</time></trkpt>
<trkpt lat="43.757049004" lon="11.27064798"><ele>77</ele><time>2020-02-02T09:08:02Z</time></trkpt>
<trkpt lat="43.757069958" lon="11.270676982"><ele>77</ele><time>2020-02-02T09:08:03Z</time></trkpt>
<trkpt lat="43.75709502" lon="11.270704977"><ele>77</ele><time>2020-02-02T09:08:04Z</time></trkpt>
<trkpt lat="43.75712201" lon="11.270732973"><ele>76</ele><time>2020-02-02T09:08:05Z</time></trkpt>
<trkpt lat="43.757219994" lon="11.270816037"><ele>75</ele><time>2020-02-02T09:08:08Z</time></trkpt>
<trkpt lat="43.757256037" lon="11.270844033"><ele>75</ele><time>2020-02-02T09:08:09Z</time></trkpt>
<trkpt lat="43.757294007" lon="11.270872029"><ele>74</ele><time>2020-02-02T09:08:10Z</time></trkpt>
<trkpt lat="43.757331977" lon="11.27090103"><ele>74</ele><time>2020-02-02T09:08:11Z</time></trkpt>
<trkpt lat="43.757371036" lon="11.270930031"><ele>73</ele><time>2020-02-02T09:08:12Z</time></trkpt>
<trkpt lat="43.757410012" lon="11.270958027"><ele>73</ele><time>2020-02-02T09:08:13Z</time></trkpt>
<trkpt lat="43.757447982" lon="11.270986022"><ele>73</ele><time>2020-02-02T09:08:14Z</time></trkpt>
<trkpt lat="43.757486036" lon="11.271013012"><ele>72</ele><time>2020-02-02T09:08:15Z</time></trkpt>
<trkpt lat="43.757520989" lon="11.271040002"><ele>72</ele><time>2020-02-02T09:08:16Z</time></trkpt>
<trkpt lat="43.757555019" lon="11.271065986"><ele>72</ele><time>2020-02-02T09:08:17Z</time></trkpt>
<trkpt lat="43.757587038" lon="11.271090964"><ele>72</ele><time>2020-02-02T09:08:18Z</time></trkpt>
<trkpt lat="43.757617967" lon="11.27111502"><ele>72</ele><time>2020-02-02T09:08:19Z</time></trkpt>
<trkpt lat="43.757646969" lon="11.271138992"><ele>72</ele><time>2020-02-02T09:08:20Z</time></trkpt>
<trkpt lat="43.75767597" lon="11.27116397"><ele>72</ele><time>2020-02-02T09:08:21Z</time></trkpt>
<trkpt lat="43.757703966" lon="11.271188026"><ele>71</ele><time>2020-02-02T09:08:22Z</time></trkpt>
<trkpt lat="43.757731039" lon="11.271211999"><ele>71</ele><time>2020-02-02T09:08:23Z</time></trkpt>
<trkpt lat="43.757759035" lon="11.271236977"><ele>71</ele><time>2020-02-02T09:08:24Z</time></trkpt>
<trkpt lat="43.757786024" lon="11.271262038"><ele>71</ele><time>2020-02-02T09:08:25Z</time></trkpt>
<trkpt lat="43.757813014" lon="11.271288022"><ele>71</ele><time>2020-02-02T09:08:26Z</time></trkpt>
<trkpt lat="43.75784101" lon="11.271315012"><ele>71</ele><time>2020-02-02T09:08:27Z</time></trkpt>
<trkpt lat="43.757869005" lon="11.271340996"><ele>71</ele><time>2020-02-02T09:08:28Z</time></trkpt>
<trkpt lat="43.757897001" lon="11.271367986"><ele>71</ele><time>2020-02-02T09:08:29Z</time></trkpt>
<trkpt lat="43.757926002" lon="11.27139397"><ele>71</ele><time>2020-02-02T09:08:30Z</time></trkpt>
<trkpt lat="43.757953998" lon="11.271420037"><ele>71</ele><time>2020-02-02T09:08:31Z</time></trkpt>
<trkpt lat="43.757981993" lon="11.27144401"><ele>70</ele><time>2020-02-02T09:08:32Z</time></trkpt>
<trkpt lat="43.758008983" lon="11.271467982"><ele>70</ele><time>2020-02-02T09:08:33Z</time></trkpt>
<trkpt lat="43.758036979" lon="11.271490026"><ele>70</ele><time>2020-02-02T09:08:34Z</time></trkpt>
<trkpt lat="43.758063968" lon="11.271509975"><ele>70</ele><time>2020-02-02T09:08:35Z</time></trkpt>
<trkpt lat="43.758091964" lon="11.271530008"><ele>70</ele><time>2020-02-02T09:08:36Z</time></trkpt>
<trkpt lat="43.758119959" lon="11.271548029"><ele>70</ele><time>2020-02-02T09:08:37Z</time></trkpt>
<trkpt lat="43.758148039" lon="11.27156496"><ele>69</ele><time>2020-02-02T09:08:38Z</time></trkpt>
<trkpt lat="43.758177962" lon="11.27158097"><ele>69</ele><time>2020-02-02T09:08:39Z</time></trkpt>
<trkpt lat="43.758207969" lon="11.271594968"><ele>69</ele><time>2020-02-02T09:08:40Z</time></trkpt>
<trkpt lat="43.758238982" lon="11.271608965"><ele>69</ele><time>2020-02-02T09:08:41Z</time></trkpt>
<trkpt lat="43.758271001" lon="11.271622963"><ele>69</ele><time>2020-02-02T09:08:42Z</time></trkpt>
<trkpt lat="43.758305032" lon="11.271635033"><ele>68</ele><time>2020-02-02T09:08:43Z</time></trkpt>
<trkpt lat="43.758339984" lon="11.271647019"><ele>68</ele><time>2020-02-02T09:08:44Z</time></trkpt>
<trkpt lat="43.758374015" lon="11.271658"><ele>68</ele><time>2020-02-02T09:08:45Z</time></trkpt>
<trkpt lat="43.758407962" lon="11.271667974"><ele>68</ele><time>2020-02-02T09:08:46Z</time></trkpt>
<trkpt lat="43.75843998" lon="11.271677027"><ele>68</ele><time>2020-02-02T09:08:47Z</time></trkpt>
<trkpt lat="43.758469988" lon="11.271684989"><ele>68</ele><time>2020-02-02T09:08:48Z</time></trkpt>
<trkpt lat="43.758497983" lon="11.271693036"><ele>68</ele><time>2020-02-02T09:08:49Z</time></trkpt>
<trkpt lat="43.758526985" lon="11.271700999"><ele>68</ele><time>2020-02-02T09:08:50Z</time></trkpt>
<trkpt lat="43.758555986" lon="11.271708962"><ele>68</ele><time>2020-02-02T09:08:51Z</time></trkpt>
<trkpt lat="43.758585993" lon="11.271718014"><ele>68</ele><time>2020-02-02T09:08:52Z</time></trkpt>
<trkpt lat="43.758618012" lon="11.271727988"><ele>67</ele><time>2020-02-02T09:08:53Z</time></trkpt>
<trkpt lat="43.758649025" lon="11.271737963"><ele>67</ele><time>2020-02-02T09:08:54Z</time></trkpt>
<trkpt lat="43.758679032" lon="11.271747015"><ele>67</ele><time>2020-02-02T09:08:55Z</time></trkpt>
<trkpt lat="43.758708034" lon="11.271755984"><ele>67</ele><time>2020-02-02T09:08:56Z</time></trkpt>
<trkpt lat="43.758733012" lon="11.271764031"><ele>67</ele><time>2020-02-02T09:08:57Z</time></trkpt>
<trkpt lat="43.75875799" lon="11.271770988"><ele>67</ele><time>2020-02-02T09:08:58Z</time></trkpt>
<trkpt lat="43.758781962" lon="11.271778028"><ele>67</ele><time>2020-02-02T09:08:59Z</time></trkpt>
<trkpt lat="43.758807024" lon="11.27178398"><ele>67</ele><time>2020-02-02T09:09:00Z</time></trkpt>
<trkpt lat="43.75883502" lon="11.27179102"><ele>67</ele><time>2020-02-02T09:09:01Z</time></trkpt>
<trkpt lat="43.758865027" lon="11.271797977"><ele>67</ele><time>2020-02-02T09:09:02Z</time></trkpt>
<trkpt lat="43.758896962" lon="11.271804012"><ele>67</ele><time>2020-02-02T09:09:03Z</time></trkpt>
<trkpt lat="43.758930992" lon="11.271810969"><ele>67</ele><time>2020-02-02T09:09:04Z</time></trkpt>
<trkpt lat="43.758966029" lon="11.27181801"><ele>67</ele><time>2020-02-02T09:09:05Z</time></trkpt>
<trkpt lat="43.759001987" lon="11.271825973"><ele>67</ele><time>2020-02-02T09:09:06Z</time></trkpt>
<trkpt lat="43.759039035" lon="11.271833014"><ele>67</ele><time>2020-02-02T09:09:07Z</time></trkpt>
<trkpt lat="43.759074993" lon="11.271840977"><ele>67</ele><time>2020-02-02T09:09:08Z</time></trkpt>
<trkpt lat="43.759112041" lon="11.271848017"><ele>67</ele><time>2020-02-02T09:09:09Z</time></trkpt>
<trkpt lat="43.759146994" lon="11.271856986"><ele>67</ele><time>2020-02-02T09:09:10Z</time></trkpt>
<trkpt lat="43.759183036" lon="11.271865033"><ele>67</ele><time>2020-02-02T09:09:11Z</time></trkpt>
<trkpt lat="43.759217989" lon="11.271872995"><ele>67</ele><time>2020-02-02T09:09:12Z</time></trkpt>
<trkpt lat="43.759252019" lon="11.271881964"><ele>67</ele><time>2020-02-02T09:09:13Z</time></trkpt>
<trkpt lat="43.759285966" lon="11.271891017"><ele>67</ele><time>2020-02-02T09:09:14Z</time></trkpt>
<trkpt lat="43.759319996" lon="11.271899985"><ele>67</ele><time>2020-02-02T09:09:15Z</time></trkpt>
<trkpt lat="43.759418987" lon="11.271927981"><ele>67</ele><time>2020-02-02T09:09:18Z</time></trkpt>
<trkpt lat="43.759451006" lon="11.271938039"><ele>67</ele><time>2020-02-02T09:09:19Z</time></trkpt>
<trkpt lat="43.759483024" lon="11.271947008"><ele>67</ele><time>2020-02-02T09:09:20Z</time></trkpt>
<trkpt lat="43.75951496" lon="11.271956982"><ele>67</ele><time>2020-02-02T09:09:21Z</time></trkpt>
<trkpt lat="43.759545973" lon="11.27196704"><ele>67</ele><time>2020-02-02T09:09:22Z</time></trkpt>
<trkpt lat="43.759576986" lon="11.271976009"><ele>67</ele><time>2020-02-02T09:09:23Z</time></trkpt>
<trkpt lat="43.759609004" lon="11.271985983"><ele>67</ele><time>2020-02-02T09:09:24Z</time></trkpt>
<trkpt lat="43.759640018" lon="11.271996042"><ele>67</ele><time>2020-02-02T09:09:25Z</time></trkpt>
<trkpt lat="43.759670025" lon="11.272006016"><ele>67</ele><time>2020-02-02T09:09:26Z</time></trkpt>
<trkpt lat="43.759701038" lon="11.272014985"><ele>67</ele><time>2020-02-02T09:09:27Z</time></trkpt>
<trkpt lat="43.759731967" lon="11.272024959"><ele>67</ele><time>2020-02-02T09:09:28Z</time></trkpt>
<trkpt lat="43.75976298" lon="11.272035018"><ele>67</ele><time>2020-02-02T09:09:29Z</time></trkpt>
<trkpt lat="43.759792987" lon="11.272043986"><ele>67</ele><time>2020-02-02T09:09:30Z</time></trkpt>
<trkpt lat="43.759824" lon="11.272053961"><ele>67</ele><time>2020-02-02T09:09:31Z</time></trkpt>
<trkpt lat="43.759855013" lon="11.272064019"><ele>67</ele><time>2020-02-02T09:09:32Z</time></trkpt>
<trkpt lat="43.759886026" lon="11.272073993"><ele>67</ele><time>2020-02-02T09:09:33Z</time></trkpt>
<trkpt lat="43.759917039" lon="11.272083968"><ele>67</ele><time>2020-02-02T09:09:34Z</time></trkpt>
<trkpt lat="43.759947969" lon="11.272094026"><ele>66</ele><time>2020-02-02T09:09:35Z</time></trkpt>
<trkpt lat="43.759978982" lon="11.272104001"><ele>66</ele><time>2020-02-02T09:09:36Z</time></trkpt>
<trkpt lat="43.760009995" lon="11.272114981"><ele>66</ele><time>2020-02-02T09:09:37Z</time></trkpt>
<trkpt lat="43.760042014" lon="11.272125961"><ele>66</ele><time>2020-02-02T09:09:38Z</time></trkpt>
<trkpt lat="43.760074032" lon="11.272137025"><ele>66</ele><time>2020-02-02T09:09:39Z</time></trkpt>
<trkpt lat="43.760105968" lon="11.272148006"><ele>66</ele><time>2020-02-02T09:09:40Z</time></trkpt>
<trkpt lat="43.760204036" lon="11.272183964"><ele>66</ele><time>2020-02-02T09:09:43Z</time></trkpt>
<trkpt lat="43.760236977" lon="11.27219704"><ele>66</ele><time>2020-02-02T09:09:44Z</time></trkpt>
<trkpt lat="43.760271007" lon="11.272211038"><ele>66</ele><time>2020-02-02T09:09:45Z</time></trkpt>
<trkpt lat="43.760305038" lon="11.27222403"><ele>65</ele><time>2020-02-02T09:09:46Z</time></trkpt>
<trkpt lat="43.760338984" lon="11.272238027"><ele>65</ele><time>2020-02-02T09:09:47Z</time></trkpt>
<trkpt lat="43.760373015" lon="11.272252025"><ele>65</ele><time>2020-02-02T09:09:48Z</time></trkpt>
<trkpt lat="43.76040604" lon="11.272267029"><ele>65</ele><time>2020-02-02T09:09:49Z</time></trkpt>
<trkpt lat="43.760439986" lon="11.272281026"><ele>65</ele><time>2020-02-02T09:09:50Z</time></trkpt>
<trkpt lat="43.760472005" lon="11.272295024"><ele>65</ele><time>2020-02-02T09:09:51Z</time></trkpt>
<trkpt lat="43.760504024" lon="11.272309022"><ele>64</ele><time>2020-02-02T09:09:52Z</time></trkpt>
<trkpt lat="43.760535037" lon="11.27232302"><ele>64</ele><time>2020-02-02T09:09:53Z</time></trkpt>
<trkpt lat="43.760565966" lon="11.272337018"><ele>64</ele><time>2020-02-02T09:09:54Z</time></trkpt>
<trkpt lat="43.760594968" lon="11.27235001"><ele>64</ele><time>2020-02-02T09:09:55Z</time></trkpt>
<trkpt lat="43.760625981" lon="11.272363001"><ele>63</ele><time>2020-02-02T09:09:56Z</time></trkpt>
<trkpt lat="43.760656994" lon="11.272373982"><ele>63</ele><time>2020-02-02T09:09:57Z</time></trkpt>
<trkpt lat="43.760689013" lon="11.272384962"><ele>63</ele><time>2020-02-02T09:09:58Z</time></trkpt>
<trkpt lat="43.760722959" lon="11.272396026"><ele>63</ele><time>2020-02-02T09:09:59Z</time></trkpt>
<trkpt lat="43.760759002" lon="11.272406001"><ele>62</ele><time>2020-02-02T09:10:00Z</time></trkpt>
<trkpt lat="43.76079496" lon="11.272415975"><ele>62</ele><time>2020-02-02T09:10:01Z</time></trkpt>
<trkpt lat="43.760829996" lon="11.272426033"><ele>62</ele><time>2020-02-02T09:10:02Z</time></trkpt>
<trkpt lat="43.760863021" lon="11.27243802"><ele>61</ele><time>2020-02-02T09:10:03Z</time></trkpt>
<trkpt lat="43.76089504" lon="11.272450006"><ele>61</ele><time>2020-02-02T09:10:04Z</time></trkpt>
<trkpt lat="43.760924963" lon="11.272462998"><ele>61</ele><time>2020-02-02T09:10:05Z</time></trkpt>
<trkpt lat="43.76095497" lon="11.27247599"><ele>60</ele><time>2020-02-02T09:10:06Z</time></trkpt>
<trkpt lat="43.760982966" lon="11.272488981"><ele>60</ele><time>2020-02-02T09:10:07Z</time></trkpt>
<trkpt lat="43.761010962" lon="11.272500968"><ele>60</ele><time>2020-02-02T09:10:08Z</time></trkpt>
<trkpt lat="43.761038035" lon="11.272513038"><ele>59</ele><time>2020-02-02T09:10:09Z</time></trkpt>
<trkpt lat="43.761066031" lon="11.272524018"><ele>59</ele><time>2020-02-02T09:10:10Z</time></trkpt>
<trkpt lat="43.761095032" lon="11.272534998"><ele>59</ele><time>2020-02-02T09:10:11Z</time></trkpt>
<trkpt lat="43.761125961" lon="11.272545978"><ele>59</ele><time>2020-02-02T09:10:12Z</time></trkpt>
<trkpt lat="43.761156974" lon="11.272557965"><ele>59</ele><time>2020-02-02T09:10:13Z</time></trkpt>
<trkpt lat="43.761189999" lon="11.272569029"><ele>59</ele><time>2020-02-02T09:10:14Z</time></trkpt>
<trkpt lat="43.76122403" lon="11.272579003"><ele>58</ele><time>2020-02-02T09:10:15Z</time></trkpt>
<trkpt lat="43.76125697" lon="11.272589983"><ele>58</ele><time>2020-02-02T09:10:16Z</time></trkpt>
<trkpt lat="43.761291001" lon="11.272600964"><ele>58</ele><time>2020-02-02T09:10:17Z</time></trkpt>
<trkpt lat="43.761324026" lon="11.272611022"><ele>58</ele><time>2020-02-02T09:10:18Z</time></trkpt>
<trkpt lat="43.761355961" lon="11.272620996"><ele>57</ele><time>2020-02-02T09:10:19Z</time></trkpt>
<trkpt lat="43.761385968" lon="11.272629965"><ele>57</ele><time>2020-02-02T09:10:20Z</time></trkpt>
<trkpt lat="43.761415975" lon="11.272639018"><ele>57</ele><time>2020-02-02T09:10:21Z</time></trkpt>
<trkpt lat="43.761499962" lon="11.272665001"><ele>56</ele><time>2020-02-02T09:10:24Z</time></trkpt>
<trkpt lat="43.761527035" lon="11.272672964"><ele>56</ele><time>2020-02-02T09:10:25Z</time></trkpt>
<trkpt lat="43.761554025" lon="11.272682017"><ele>56</ele><time>2020-02-02T09:10:26Z</time></trkpt>
<trkpt lat="43.761581015" lon="11.27268998"><ele>55</ele><time>2020-02-02T09:10:27Z</time></trkpt>
<trkpt lat="43.761608005" lon="11.272698026"><ele>55</ele><time>2020-02-02T09:10:28Z</time></trkpt>
<trkpt lat="43.761636" lon="11.272706995"><ele>55</ele><time>2020-02-02T09:10:29Z</time></trkpt>
<trkpt lat="43.761663996" lon="11.272715041"><ele>55</ele><time>2020-02-02T09:10:30Z</time></trkpt>
<trkpt lat="43.761690985" lon="11.27272401"><ele>55</ele><time>2020-02-02T09:10:31Z</time></trkpt>
<trkpt lat="43.761719987" lon="11.272731973"><ele>55</ele><time>2020-02-02T09:10:32Z</time></trkpt>
<trkpt lat="43.761747982" lon="11.272739014"><ele>55</ele><time>2020-02-02T09:10:33Z</time></trkpt>
<trkpt lat="43.761775978" lon="11.272746976"><ele>55</ele><time>2020-02-02T09:10:34Z</time></trkpt>
<trkpt lat="43.761803973" lon="11.272753011"><ele>55</ele><time>2020-02-02T09:10:35Z</time></trkpt>
<trkpt lat="43.761831969" lon="11.272758963"><ele>55</ele><time>2020-02-02T09:10:36Z</time></trkpt>
<trkpt lat="43.761858959" lon="11.272762986"><ele>55</ele><time>2020-02-02T09:10:37Z</time></trkpt>
<trkpt lat="43.761887038" lon="11.272767009"><ele>55</ele><time>2020-02-02T09:10:38Z</time></trkpt>
<trkpt lat="43.761914028" lon="11.272772038"><ele>55</ele><time>2020-02-02T09:10:39Z</time></trkpt>
<trkpt lat="43.761942023" lon="11.272781007"><ele>55</ele><time>2020-02-02T09:10:40Z</time></trkpt>
<trkpt lat="43.761970019" lon="11.272795005"><ele>55</ele><time>2020-02-02T09:10:41Z</time></trkpt>
<trkpt lat="43.762000026" lon="11.272817971"><ele>55</ele><time>2020-02-02T09:10:42Z</time></trkpt>
<trkpt lat="43.762030033" lon="11.27284999"><ele>55</ele><time>2020-02-02T09:10:43Z</time></trkpt>
<trkpt lat="43.762060041" lon="11.272888966"><ele>55</ele><time>2020-02-02T09:10:44Z</time></trkpt>
<trkpt lat="43.762085019" lon="11.272932971"><ele>55</ele><time>2020-02-02T09:10:45Z</time></trkpt>
<trkpt lat="43.762120977" lon="11.273073032"><ele>55</ele><time>2020-02-02T09:10:48Z</time></trkpt>
<trkpt lat="43.762119971" lon="11.273118965"><ele>55</ele><time>2020-02-02T09:10:49Z</time></trkpt>
<trkpt lat="43.762115026" lon="11.273164982"><ele>55</ele><time>2020-02-02T09:10:50Z</time></trkpt>
<trkpt lat="43.762106979" lon="11.273210999"><ele>55</ele><time>2020-02-02T09:10:51Z</time></trkpt>
<trkpt lat="43.762098011" lon="11.273258021"><ele>55</ele><time>2020-02-02T09:10:52Z</time></trkpt>
<trkpt lat="43.762088958" lon="11.27330496"><ele>55</ele><time>2020-02-02T09:10:53Z</time></trkpt>
<trkpt lat="43.762082001" lon="11.273351982"><ele>55</ele><time>2020-02-02T09:10:54Z</time></trkpt>
<trkpt lat="43.762077978" lon="11.273400011"><ele>55</ele><time>2020-02-02T09:10:55Z</time></trkpt>
<trkpt lat="43.762076972" lon="11.273448039"><ele>55</ele><time>2020-02-02T09:10:56Z</time></trkpt>
<trkpt lat="43.762077978" lon="11.273495983"><ele>55</ele><time>2020-02-02T09:10:57Z</time></trkpt>
<trkpt lat="43.76207999" lon="11.273544012"><ele>55</ele><time>2020-02-02T09:10:58Z</time></trkpt>
<trkpt lat="43.762084013" lon="11.273591034"><ele>55</ele><time>2020-02-02T09:10:59Z</time></trkpt>
<trkpt lat="43.762088958" lon="11.273636967"><ele>55</ele><time>2020-02-02T09:11:00Z</time></trkpt>
<trkpt lat="43.762092981" lon="11.273681978"><ele>55</ele><time>2020-02-02T09:11:01Z</time></trkpt>
<trkpt lat="43.762098011" lon="11.273723971"><ele>55</ele><time>2020-02-02T09:11:02Z</time></trkpt>
<trkpt lat="43.762101028" lon="11.273764959"><ele>54</ele><time>2020-02-02T09:11:03Z</time></trkpt>
<trkpt lat="43.76210304" lon="11.273804018"><ele>54</ele><time>2020-02-02T09:11:04Z</time></trkpt>
<trkpt lat="43.762102034" lon="11.273840982"><ele>54</ele><time>2020-02-02T09:11:05Z</time></trkpt>
<trkpt lat="43.762097005" lon="11.27387803"><ele>54</ele><time>2020-02-02T09:11:06Z</time></trkpt>
<trkpt lat="43.762088036" lon="11.273914995"><ele>54</ele><time>2020-02-02T09:11:07Z</time></trkpt>
<trkpt lat="43.76207999" lon="11.273954976"><ele>54</ele><time>2020-02-02T09:11:08Z</time></trkpt>
<trkpt lat="43.762078984" lon="11.27399697"><ele>54</ele><time>2020-02-02T09:11:09Z</time></trkpt>
<trkpt lat="43.762084013" lon="11.274041981"><ele>54</ele><time>2020-02-02T09:11:10Z</time></trkpt>
<trkpt lat="43.762091976" lon="11.274086991"><ele>54</ele><time>2020-02-02T09:11:11Z</time></trkpt>
<trkpt lat="43.76210304" lon="11.274132002"><ele>54</ele><time>2020-02-02T09:11:12Z</time></trkpt>
<trkpt lat="43.762115026" lon="11.274176007"><ele>54</ele><time>2020-02-02T09:11:13Z</time></trkpt>
<trkpt lat="43.762126006" lon="11.274218"><ele>54</ele><time>2020-02-02T09:11:14Z</time></trkpt>
<trkpt lat="43.762137992" lon="11.274258988"><ele>54</ele><time>2020-02-02T09:11:15Z</time></trkpt>
<trkpt lat="43.762174034" lon="11.274375999"><ele>53</ele><time>2020-02-02T09:11:18Z</time></trkpt>
<trkpt lat="43.762186021" lon="11.274414975"><ele>53</ele><time>2020-02-02T09:11:19Z</time></trkpt>
<trkpt lat="43.762198007" lon="11.274454035"><ele>53</ele><time>2020-02-02T09:11:20Z</time></trkpt>
<trkpt lat="43.762232037" lon="11.274574986"><ele>53</ele><time>2020-02-02T09:11:23Z</time></trkpt>
<trkpt lat="43.762243018" lon="11.274616979"><ele>53</ele><time>2020-02-02T09:11:24Z</time></trkpt>
<trkpt lat="43.762253998" lon="11.274657967"><ele>53</ele><time>2020-02-02T09:11:25Z</time></trkpt>
<trkpt lat="43.762263972" lon="11.27469996"><ele>53</ele><time>2020-02-02T09:11:26Z</time></trkpt>
<trkpt lat="43.762274031" lon="11.274741031"><ele>53</ele><time>2020-02-02T09:11:27Z</time></trkpt>
<trkpt lat="43.762282999" lon="11.274781013"><ele>53</ele><time>2020-02-02T09:11:28Z</time></trkpt>
<trkpt lat="43.762290962" lon="11.274822"><ele>53</ele><time>2020-02-02T09:11:29Z</time></trkpt>
<trkpt lat="43.762299009" lon="11.274860976"><ele>53</ele><time>2020-02-02T09:11:30Z</time></trkpt>
<trkpt lat="43.762306971" lon="11.27489903"><ele>53</ele><time>2020-02-02T09:11:31Z</time></trkpt>
<trkpt lat="43.762314012" lon="11.274935994"><ele>53</ele><time>2020-02-02T09:11:32Z</time></trkpt>
<trkpt lat="43.762321975" lon="11.274972958"><ele>53</ele><time>2020-02-02T09:11:33Z</time></trkpt>
<trkpt lat="43.762332033" lon="11.275011012"><ele>53</ele><time>2020-02-02T09:11:34Z</time></trkpt>
<trkpt lat="43.762376038" lon="11.275130035"><ele>53</ele><time>2020-02-02T09:11:37Z</time></trkpt>
<trkpt lat="43.762391964" lon="11.275172029"><ele>52</ele><time>2020-02-02T09:11:38Z</time></trkpt>
<trkpt lat="43.762407973" lon="11.275214022"><ele>52</ele><time>2020-02-02T09:11:39Z</time></trkpt>
<trkpt lat="43.762420965" lon="11.275256015"><ele>52</ele><time>2020-02-02T09:11:40Z</time></trkpt>
<trkpt lat="43.762433035" lon="11.275298009"><ele>52</ele><time>2020-02-02T09:11:41Z</time></trkpt>
<trkpt lat="43.762442004" lon="11.275341008"><ele>52</ele><time>2020-02-02T09:11:42Z</time></trkpt>
<trkpt lat="43.762449967" lon="11.275383001"><ele>52</ele><time>2020-02-02T09:11:43Z</time></trkpt>
<trkpt lat="43.762457008" lon="11.275426"><ele>52</ele><time>2020-02-02T09:11:44Z</time></trkpt>
<trkpt lat="43.762462959" lon="11.275469"><ele>52</ele><time>2020-02-02T09:11:45Z</time></trkpt>
<trkpt lat="43.762467988" lon="11.275510993"><ele>52</ele><time>2020-02-02T09:11:46Z</time></trkpt>
<trkpt lat="43.762473017" lon="11.275552986"><ele>52</ele><time>2020-02-02T09:11:47Z</time></trkpt>
<trkpt lat="43.762478968" lon="11.275595985"><ele>52</ele><time>2020-02-02T09:11:48Z</time></trkpt>
<trkpt lat="43.762483997" lon="11.275637979"><ele>52</ele><time>2020-02-02T09:11:49Z</time></trkpt>
<trkpt lat="43.762490032" lon="11.275679972"><ele>52</ele><time>2020-02-02T09:11:50Z</time></trkpt>
<trkpt lat="43.762495983" lon="11.275721965"><ele>52</ele><time>2020-02-02T09:11:51Z</time></trkpt>
<trkpt lat="43.762502018" lon="11.275763037"><ele>52</ele><time>2020-02-02T09:11:52Z</time></trkpt>
<trkpt lat="43.762508975" lon="11.27580503"><ele>52</ele><time>2020-02-02T09:11:53Z</time></trkpt>
<trkpt lat="43.76251501" lon="11.275847023"><ele>52</ele><time>2020-02-02T09:11:54Z</time></trkpt>
<trkpt lat="43.762520961" lon="11.275889017"><ele>52</ele><time>2020-02-02T09:11:55Z</time></trkpt>
<trkpt lat="43.762526996" lon="11.27593101"><ele>52</ele><time>2020-02-02T09:11:56Z</time></trkpt>
<trkpt lat="43.762532026" lon="11.275973003"><ele>52</ele><time>2020-02-02T09:11:57Z</time></trkpt>
<trkpt lat="43.762536971" lon="11.276014997"><ele>52</ele><time>2020-02-02T09:11:58Z</time></trkpt>
<trkpt lat="43.762542" lon="11.27605699"><ele>52</ele><time>2020-02-02T09:11:59Z</time></trkpt>
<trkpt lat="43.762546023" lon="11.276099989"><ele>52</ele><time>2020-02-02T09:12:00Z</time></trkpt>
<trkpt lat="43.762549963" lon="11.276142988"><ele>52</ele><time>2020-02-02T09:12:01Z</time></trkpt>
<trkpt lat="43.762553986" lon="11.276184982"><ele>52</ele><time>2020-02-02T09:12:02Z</time></trkpt>
<trkpt lat="43.762557004" lon="11.276227981"><ele>52</ele><time>2020-02-02T09:12:03Z</time></trkpt>
<trkpt lat="43.762561027" lon="11.276269974"><ele>52</ele><time>2020-02-02T09:12:04Z</time></trkpt>
<trkpt lat="43.762564966" lon="11.276311968"><ele>52</ele><time>2020-02-02T09:12:05Z</time></trkpt>
<trkpt lat="43.76256899" lon="11.276354967"><ele>52</ele><time>2020-02-02T09:12:06Z</time></trkpt>
<trkpt lat="43.762573013" lon="11.27639696"><ele>52</ele><time>2020-02-02T09:12:07Z</time></trkpt>
<trkpt lat="43.762577036" lon="11.276438031"><ele>52</ele><time>2020-02-02T09:12:08Z</time></trkpt>
<trkpt lat="43.762580976" lon="11.276480025"><ele>52</ele><time>2020-02-02T09:12:09Z</time></trkpt>
<trkpt lat="43.762584999" lon="11.276522018"><ele>52</ele><time>2020-02-02T09:12:10Z</time></trkpt>
<trkpt lat="43.762589023" lon="11.276563006"><ele>52</ele><time>2020-02-02T09:12:11Z</time></trkpt>
<trkpt lat="43.762593968" lon="11.276604999"><ele>52</ele><time>2020-02-02T09:12:12Z</time></trkpt>
<trkpt lat="43.762597991" lon="11.276645986"><ele>52</ele><time>2020-02-02T09:12:13Z</time></trkpt>
<trkpt lat="43.762602014" lon="11.27668798"><ele>52</ele><time>2020-02-02T09:12:14Z</time></trkpt>
<trkpt lat="43.76260696" lon="11.276728967"><ele>52</ele><time>2020-02-02T09:12:15Z</time></trkpt>
<trkpt lat="43.762610983" lon="11.276770039"><ele>52</ele><time>2020-02-02T09:12:16Z</time></trkpt>
<trkpt lat="43.762615006" lon="11.276812032"><ele>52</ele><time>2020-02-02T09:12:17Z</time></trkpt>
<trkpt lat="43.762620036" lon="11.276853019"><ele>52</ele><time>2020-02-02T09:12:18Z</time></trkpt>
<trkpt lat="43.762623975" lon="11.276895013"><ele>52</ele><time>2020-02-02T09:12:19Z</time></trkpt>
<trkpt lat="43.762627998" lon="11.276936"><ele>52</ele><time>2020-02-02T09:12:20Z</time></trkpt>
<trkpt lat="43.762632022" lon="11.276977994"><ele>51</ele><time>2020-02-02T09:12:21Z</time></trkpt>
<trkpt lat="43.762635961" lon="11.277018981"><ele>51</ele><time>2020-02-02T09:12:22Z</time></trkpt>
<trkpt lat="43.762639984" lon="11.277060974"><ele>51</ele><time>2020-02-02T09:12:23Z</time></trkpt>
<trkpt lat="43.762644008" lon="11.277102968"><ele>51</ele><time>2020-02-02T09:12:24Z</time></trkpt>
<trkpt lat="43.762648031" lon="11.277144961"><ele>51</ele><time>2020-02-02T09:12:25Z</time></trkpt>
<trkpt lat="43.762650965" lon="11.277187038"><ele>51</ele><time>2020-02-02T09:12:26Z</time></trkpt>
<trkpt lat="43.762653982" lon="11.277229032"><ele>51</ele><time>2020-02-02T09:12:27Z</time></trkpt>
<trkpt lat="43.762657" lon="11.277271025"><ele>51</ele><time>2020-02-02T09:12:28Z</time></trkpt>
<trkpt lat="43.762659011" lon="11.277313018"><ele>51</ele><time>2020-02-02T09:12:29Z</time></trkpt>
<trkpt lat="43.762660017" lon="11.277355012"><ele>51</ele><time>2020-02-02T09:12:30Z</time></trkpt>
<trkpt lat="43.762661023" lon="11.277395999"><ele>51</ele><time>2020-02-02T09:12:31Z</time></trkpt>
<trkpt lat="43.762661023" lon="11.277437992"><ele>51</ele><time>2020-02-02T09:12:32Z</time></trkpt>
<trkpt lat="43.762660017" lon="11.27747898"><ele>50</ele><time>2020-02-02T09:12:33Z</time></trkpt>
<trkpt lat="43.762659011" lon="11.277519967"><ele>50</ele><time>2020-02-02T09:12:34Z</time></trkpt>
<trkpt lat="43.762657" lon="11.277561039"><ele>50</ele><time>2020-02-02T09:12:35Z</time></trkpt>
<trkpt lat="43.762652976" lon="11.277602026"><ele>50</ele><time>2020-02-02T09:12:36Z</time></trkpt>
<trkpt lat="43.762649037" lon="11.277642008"><ele>51</ele><time>2020-02-02T09:12:37Z</time></trkpt>
<trkpt lat="43.762644008" lon="11.277682995"><ele>51</ele><time>2020-02-02T09:12:38Z</time></trkpt>
<trkpt lat="43.762638979" lon="11.277723983"><ele>51</ele><time>2020-02-02T09:12:39Z</time></trkpt>
<trkpt lat="43.762632022" lon="11.277763965"><ele>51</ele><time>2020-02-02T09:12:40Z</time></trkpt>
<trkpt lat="43.762624981" lon="11.277805036"><ele>51</ele><time>2020-02-02T09:12:41Z</time></trkpt>
<trkpt lat="43.762617018" lon="11.277846023"><ele>51</ele><time>2020-02-02T09:12:42Z</time></trkpt>
<trkpt lat="43.762607966" lon="11.277887011"><ele>51</ele><time>2020-02-02T09:12:43Z</time></trkpt>
<trkpt lat="43.762600003" lon="11.277929004"><ele>51</ele><time>2020-02-02T09:12:44Z</time></trkpt>
<trkpt lat="43.76259204" lon="11.277969992"><ele>51</ele><time>2020-02-02T09:12:45Z</time></trkpt>
<trkpt lat="43.762583993" lon="11.278011985"><ele>51</ele><time>2020-02-02T09:12:46Z</time></trkpt>
<trkpt lat="43.762577036" lon="11.278052973"><ele>51</ele><time>2020-02-02T09:12:47Z</time></trkpt>
<trkpt lat="43.762571001" lon="11.278094966"><ele>51</ele><time>2020-02-02T09:12:48Z</time></trkpt>
<trkpt lat="43.762565972" lon="11.278137965"><ele>51</ele><time>2020-02-02T09:12:49Z</time></trkpt>
<trkpt lat="43.762562033" lon="11.278179958"><ele>51</ele><time>2020-02-02T09:12:50Z</time></trkpt>
<trkpt lat="43.762560021" lon="11.278223041"><ele>51</ele><time>2020-02-02T09:12:51Z</time></trkpt>
<trkpt lat="43.762559015" lon="11.278265035"><ele>51</ele><time>2020-02-02T09:12:52Z</time></trkpt>
<trkpt lat="43.762559015" lon="11.278308034"><ele>51</ele><time>2020-02-02T09:12:53Z</time></trkpt>
<trkpt lat="43.762560021" lon="11.278351033"><ele>51</ele><time>2020-02-02T09:12:54Z</time></trkpt>
<trkpt lat="43.762561027" lon="11.278393026"><ele>51</ele><time>2020-02-02T09:12:55Z</time></trkpt>
<trkpt lat="43.762563039" lon="11.27843502"><ele>51</ele><time>2020-02-02T09:12:56Z</time></trkpt>
<trkpt lat="43.762565972" lon="11.278476007"><ele>51</ele><time>2020-02-02T09:12:57Z</time></trkpt>
<trkpt lat="43.762567984" lon="11.278516995"><ele>51</ele><time>2020-02-02T09:12:58Z</time></trkpt>
<trkpt lat="43.762571001" lon="11.278556976"><ele>51</ele><time>2020-02-02T09:12:59Z</time></trkpt>
<trkpt lat="43.762574019" lon="11.278596958"><ele>51</ele><time>2020-02-02T09:13:00Z</time></trkpt>
<trkpt lat="43.762576031" lon="11.278636018"><ele>51</ele><time>2020-02-02T09:13:01Z</time></trkpt>
<trkpt lat="43.762577036" lon="11.278674994"><ele>51</ele><time>2020-02-02T09:13:02Z</time></trkpt>
<trkpt lat="43.762576031" lon="11.278712964"><ele>52</ele><time>2020-02-02T09:13:03Z</time></trkpt>
<trkpt lat="43.762574019" lon="11.278752023"><ele>52</ele><time>2020-02-02T09:13:04Z</time></trkpt>
<trkpt lat="43.762569996" lon="11.278789993"><ele>52</ele><time>2020-02-02T09:13:05Z</time></trkpt>
<trkpt lat="43.762563039" lon="11.278827041"><ele>52</ele><time>2020-02-02T09:13:06Z</time></trkpt>
<trkpt lat="43.762553986" lon="11.278863"><ele>52</ele><time>2020-02-02T09:13:07Z</time></trkpt>
<trkpt lat="43.762542" lon="11.27889703"><ele>52</ele><time>2020-02-02T09:13:08Z</time></trkpt>
<trkpt lat="43.762529008" lon="11.278929971"><ele>52</ele><time>2020-02-02T09:13:09Z</time></trkpt>
<trkpt lat="43.76251501" lon="11.278962996"><ele>52</ele><time>2020-02-02T09:13:10Z</time></trkpt>
<trkpt lat="43.762503024" lon="11.278995015"><ele>52</ele><time>2020-02-02T09:13:11Z</time></trkpt>
<trkpt lat="43.762493972" lon="11.279028039"><ele>52</ele><time>2020-02-02T09:13:12Z</time></trkpt>
<trkpt lat="43.762486009" lon="11.27906098"><ele>52</ele><time>2020-02-02T09:13:13Z</time></trkpt>
<trkpt lat="43.76247704" lon="11.279095011"><ele>52</ele><time>2020-02-02T09:13:14Z</time></trkpt>
<trkpt lat="43.762466982" lon="11.279128036"><ele>52</ele><time>2020-02-02T09:13:15Z</time></trkpt>
<trkpt lat="43.762454996" lon="11.279162988"><ele>53</ele><time>2020-02-02T09:13:16Z</time></trkpt>
<trkpt lat="43.762439992" lon="11.279197019"><ele>53</ele><time>2020-02-02T09:13:17Z</time></trkpt>
<trkpt lat="43.762422977" lon="11.279229959"><ele>53</ele><time>2020-02-02T09:13:18Z</time></trkpt>
<trkpt lat="43.762403028" lon="11.279262984"><ele>53</ele><time>2020-02-02T09:13:19Z</time></trkpt>
<trkpt lat="43.762379978" lon="11.279293997"><ele>53</ele><time>2020-02-02T09:13:20Z</time></trkpt>
<trkpt lat="43.762302026" lon="11.279376978"><ele>54</ele><time>2020-02-02T09:13:23Z</time></trkpt>
<trkpt lat="43.762274031" lon="11.279401034"><ele>54</ele><time>2020-02-02T09:13:24Z</time></trkpt>
<trkpt lat="43.762246035" lon="11.279425006"><ele>54</ele><time>2020-02-02T09:13:25Z</time></trkpt>
<trkpt lat="43.762217034" lon="11.279445961"><ele>54</ele><time>2020-02-02T09:13:26Z</time></trkpt>
<trkpt lat="43.762188032" lon="11.279467"><ele>54</ele><time>2020-02-02T09:13:27Z</time></trkpt>
<trkpt lat="43.762158025" lon="11.279487032"><ele>55</ele><time>2020-02-02T09:13:28Z</time></trkpt>
<trkpt lat="43.762128018" lon="11.279505976"><ele>55</ele><time>2020-02-02T09:13:29Z</time></trkpt>
<trkpt lat="43.762098011" lon="11.279523997"><ele>55</ele><time>2020-02-02T09:13:30Z</time></trkpt>
<trkpt lat="43.762066998" lon="11.279541012"><ele>55</ele><time>2020-02-02T09:13:31Z</time></trkpt>
<trkpt lat="43.762034979" lon="11.279558027"><ele>55</ele><time>2020-02-02T09:13:32Z</time></trkpt>
<trkpt lat="43.762002038" lon="11.279574037"><ele>55</ele><time>2020-02-02T09:13:33Z</time></trkpt>
<trkpt lat="43.761968007" lon="11.279589962"><ele>56</ele><time>2020-02-02T09:13:34Z</time></trkpt>
<trkpt lat="43.761933977" lon="11.279604966"><ele>56</ele><time>2020-02-02T09:13:35Z</time></trkpt>
<trkpt lat="43.76190003" lon="11.279619969"><ele>56</ele><time>2020-02-02T09:13:36Z</time></trkpt>
<trkpt lat="43.761866" lon="11.279634973"><ele>56</ele><time>2020-02-02T09:13:37Z</time></trkpt>
<trkpt lat="43.761831969" lon="11.279649977"><ele>56</ele><time>2020-02-02T09:13:38Z</time></trkpt>
<trkpt lat="43.761799028" lon="11.279663974"><ele>56</ele><time>2020-02-02T09:13:39Z</time></trkpt>
<trkpt lat="43.761768015" lon="11.279678978"><ele>56</ele><time>2020-02-02T09:13:40Z</time></trkpt>
<trkpt lat="43.761738008" lon="11.279692976"><ele>56</ele><time>2020-02-02T09:13:41Z</time></trkpt>
<trkpt lat="43.761710012" lon="11.279706974"><ele>56</ele><time>2020-02-02T09:13:42Z</time></trkpt>
<trkpt lat="43.761684028" lon="11.279720971"><ele>56</ele><time>2020-02-02T09:13:43Z</time></trkpt>
<trkpt lat="43.761658967" lon="11.279735975"><ele>56</ele><time>2020-02-02T09:13:44Z</time></trkpt>
<trkpt lat="43.761637006" lon="11.279751984"><ele>57</ele><time>2020-02-02T09:13:45Z</time></trkpt>
<trkpt lat="43.761572968" lon="11.27981401"><ele>57</ele><time>2020-02-02T09:13:48Z</time></trkpt>
<trkpt lat="43.761551008" lon="11.279837983"><ele>57</ele><time>2020-02-02T09:13:49Z</time></trkpt>
<trkpt lat="43.761529969" lon="11.279862961"><ele>57</ele><time>2020-02-02T09:13:50Z</time></trkpt>
<trkpt lat="43.761508008" lon="11.279889029"><ele>57</ele><time>2020-02-02T09:13:51Z</time></trkpt>
<trkpt lat="43.761484958" lon="11.279915012"><ele>57</ele><time>2020-02-02T09:13:52Z</time></trkpt>
<trkpt lat="43.761460986" lon="11.279940996"><ele>57</ele><time>2020-02-02T09:13:53Z</time></trkpt>
<trkpt lat="43.761392003" lon="11.280023977"><ele>57</ele><time>2020-02-02T09:13:56Z</time></trkpt>
<trkpt lat="43.761369037" lon="11.280052979"><ele>57</ele><time>2020-02-02T09:13:57Z</time></trkpt>
<trkpt lat="43.761347998" lon="11.28008198"><ele>57</ele><time>2020-02-02T09:13:58Z</time></trkpt>
<trkpt lat="43.761326959" lon="11.280111987"><ele>57</ele><time>2020-02-02T09:13:59Z</time></trkpt>
<trkpt lat="43.76130701" lon="11.280143"><ele>58</ele><time>2020-02-02T09:14:00Z</time></trkpt>
<trkpt lat="43.761288989" lon="11.280174013"><ele>58</ele><time>2020-02-02T09:14:01Z</time></trkpt>
<trkpt lat="43.761254037" lon="11.280237967"><ele>57</ele><time>2020-02-02T09:14:03Z</time></trkpt>
<trkpt lat="43.761237022" lon="11.28026898"><ele>57</ele><time>2020-02-02T09:14:04Z</time></trkpt>
<trkpt lat="43.761219" lon="11.280299993"><ele>57</ele><time>2020-02-02T09:14:05Z</time></trkpt>
<trkpt lat="43.761201985" lon="11.28033"><ele>57</ele><time>2020-02-02T09:14:06Z</time></trkpt>
<trkpt lat="43.761183964" lon="11.280360008"><ele>57</ele><time>2020-02-02T09:14:07Z</time></trkpt>
<trkpt lat="43.761166027" lon="11.280388003"><ele>57</ele><time>2020-02-02T09:14:08Z</time></trkpt>
<trkpt lat="43.761147" lon="11.280413987"><ele>57</ele><time>2020-02-02T09:14:09Z</time></trkpt>
<trkpt lat="43.761126967" lon="11.280439971"><ele>57</ele><time>2020-02-02T09:14:10Z</time></trkpt>
<trkpt lat="43.761106012" lon="11.280464027"><ele>57</ele><time>2020-02-02T09:14:11Z</time></trkpt>
<trkpt lat="43.761084974" lon="11.280486993"><ele>57</ele><time>2020-02-02T09:14:12Z</time></trkpt>
<trkpt lat="43.761063013" lon="11.28050996"><ele>57</ele><time>2020-02-02T09:14:13Z</time></trkpt>
<trkpt lat="43.761040969" lon="11.280532004"><ele>57</ele><time>2020-02-02T09:14:14Z</time></trkpt>
<trkpt lat="43.761019008" lon="11.280552959"><ele>57</ele><time>2020-02-02T09:14:15Z</time></trkpt>
<trkpt lat="43.760996964" lon="11.280573998"><ele>56</ele><time>2020-02-02T09:14:16Z</time></trkpt>
<trkpt lat="43.760975003" lon="11.28059403"><ele>56</ele><time>2020-02-02T09:14:17Z</time></trkpt>
<trkpt lat="43.760952959" lon="11.280614985"><ele>56</ele><time>2020-02-02T09:14:18Z</time></trkpt>
<trkpt lat="43.760932004" lon="11.280636024"><ele>56</ele><time>2020-02-02T09:14:19Z</time></trkpt>
<trkpt lat="43.760910966" lon="11.280657984"><ele>56</ele><time>2020-02-02T09:14:20Z</time></trkpt>
<trkpt lat="43.760891017" lon="11.280680029"><ele>56</ele><time>2020-02-02T09:14:21Z</time></trkpt>
<trkpt lat="43.760870984" lon="11.280704001"><ele>55</ele><time>2020-02-02T09:14:22Z</time></trkpt>
<trkpt lat="43.760852041" lon="11.280729985"><ele>55</ele><time>2020-02-02T09:14:23Z</time></trkpt>
<trkpt lat="43.760833014" lon="11.28075798"><ele>55</ele><time>2020-02-02T09:14:24Z</time></trkpt>
<trkpt lat="43.760815999" lon="11.280787988"><ele>55</ele><time>2020-02-02T09:14:25Z</time></trkpt>
<trkpt lat="43.760798983" lon="11.280821012"><ele>55</ele><time>2020-02-02T09:14:26Z</time></trkpt>
<trkpt lat="43.76075699" lon="11.280924026"><ele>55</ele><time>2020-02-02T09:14:29Z</time></trkpt>
<trkpt lat="43.760745004" lon="11.280954033"><ele>55</ele><time>2020-02-02T09:14:30Z</time></trkpt>
<trkpt lat="43.760736035" lon="11.280982029"><ele>55</ele><time>2020-02-02T09:14:31Z</time></trkpt>
<trkpt lat="43.760728994" lon="11.281007007"><ele>55</ele><time>2020-02-02T09:14:32Z</time></trkpt>
<trkpt lat="43.760724971" lon="11.281031985"><ele>55</ele><time>2020-02-02T09:14:33Z</time></trkpt>
<trkpt lat="43.760723965" lon="11.281056963"><ele>55</ele><time>2020-02-02T09:14:34Z</time></trkpt>
<trkpt lat="43.760726983" lon="11.281084958"><ele>55</ele><time>2020-02-02T09:14:35Z</time></trkpt>
<trkpt lat="43.760734024" lon="11.281115972"><ele>55</ele><time>2020-02-02T09:14:36Z</time></trkpt>
<trkpt lat="43.760743998" lon="11.28114799"><ele>54</ele><time>2020-02-02T09:14:37Z</time></trkpt>
<trkpt lat="43.760755984" lon="11.281182021"><ele>54</ele><time>2020-02-02T09:14:38Z</time></trkpt>
<trkpt lat="43.760769982" lon="11.281215968"><ele>54</ele><time>2020-02-02T09:14:39Z</time></trkpt>
<trkpt lat="43.760785991" lon="11.281251004"><ele>54</ele><time>2020-02-02T09:14:40Z</time></trkpt>
<trkpt lat="43.760802001" lon="11.28128604"><ele>53</ele><time>2020-02-02T09:14:41Z</time></trkpt>
<trkpt lat="43.760819016" lon="11.281319987"><ele>53</ele><time>2020-02-02T09:14:42Z</time></trkpt>
<trkpt lat="43.760836031" lon="11.281352006"><ele>53</ele><time>2020-02-02T09:14:43Z</time></trkpt>
<trkpt lat="43.760852041" lon="11.281383019"><ele>53</ele><time>2020-02-02T09:14:44Z</time></trkpt>
<trkpt lat="43.760867966" lon="11.281413026"><ele>53</ele><time>2020-02-02T09:14:45Z</time></trkpt>
<trkpt lat="43.76088297" lon="11.281443033"><ele>53</ele><time>2020-02-02T09:14:46Z</time></trkpt>
<trkpt lat="43.760897974" lon="11.281472035"><ele>52</ele><time>2020-02-02T09:14:47Z</time></trkpt>
<trkpt lat="43.760912977" lon="11.281502964"><ele>52</ele><time>2020-02-02T09:14:48Z</time></trkpt>
<trkpt lat="43.760927981" lon="11.281533977"><ele>52</ele><time>2020-02-02T09:14:49Z</time></trkpt>
<trkpt lat="43.760942984" lon="11.281567002"><ele>52</ele><time>2020-02-02T09:14:50Z</time></trkpt>
<trkpt lat="43.760957988" lon="11.28160296"><ele>52</ele><time>2020-02-02T09:14:51Z</time></trkpt>
<trkpt lat="43.760973997" lon="11.28164202"><ele>52</ele><time>2020-02-02T09:14:52Z</time></trkpt>
<trkpt lat="43.760991013" lon="11.281685019"><ele>52</ele><time>2020-02-02T09:14:53Z</time></trkpt>
<trkpt lat="43.761007022" lon="11.281729024"><ele>52</ele><time>2020-02-02T09:14:54Z</time></trkpt>
<trkpt lat="43.76102102" lon="11.281774035"><ele>52</ele><time>2020-02-02T09:14:55Z</time></trkpt>
<trkpt lat="43.761050021" lon="11.281904038"><ele>52</ele><time>2020-02-02T09:14:58Z</time></trkpt>
<trkpt lat="43.761053039" lon="11.28194402"><ele>52</ele><time>2020-02-02T09:14:59Z</time></trkpt>
<trkpt lat="43.761053961" lon="11.281984001"><ele>52</ele><time>2020-02-02T09:15:00Z</time></trkpt>
<trkpt lat="43.761053039" lon="11.282024989"><ele>52</ele><time>2020-02-02T09:15:01Z</time></trkpt>
<trkpt lat="43.761050021" lon="11.282065976"><ele>52</ele><time>2020-02-02T09:15:02Z</time></trkpt>
<trkpt lat="43.761044992" lon="11.28210797"><ele>52</ele><time>2020-02-02T09:15:03Z</time></trkpt>
<trkpt lat="43.761039963" lon="11.282150969"><ele>52</ele><time>2020-02-02T09:15:04Z</time></trkpt>
<trkpt lat="43.761030994" lon="11.282291031"><ele>51</ele><time>2020-02-02T09:15:07Z</time></trkpt>
<trkpt lat="43.761032" lon="11.282337969"><ele>51</ele><time>2020-02-02T09:15:08Z</time></trkpt>
<trkpt lat="43.761036023" lon="11.28238298"><ele>51</ele><time>2020-02-02T09:15:09Z</time></trkpt>
<trkpt lat="43.761043986" lon="11.282424973"><ele>51</ele><time>2020-02-02T09:15:10Z</time></trkpt>
<trkpt lat="43.761053961" lon="11.282465039"><ele>51</ele><time>2020-02-02T09:15:11Z</time></trkpt>
<trkpt lat="43.761066031" lon="11.282504015"><ele>51</ele><time>2020-02-02T09:15:12Z</time></trkpt>
<trkpt lat="43.761078017" lon="11.282542991"><ele>51</ele><time>2020-02-02T09:15:13Z</time></trkpt>
<trkpt lat="43.761088997" lon="11.282583978"><ele>51</ele><time>2020-02-02T09:15:14Z</time></trkpt>
<trkpt lat="43.761097966" lon="11.282627983"><ele>51</ele><time>2020-02-02T09:15:15Z</time></trkpt>
<trkpt lat="43.761105007" lon="11.282672994"><ele>52</ele><time>2020-02-02T09:15:16Z</time></trkpt>
<trkpt lat="43.761111042" lon="11.282720016"><ele>52</ele><time>2020-02-02T09:15:17Z</time></trkpt>
<trkpt lat="43.761116993" lon="11.282767039"><ele>52</ele><time>2020-02-02T09:15:18Z</time></trkpt>
<trkpt lat="43.761122022" lon="11.282812972"><ele>52</ele><time>2020-02-02T09:15:19Z</time></trkpt>
<trkpt lat="43.761125961" lon="11.282857982"><ele>52</ele><time>2020-02-02T09:15:20Z</time></trkpt>
<trkpt lat="43.76113099" lon="11.282902993"><ele>52</ele><time>2020-02-02T09:15:21Z</time></trkpt>
<trkpt lat="43.761135014" lon="11.282946998"><ele>52</ele><time>2020-02-02T09:15:22Z</time></trkpt>
<trkpt lat="43.761138031" lon="11.282991003"><ele>52</ele><time>2020-02-02T09:15:23Z</time></trkpt>
<trkpt lat="43.761141971" lon="11.283034002"><ele>52</ele><time>2020-02-02T09:15:24Z</time></trkpt>
<trkpt lat="43.761144988" lon="11.283077002"><ele>52</ele><time>2020-02-02T09:15:25Z</time></trkpt>
<trkpt lat="43.761147" lon="11.283118995"><ele>52</ele><time>2020-02-02T09:15:26Z</time></trkpt>
<trkpt lat="43.761150017" lon="11.283160988"><ele>52</ele><time>2020-02-02T09:15:27Z</time></trkpt>
<trkpt lat="43.761152029" lon="11.283201976"><ele>52</ele><time>2020-02-02T09:15:28Z</time></trkpt>
<trkpt lat="43.761154041" lon="11.283242963"><ele>52</ele><time>2020-02-02T09:15:29Z</time></trkpt>
<trkpt lat="43.761154963" lon="11.283284035"><ele>52</ele><time>2020-02-02T09:15:30Z</time></trkpt>
<trkpt lat="43.761156974" lon="11.283324016"><ele>52</ele><time>2020-02-02T09:15:31Z</time></trkpt>
<trkpt lat="43.76115798" lon="11.283365004"><ele>52</ele><time>2020-02-02T09:15:32Z</time></trkpt>
<trkpt lat="43.76115798" lon="11.283404985"><ele>52</ele><time>2020-02-02T09:15:33Z</time></trkpt>
<trkpt lat="43.761158986" lon="11.283444967"><ele>52</ele><time>2020-02-02T09:15:34Z</time></trkpt>
<trkpt lat="43.761158986" lon="11.283485033"><ele>53</ele><time>2020-02-02T09:15:35Z</time></trkpt></trkseg></trk><wpt lat="43.761158986" lon="11.283485033"><name>Finish km:14.745, Lat:43.7612, Lon:11.2835</name><sym>Finish</sym><ele>53</ele></wpt><wpt lat="43.758160025" lon="11.276805997"><name>km:1, Lat:43.7582, Lon:11.2768</name><ele>86</ele></wpt><wpt lat="43.751115035" lon="11.27399697"><name>km:2, Lat:43.7511, Lon:11.274</name><ele>122</ele></wpt><wpt lat="43.74524896" lon="11.268524006"><name>km:3, Lat:43.7452, Lon:11.2685</name><ele>182</ele></wpt><wpt lat="43.746703975" lon="11.258416018"><name>km:4, Lat:43.7467, Lon:11.2584</name><ele>176</ele></wpt><wpt lat="43.754462013" lon="11.259005014"><name>km:5, Lat:43.7545, Lon:11.259</name><ele>156</ele></wpt><wpt lat="43.755703038" lon="11.256056009"><name>km:6, Lat:43.7557, Lon:11.2561</name><ele>123</ele></wpt><wpt lat="43.753373958" lon="11.246541962"><name>km:7, Lat:43.7534, Lon:11.2465</name><ele>105</ele></wpt><wpt lat="43.747247038" lon="11.250464022"><name>km:8, Lat:43.7472, Lon:11.2505</name><ele>118</ele></wpt><wpt lat="43.74456902" lon="11.24808901"><name>km:9, Lat:43.7446, Lon:11.2481</name><ele>140</ele></wpt><wpt lat="43.747971989" lon="11.257698024"><name>km:10, Lat:43.748, Lon:11.2577</name><ele>173</ele></wpt><wpt lat="43.755837986" lon="11.259704987"><name>km:11, Lat:43.7558, Lon:11.2597</name><ele>145</ele></wpt><wpt lat="43.759819977" lon="11.26632602"><name>km:12, Lat:43.7598, Lon:11.2663</name><ele>128</ele></wpt><wpt lat="43.756374009" lon="11.268987022"><name>km:13, Lat:43.7564, Lon:11.269</name><ele>76</ele></wpt><wpt lat="43.762520961" lon="11.275889017"><name>km:14, Lat:43.7625, Lon:11.2759</name><ele>52</ele></wpt></gpx>
